# Wetter Temperatur Luftdruck Luftfeuchtigkeit Sichtweite Windgeschwindigkeit Windrichtung Zeit
1 Clear 14 1024 46 10000 0.91 312 15:24 01.02.2023
2 Clear 14 1025 45 10000 1.57 288 13:20 01.02.2023
3 Clear 14 1025 44 10000 0.95 296 12:59 01.02.2023
4 Clear 14 1026 43 10000 0.71 273 11:57 01.02.2023
5 Clear 12 1026 59 10000 1.33 187 09:39 01.02.2023
6 Clear 10 1025 65 10000 2.07 80 03:18 01.02.2023
7 Clear 10 1024 71 10000 3.73 57 22:19 31.01.2023
8 Clouds 11 1024 69 10000 3.79 43 20:22 31.01.2023
9 Clouds 11 1023 70 10000 3.38 43 18:59 31.01.2023
10 Clouds 12 1022 71 10000 4.1 344 16:34 31.01.2023
11 Clouds 13 1021 72 10000 7.53 319 15:36 31.01.2023
12 Clouds 13 1021 71 10000 8.7 317 15:18 31.01.2023
13 Clouds 14 1022 60 10000 4.19 331 12:33 31.01.2023
14 Clouds 13 1022 67 10000 3.74 340 11:21 31.01.2023
15 Clouds 12 1022 76 10000 3.41 325 09:54 31.01.2023
16 Clouds 12 1021 65 10000 4.19 310 09:20 31.01.2023
17 Clouds 12 1021 65 10000 4.19 310 08:35 31.01.2023
18 Clouds 12 1020 68 10000 8.74 290 06:18 31.01.2023
19 Clouds 12 1022 66 10000 5.22 258 23:59 30.01.2023
20 Clouds 12 1022 65 10000 4.73 261 23:23 30.01.2023
21 Clouds 12 1022 66 10000 4.72 261 22:32 30.01.2023
22 Clouds 12 1022 68 10000 4.55 292 21:26 30.01.2023
23 Clouds 12 1022 67 10000 4.55 292 20:39 30.01.2023
24 Clouds 12 1021 69 10000 3.29 299 18:25 30.01.2023
25 Clouds 12 1021 64 10000 3.4 310 16:48 30.01.2023
26 Clouds 14 1021 62 10000 2.99 332 14:28 30.01.2023
27 Clouds 14 1022 60 10000 2.78 341 13:33 30.01.2023
28 Clouds 13 1023 66 10000 2.54 354 11:28 30.01.2023
29 Clouds 12 1023 78 10000 2.28 0 09:55 30.01.2023
30 Clouds 10 1022 82 10000 2.59 6 08:59 30.01.2023
31 Clouds 10 1022 84 10000 2.98 4 08:18 30.01.2023
32 Clouds 9 1021 80 10000 1.33 73 01:46 30.01.2023
33 Clouds 11 1021 72 10000 1.58 96 23:35 29.01.2023
34 Clouds 11 1021 71 10000 1.92 95 22:37 29.01.2023
35 Clouds 10 1021 74 10000 1.87 95 21:41 29.01.2023
36 Clouds 10 1020 74 10000 1.88 105 20:50 29.01.2023
37 Clouds 11 1020 73 10000 2 109 20:18 29.01.2023
38 Clouds 11 1020 73 10000 1.94 107 19:32 29.01.2023
39 Clouds 12 1019 69 10000 1.76 93 17:51 29.01.2023
40 Clouds 12 1018 67 10000 1.8 40 16:22 29.01.2023
41 Clouds 12 1018 66 10000 1.8 40 15:50 29.01.2023
42 Clouds 14 1017 63 10000 1.76 36 13:39 29.01.2023
43 Clouds 14 1018 61 10000 1.54 45 12:53 29.01.2023
44 Clouds 14 1018 62 10000 1.38 53 12:24 29.01.2023
45 Clouds 14 1018 61 10000 1.38 53 11:58 29.01.2023
46 Clouds 12 1019 64 10000 1.13 76 11:33 29.01.2023
47 Clouds 12 1018 69 10000 1.02 105 10:20 29.01.2023
48 Clouds 8 1017 72 10000 1.48 146 07:48 29.01.2023
49 Clouds 8 1016 73 10000 0.55 125 03:42 29.01.2023
50 Clouds 9 1015 75 10000 0.96 223 23:49 28.01.2023
51 Clouds 9 1015 76 10000 0.56 260 20:50 28.01.2023
52 Clouds 9 1014 77 10000 0.65 302 19:54 28.01.2023
53 Clouds 10 1014 75 10000 0.45 349 18:49 28.01.2023
54 Clouds 11 1012 69 10000 1.68 327 17:24 28.01.2023
55 Clouds 12 1012 66 10000 2.15 336 16:28 28.01.2023
56 Clouds 12 1012 66 10000 2.15 336 15:59 28.01.2023
57 Clouds 12 1011 65 10000 2.36 335 15:22 28.01.2023
58 Clouds 12 1011 63 10000 2.42 328 13:47 28.01.2023
59 Clouds 12 1012 70 10000 1.85 305 12:21 28.01.2023
60 Clouds 11 1012 71 10000 1.64 284 10:35 28.01.2023
61 Clouds 10 1012 75 10000 1.98 243 09:21 28.01.2023
62 Clouds 9 1010 76 10000 2.48 287 02:27 28.01.2023
63 Clouds 9 1010 77 10000 3.47 292 00:28 28.01.2023
64 Clouds 9 1010 77 10000 3.5 283 22:46 27.01.2023
65 Clouds 10 1009 73 10000 2.98 270 19:47 27.01.2023
66 Clouds 10 1008 72 10000 2.48 262 17:58 27.01.2023
67 Clouds 10 1008 71 10000 1.41 268 17:20 27.01.2023
68 Clouds 11 1008 72 10000 1.41 268 16:41 27.01.2023
69 Clouds 12 1007 70 10000 1.84 0 15:27 27.01.2023
70 Clouds 12 1006 77 10000 2.51 14 14:27 27.01.2023
71 Clouds 11 1006 78 10000 2.51 14 13:33 27.01.2023
72 Clouds 10 1006 83 10000 4.58 354 09:37 27.01.2023
73 Clouds 9 1006 81 10000 4.58 354 08:34 27.01.2023
74 Rain 10 1005 70 10000 3.39 226 00:28 27.01.2023
75 Clouds 10 1005 70 10000 4.18 207 22:20 26.01.2023
76 Clouds 9 1006 72 10000 4.11 208 20:56 26.01.2023
77 Clouds 9 1006 72 10000 4.21 214 20:26 26.01.2023
78 Clouds 10 1006 70 10000 3.99 214 18:19 26.01.2023
79 Clouds 11 1006 65 10000 4.17 221 16:54 26.01.2023
80 Clouds 11 1006 63 10000 4.37 226 16:21 26.01.2023
81 Clouds 11 1006 59 10000 4.37 226 15:43 26.01.2023
82 Clouds 11 1006 59 10000 4.5 232 15:24 26.01.2023
83 Clouds 13 1006 52 10000 4.38 241 13:54 26.01.2023
84 Clouds 12 1007 56 10000 4.41 242 12:31 26.01.2023
85 Clouds 12 1009 61 10000 3.78 220 10:56 26.01.2023
86 Clouds 12 1009 61 10000 3.78 220 10:56 26.01.2023
87 Clouds 11 1009 63 10000 3.35 210 10:26 26.01.2023
88 Clouds 11 1009 63 10000 3.35 210 10:26 26.01.2023
89 Clouds 10 1009 65 10000 3.35 210 09:42 26.01.2023
90 Clouds 8 1009 68 10000 3.29 207 08:25 26.01.2023
91 Clouds 9 1013 72 10000 1.26 274 23:55 25.01.2023
92 Clouds 9 1013 72 10000 1.26 274 23:36 25.01.2023
93 Clouds 10 1014 70 10000 1.44 292 21:53 25.01.2023
94 Clouds 10 1014 69 10000 1.38 304 21:20 25.01.2023
95 Clouds 11 1014 70 10000 1.28 357 18:31 25.01.2023
96 Clouds 12 1014 69 10000 1.43 292 17:22 25.01.2023
97 Clouds 13 1014 57 10000 1.94 289 15:37 25.01.2023
98 Clouds 12 1016 65 10000 1.08 292 12:48 25.01.2023
99 Clouds 11 1018 73 10000 1.1 186 09:56 25.01.2023
100 Clouds 10 1018 75 10000 1.58 170 09:31 25.01.2023
101 Clouds 9 1018 74 10000 2.47 138 06:57 25.01.2023
102 Clouds 10 1019 75 10000 2.89 138 01:26 25.01.2023
103 Clouds 10 1020 73 10000 2.72 150 23:56 24.01.2023
104 Clouds 11 1021 64 10000 3.19 174 21:31 24.01.2023
105 Clouds 12 1021 61 10000 3.15 142 19:58 24.01.2023
106 Clouds 11 1022 61 10000 3.3 144 18:39 24.01.2023
107 Clouds 12 1021 58 10000 3.9 97 17:20 24.01.2023
108 Clouds 12 1021 57 10000 3.9 97 16:52 24.01.2023
109 Clouds 13 1021 53 10000 3.81 81 15:21 24.01.2023
110 Clear 14 1022 54 10000 1.95 96 13:19 24.01.2023
111 Clear 13 1024 55 10000 1.11 132 11:20 24.01.2023
112 Clear 9 1023 69 10000 2.24 163 08:23 24.01.2023
113 Clear 8 1023 70 10000 2.24 163 07:51 24.01.2023
114 Clear 8 1023 70 10000 2.19 174 05:32 24.01.2023
115 Clear 9 1022 67 10000 3.15 180 01:37 24.01.2023
116 Clouds 9 1022 67 10000 3.46 183 23:58 23.01.2023
117 Clouds 9 1022 69 10000 3.82 194 22:27 23.01.2023
118 Clouds 10 1021 70 10000 4 183 19:55 23.01.2023
119 Clouds 10 1020 69 10000 3.97 188 18:37 23.01.2023
120 Clouds 11 1018 69 10000 4.1 201 16:21 23.01.2023
121 Clouds 11 1017 73 10000 4.41 200 14:50 23.01.2023
122 Clouds 10 1017 75 10000 4.68 199 13:44 23.01.2023
123 Clouds 10 1017 71 10000 4.71 194 12:55 23.01.2023
124 Clouds 12 1017 65 10000 4.56 192 11:45 23.01.2023
125 Clouds 10 1017 69 10000 4.8 183 10:25 23.01.2023
126 Clouds 9 1016 74 8556 4.64 177 08:22 23.01.2023
127 Clouds 7 1014 75 10000 4.23 227 23:37 22.01.2023
128 Clouds 7 1014 77 10000 3.84 241 21:49 22.01.2023
129 Clouds 7 1013 81 10000 3.34 252 20:58 22.01.2023
130 Rain 8 1013 78 10000 2.56 256 19:54 22.01.2023
131 Clouds 8 1012 74 10000 2.52 271 19:20 22.01.2023
132 Clouds 8 1012 72 10000 3.09 283 18:23 22.01.2023
133 Clouds 9 1012 69 10000 3.09 283 17:55 22.01.2023
134 Clouds 9 1011 67 10000 2.82 287 17:23 22.01.2023
135 Clouds 10 1010 63 8143 2.9 265 15:23 22.01.2023
136 Clouds 10 1011 69 10000 4.25 277 14:20 22.01.2023
137 Clouds 9 1011 70 8737 3.11 233 13:26 22.01.2023
138 Clouds 10 1011 69 10000 3.31 212 12:28 22.01.2023
139 Clouds 9 1012 68 10000 3.56 199 11:23 22.01.2023
140 Clouds 9 1012 69 10000 3.84 187 09:34 22.01.2023
141 Clouds 9 1011 69 10000 5.02 208 02:58 22.01.2023
142 Clouds 7 1012 73 7617 6.22 207 23:43 21.01.2023
143 Clouds 8 1012 68 8089 6.07 206 22:55 21.01.2023
144 Clouds 7 1012 70 10000 7.23 208 21:28 21.01.2023
145 Clouds 10 1011 62 10000 7.42 218 18:52 21.01.2023
146 Clouds 11 1009 51 10000 11.31 250 15:57 21.01.2023
147 Clouds 12 1008 46 10000 11.16 257 13:50 21.01.2023
148 Clouds 12 1009 50 10000 11.3 260 12:56 21.01.2023
149 Clouds 11 1009 53 10000 11.1 262 11:39 21.01.2023
150 Clouds 11 1009 53 10000 10.83 266 10:48 21.01.2023
151 Clouds 10 1009 63 10000 9.04 261 08:31 21.01.2023
152 Clouds 9 1007 69 6660 7.68 266 04:29 21.01.2023
153 Clouds 10 1006 72 10000 10.32 279 22:28 20.01.2023
154 Clouds 10 1006 74 10000 10.32 279 21:37 20.01.2023
155 Clouds 10 1005 73 10000 10.25 289 20:42 20.01.2023
156 Clouds 10 1004 73 10000 14.55 276 19:20 20.01.2023
157 Clouds 12 981 53 10000 2.68 199 16:21 20.01.2023
158 Clouds 12 981 60 10000 1.34 230 14:45 20.01.2023
159 Clouds 12 984 47 10000 4.02 205 12:50 20.01.2023
160 Clouds 11 988 57 10000 8.42 196 09:48 20.01.2023
161 Clouds 10 990 53 10000 1.79 241 08:22 20.01.2023
162 Clouds 9 991 53 10000 0.45 342 03:33 20.01.2023
163 Clouds 9 992 54 10000 9.85 281 02:28 20.01.2023
164 Clouds 8 992 68 10000 6.91 261 22:32 19.01.2023
165 Clouds 11 1010 62 10000 7.34 259 20:22 19.01.2023
166 Clouds 10 1010 65 10000 6.76 266 19:20 19.01.2023
167 Clouds 9 1009 76 10000 3.75 269 16:25 19.01.2023
168 Clouds 10 1010 67 6722 2.88 262 11:28 19.01.2023
169 Clouds 11 1009 64 10000 3.36 249 08:59 19.01.2023
170 Clouds 12 1004 63 10000 7.01 223 00:45 19.01.2023
171 Clouds 13 1003 74 10000 6.5 252 21:19 18.01.2023
172 Clouds 14 1002 73 10000 6.18 261 20:19 18.01.2023
173 Clouds 13 1002 74 10000 6.18 261 19:37 18.01.2023
174 Clouds 17 1000 57 10000 6.85 217 17:35 18.01.2023
175 Clear 18 1000 50 10000 8.6 213 15:41 18.01.2023
176 Clear 19 1000 45 10000 8.61 205 13:30 18.01.2023
177 Clouds 18 1003 55 10000 4.99 191 11:25 18.01.2023
178 Clouds 15 1003 65 10000 4.97 219 08:44 18.01.2023
179 Clouds 17 1002 56 10000 9.06 230 01:28 18.01.2023
180 Clouds 16 1002 58 10000 9.23 235 23:46 17.01.2023
181 Clouds 16 1002 58 10000 9.51 234 20:38 17.01.2023
182 Clouds 16 1002 55 10000 8.7 223 19:34 17.01.2023
183 Clouds 16 1002 55 10000 8.7 223 19:34 17.01.2023
184 Clouds 16 1001 55 10000 5.99 209 18:30 17.01.2023
185 Clouds 17 1001 56 10000 6.83 222 16:34 17.01.2023
186 Clouds 17 1002 55 10000 8.72 242 14:57 17.01.2023
187 Clouds 18 1002 53 10000 8.92 239 14:20 17.01.2023
188 Clouds 19 1002 49 10000 9.4 232 12:48 17.01.2023
189 Clouds 18 1002 53 10000 8.16 213 11:42 17.01.2023
190 Clouds 16 1003 54 10000 5.61 199 09:35 17.01.2023
191 Clouds 16 1005 56 10000 6.12 196 08:20 17.01.2023
192 Clouds 16 1005 62 10000 5.71 219 05:51 17.01.2023
193 Clouds 15 1007 69 10000 9.22 235 00:57 17.01.2023
194 Clouds 15 1008 69 10000 8.73 230 23:40 16.01.2023
195 Clouds 15 1009 63 10000 7.43 222 21:55 16.01.2023
196 Clouds 15 1009 59 10000 7.08 228 20:46 16.01.2023
197 Clouds 15 1010 56 10000 7.96 236 19:42 16.01.2023
198 Clouds 15 1010 63 10000 7.44 237 18:55 16.01.2023
199 Clouds 15 1010 61 10000 8.18 249 18:21 16.01.2023
200 Clouds 16 1010 63 10000 8.18 249 17:35 16.01.2023
201 Clouds 16 1009 64 10000 10.28 242 15:49 16.01.2023
202 Clouds 17 1010 65 10000 8.7 243 13:39 16.01.2023
203 Clouds 15 1012 75 10000 8.01 242 11:57 16.01.2023
204 Clouds 16 1013 70 10000 7.06 240 10:20 16.01.2023
205 Clouds 14 1017 65 10000 5.12 207 23:38 15.01.2023
206 Clouds 14 1018 65 10000 4.72 206 22:27 15.01.2023
207 Clouds 14 1019 65 10000 4.38 211 20:41 15.01.2023
208 Clouds 14 1019 67 10000 4.21 209 19:59 15.01.2023
209 Clouds 14 1019 67 10000 3.15 195 18:19 15.01.2023
210 Clouds 15 1019 64 10000 1.74 238 16:22 15.01.2023
211 Clouds 17 1020 60 10000 2.01 252 12:39 15.01.2023
212 Clouds 16 1021 60 10000 1.81 260 11:36 15.01.2023
213 Clouds 16 1021 63 10000 1.49 236 10:36 15.01.2023
214 Clouds 14 1021 68 10000 1.77 220 09:36 15.01.2023
215 Clouds 14 1022 69 10000 1.29 323 01:52 15.01.2023
216 Clouds 13 1023 71 10000 3.16 343 23:21 14.01.2023
217 Clouds 13 1023 72 10000 3.51 350 22:26 14.01.2023
218 Clouds 14 1023 71 10000 3.93 352 21:36 14.01.2023
219 Clouds 14 1023 71 10000 3.93 352 21:18 14.01.2023
220 Clouds 14 1023 72 10000 3.93 352 20:39 14.01.2023
221 Clouds 15 1022 71 10000 4.19 346 19:27 14.01.2023
222 Clouds 15 1021 72 10000 4.4 332 17:39 14.01.2023
223 Clouds 16 1021 68 10000 4.14 314 15:30 14.01.2023
224 Clouds 16 1021 65 10000 4.69 314 14:26 14.01.2023
225 Clouds 17 1021 65 10000 4.7 314 13:43 14.01.2023
226 Clear 16 1021 69 10000 4.79 319 11:58 14.01.2023
227 Clear 16 1021 71 10000 3.11 300 10:47 14.01.2023
228 Clear 12 1021 74 10000 2.76 260 08:19 14.01.2023
229 Clouds 14 1022 69 10000 2.42 237 23:49 13.01.2023
230 Clouds 13 1022 71 10000 2.49 226 22:53 13.01.2023
231 Clouds 13 1022 71 10000 2.49 226 22:34 13.01.2023
232 Clouds 13 1022 71 10000 2.89 223 21:46 13.01.2023
233 Clouds 13 1023 71 10000 2.53 233 19:49 13.01.2023
234 Clouds 14 1022 69 10000 1.74 266 18:23 13.01.2023
235 Clouds 14 1021 66 10000 1.92 284 16:57 13.01.2023
236 Clouds 16 1022 61 10000 2.33 293 14:22 13.01.2023
237 Clouds 16 1023 61 10000 1.65 284 12:21 13.01.2023
238 Clouds 15 1023 67 10000 0.44 187 10:28 13.01.2023
239 Clouds 15 1023 72 10000 0.44 187 09:54 13.01.2023
240 Clouds 14 1023 74 10000 0.44 187 09:34 13.01.2023
241 Clouds 13 1022 76 10000 0.91 171 08:28 13.01.2023
242 Clouds 13 1023 76 10000 0.36 26 06:54 13.01.2023
243 Clouds 13 1022 76 10000 0.76 50 05:44 13.01.2023
244 Clouds 14 1022 73 10000 2.87 20 00:45 13.01.2023
245 Clouds 14 1022 77 10000 3.85 12 22:45 12.01.2023
246 Clouds 14 1022 77 10000 3.85 12 22:45 12.01.2023
247 Clouds 14 1021 79 10000 5.56 6 20:56 12.01.2023
248 Clouds 14 1021 79 10000 4.91 0 19:57 12.01.2023
249 Clouds 15 1019 75 10000 2.48 285 17:59 12.01.2023
250 Clouds 15 1018 74 10000 2.35 294 16:48 12.01.2023
251 Clouds 16 1018 65 10000 4.17 318 14:49 12.01.2023
252 Clouds 16 1018 67 10000 4.58 324 14:24 12.01.2023
253 Clouds 16 1018 72 10000 3.2 314 13:29 12.01.2023
254 Clouds 17 1019 73 10000 4.21 268 11:22 12.01.2023
255 Clouds 15 1019 72 10000 3.67 247 09:40 12.01.2023
256 Clouds 13 1019 65 10000 3.2 211 05:59 12.01.2023
257 Clouds 11 1022 67 10000 3.15 221 00:30 12.01.2023
258 Clouds 11 1022 67 10000 3.15 223 23:48 11.01.2023
259 Clouds 11 1022 67 10000 3.15 223 23:30 11.01.2023
260 Clouds 11 1022 67 10000 3.15 223 23:30 11.01.2023
261 Clouds 11 1022 69 10000 2.84 227 22:50 11.01.2023
262 Clear 11 1022 68 10000 2.29 251 20:59 11.01.2023
263 Clear 12 1022 67 10000 2.42 290 18:50 11.01.2023
264 Clear 13 1022 64 10000 3.95 307 17:30 11.01.2023
265 Clear 14 1022 61 10000 5.4 312 15:38 11.01.2023
266 Clear 15 1022 61 10000 6.61 313 13:54 11.01.2023
267 Clear 16 1022 51 10000 6.59 320 12:25 11.01.2023
268 Clear 16 1022 50 10000 6.42 326 11:20 11.01.2023
269 Clear 14 1022 52 10000 4.83 323 08:43 11.01.2023
270 Clear 13 1022 55 10000 4.73 327 07:28 11.01.2023
271 Clear 13 1021 54 10000 4.89 329 05:55 11.01.2023
272 Clear 14 1022 58 10000 6.44 326 23:44 10.01.2023
273 Clear 14 1021 57 10000 6.53 325 22:18 10.01.2023
274 Clear 14 1021 54 10000 6.96 334 21:18 10.01.2023
275 Clear 14 1020 58 10000 8.21 336 19:53 10.01.2023
276 Clear 14 1019 59 10000 7.7 343 19:21 10.01.2023
277 Clear 14 1019 53 10000 7.7 343 18:31 10.01.2023
278 Clear 14 1018 49 10000 10.95 332 17:20 10.01.2023
279 Clear 14 1017 57 10000 12.19 328 15:33 10.01.2023
280 Clear 14 1017 62 10000 12.38 319 14:47 10.01.2023
281 Clouds 12 1016 72 10000 12.05 315 12:54 10.01.2023
282 Clouds 12 1016 71 10000 12.66 300 09:43 10.01.2023
283 Clouds 12 1016 62 9639 13.66 301 08:37 10.01.2023
284 Clouds 14 1015 58 10000 14.02 297 07:56 10.01.2023
285 Clear 14 1015 51 10000 13.95 294 07:23 10.01.2023
286 Clouds 15 1016 53 10000 10.54 279 00:29 10.01.2023
287 Clouds 16 1016 54 10000 8.88 275 21:58 09.01.2023
288 Clouds 17 1015 75 10000 8.7 262 20:50 09.01.2023
289 Clouds 17 1014 53 10000 9.17 263 20:18 09.01.2023
290 Clouds 17 1014 60 10000 8.71 256 18:30 09.01.2023
291 Clouds 17 1014 64 5683 8.78 249 17:49 09.01.2023
292 Clouds 16 1013 77 10000 7.13 223 16:34 09.01.2023
293 Clouds 16 1014 78 10000 6.97 215 15:36 09.01.2023
294 Clouds 16 1014 72 10000 7.21 214 14:59 09.01.2023
295 Clouds 16 1014 72 10000 7.21 214 14:59 09.01.2023
296 Clouds 17 1014 68 10000 7.21 214 14:41 09.01.2023
297 Clouds 18 1015 53 10000 7.56 218 12:54 09.01.2023
298 Clouds 18 1015 62 10000 6.97 209 11:52 09.01.2023
299 Clouds 19 1016 37 10000 9 212 11:19 09.01.2023
300 Clouds 16 1017 47 10000 5.31 187 06:58 09.01.2023
301 Clouds 15 1019 55 10000 4.79 191 02:55 09.01.2023
302 Clear 14 1021 56 10000 4.46 189 00:59 09.01.2023
303 Clear 13 1022 59 10000 3.5 202 22:29 08.01.2023
304 Clear 14 1023 61 10000 3.53 194 21:22 08.01.2023
305 Clear 14 1023 64 10000 3.53 194 20:37 08.01.2023
306 Clear 14 1022 72 10000 3.1 208 18:51 08.01.2023
307 Clear 15 1022 72 10000 2.8 271 17:22 08.01.2023
308 Clear 15 1022 71 10000 2.81 271 16:46 08.01.2023
309 Clear 17 1022 66 10000 3.37 277 15:36 08.01.2023
310 Clear 17 1022 63 10000 2.72 279 13:58 08.01.2023
311 Clear 17 1022 65 10000 2.63 279 13:31 08.01.2023
312 Clear 17 1022 64 10000 2.44 273 12:54 08.01.2023
313 Clouds 17 1024 71 10000 2.16 260 10:52 08.01.2023
314 Clouds 15 1024 78 10000 2.15 254 09:36 08.01.2023
315 Clouds 13 1024 79 10000 2.22 241 07:49 08.01.2023
316 Clouds 14 1024 83 10000 1.16 230 00:30 08.01.2023
317 Clouds 14 1024 79 10000 0.38 209 22:48 07.01.2023
318 Clouds 14 1024 79 10000 0.38 209 22:48 07.01.2023
319 Clouds 14 1025 81 10000 0.17 77 22:24 07.01.2023
320 Clouds 14 1025 81 10000 0.17 77 21:49 07.01.2023
321 Clouds 14 1025 79 10000 0.79 35 20:47 07.01.2023
322 Clouds 13 1024 84 10000 1.24 30 20:24 07.01.2023
323 Clouds 14 1024 79 10000 0.98 87 18:52 07.01.2023
324 Clouds 14 1024 79 10000 0.98 87 18:52 07.01.2023
325 Clouds 14 1024 79 10000 1.07 56 17:59 07.01.2023
326 Clouds 15 1024 79 10000 1.07 56 17:36 07.01.2023
327 Clouds 16 1023 77 10000 1.54 44 16:38 07.01.2023
328 Clouds 16 1023 76 10000 2 28 15:50 07.01.2023
329 Clouds 16 1023 73 10000 2 28 15:30 07.01.2023
330 Clouds 16 1023 69 10000 1.9 18 14:32 07.01.2023
331 Clouds 16 1023 66 10000 1.74 11 13:54 07.01.2023
332 Clouds 16 1023 66 10000 1.74 11 13:54 07.01.2023
333 Clouds 17 1023 67 10000 1.74 11 13:34 07.01.2023
334 Clouds 16 1024 68 10000 1.53 8 12:23 07.01.2023
335 Clouds 17 1024 69 10000 1.53 8 11:52 07.01.2023
336 Clouds 15 1025 78 10000 0.3 167 10:26 07.01.2023
337 Clear 13 1025 81 10000 0.93 171 08:46 07.01.2023
338 Clear 12 1025 76 10000 1.2 167 07:46 07.01.2023
339 Clear 12 1024 81 10000 0.92 149 07:20 07.01.2023
340 Clear 12 1024 82 10000 0.63 129 04:51 07.01.2023
341 Clear 14 1026 78 10000 1.66 120 22:44 06.01.2023
342 Clear 14 1026 78 10000 1.68 116 22:19 06.01.2023
343 Clear 15 1026 78 10000 1.68 114 21:28 06.01.2023
344 Clear 13 1025 80 10000 1.77 114 19:58 06.01.2023
345 Clear 13 1025 80 10000 1.77 114 19:40 06.01.2023
346 Clear 13 1025 80 10000 2.22 100 19:22 06.01.2023
347 Clear 13 1025 79 10000 2.22 100 18:43 06.01.2023
348 Clear 14 1024 77 10000 2.24 68 17:31 06.01.2023
349 Clear 15 1024 76 10000 2.24 68 16:50 06.01.2023
350 Clear 15 1024 76 10000 2.42 60 16:20 06.01.2023
351 Clear 16 1024 75 10000 2.42 60 15:50 06.01.2023
352 Clear 16 1024 73 10000 2.46 57 14:55 06.01.2023
353 Clouds 16 1024 72 10000 2 60 12:50 06.01.2023
354 Clouds 16 1025 73 10000 1.53 69 10:59 06.01.2023
355 Clouds 14 1025 80 10000 1.18 125 09:27 06.01.2023
356 Clouds 12 1025 80 10000 1.22 120 07:46 06.01.2023
357 Clear 12 1025 78 10000 0.52 233 01:52 06.01.2023
358 Clear 11 1026 85 10000 0.68 260 22:55 05.01.2023
359 Clear 11 1026 85 10000 0.66 258 22:55 05.01.2023
360 Clouds 11 1025 85 10000 0.78 248 21:54 05.01.2023
361 Clouds 11 1025 83 10000 0.61 249 19:46 05.01.2023
362 Clear 15 1025 77 10000 1.24 18 17:28 05.01.2023
363 Clear 15 1025 75 10000 1.24 18 16:30 05.01.2023
364 Clear 16 1025 74 10000 1.44 13 15:47 05.01.2023
365 Clear 16 1025 73 10000 1.45 9 14:51 05.01.2023
366 Clear 16 1025 73 10000 1.48 2 12:49 05.01.2023
367 Clear 16 1026 73 10000 1.12 13 12:27 05.01.2023
368 Clear 14 1027 76 10000 0.47 102 09:55 05.01.2023
369 Clear 13 1027 78 10000 0.87 165 08:41 05.01.2023
370 Clear 11 1027 78 10000 1.05 158 07:20 05.01.2023
371 Clouds 12 1027 73 10000 1.08 157 06:36 05.01.2023
372 Clouds 12 1028 81 10000 1.63 142 00:25 05.01.2023
373 Clouds 13 1028 81 10000 1.75 133 21:33 04.01.2023
374 Clouds 13 1028 81 10000 1.75 128 20:58 04.01.2023
375 Clear 13 1028 80 10000 1.82 123 19:57 04.01.2023
376 Clear 13 1028 80 10000 1.76 124 19:34 04.01.2023
377 Clear 14 1028 79 10000 1.41 119 18:37 04.01.2023
378 Clear 16 1028 76 10000 1.2 61 16:32 04.01.2023
379 Clear 16 1028 76 10000 1.27 38 16:32 04.01.2023
380 Clear 16 1028 75 10000 1.28 37 15:56 04.01.2023
381 Clear 16 1028 73 10000 1.36 24 14:47 04.01.2023
382 Clear 17 1029 69 10000 0.65 355 11:43 04.01.2023
383 Clear 17 1029 69 10000 0.22 323 11:21 04.01.2023
384 Clear 16 1029 70 10000 0.22 323 10:43 04.01.2023
385 Clear 16 1029 71 10000 0.64 189 10:23 04.01.2023
386 Clear 13 1029 76 10000 1.4 170 08:55 04.01.2023
387 Clear 13 1029 77 10000 1.32 173 05:36 04.01.2023
388 Clouds 13 1029 77 10000 1.42 188 00:32 04.01.2023
389 Clouds 14 1029 71 10000 1.57 178 23:35 03.01.2023
390 Clouds 14 1029 71 10000 1.74 168 22:54 03.01.2023
391 Clouds 14 1030 74 10000 2.14 152 20:58 03.01.2023
392 Clouds 14 1030 75 10000 2.19 147 19:50 03.01.2023
393 Clouds 15 1029 74 10000 1.84 123 17:38 03.01.2023
394 Clouds 16 1029 72 10000 1.44 110 16:39 03.01.2023
395 Clouds 18 1028 63 10000 0.88 32 13:58 03.01.2023
396 Clouds 18 1029 63 10000 0.58 7 13:31 03.01.2023
397 Clouds 17 1029 66 10000 0.58 8 12:58 03.01.2023
398 Clouds 17 1029 67 10000 0.12 286 12:30 03.01.2023
399 Clouds 17 1029 69 10000 0.12 286 11:32 03.01.2023
400 Clouds 13 1030 71 10000 1.84 170 07:50 03.01.2023
401 Clear 14 1029 68 10000 1.15 191 04:23 03.01.2023
402 Clear 14 1029 67 10000 1.15 191 03:44 03.01.2023
403 Clear 14 1030 67 10000 1.24 189 03:20 03.01.2023
404 Clouds 13 1030 76 10000 1.67 174 22:44 02.01.2023
405 Clouds 13 1030 77 10000 1.67 179 22:24 02.01.2023
406 Clear 14 1030 77 10000 1.61 179 20:40 02.01.2023
407 Clear 15 1030 77 10000 1.59 174 19:54 02.01.2023
408 Clouds 15 1030 74 10000 0.98 128 18:26 02.01.2023
409 Clear 17 1028 69 10000 1.29 49 15:31 02.01.2023
410 Clear 17 1029 64 10000 1.32 39 13:39 02.01.2023
411 Clouds 17 1030 64 10000 0.21 293 12:18 02.01.2023
412 Clear 17 1030 63 10000 0.48 216 10:53 02.01.2023
413 Clouds 12 1030 62 10000 1.52 186 07:39 02.01.2023
414 Clouds 13 1030 71 10000 1.45 193 02:48 02.01.2023
415 Clear 14 1031 80 10000 1.72 171 22:41 01.01.2023
416 Clear 14 1031 81 10000 1.75 168 21:39 01.01.2023
417 Clear 14 1031 80 10000 1.65 171 20:48 01.01.2023
418 Clear 14 1031 80 10000 1.62 157 20:18 01.01.2023
419 Clear 14 1030 80 10000 1.47 153 18:39 01.01.2023
420 Clear 14 1029 78 10000 1.19 118 17:23 01.01.2023
421 Clear 15 1029 75 10000 1.19 118 16:34 01.01.2023
422 Clear 17 1029 68 10000 1.15 20 15:27 01.01.2023
423 Clear 17 1029 65 10000 0.87 24 13:42 01.01.2023
424 Clear 17 1029 65 10000 0.88 74 12:41 01.01.2023
425 Clear 17 1030 65 10000 1.24 95 11:39 01.01.2023
426 Clear 17 1031 66 10000 1.45 105 10:47 01.01.2023
427 Clear 13 1031 72 10000 2.13 132 08:59 01.01.2023
428 Clear 13 1031 66 10000 1.99 142 08:23 01.01.2023
429 Clear 12 1031 64 10000 1.88 148 07:27 01.01.2023
430 Clear 13 1031 68 10000 1.86 148 05:58 01.01.2023
431 Clear 14 1032 73 10000 1.33 147 23:44 31.12.2022
432 Clear 14 1031 73 10000 1.18 155 22:59 31.12.2022
433 Clear 14 1031 73 10000 1.45 162 21:42 31.12.2022
434 Clear 14 1031 73 10000 1.76 154 21:20 31.12.2022
435 Clear 14 1031 77 10000 1.9 146 19:43 31.12.2022
436 Clear 15 1031 75 10000 1.95 137 18:45 31.12.2022
437 Clear 15 1031 75 10000 1.98 137 18:45 31.12.2022
438 Clear 15 1030 75 10000 1.3 130 18:20 31.12.2022
439 Clear 15 1030 75 10000 1.28 129 17:55 31.12.2022
440 Clear 15 1030 74 10000 0.89 72 17:00 31.12.2022
441 Clear 16 1029 74 10000 0.87 25 16:30 31.12.2022
442 Clear 17 1029 71 10000 1.15 359 15:28 31.12.2022
443 Clear 17 1029 70 10000 1.3 339 13:53 31.12.2022
444 Clouds 17 1030 66 10000 1.2 322 12:47 31.12.2022
445 Clouds 17 1030 68 10000 0.6 328 12:21 31.12.2022
446 Clouds 17 1030 69 10000 0.6 328 11:51 31.12.2022
447 Clouds 17 1031 67 10000 0.09 332 10:49 31.12.2022
448 Clouds 15 1031 62 10000 0.61 231 09:56 31.12.2022
449 Clouds 15 1031 63 10000 0.61 231 09:36 31.12.2022
450 Clouds 13 1030 53 10000 1.47 242 07:58 31.12.2022
451 Clear 13 1028 67 10000 1.68 221 00:59 31.12.2022
452 Clear 13 1028 73 10000 1.69 216 00:24 31.12.2022
453 Clear 14 1028 74 10000 1.71 207 22:55 30.12.2022
454 Clear 14 1028 74 10000 2 217 22:18 30.12.2022
455 Clear 14 1028 73 10000 2 217 21:37 30.12.2022
456 Clear 15 1028 66 10000 2 246 20:20 30.12.2022
457 Clouds 15 1027 67 10000 2.49 257 18:28 30.12.2022
458 Clouds 15 1027 68 10000 2.49 257 17:33 30.12.2022
459 Clouds 16 1026 67 10000 2.59 263 16:41 30.12.2022
460 Clouds 18 1026 60 10000 2.05 277 14:54 30.12.2022
461 Clouds 19 1026 52 10000 2.19 283 12:52 30.12.2022
462 Clouds 14 1025 68 10000 2.41 199 08:23 30.12.2022
463 Clouds 15 1024 54 10000 2.44 189 03:50 30.12.2022
464 Clouds 14 1025 53 10000 2.2 187 02:26 30.12.2022
465 Clouds 15 1025 48 10000 1.68 182 23:41 29.12.2022
466 Clouds 15 1025 51 10000 2.09 175 21:46 29.12.2022
467 Clouds 14 1025 61 10000 2.3 163 20:54 29.12.2022
468 Clouds 14 1025 63 10000 2.3 163 20:34 29.12.2022
469 Clouds 15 1025 74 10000 2.39 157 18:38 29.12.2022
470 Clouds 15 1025 73 10000 2.16 149 17:53 29.12.2022
471 Clouds 16 1024 72 10000 1.95 137 17:20 29.12.2022
472 Clouds 15 1024 70 10000 1.95 137 16:54 29.12.2022
473 Clouds 16 1024 65 10000 1.57 123 15:47 29.12.2022
474 Clouds 17 1025 56 10000 1.1 127 13:34 29.12.2022
475 Clouds 17 1025 60 10000 0.85 144 11:48 29.12.2022
476 Clouds 14 1027 64 10000 1.63 170 09:29 29.12.2022
477 Clouds 12 1026 71 10000 1.85 159 02:31 29.12.2022
478 Clouds 13 1027 78 10000 2.06 148 23:28 28.12.2022
479 Clouds 14 1027 83 10000 2.04 145 21:55 28.12.2022
480 Clouds 14 1027 83 10000 1.85 144 21:19 28.12.2022
481 Clear 15 1027 85 10000 1.79 138 19:52 28.12.2022
482 Clear 15 1026 85 10000 1.03 150 17:55 28.12.2022
483 Clear 16 1026 83 10000 0.74 37 16:20 28.12.2022
484 Clear 17 1026 73 10000 1.44 342 13:46 28.12.2022
485 Clear 17 1026 75 10000 1.12 327 12:48 28.12.2022
486 Clear 17 1027 74 10000 0.44 55 11:33 28.12.2022
487 Clear 14 1027 85 10000 1 182 09:28 28.12.2022
488 Clear 13 1027 84 10000 1.03 187 07:31 28.12.2022
489 Clear 13 1027 80 10000 0.92 176 06:44 28.12.2022
490 Clouds 14 1027 85 10000 2 257 00:46 28.12.2022
491 Clouds 14 1028 86 10000 1.89 243 21:18 27.12.2022
492 Clouds 15 1028 88 10000 1.82 243 19:50 27.12.2022
493 Clouds 16 1026 88 10000 2.1 257 18:21 27.12.2022
494 Clouds 16 1026 83 10000 2.01 268 16:58 27.12.2022
495 Clouds 17 1026 79 10000 1.85 274 15:53 27.12.2022
496 Clouds 19 1026 70 10000 2.33 299 13:57 27.12.2022
497 Clouds 19 1027 69 10000 2.02 271 12:22 27.12.2022
498 Clear 18 1028 84 10000 1.04 243 09:47 27.12.2022
499 Clear 16 1027 79 10000 1.05 213 09:23 27.12.2022
500 Clear 13 1027 54 10000 1.05 213 08:44 27.12.2022
501 Clear 14 1027 66 10000 1.36 186 04:33 27.12.2022
502 Clear 15 1028 67 10000 1.73 187 23:25 26.12.2022
503 Clear 15 1028 70 10000 2.08 178 21:39 26.12.2022
504 Clear 15 1028 76 10000 2.36 166 20:43 26.12.2022
505 Clear 16 1028 81 10000 2.34 154 18:50 26.12.2022
506 Clear 16 1028 83 10000 2.17 148 17:52 26.12.2022
507 Clear 17 1028 78 10000 1.6 145 16:38 26.12.2022
508 Clear 19 1027 61 10000 0.7 105 14:49 26.12.2022
509 Clear 20 1027 60 10000 0.09 84 12:53 26.12.2022
510 Clear 17 1028 89 10000 1.22 195 09:27 26.12.2022
511 Clear 14 1027 74 10000 0.99 205 02:53 26.12.2022
512 Clear 14 1026 83 10000 1.15 198 23:38 25.12.2022
513 Clear 14 1026 83 10000 1.19 191 22:42 25.12.2022
514 Clear 14 1026 83 10000 1.31 181 21:50 25.12.2022
515 Clear 15 1025 85 10000 1.52 160 19:28 25.12.2022
516 Clear 16 1025 84 10000 1.57 157 17:52 25.12.2022
517 Clear 16 1025 83 10000 1.57 157 17:34 25.12.2022
518 Clear 16 1024 83 10000 0.79 138 16:38 25.12.2022
519 Clear 19 1024 73 10000 0.56 68 13:28 25.12.2022
520 Clear 19 1024 80 10000 0.88 100 11:21 25.12.2022
521 Clouds 13 1005 82 10000 0.68 134 02:57 25.12.2022
522 Clouds 15 1004 83 10000 1.33 197 22:38 24.12.2022
523 Clouds 15 1021 86 10000 1.09 235 19:52 24.12.2022
524 Clouds 17 1019 81 10000 1.7 263 16:59 24.12.2022
525 Clouds 19 1019 71 10000 2.61 284 14:56 24.12.2022
526 Clouds 19 1019 70 10000 2.95 291 13:56 24.12.2022
527 Clouds 19 1019 70 10000 3.5 269 11:44 24.12.2022
528 Clouds 18 1019 72 10000 3.25 244 10:23 24.12.2022
529 Clouds 17 1019 78 10000 3.25 244 09:37 24.12.2022
530 Clouds 16 1019 78 10000 3.48 230 07:37 24.12.2022
531 Clear 16 1019 77 10000 3.41 224 02:51 24.12.2022
532 Clouds 16 1019 76 10000 3.83 237 00:18 24.12.2022
533 Clear 15 1020 78 10000 3.67 240 22:30 23.12.2022
534 Clear 16 1020 78 10000 3.59 239 21:30 23.12.2022
535 Clear 16 1020 78 10000 3.59 239 21:30 23.12.2022
536 Clear 17 1020 78 10000 3.18 243 19:40 23.12.2022
537 Clouds 17 1019 78 10000 3.89 255 19:22 23.12.2022
538 Clouds 17 1020 78 10000 3.16 261 18:53 23.12.2022
539 Clouds 17 1019 78 10000 3.49 261 18:21 23.12.2022
540 Clouds 17 1019 77 10000 3.52 272 16:48 23.12.2022
541 Clouds 17 1019 76 10000 4.21 276 15:45 23.12.2022
542 Clouds 18 1019 67 10000 4.78 268 12:31 23.12.2022
543 Clouds 17 1020 71 10000 4.28 248 09:53 23.12.2022
544 Clouds 16 1020 72 10000 4.28 248 09:34 23.12.2022
545 Clouds 14 1020 72 10000 4.23 241 07:23 23.12.2022
546 Clouds 15 1020 70 10000 4.25 239 06:49 23.12.2022
547 Clear 14 1021 73 10000 2.96 234 23:24 22.12.2022
548 Clear 14 1021 74 10000 2.97 234 22:59 22.12.2022
549 Clear 14 1021 75 10000 2.42 242 21:49 22.12.2022
550 Clear 14 1021 78 10000 2.83 283 19:47 22.12.2022
551 Clouds 14 1020 80 10000 3.05 291 19:18 22.12.2022
552 Clouds 16 1020 76 10000 3.14 296 17:42 22.12.2022
553 Clouds 16 1019 73 10000 2.3 292 16:42 22.12.2022
554 Clouds 17 1019 72 10000 1.86 293 15:36 22.12.2022
555 Clouds 17 1019 69 10000 1.95 306 14:58 22.12.2022
556 Clouds 17 1019 66 10000 1.35 309 14:18 22.12.2022
557 Clear 17 1019 70 10000 1.29 315 13:19 22.12.2022
558 Clear 17 1019 68 10000 1.3 318 13:19 22.12.2022
559 Clear 17 1020 70 10000 1.42 309 11:36 22.12.2022
560 Clear 16 1020 72 10000 0.75 184 10:31 22.12.2022
561 Clear 14 1020 77 10000 1.04 174 09:22 22.12.2022
562 Clear 13 1020 78 10000 1.04 174 08:35 22.12.2022
563 Clouds 12 1020 79 10000 1.48 179 07:24 22.12.2022
564 Clouds 12 1020 78 10000 1.72 223 04:18 22.12.2022
565 Clear 12 1021 76 10000 1.97 205 00:25 22.12.2022
566 Clear 12 1021 75 10000 1.92 191 22:26 21.12.2022
567 Clear 12 1021 75 10000 1.92 191 21:35 21.12.2022
568 Clear 12 1022 74 10000 2.05 177 20:56 21.12.2022
569 Clear 13 1022 73 10000 1.67 190 20:30 21.12.2022
570 Clear 13 1022 73 10000 1.67 190 19:45 21.12.2022
571 Clear 13 1022 72 10000 1.48 189 19:26 21.12.2022
572 Clear 13 1022 72 10000 1.7 176 18:48 21.12.2022
573 Clear 13 1021 72 10000 1.62 156 18:28 21.12.2022
574 Clear 15 1022 65 10000 0.5 57 15:38 21.12.2022
575 Clear 16 1022 63 10000 0.97 347 13:46 21.12.2022
576 Clear 15 1023 61 10000 0.6 285 11:48 21.12.2022
577 Clear 15 1024 64 10000 0.84 276 11:20 21.12.2022
578 Clear 14 1025 69 10000 1.04 252 09:50 21.12.2022
579 Clear 12 1025 73 10000 1.21 224 08:48 21.12.2022
580 Clear 11 1025 75 10000 1.22 209 06:29 21.12.2022
581 Clear 11 1027 76 10000 1.17 165 00:22 21.12.2022
582 Clear 12 1027 73 10000 1.85 153 21:47 20.12.2022
583 Clear 13 1028 72 10000 1.83 147 20:33 20.12.2022
584 Clear 13 1028 71 10000 1.53 133 19:43 20.12.2022
585 Clear 13 1028 73 10000 1.38 121 18:41 20.12.2022
586 Clear 13 1027 73 10000 1.4 99 18:21 20.12.2022
587 Clear 13 1027 72 10000 1.4 99 17:46 20.12.2022
588 Clear 13 1027 69 10000 1.55 83 16:57 20.12.2022
589 Clear 15 1027 63 10000 1.57 57 15:49 20.12.2022
590 Clear 16 1027 59 10000 1.38 48 14:50 20.12.2022
591 Clear 16 1027 59 10000 1.38 48 14:50 20.12.2022
592 Clear 16 1027 59 10000 1.18 49 14:29 20.12.2022
593 Clear 16 1028 60 10000 0.9 71 13:25 20.12.2022
594 Clear 16 1028 61 10000 1.06 108 12:32 20.12.2022
595 Clear 16 1028 63 10000 1.06 108 11:42 20.12.2022
596 Clear 14 1030 77 10000 1.67 114 09:41 20.12.2022
597 Clear 12 1030 80 10000 1.51 136 04:41 20.12.2022
598 Clear 13 1031 79 10000 1.69 115 23:46 19.12.2022
599 Clear 13 1032 78 10000 1.69 102 22:21 19.12.2022
600 Clear 14 1032 78 10000 1.86 92 20:48 19.12.2022
601 Clear 14 1032 79 10000 1.95 86 19:40 19.12.2022
602 Clear 14 1031 78 10000 2.07 81 18:43 19.12.2022
603 Clear 15 1031 77 10000 2.19 71 17:36 19.12.2022
604 Clear 16 1031 74 10000 2.27 43 14:45 19.12.2022
605 Clear 17 1030 74 10000 1.57 38 12:34 19.12.2022
606 Clear 16 1031 77 10000 1.5 24 11:30 19.12.2022
607 Clear 13 1031 85 10000 1.01 137 07:46 19.12.2022
608 Clear 13 1031 85 10000 1.22 117 05:37 19.12.2022
609 Clear 14 1030 84 10000 1.56 114 22:59 18.12.2022
610 Clear 14 1030 84 10000 1.78 122 21:47 18.12.2022
611 Clear 14 1030 84 10000 2.02 115 21:24 18.12.2022
612 Clear 15 1030 84 10000 1.8 114 20:52 18.12.2022
613 Clear 15 1029 83 10000 1.52 107 19:43 18.12.2022
614 Clear 15 1029 83 10000 1.44 111 18:57 18.12.2022
615 Clear 15 1028 82 10000 1.14 85 17:52 18.12.2022
616 Clear 17 1011 70 10000 1.23 43 15:41 18.12.2022
617 Clear 18 1010 68 10000 1.31 42 15:23 18.12.2022
618 Clouds 18 1027 71 10000 1.55 25 14:29 18.12.2022
619 Clouds 19 1010 65 10000 1.44 19 12:58 18.12.2022
620 Clouds 19 1010 66 10000 1.44 19 12:32 18.12.2022
621 Clear 18 1010 66 10000 0.89 4 11:48 18.12.2022
622 Clear 15 1010 78 10000 0.61 185 09:24 18.12.2022
623 Clear 14 1010 80 10000 0.61 185 08:46 18.12.2022
624 Clouds 13 1008 80 10000 1.21 209 06:24 18.12.2022
625 Clouds 14 1024 77 10000 0.97 230 04:41 18.12.2022
626 Clouds 14 1024 77 10000 1.21 228 01:49 18.12.2022
627 Clouds 15 1023 78 10000 1.65 218 22:57 17.12.2022
628 Clouds 15 1022 79 10000 1.7 230 20:37 17.12.2022
629 Clouds 16 1019 78 10000 1.98 275 17:21 17.12.2022
630 Clouds 17 1019 77 10000 1.98 275 17:21 17.12.2022
631 Clouds 18 1019 71 10000 2.88 286 15:19 17.12.2022
632 Clouds 18 1018 64 10000 2.36 270 13:18 17.12.2022
633 Clouds 19 1018 58 10000 2.44 256 11:19 17.12.2022
634 Clouds 19 1018 60 10000 2.44 256 10:40 17.12.2022
635 Clouds 16 1017 71 10000 2.51 225 08:37 17.12.2022
636 Clouds 15 1016 70 10000 3.18 221 06:47 17.12.2022
637 Clouds 15 1015 74 10000 2.79 221 04:41 17.12.2022
638 Clouds 17 1014 76 10000 2.94 240 22:53 16.12.2022
639 Clouds 18 1012 65 10000 3.76 287 20:27 16.12.2022
640 Clouds 17 1010 76 10000 4.3 281 18:22 16.12.2022
641 Clouds 19 1007 82 10000 1.58 317 15:32 16.12.2022
642 Clouds 19 1007 76 10000 1.58 317 14:42 16.12.2022
643 Clouds 24 1007 55 10000 0.71 317 12:49 16.12.2022
644 Clouds 23 1008 56 10000 0.61 112 11:56 16.12.2022
645 Clouds 22 1009 51 10000 0.95 98 09:40 16.12.2022
646 Clouds 20 1009 76 10000 1.31 147 08:39 16.12.2022
647 Clouds 21 1008 78 10000 2.14 176 07:54 16.12.2022
648 Clear 22 1008 77 10000 2.9 178 06:45 16.12.2022
649 Clouds 26 1008 65 10000 5.86 179 22:33 15.12.2022
650 Clouds 25 1008 66 10000 5.45 182 21:30 15.12.2022
651 Clouds 25 1008 65 10000 5.8 175 19:49 15.12.2022
652 Clouds 24 1008 67 10000 5.77 181 18:54 15.12.2022
653 Clouds 21 1008 60 10000 5.31 183 17:28 15.12.2022
654 Clouds 22 1008 54 10000 4.54 164 15:47 15.12.2022
655 Clouds 23 1008 58 10000 4.24 138 14:57 15.12.2022
656 Clouds 21 1009 69 10000 3.67 133 12:55 15.12.2022
657 Clouds 21 1010 67 10000 3.35 135 12:24 15.12.2022
658 Clouds 17 1011 79 10000 2.1 152 08:59 15.12.2022
659 Clouds 17 1011 78 10000 2.1 152 08:33 15.12.2022
660 Clouds 16 1010 73 10000 2.92 201 05:45 15.12.2022
661 Clouds 17 1009 69 10000 3.75 228 02:25 15.12.2022
662 Clear 19 1008 68 10000 6.36 227 21:24 14.12.2022
663 Clear 19 1008 66 10000 6.36 227 20:50 14.12.2022
664 Clouds 20 1008 65 10000 6.26 234 19:53 14.12.2022
665 Clouds 20 1006 66 10000 6.76 221 17:41 14.12.2022
666 Clouds 20 1006 67 10000 6.77 213 16:54 14.12.2022
667 Clouds 21 1006 68 10000 7.87 243 14:59 14.12.2022
668 Clouds 21 1006 63 10000 8.28 221 13:21 14.12.2022
669 Clouds 21 1007 65 10000 6.79 206 11:20 14.12.2022
670 Clouds 20 1007 69 10000 6.71 211 10:23 14.12.2022
671 Clouds 19 1007 74 10000 5.54 203 08:46 14.12.2022
672 Clouds 18 1009 75 10000 4.19 211 22:46 13.12.2022
673 Clouds 18 1009 74 10000 4.15 213 21:46 13.12.2022
674 Clouds 18 1009 74 10000 4.06 220 20:48 13.12.2022
675 Clouds 18 1009 76 10000 4.15 225 19:39 13.12.2022
676 Clouds 19 1007 73 10000 4.9 244 16:42 13.12.2022
677 Clouds 21 1006 68 10000 6.93 251 14:59 13.12.2022
678 Clouds 20 1006 73 10000 6.79 244 13:54 13.12.2022
679 Clouds 19 1007 74 10000 6.88 215 10:55 13.12.2022
680 Clouds 19 1007 76 10000 6.89 215 10:35 13.12.2022
681 Clouds 18 1007 76 10000 7.26 210 09:21 13.12.2022
682 Clouds 13 1012 76 10000 2.73 200 22:55 12.12.2022
683 Clouds 13 1012 76 10000 2.36 219 22:21 12.12.2022
684 Clouds 13 1012 78 10000 2.85 231 20:43 12.12.2022
685 Clouds 13 1012 80 10000 2.57 260 18:32 12.12.2022
686 Clouds 13 1010 86 10000 3.94 313 16:23 12.12.2022
687 Clouds 14 1009 92 10000 3.68 322 14:26 12.12.2022
688 Clouds 14 1008 94 2827 5.81 355 11:47 12.12.2022
689 Clouds 15 1005 88 10000 0.69 122 09:19 12.12.2022
690 Clouds 15 1005 76 10000 1.54 153 04:54 12.12.2022
691 Clouds 15 1007 75 10000 2.11 230 01:52 12.12.2022
692 Clouds 15 1008 68 10000 4.07 235 22:19 11.12.2022
693 Clouds 16 1008 64 10000 4.47 238 20:42 11.12.2022
694 Clouds 16 1008 64 10000 5.19 246 19:41 11.12.2022
695 Clouds 16 1007 61 10000 5.75 249 18:56 11.12.2022
696 Clouds 16 1007 58 10000 6.46 251 17:58 11.12.2022
697 Clouds 16 1007 59 10000 6.41 256 17:29 11.12.2022
698 Clouds 17 1007 59 10000 6.41 256 16:50 11.12.2022
699 Clouds 17 1007 57 10000 7.19 261 15:46 11.12.2022
700 Clouds 18 1006 52 10000 8.67 278 14:21 11.12.2022
701 Clouds 18 1007 50 10000 9.46 277 12:44 11.12.2022
702 Clouds 17 1008 50 10000 9.15 272 11:30 11.12.2022
703 Clouds 15 1006 64 10000 8.63 283 06:25 11.12.2022
704 Clouds 17 1004 67 10000 9.39 271 00:32 11.12.2022
705 Clouds 17 1003 70 10000 8.19 248 22:53 10.12.2022
706 Clouds 17 1003 71 10000 8.19 248 22:33 10.12.2022
707 Clouds 18 1002 66 10000 8.58 242 21:19 10.12.2022
708 Clouds 18 1002 64 10000 7.71 238 20:26 10.12.2022
709 Clouds 18 1002 64 10000 7.79 237 18:46 10.12.2022
710 Clouds 18 1002 68 10000 6.24 225 16:48 10.12.2022
711 Clouds 19 1002 67 10000 5.13 216 15:58 10.12.2022
712 Clouds 19 1002 69 10000 5.13 216 15:37 10.12.2022
713 Clouds 18 1003 73 6139 5 231 14:21 10.12.2022
714 Clouds 18 1003 76 10000 4.39 228 12:49 10.12.2022
715 Clouds 19 1003 74 10000 4.09 230 11:35 10.12.2022
716 Clouds 20 1004 71 10000 4.74 225 10:34 10.12.2022
717 Clouds 20 1003 65 10000 6.37 208 08:37 10.12.2022
718 Clouds 20 1003 63 10000 6.77 197 07:19 10.12.2022
719 Clouds 19 1007 60 10000 4.09 184 23:56 09.12.2022
720 Clouds 19 1008 60 10000 3.89 181 22:44 09.12.2022
721 Clouds 19 1008 62 10000 3.86 181 21:48 09.12.2022
722 Clouds 18 1008 62 10000 4.17 178 21:21 09.12.2022
723 Clouds 19 1008 59 10000 4.18 176 20:41 09.12.2022
724 Clouds 19 1008 63 10000 4.31 179 18:40 09.12.2022
725 Clouds 19 1008 62 10000 4.47 182 17:45 09.12.2022
726 Clouds 19 1008 59 10000 4.3 175 16:30 09.12.2022
727 Clouds 19 1008 61 10000 3.83 174 15:33 09.12.2022
728 Clouds 19 1009 59 10000 3.74 189 14:25 09.12.2022
729 Clouds 19 1010 66 10000 3.66 174 10:52 09.12.2022
730 Clouds 19 1010 66 10000 3.66 174 10:32 09.12.2022
731 Clouds 18 1011 66 10000 4.31 182 08:24 09.12.2022
732 Clouds 17 1012 63 10000 4.11 172 03:18 09.12.2022
733 Clouds 16 1013 66 10000 4.03 170 23:37 08.12.2022
734 Clouds 16 1013 65 10000 2.85 174 20:56 08.12.2022
735 Clouds 16 1013 66 10000 3.04 158 20:21 08.12.2022
736 Clouds 16 1013 71 10000 2.21 159 16:52 08.12.2022
737 Clouds 18 1013 65 10000 0.93 203 14:46 08.12.2022
738 Clouds 18 1013 62 10000 1.2 244 14:21 08.12.2022
739 Clear 17 1014 66 10000 1.82 203 10:56 08.12.2022
740 Clear 15 1014 60 10000 1.85 199 09:35 08.12.2022
741 Clear 14 1014 64 10000 1.83 202 08:58 08.12.2022
742 Clouds 14 1013 80 10000 2.03 242 22:44 07.12.2022
743 Clear 14 1013 80 10000 2.08 243 22:19 07.12.2022
744 Clear 14 1013 80 10000 2.08 243 22:19 07.12.2022
745 Clear 15 1013 80 10000 2.08 244 21:47 07.12.2022
746 Clouds 15 1013 80 10000 2.05 243 20:36 07.12.2022
747 Clear 15 1012 79 10000 2.07 258 18:42 07.12.2022
748 Clear 17 1011 77 10000 2.7 295 16:21 07.12.2022
749 Clear 18 1011 71 10000 2.8 297 14:40 07.12.2022
750 Clear 19 1012 61 10000 3.17 286 11:37 07.12.2022
751 Clear 18 1012 66 10000 2.52 276 10:38 07.12.2022
752 Clear 17 1012 66 10000 1.83 251 09:37 07.12.2022
753 Clear 17 1012 68 10000 1.6 211 08:44 07.12.2022
754 Clouds 16 1012 66 10000 1.81 201 06:46 07.12.2022
755 Clouds 17 1011 68 10000 1.81 212 04:35 07.12.2022
756 Clouds 17 1012 70 10000 2.38 189 22:37 06.12.2022
757 Clouds 17 1013 66 10000 2.43 189 20:20 06.12.2022
758 Clouds 17 1013 64 10000 2.43 180 17:52 06.12.2022
759 Clouds 18 1013 62 10000 2.25 159 16:41 06.12.2022
760 Clouds 18 1013 59 10000 2.17 154 15:49 06.12.2022
761 Clouds 19 1013 52 10000 2.31 144 14:55 06.12.2022
762 Clouds 20 1013 50 10000 2.58 149 14:24 06.12.2022
763 Clouds 19 1014 45 10000 2.96 159 12:51 06.12.2022
764 Clouds 19 1015 42 10000 2.69 172 12:28 06.12.2022
765 Clouds 16 1017 43 10000 3.07 166 07:59 06.12.2022
766 Clouds 16 1017 44 10000 2.52 168 05:56 06.12.2022
767 Clouds 16 1019 47 10000 1.9 177 01:25 06.12.2022
768 Clouds 16 1020 59 10000 2.27 159 22:26 05.12.2022
769 Clouds 15 1020 63 10000 2.23 156 20:55 05.12.2022
770 Clouds 15 1020 65 10000 2.26 153 20:26 05.12.2022
771 Clouds 15 1020 66 10000 2.26 153 19:44 05.12.2022
772 Clouds 16 1020 68 10000 2.25 145 17:44 05.12.2022
773 Clouds 17 1020 66 10000 1.35 117 16:26 05.12.2022
774 Clouds 18 1020 59 10000 1.03 91 15:22 05.12.2022
775 Clouds 19 1020 53 10000 0.64 128 12:59 05.12.2022
776 Clouds 19 1020 53 10000 0.64 128 12:40 05.12.2022
777 Clouds 18 1021 51 10000 0.98 134 11:51 05.12.2022
778 Clouds 18 1022 42 10000 0.99 122 10:53 05.12.2022
779 Clear 14 1020 72 10000 1.43 208 00:20 05.12.2022
780 Clear 15 1020 78 10000 1.76 208 22:45 04.12.2022
781 Clear 15 1020 80 10000 1.83 199 22:20 04.12.2022
782 Clear 15 1020 81 10000 1.83 199 22:20 04.12.2022
783 Clear 15 1020 81 10000 1.83 199 21:53 04.12.2022
784 Clear 16 1020 82 10000 2 154 20:30 04.12.2022
785 Clear 16 1019 82 10000 2.03 129 19:27 04.12.2022
786 Clear 16 1019 80 10000 2.03 129 18:40 04.12.2022
787 Clear 17 1018 76 10000 1.83 100 17:23 04.12.2022
788 Clear 18 1018 73 10000 1.83 100 16:54 04.12.2022
789 Clear 17 1018 75 10000 1.83 100 16:36 04.12.2022
790 Clear 18 1017 73 10000 1.52 83 16:18 04.12.2022
791 Clear 20 1017 64 10000 1.31 72 14:43 04.12.2022
792 Clear 20 1016 57 10000 1.37 71 13:30 04.12.2022
793 Clear 20 1016 59 10000 1.11 62 12:43 04.12.2022
794 Clear 20 1017 58 10000 0.2 111 11:51 04.12.2022
795 Clear 17 1016 65 10000 1.68 188 09:20 04.12.2022
796 Clear 16 1015 72 10000 2.65 199 07:27 04.12.2022
797 Clouds 17 1013 67 10000 4.42 190 00:55 04.12.2022
798 Clouds 17 1013 67 10000 4.55 188 23:43 03.12.2022
799 Clouds 17 1012 66 10000 4.18 196 22:19 03.12.2022
800 Clouds 18 1011 66 10000 4.21 185 21:21 03.12.2022
801 Clouds 18 1010 65 10000 4.27 173 20:23 03.12.2022
802 Clouds 19 1010 64 10000 4.52 164 18:39 03.12.2022
803 Clouds 19 1010 64 10000 4.52 164 18:39 03.12.2022
804 Clouds 19 1009 67 10000 6.72 143 16:45 03.12.2022
805 Clouds 20 1009 62 10000 6.75 112 14:27 03.12.2022
806 Clouds 20 1011 62 10000 5.95 126 12:54 03.12.2022
807 Clouds 19 1012 64 10000 5.53 135 12:23 03.12.2022
808 Clouds 17 1013 65 10000 5.2 143 10:26 03.12.2022
809 Clouds 16 1013 68 10000 5.05 139 07:39 03.12.2022
810 Clouds 15 1014 72 10000 3.75 146 01:31 03.12.2022
811 Clouds 15 1015 67 10000 3.84 161 22:58 02.12.2022
812 Clouds 15 1015 68 10000 4.38 152 20:54 02.12.2022
813 Clouds 15 1015 67 10000 4.39 152 20:54 02.12.2022
814 Clouds 16 1015 63 10000 4.14 145 19:28 02.12.2022
815 Clouds 17 1015 64 10000 2.89 146 15:59 02.12.2022
816 Clouds 17 1015 64 10000 2.74 134 14:44 02.12.2022
817 Clouds 17 1015 64 10000 2.39 134 14:26 02.12.2022
818 Clouds 18 1016 60 10000 2.11 149 13:26 02.12.2022
819 Clouds 17 1016 63 10000 2.16 154 11:43 02.12.2022
820 Clouds 15 1017 68 10000 2.14 169 09:45 02.12.2022
821 Clouds 13 1017 69 10000 2.51 167 07:25 02.12.2022
822 Clouds 13 1017 73 10000 2.21 170 23:54 01.12.2022
823 Clouds 14 1017 73 10000 1.59 178 21:59 01.12.2022
824 Clouds 14 1017 73 10000 1.59 178 21:38 01.12.2022
825 Clouds 14 1017 75 10000 1.49 195 20:30 01.12.2022
826 Clouds 14 1016 75 10000 1.33 237 18:55 01.12.2022
827 Clouds 15 1015 71 10000 2.18 295 16:20 01.12.2022
828 Clouds 17 1015 70 10000 2.19 301 13:22 01.12.2022
829 Clouds 14 1015 82 10000 1.54 291 10:41 01.12.2022
830 Clouds 13 1015 85 10000 0.96 324 09:54 01.12.2022
831 Clouds 13 1015 83 10000 0.96 324 09:36 01.12.2022
832 Clouds 13 1013 71 10000 1.78 346 05:34 01.12.2022
833 Clouds 13 1012 77 10000 3.3 14 22:40 30.11.2022
834 Clouds 13 1012 83 10000 2.03 19 21:19 30.11.2022
835 Clouds 13 1012 84 10000 2.03 19 20:48 30.11.2022
836 Clouds 13 1011 85 10000 1.31 48 20:23 30.11.2022
837 Clouds 12 1010 85 10000 4.4 22 18:35 30.11.2022
838 Clouds 13 1010 83 10000 4.01 34 17:36 30.11.2022
839 Clouds 14 1009 66 10000 3.73 51 16:20 30.11.2022
840 Clouds 15 1008 64 10000 2.84 33 14:41 30.11.2022
841 Clouds 15 1008 64 10000 2.41 8 14:22 30.11.2022
842 Clouds 14 1008 72 10000 1.73 302 11:35 30.11.2022
843 Clouds 12 1008 75 10000 2.57 258 08:40 30.11.2022
844 Clouds 12 1007 77 10000 2.21 250 07:58 30.11.2022
845 Clouds 13 1007 77 10000 3.24 206 04:24 30.11.2022
846 Clouds 12 1008 80 10000 2.03 141 23:22 29.11.2022
847 Clouds 13 1008 78 10000 1.6 148 21:47 29.11.2022
848 Clouds 12 1008 81 10000 1.12 153 20:38 29.11.2022
849 Clouds 12 1008 80 10000 1.54 192 19:20 29.11.2022
850 Clouds 13 1008 78 10000 0.98 198 17:36 29.11.2022
851 Rain 13 1008 76 10000 1.09 71 16:27 29.11.2022
852 Rain 14 1008 73 10000 1.73 84 14:51 29.11.2022
853 Rain 14 1008 71 10000 2.05 97 13:38 29.11.2022
854 Clouds 15 1008 67 10000 2.02 151 12:35 29.11.2022
855 Clouds 14 1009 69 10000 2.85 146 11:30 29.11.2022
856 Clouds 14 1009 71 10000 5.35 120 10:23 29.11.2022
857 Clouds 13 1010 71 10000 5.56 117 08:43 29.11.2022
858 Clouds 12 1010 76 10000 3.21 131 05:52 29.11.2022
859 Clouds 14 1012 69 10000 2.11 173 23:38 28.11.2022
860 Clouds 14 1013 70 10000 2.19 188 23:19 28.11.2022
861 Clouds 14 1013 72 10000 2.23 182 21:55 28.11.2022
862 Clouds 14 1014 73 10000 2.63 158 21:36 28.11.2022
863 Clouds 15 1014 75 10000 2.47 142 20:20 28.11.2022
864 Clouds 15 1014 73 10000 1.82 147 18:40 28.11.2022
865 Clouds 15 1014 73 10000 1.59 149 17:51 28.11.2022
866 Clouds 15 1014 69 10000 1.53 130 16:59 28.11.2022
867 Clouds 17 1014 64 10000 0.24 144 14:30 28.11.2022
868 Clouds 17 1014 63 10000 0.78 115 13:52 28.11.2022
869 Clouds 17 1015 63 10000 0.35 110 12:44 28.11.2022
870 Clouds 17 1015 63 10000 0.35 110 12:44 28.11.2022
871 Clouds 16 1017 71 10000 0.87 198 10:55 28.11.2022
872 Clouds 14 1018 76 10000 1.69 187 07:54 28.11.2022
873 Clouds 14 1018 75 10000 1.79 121 04:53 28.11.2022
874 Clouds 14 1018 74 10000 1.89 114 03:59 28.11.2022
875 Clouds 14 1019 76 10000 1.82 98 03:20 28.11.2022
876 Clouds 14 1019 72 10000 2.72 71 23:43 27.11.2022
877 Clouds 15 1019 69 10000 3.07 74 21:49 27.11.2022
878 Clouds 15 1019 71 10000 4.1 53 20:38 27.11.2022
879 Clouds 15 1018 75 10000 5.77 64 18:18 27.11.2022
880 Clouds 16 1018 72 10000 7.23 64 15:36 27.11.2022
881 Clouds 16 1017 72 9927 9.08 58 13:34 27.11.2022
882 Clouds 16 1017 73 9819 10.4 58 11:31 27.11.2022
883 Clouds 16 1016 72 10000 11.26 53 08:57 27.11.2022
884 Clouds 16 1011 75 5638 11.07 43 05:20 27.11.2022
885 Clouds 15 1010 84 3815 8.22 37 22:39 26.11.2022
886 Clouds 15 1011 84 10000 5.03 38 20:56 26.11.2022
887 Clouds 15 1010 82 10000 3.99 39 19:37 26.11.2022
888 Clouds 16 1011 77 10000 2.22 26 18:26 26.11.2022
889 Clouds 16 1011 78 10000 1.14 5 16:25 26.11.2022
890 Clouds 17 1011 76 10000 0.47 98 13:51 26.11.2022
891 Clouds 17 1012 74 10000 1.8 224 12:39 26.11.2022
892 Clouds 16 1012 81 10000 2.36 239 10:52 26.11.2022
893 Clouds 15 1014 83 10000 3.83 201 09:32 26.11.2022
894 Clouds 14 1014 83 9403 4.2 211 07:21 26.11.2022
895 Clouds 15 1019 63 10000 3.2 185 21:47 25.11.2022
896 Clouds 15 1019 66 10000 2.79 178 21:27 25.11.2022
897 Clouds 15 1019 75 10000 2.76 185 19:57 25.11.2022
898 Clouds 17 1019 70 10000 0.93 207 16:50 25.11.2022
899 Clouds 18 1019 64 10000 0.98 298 14:45 25.11.2022
900 Clouds 17 1021 70 10000 2.05 273 09:36 25.11.2022
901 Clouds 15 1021 74 10000 2.06 256 08:41 25.11.2022
902 Clouds 14 1021 72 10000 2.34 255 06:55 25.11.2022
903 Clouds 14 1020 71 10000 2.15 254 06:26 25.11.2022
904 Clear 16 1019 67 10000 2.02 309 00:29 25.11.2022
905 Clear 16 1019 68 10000 2.72 319 22:57 24.11.2022
906 Clear 16 1019 68 10000 3.17 320 21:59 24.11.2022
907 Clear 16 1019 73 10000 3.18 320 20:45 24.11.2022
908 Clear 16 1017 76 10000 4.19 315 19:20 24.11.2022
909 Clear 16 1017 72 10000 4.63 312 17:43 24.11.2022
910 Clear 16 1016 73 10000 4.73 308 17:21 24.11.2022
911 Clear 19 995 35 10000 5.63 297 15:29 24.11.2022
912 Clear 19 994 35 10000 6.3 300 14:22 24.11.2022
913 Clear 19 994 35 10000 6.3 300 14:22 24.11.2022
914 Clouds 20 995 36 10000 5.93 300 11:59 24.11.2022
915 Clouds 19 994 38 10000 5.72 291 10:37 24.11.2022
916 Clouds 17 1014 79 10000 4.35 257 07:54 24.11.2022
917 Clouds 15 1011 84 10000 4.24 285 03:23 24.11.2022
918 Clouds 16 1010 82 10000 3.85 244 23:46 23.11.2022
919 Clouds 16 1010 81 10000 4.06 250 22:24 23.11.2022
920 Clouds 16 1010 80 10000 4.19 247 21:30 23.11.2022
921 Clouds 16 1010 79 10000 4.19 247 20:45 23.11.2022
922 Clouds 16 1009 76 10000 4.78 263 19:27 23.11.2022
923 Clouds 16 1009 76 10000 4.78 263 19:27 23.11.2022
924 Clouds 16 1009 76 10000 4.78 263 19:27 23.11.2022
925 Clouds 17 1009 74 10000 4.61 249 18:41 23.11.2022
926 Clouds 17 1008 70 10000 5.51 254 16:42 23.11.2022
927 Clouds 18 986 48 10000 7 263 13:41 23.11.2022
928 Clouds 18 986 47 10000 7.17 271 13:21 23.11.2022
929 Clouds 17 1009 71 10000 6.97 273 12:21 23.11.2022
930 Clouds 17 1009 71 10000 6.98 273 11:41 23.11.2022
931 Clouds 16 1009 69 10000 7.14 273 10:43 23.11.2022
932 Clouds 16 1009 71 10000 7.21 278 09:44 23.11.2022
933 Clouds 16 1009 71 10000 8.58 283 09:25 23.11.2022
934 Clouds 15 1009 72 10000 8.58 283 08:37 23.11.2022
935 Clear 14 1008 69 10000 8.73 275 06:23 23.11.2022
936 Clear 14 1008 67 10000 9.06 271 05:18 23.11.2022
937 Clouds 15 1008 63 10000 9.55 261 23:24 22.11.2022
938 Clouds 15 1008 57 10000 9.55 261 22:33 22.11.2022
939 Clear 15 1009 56 10000 9.83 264 21:34 22.11.2022
940 Clear 15 1009 57 10000 9.87 262 20:50 22.11.2022
941 Clear 15 1008 57 10000 9.61 264 20:18 22.11.2022
942 Clouds 15 1007 61 10000 12.51 262 17:56 22.11.2022
943 Clouds 15 1007 66 10000 13.09 273 17:28 22.11.2022
944 Clouds 15 1006 66 10000 14.27 279 15:56 22.11.2022
945 Clouds 15 1005 71 10000 13.75 273 13:47 22.11.2022
946 Clouds 15 1004 71 10000 14.51 254 11:52 22.11.2022
947 Clouds 16 1005 74 4923 11.09 252 09:26 22.11.2022
948 Clouds 17 1004 59 10000 9.09 212 07:55 22.11.2022
949 Clouds 17 1006 56 10000 8.7 183 03:47 22.11.2022
950 Clouds 17 1011 68 10000 7.12 198 23:41 21.11.2022
951 Clouds 16 1012 71 10000 6.42 201 22:49 21.11.2022
952 Clouds 16 1013 73 10000 5.77 209 21:59 21.11.2022
953 Clouds 17 1013 72 10000 5.46 210 20:56 21.11.2022
954 Clouds 17 1013 72 10000 5.46 210 20:56 21.11.2022
955 Clouds 16 1014 75 10000 5.1 213 19:42 21.11.2022
956 Clouds 16 1014 73 10000 4.89 220 18:54 21.11.2022
957 Clouds 17 1015 72 10000 5.26 232 18:34 21.11.2022
958 Clouds 17 1014 66 10000 6.4 262 16:58 21.11.2022
959 Clouds 17 1014 63 10000 6.4 262 16:40 21.11.2022
960 Clouds 18 1014 60 10000 8.1 267 15:53 21.11.2022
961 Clouds 18 1014 59 10000 8.78 268 14:58 21.11.2022
962 Clouds 19 994 38 10000 9.44 271 13:52 21.11.2022
963 Clouds 18 994 44 10000 10.09 284 11:39 21.11.2022
964 Clear 16 1015 64 10000 5.67 267 09:19 21.11.2022
965 Clear 15 1015 68 10000 5.44 264 07:42 21.11.2022
966 Rain 13 1013 78 9258 6.36 283 22:48 20.11.2022
967 Clouds 15 1013 76 10000 6.6 286 21:36 20.11.2022
968 Rain 15 1012 77 10000 7.24 293 20:33 20.11.2022
969 Rain 15 1010 76 9502 6.92 303 18:46 20.11.2022
970 Clouds 16 1008 71 10000 5.81 299 16:46 20.11.2022
971 Clouds 16 1008 72 10000 6.02 291 15:32 20.11.2022
972 Clouds 15 1007 75 10000 5.42 275 14:54 20.11.2022
973 Clouds 17 1007 65 10000 4.72 266 13:34 20.11.2022
974 Clouds 16 1007 70 10000 3.76 269 12:51 20.11.2022
975 Clouds 15 1008 74 10000 2.23 225 11:38 20.11.2022
976 Clouds 15 1008 75 10000 4.52 262 10:56 20.11.2022
977 Clouds 15 1009 76 10000 4.02 254 09:42 20.11.2022
978 Clouds 15 1009 74 9637 5 247 08:47 20.11.2022
979 Clouds 15 1008 76 7147 5.5 255 07:30 20.11.2022
980 Clouds 16 1008 76 10000 3.63 244 06:43 20.11.2022
981 Clouds 17 1009 72 10000 2.94 218 01:24 20.11.2022
982 Clouds 17 1009 70 10000 2.94 218 00:44 20.11.2022
983 Clouds 17 1010 68 10000 3.68 230 00:25 20.11.2022
984 Clouds 18 1010 68 10000 3.68 230 23:54 19.11.2022
985 Clouds 18 1010 67 10000 3.52 228 23:25 19.11.2022
986 Clouds 18 1010 67 10000 3.52 228 23:25 19.11.2022
987 Clouds 18 1010 65 10000 3.52 228 22:42 19.11.2022
988 Clouds 18 1010 67 10000 4.21 233 21:36 19.11.2022
989 Clouds 18 1010 67 10000 5.13 240 21:18 19.11.2022
990 Clouds 19 1010 66 10000 5.3 236 20:38 19.11.2022
991 Clouds 20 987 41 10000 5.33 239 19:35 19.11.2022
992 Clouds 20 986 43 10000 5.64 240 17:43 19.11.2022
993 Clouds 20 986 43 10000 5.77 248 17:25 19.11.2022
994 Clouds 20 986 37 10000 5.77 248 16:35 19.11.2022
995 Clouds 21 985 40 10000 5.98 247 14:40 19.11.2022
996 Clouds 22 985 35 10000 5.78 237 12:42 19.11.2022
997 Clouds 22 986 37 10000 6.15 217 11:19 19.11.2022
998 Clouds 21 985 41 10000 5.82 194 09:32 19.11.2022
999 Clouds 20 985 43 10000 5.07 176 07:52 19.11.2022
1000 Clear 20 985 43 10000 4.6 170 04:43 19.11.2022
1001 Clouds 19 987 45 10000 3.32 189 00:30 19.11.2022
1002 Clouds 20 988 45 10000 3.3 198 23:26 18.11.2022
1003 Clouds 20 988 43 10000 3.51 206 22:18 18.11.2022
1004 Clouds 20 988 43 10000 3.51 206 22:18 18.11.2022
1005 Clouds 20 988 44 10000 3.51 206 21:35 18.11.2022
1006 Clouds 20 988 44 10000 3.72 212 20:55 18.11.2022
1007 Clouds 20 988 43 10000 4.26 220 19:47 18.11.2022
1008 Clouds 20 988 44 10000 4.5 228 19:22 18.11.2022
1009 Clouds 20 987 43 10000 4.42 222 17:45 18.11.2022
1010 Clouds 21 986 38 10000 6.84 245 14:44 18.11.2022
1011 Clouds 22 987 39 10000 8.66 246 11:48 18.11.2022
1012 Clouds 21 987 46 10000 6.11 230 09:35 18.11.2022
1013 Clouds 20 986 46 10000 5.46 226 07:52 18.11.2022
1014 Clouds 20 986 46 10000 4.92 226 05:26 18.11.2022
1015 Clouds 19 987 46 10000 4.87 227 01:57 18.11.2022
1016 Clouds 19 987 46 10000 4.53 218 22:51 17.11.2022
1017 Clouds 19 987 45 10000 4.33 216 20:47 17.11.2022
1018 Clouds 19 987 45 10000 4.29 219 19:51 17.11.2022
1019 Clouds 20 987 45 10000 4.54 226 19:18 17.11.2022
1020 Clouds 20 987 45 10000 4.61 235 18:27 17.11.2022
1021 Clouds 20 986 46 10000 4.88 251 16:56 17.11.2022
1022 Clouds 21 986 45 10000 5.43 264 15:21 17.11.2022
1023 Clouds 20 987 45 10000 4.43 254 11:45 17.11.2022
1024 Clouds 20 987 49 10000 3.64 232 10:28 17.11.2022
1025 Clouds 19 986 42 10000 5.19 241 06:19 17.11.2022
1026 Clouds 19 986 50 10000 5.32 218 00:50 17.11.2022
1027 Rain 20 986 47 10000 4.87 219 22:38 16.11.2022
1028 Clouds 20 986 45 10000 4.68 219 21:41 16.11.2022
1029 Clouds 20 987 44 10000 4.5 210 20:22 16.11.2022
1030 Clouds 20 987 41 10000 4.42 215 18:48 16.11.2022
1031 Clouds 20 987 38 10000 4.43 221 17:58 16.11.2022
1032 Clouds 22 988 31 10000 6.12 242 14:41 16.11.2022
1033 Clouds 21 990 35 10000 5.23 235 10:53 16.11.2022
1034 Clouds 19 1012 65 10000 5.36 190 06:48 16.11.2022
1035 Clouds 20 992 39 10000 4.7 194 01:35 16.11.2022
1036 Clouds 20 993 39 10000 3.58 189 23:18 15.11.2022
1037 Clouds 20 994 37 10000 2.81 182 21:23 15.11.2022
1038 Clouds 20 995 35 10000 2.58 167 19:42 15.11.2022
1039 Clouds 20 995 38 10000 2.59 151 18:51 15.11.2022
1040 Clouds 20 995 43 10000 1.74 150 17:35 15.11.2022
1041 Clouds 20 996 41 10000 1.57 146 16:20 15.11.2022
1042 Clouds 20 996 39 10000 1.6 152 15:22 15.11.2022
1043 Clouds 21 996 34 10000 0.93 162 13:39 15.11.2022
1044 Clouds 20 998 32 10000 1.33 175 12:26 15.11.2022
1045 Clouds 20 998 34 10000 1.58 163 11:21 15.11.2022
1046 Clouds 19 999 33 10000 1.65 161 09:28 15.11.2022
1047 Clouds 16 1021 78 10000 1.33 161 00:42 15.11.2022
1048 Clouds 16 1022 78 10000 1.25 159 00:22 15.11.2022
1049 Clouds 17 1022 75 10000 0.59 169 21:51 14.11.2022
1050 Clouds 17 1023 76 10000 0.59 258 20:43 14.11.2022
1051 Clouds 19 1001 48 10000 1.39 300 18:58 14.11.2022
1052 Clouds 19 1000 47 10000 2.81 313 17:28 14.11.2022
1053 Clouds 21 1000 34 10000 3.94 263 12:55 14.11.2022
1054 Clouds 21 1000 39 10000 3.49 249 11:45 14.11.2022
1055 Clouds 20 1000 40 10000 3.15 234 10:49 14.11.2022
1056 Clouds 19 999 43 10000 3.4 184 08:30 14.11.2022
1057 Clouds 19 999 43 10000 3.4 184 07:51 14.11.2022
1058 Clouds 18 1021 69 10000 2.52 190 00:19 14.11.2022
1059 Clouds 18 1021 69 10000 2.52 190 00:19 14.11.2022
1060 Clouds 18 1021 69 10000 2.52 190 00:19 14.11.2022
1061 Clouds 18 1021 67 10000 2.45 184 22:43 13.11.2022
1062 Clouds 17 1021 66 10000 2.57 167 21:40 13.11.2022
1063 Clouds 18 1021 64 10000 2.8 151 20:45 13.11.2022
1064 Clouds 19 999 42 10000 1.92 158 18:36 13.11.2022
1065 Clouds 19 999 42 10000 1.59 140 17:49 13.11.2022
1066 Clouds 20 999 40 10000 0.88 65 15:40 13.11.2022
1067 Clouds 20 999 38 10000 0.7 342 14:30 13.11.2022
1068 Clouds 20 999 33 10000 0.53 330 12:55 13.11.2022
1069 Clouds 20 999 36 10000 0.24 275 11:34 13.11.2022
1070 Clouds 20 999 42 10000 1.39 164 10:28 13.11.2022
1071 Clouds 15 1020 79 10000 0.56 137 05:52 13.11.2022
1072 Clouds 17 1021 78 10000 1.31 153 23:44 12.11.2022
1073 Clouds 19 1000 45 10000 5.46 64 21:24 12.11.2022
1074 Clouds 19 1000 44 10000 5.45 63 20:41 12.11.2022
1075 Clouds 19 1000 41 10000 3.65 40 18:57 12.11.2022
1076 Clouds 19 1001 41 10000 3.46 16 16:52 12.11.2022
1077 Clouds 20 1001 42 10000 3.69 7 15:37 12.11.2022
1078 Clouds 20 1002 41 10000 3.67 0 13:39 12.11.2022
1079 Clouds 20 1004 47 10000 2.6 355 09:39 12.11.2022
1080 Clouds 19 1004 51 10000 1.83 1 07:47 12.11.2022
1081 Clear 18 1027 79 10000 0.65 88 23:45 11.11.2022
1082 Clouds 19 1006 51 10000 0.99 101 20:56 11.11.2022
1083 Clouds 19 1006 51 10000 0.99 101 20:30 11.11.2022
1084 Clouds 19 1006 42 10000 1.08 101 19:27 11.11.2022
1085 Clouds 20 1006 41 10000 0.83 84 18:33 11.11.2022
1086 Clouds 20 1006 41 10000 1.19 48 17:40 11.11.2022
1087 Clouds 21 1006 36 10000 1.61 64 14:32 11.11.2022
1088 Clouds 21 1006 36 10000 1.59 58 13:55 11.11.2022
1089 Clouds 21 1007 37 10000 1.74 52 12:26 11.11.2022
1090 Clouds 19 1007 43 10000 1.35 105 08:59 11.11.2022
1091 Clouds 19 1006 43 10000 1.56 117 08:26 11.11.2022
1092 Clouds 19 1005 40 10000 2.59 101 00:39 11.11.2022
1093 Clouds 19 1005 41 10000 2.6 107 22:53 10.11.2022
1094 Clouds 19 1005 40 10000 2.74 102 21:50 10.11.2022
1095 Clouds 19 1005 40 10000 2.71 96 21:27 10.11.2022
1096 Clouds 20 1005 40 10000 2.71 96 20:43 10.11.2022
1097 Clouds 19 1004 40 10000 2.61 92 20:19 10.11.2022
1098 Clouds 20 1004 39 10000 2.46 83 18:50 10.11.2022
1099 Clouds 20 1003 38 10000 2.31 87 17:44 10.11.2022
1100 Clouds 20 1002 37 10000 2.03 76 16:25 10.11.2022
1101 Clouds 21 1002 35 10000 1.74 47 13:37 10.11.2022
1102 Clouds 20 1002 37 10000 0.37 102 09:53 10.11.2022
1103 Clouds 19 1001 40 10000 0.99 157 08:21 10.11.2022
1104 Clouds 19 999 29 10000 1.57 159 01:23 10.11.2022
1105 Clouds 19 999 30 10000 1.75 149 23:21 09.11.2022
1106 Clouds 19 1000 41 10000 1.89 146 21:57 09.11.2022
1107 Clouds 19 1000 40 10000 2.02 144 20:46 09.11.2022
1108 Clouds 19 999 46 10000 2.04 145 20:28 09.11.2022
1109 Clouds 19 999 46 10000 2.06 140 19:29 09.11.2022
1110 Clouds 19 999 45 10000 1.91 131 18:30 09.11.2022
1111 Clouds 21 999 37 10000 1.11 74 15:45 09.11.2022
1112 Clouds 21 999 35 10000 1.07 62 14:41 09.11.2022
1113 Clouds 21 999 35 10000 1.14 41 14:22 09.11.2022
1114 Clear 21 999 34 10000 0.9 44 12:57 09.11.2022
1115 Clear 20 1001 30 10000 1.08 141 09:45 09.11.2022
1116 Clear 19 1000 25 10000 1.72 164 07:47 09.11.2022
1117 Clear 16 1021 64 10000 1.72 161 06:55 09.11.2022
1118 Clear 17 1021 78 10000 2.15 150 23:27 08.11.2022
1119 Clear 17 1021 77 10000 2.25 149 21:44 08.11.2022
1120 Clear 17 1021 74 10000 2.28 144 21:22 08.11.2022
1121 Clear 18 1021 73 10000 2.28 144 20:40 08.11.2022
1122 Clear 18 1021 76 10000 2.24 134 19:36 08.11.2022
1123 Clouds 19 999 32 10000 1.58 108 18:20 08.11.2022
1124 Clouds 20 999 43 10000 1.18 69 16:20 08.11.2022
1125 Clouds 21 1000 40 10000 1.16 40 14:55 08.11.2022
1126 Clouds 21 1000 38 10000 1.09 20 13:36 08.11.2022
1127 Clouds 21 1000 39 10000 0.79 23 12:40 08.11.2022
1128 Clear 19 1001 39 10000 1.64 147 08:57 08.11.2022
1129 Clear 16 1021 74 10000 1.99 149 07:25 08.11.2022
1130 Clouds 17 1022 75 10000 1.51 121 00:22 08.11.2022
1131 Clouds 17 1022 73 10000 1.03 115 22:24 07.11.2022
1132 Clouds 18 1022 68 10000 1.01 120 21:21 07.11.2022
1133 Clouds 19 1022 68 10000 1.01 120 20:33 07.11.2022
1134 Clouds 19 1000 36 10000 0.94 55 17:51 07.11.2022
1135 Clouds 19 1000 35 10000 1.43 21 16:39 07.11.2022
1136 Clouds 20 1000 32 10000 2.02 1 15:35 07.11.2022
1137 Clouds 20 1000 32 10000 2.45 346 14:44 07.11.2022
1138 Clouds 20 1000 32 10000 2.19 333 12:36 07.11.2022
1139 Clouds 20 1000 33 10000 1.4 324 11:30 07.11.2022
1140 Clouds 20 1001 33 10000 1.25 313 09:36 07.11.2022
1141 Clear 19 1000 39 10000 0.95 302 07:41 07.11.2022
1142 Clear 16 1019 66 10000 2.26 305 04:19 07.11.2022
1143 Clouds 17 1019 67 10000 3.02 299 01:21 07.11.2022
1144 Clouds 19 998 37 10000 3.22 311 22:21 06.11.2022
1145 Clouds 19 997 37 10000 3.32 316 21:20 06.11.2022
1146 Clouds 19 997 36 10000 3.46 318 20:32 06.11.2022
1147 Clouds 19 997 37 10000 2.89 309 19:53 06.11.2022
1148 Clouds 19 996 37 10000 3.07 314 18:40 06.11.2022
1149 Clouds 19 995 37 10000 3.43 317 18:19 06.11.2022
1150 Clouds 19 995 38 10000 3.81 317 17:21 06.11.2022
1151 Clouds 19 994 38 10000 3.81 317 16:40 06.11.2022
1152 Clouds 19 994 37 10000 4.11 322 15:43 06.11.2022
1153 Clouds 20 993 34 10000 4.93 336 12:49 06.11.2022
1154 Clouds 20 993 34 10000 5.1 346 12:28 06.11.2022
1155 Clouds 19 992 35 10000 5.59 342 10:46 06.11.2022
1156 Clouds 18 1012 62 10000 7.5 323 08:30 06.11.2022
1157 Clouds 17 1009 69 10000 9.35 315 02:19 06.11.2022
1158 Clouds 16 1009 80 10000 6.4 333 23:18 05.11.2022
1159 Clouds 15 1007 74 10000 5.85 327 19:43 05.11.2022
1160 Clouds 15 1006 77 10000 4.88 307 17:45 05.11.2022
1161 Rain 16 1005 75 10000 5.23 311 16:21 05.11.2022
1162 Clouds 15 1004 80 10000 5.43 296 14:33 05.11.2022
1163 Clouds 16 1004 73 10000 4.54 256 12:51 05.11.2022
1164 Clouds 17 1005 68 10000 6.24 255 10:31 05.11.2022
1165 Clouds 16 1006 68 10000 7.21 257 08:47 05.11.2022
1166 Clouds 17 1005 63 10000 7.72 253 06:57 05.11.2022
1167 Clouds 17 1005 61 10000 7.72 253 06:36 05.11.2022
1168 Clouds 17 1008 74 7684 5.46 228 23:35 04.11.2022
1169 Rain 20 987 40 10000 6.59 236 22:31 04.11.2022
1170 -273 0 0 0 0 0 20:26 04.11.2022
1171 -273 0 0 0 0 0 20:26 04.11.2022
1172 -273 0 0 0 0 0 20:25 04.11.2022
1173 Clouds 21 988 31 10000 4.51 211 17:46 04.11.2022
1174 Clouds 21 988 30 10000 5.31 218 16:46 04.11.2022
1175 Clouds 24 1010 48 10000 5.67 201 13:39 04.11.2022
1176 Rain 24 1013 50 10000 6.12 214 12:25 04.11.2022
1177 Clouds 24 1014 46 10000 5.46 213 09:41 04.11.2022
1178 Clouds 21 992 18 10000 5.42 191 08:29 04.11.2022
1179 Clouds 21 993 20 10000 5.42 191 07:42 04.11.2022
1180 Clear 20 994 20 10000 3.33 189 02:28 04.11.2022
1181 Clear 20 997 28 10000 2.59 169 22:44 03.11.2022
1182 Clear 20 998 29 10000 2.46 168 20:50 03.11.2022
1183 Clear 20 998 29 10000 2.46 168 20:50 03.11.2022
1184 Clear 20 998 40 10000 2.38 163 19:44 03.11.2022
1185 Clear 20 998 40 10000 2 154 19:18 03.11.2022
1186 Clear 20 998 39 10000 1.49 146 17:42 03.11.2022
1187 Clear 21 999 37 10000 1.26 327 16:18 03.11.2022
1188 Clear 23 1020 64 10000 2.04 329 14:18 03.11.2022
1189 Clear 23 1020 63 10000 1.43 334 12:37 03.11.2022
1190 Clear 23 1021 63 10000 1.21 320 11:44 03.11.2022
1191 Clear 20 1002 37 10000 0.78 244 09:18 03.11.2022
1192 Clear 20 1001 28 10000 1.31 194 07:24 03.11.2022
1193 Clouds 20 1002 28 10000 1.16 154 21:29 02.11.2022
1194 Clouds 20 1002 28 10000 1.16 154 20:37 02.11.2022
1195 Clouds 20 1002 27 10000 1.05 141 19:47 02.11.2022
1196 Clouds 21 1002 37 10000 1.52 8 16:37 02.11.2022
1197 Clouds 21 1002 36 10000 1.52 8 15:36 02.11.2022
1198 Clouds 23 1023 63 10000 2.08 347 14:29 02.11.2022
1199 Clouds 23 1023 56 10000 2.15 333 12:43 02.11.2022
1200 Clouds 23 1024 58 10000 1.13 343 10:46 02.11.2022
1201 Clouds 20 1004 33 10000 0.22 36 08:51 02.11.2022
1202 Clouds 20 1003 25 10000 0.67 192 05:30 02.11.2022
1203 Clouds 20 1003 26 10000 1.22 170 23:53 01.11.2022
1204 Clouds 19 1003 38 10000 1.43 163 22:19 01.11.2022
1205 Clouds 20 1003 28 10000 1.43 163 21:37 01.11.2022
1206 Clouds 20 1003 37 10000 0.89 163 20:25 01.11.2022
1207 Clouds 20 1003 39 10000 0.91 160 19:42 01.11.2022
1208 Clouds 20 1003 39 10000 1.18 131 18:36 01.11.2022
1209 Clouds 20 1002 39 10000 1.01 46 17:28 01.11.2022
1210 Clouds 21 1002 37 10000 1.59 8 16:18 01.11.2022
1211 Clear 23 1023 63 10000 1.54 14 14:20 01.11.2022
1212 Clear 23 1023 62 10000 1.31 55 12:27 01.11.2022
1213 Clear 23 1024 61 10000 1.16 61 11:23 01.11.2022
1214 Clear 21 1024 66 10000 0.98 70 09:54 01.11.2022
1215 Clear 20 1003 32 10000 0.38 101 08:42 01.11.2022
1216 Clear 19 1002 23 10000 1.01 143 07:29 01.11.2022
1217 Clear 19 1002 23 10000 1.01 143 06:47 01.11.2022
1218 Clear 19 1001 22 10000 0.63 151 05:56 01.11.2022
1219 Clear 20 1001 20 10000 1.06 156 03:37 01.11.2022
1220 Clear 20 1002 28 10000 1.91 139 21:46 31.10.2022
1221 Clear 20 1002 28 10000 1.81 138 20:40 31.10.2022
1222 Clear 20 1002 39 10000 1.53 117 18:54 31.10.2022
1223 Clear 20 1001 38 10000 1.57 94 17:48 31.10.2022
1224 Clear 20 1001 41 10000 1.77 69 16:42 31.10.2022
1225 Clear 23 1022 54 10000 1.8 37 13:24 31.10.2022
1226 Clear 23 1022 58 10000 1.65 46 11:51 31.10.2022
1227 Clear 20 1002 37 10000 1.04 112 08:37 31.10.2022
1228 Clear 18 1022 65 10000 1.29 128 04:49 31.10.2022
1229 Clear 20 1000 28 10000 1.3 146 02:20 31.10.2022
1230 Clear 20 1001 29 10000 1.79 135 23:18 30.10.2022
1231 Clear 20 1001 29 10000 1.83 119 20:51 30.10.2022
1232 Clear 20 1001 39 10000 1.91 105 20:27 30.10.2022
1233 Clear 20 1001 39 10000 1.97 62 18:29 30.10.2022
1234 Clear 21 1000 41 10000 2.58 37 15:59 30.10.2022
1235 Clear 23 1021 62 10000 2.63 23 13:53 30.10.2022
1236 Clear 23 1022 61 10000 2.21 16 13:18 30.10.2022
1237 Clear 23 1022 58 10000 1.85 17 11:37 30.10.2022
1238 Clear 21 1001 42 10000 0.89 17 09:37 30.10.2022
1239 Clear 20 1001 37 10000 0.3 185 08:30 30.10.2022
1240 Clear 20 1001 28 10000 1.4 196 02:56 30.10.2022
1241 Clear 19 1002 40 10000 1.31 168 00:28 30.10.2022
1242 Clear 19 1002 41 10000 1.31 168 23:44 29.10.2022
1243 Clear 20 1001 29 10000 1.45 124 21:27 29.10.2022
1244 Clear 21 1001 39 10000 1.73 60 17:51 29.10.2022
1245 Clear 21 1001 44 10000 2.25 43 17:20 29.10.2022
1246 Clear 23 1022 65 10000 2.48 31 15:38 29.10.2022
1247 Clear 23 1022 65 10000 2.3 19 14:48 29.10.2022
1248 Clear 23 1023 67 10000 1.87 343 12:35 29.10.2022
1249 Clear 22 1024 70 10000 1.06 312 11:32 29.10.2022
1250 Clear 20 1002 28 10000 1.02 200 07:38 29.10.2022
1251 Clear 20 1002 28 10000 1 184 05:56 29.10.2022
1252 Clear 20 1002 27 10000 0.77 177 04:19 29.10.2022
1253 Clear 20 1003 28 10000 1.22 163 23:42 28.10.2022
1254 Clear 21 1003 28 10000 1.24 96 20:56 28.10.2022
1255 Clear 21 1003 27 10000 1.15 67 19:34 28.10.2022
1256 Clear 21 1003 27 10000 1.13 59 18:32 28.10.2022
1257 Clear 24 1024 64 10000 2.06 35 16:20 28.10.2022
1258 Clear 25 1024 58 10000 2.16 29 14:45 28.10.2022
1259 Clear 25 1024 58 10000 2.16 29 14:44 28.10.2022
1260 Clear 25 1025 54 10000 1.87 31 13:19 28.10.2022
1261 Clear 24 1026 58 10000 1.65 37 11:53 28.10.2022
1262 Clear 24 1026 58 10000 1.65 37 11:53 28.10.2022
1263 Clear 24 1026 57 10000 1.41 55 11:25 28.10.2022
1264 Clear 23 1026 56 10000 1.42 81 10:28 28.10.2022
1265 Clouds 20 1025 41 10000 1.68 112 08:40 28.10.2022
1266 Clouds 20 1003 21 10000 2.14 112 05:40 28.10.2022
1267 Clouds 20 1004 30 10000 2 118 23:50 27.10.2022
1268 Clouds 21 1004 29 10000 1.99 109 23:22 27.10.2022
1269 Clouds 20 1005 27 10000 1.99 109 22:31 27.10.2022
1270 Clouds 21 1004 25 10000 2.38 118 20:47 27.10.2022
1271 Clouds 23 1025 63 10000 2.14 91 18:23 27.10.2022
1272 Clouds 25 1025 53 10000 2.25 72 16:33 27.10.2022
1273 Clouds 26 1026 45 10000 2.34 74 11:34 27.10.2022
1274 Clouds 20 1003 17 10000 2.05 111 07:34 27.10.2022
1275 Clear 21 1024 51 10000 2.37 111 00:26 27.10.2022
1276 Clear 21 1024 50 10000 2.37 111 23:52 26.10.2022
1277 Clear 22 1024 50 10000 2.38 116 22:40 26.10.2022
1278 Clear 22 1024 43 10000 2.53 120 21:23 26.10.2022
1279 Clouds 24 1022 49 10000 2.8 106 17:46 26.10.2022
1280 Clouds 26 1022 42 10000 3.05 79 14:54 26.10.2022
1281 Clouds 24 1022 36 10000 2.97 75 13:31 26.10.2022
1282 Clouds 23 1022 35 10000 2.75 86 12:19 26.10.2022
1283 Clouds 21 1022 53 10000 2.57 110 09:19 26.10.2022
1284 Clouds 17 1022 42 10000 2.57 110 08:53 26.10.2022
1285 Clouds 20 1001 34 10000 2.08 118 00:54 26.10.2022
1286 Clouds 20 1001 35 10000 2.08 118 00:35 26.10.2022
1287 Clouds 22 1022 60 10000 1.93 96 22:29 25.10.2022
1288 Clouds 22 1022 60 10000 1.93 96 21:45 25.10.2022
1289 Clouds 22 1021 56 10000 1.61 111 20:29 25.10.2022
1290 Clouds 23 1021 65 10000 1.45 111 18:56 25.10.2022
1291 Clouds 25 1021 62 10000 1.52 82 16:45 25.10.2022
1292 Clouds 26 1022 44 10000 0.97 12 11:46 25.10.2022
1293 Clouds 27 1022 45 10000 0.23 88 10:55 25.10.2022
1294 Clouds 24 1022 46 10000 0.75 141 10:34 25.10.2022
1295 Clouds 17 1022 42 10000 1.1 139 08:38 25.10.2022
1296 Clouds 20 1001 29 10000 1.31 135 08:18 25.10.2022
1297 Clouds 20 1001 29 10000 1.31 135 07:53 25.10.2022
1298 Clouds 20 1000 31 10000 1.35 133 06:46 25.10.2022
1299 Clear 20 1001 28 10000 1.53 166 03:32 25.10.2022
1300 Clear 21 1001 31 10000 1.17 159 00:32 25.10.2022
1301 Clear 21 1001 37 10000 2.1 139 22:28 24.10.2022
1302 Clear 21 1002 39 10000 2.1 139 21:49 24.10.2022
1303 Clear 21 1002 36 10000 2.16 131 20:55 24.10.2022
1304 Clouds 21 1002 39 10000 2.26 134 20:23 24.10.2022
1305 Clear 21 1002 43 10000 2.48 139 18:41 24.10.2022
1306 Clear 24 1022 62 10000 1.95 119 16:55 24.10.2022
1307 Clear 25 1022 54 10000 1.45 106 15:34 24.10.2022
1308 Clear 25 1023 55 10000 0.87 101 14:20 24.10.2022
1309 Clear 25 1024 47 10000 0.54 97 12:37 24.10.2022
1310 Clear 20 1003 36 10000 1.7 161 09:27 24.10.2022
1311 Clear 19 1002 29 10000 1.68 166 07:51 24.10.2022
1312 Clear 20 1003 41 10000 1.69 146 22:40 23.10.2022
1313 Clear 20 1003 41 10000 2.27 138 20:39 23.10.2022
1314 Clear 21 1003 46 10000 2.3 131 18:53 23.10.2022
1315 Clear 23 1023 65 10000 1.43 86 17:29 23.10.2022
1316 Clear 23 1023 66 10000 1.43 86 17:29 23.10.2022
1317 Clear 24 1023 59 10000 1.29 55 15:41 23.10.2022
1318 Clear 24 1023 57 10000 1.19 38 14:56 23.10.2022
1319 Clear 24 1025 57 10000 0.16 109 11:56 23.10.2022
1320 Clear 23 1025 53 10000 0.54 152 10:40 23.10.2022
1321 Clouds 19 1003 38 10000 1.5 155 06:27 23.10.2022
1322 Clouds 20 1004 39 10000 1.79 156 23:24 22.10.2022
1323 Clouds 20 1004 45 10000 1.79 156 22:30 22.10.2022
1324 Clouds 20 1004 45 10000 2.21 151 21:39 22.10.2022
1325 Clear 20 1003 45 10000 2.11 148 20:18 22.10.2022
1326 Clear 21 1003 46 10000 2.11 148 19:31 22.10.2022
1327 Clear 21 1003 41 10000 1.68 116 17:41 22.10.2022
1328 Clear 23 1023 62 10000 1.39 102 17:41 22.10.2022
1329 Clear 24 1023 60 10000 1.39 102 16:49 22.10.2022
1330 Clear 25 1023 49 10000 1.47 20 14:57 22.10.2022
1331 Clear 25 1023 50 10000 1.47 20 14:31 22.10.2022
1332 Clear 24 1024 50 10000 0.67 233 11:35 22.10.2022
1333 Clear 21 1003 37 10000 1.49 201 09:45 22.10.2022
1334 Clear 21 1003 37 10000 1.49 201 09:45 22.10.2022
1335 Clear 20 1003 38 10000 1.69 190 08:37 22.10.2022
1336 Clear 20 1002 30 10000 1.82 190 05:50 22.10.2022
1337 Clear 20 1002 40 10000 1.66 175 00:31 22.10.2022
1338 Clear 20 1003 48 10000 1.64 178 22:50 21.10.2022
1339 Clear 20 1003 48 10000 1.97 164 21:32 21.10.2022
1340 Clear 20 1002 48 10000 1.13 138 20:26 21.10.2022
1341 Clear 21 1001 40 10000 0.93 48 17:50 21.10.2022
1342 Clear 24 1021 59 10000 1.4 28 14:40 21.10.2022
1343 Clear 25 1021 55 10000 1.01 14 13:39 21.10.2022
1344 Clear 23 1022 61 10000 0.35 269 11:46 21.10.2022
1345 Clear 20 1002 22 10000 0.73 206 10:23 21.10.2022
1346 Clear 19 1001 44 10000 0.82 193 08:44 21.10.2022
1347 Clear 19 1001 44 10000 1.27 181 08:20 21.10.2022
1348 Clear 20 1000 43 10000 1.14 184 03:52 21.10.2022
1349 Clear 20 1000 50 10000 2.15 145 23:23 20.10.2022
1350 Clear 20 1000 50 10000 2.14 124 20:57 20.10.2022
1351 Clear 20 1000 49 10000 1.83 108 19:43 20.10.2022
1352 Clear 21 999 48 10000 1.82 82 18:49 20.10.2022
1353 Clear 21 999 45 10000 1.92 59 17:43 20.10.2022
1354 Clear 24 1019 66 10000 2.16 36 14:38 20.10.2022
1355 Clear 23 1020 67 10000 1.89 39 12:32 20.10.2022
1356 Clear 22 1020 69 10000 1.33 92 11:29 20.10.2022
1357 Clear 22 1020 70 10000 1.33 92 10:51 20.10.2022
1358 Clear 20 999 52 10000 1.37 123 09:22 20.10.2022
1359 Clear 19 998 53 10000 0.5 95 07:23 20.10.2022
1360 Clear 20 999 45 10000 0.2 132 02:22 20.10.2022
1361 Clear 20 999 52 10000 0.46 120 23:39 19.10.2022
1362 Clear 20 999 50 10000 0.8 109 22:23 19.10.2022
1363 Clear 20 999 50 10000 0.75 83 21:20 19.10.2022
1364 Clear 20 999 50 10000 1.12 51 19:55 19.10.2022
1365 Clear 21 999 47 10000 2.14 13 17:47 19.10.2022
1366 Clear 22 1019 68 10000 2.57 6 16:24 19.10.2022
1367 Clear 23 1020 63 10000 2.06 9 14:20 19.10.2022
1368 Clear 23 1021 66 10000 1.62 33 12:20 19.10.2022
1369 Clear 20 1001 50 10000 1.26 60 08:49 19.10.2022
1370 Clear 19 1000 51 10000 1.07 58 07:23 19.10.2022
1371 Clear 20 1002 44 10000 1.11 102 01:33 19.10.2022
1372 Clear 20 1003 50 10000 1.77 100 23:25 18.10.2022
1373 Clear 20 1003 49 10000 1.58 82 21:49 18.10.2022
1374 Clear 20 1003 49 10000 1.63 55 21:24 18.10.2022
1375 Clear 21 1003 49 10000 1.92 37 20:26 18.10.2022
1376 Clear 21 1003 47 10000 2 31 18:58 18.10.2022
1377 Clear 24 1004 43 10000 0.45 323 16:56 18.10.2022
1378 Clear 25 1004 40 10000 1.79 355 14:59 18.10.2022
1379 Clear 25 1005 41 10000 1.34 360 13:39 18.10.2022
1380 Clear 24 1006 41 10000 1.79 30 11:47 18.10.2022
1381 Clear 21 1027 73 10000 1.11 42 10:29 18.10.2022
1382 Clear 20 1007 50 10000 0.45 140 09:26 18.10.2022
1383 Clear 18 1006 43 10000 0.45 119 06:38 18.10.2022
1384 Clear 20 1007 51 10000 1.83 126 23:40 17.10.2022
1385 Clear 21 1007 50 10000 1.64 94 21:31 17.10.2022
1386 Clear 21 1007 50 10000 1.64 94 20:49 17.10.2022
1387 Clear 21 1007 50 10000 1.73 85 20:29 17.10.2022
1388 Clear 21 1007 50 10000 1.73 85 19:41 17.10.2022
1389 Clear 21 1007 50 10000 1.73 85 19:41 17.10.2022
1390 Clear 22 1006 46 10000 0.89 10 17:49 17.10.2022
1391 Clouds 25 1006 43 10000 1.34 10 15:55 17.10.2022
1392 Clear 25 1006 43 10000 1.34 358 15:20 17.10.2022
1393 Clear 25 1007 43 10000 2.68 2 12:52 17.10.2022
1394 Clear 20 1006 49 10000 0.67 188 08:59 17.10.2022
1395 Clear 20 1004 49 10000 0.45 103 01:41 17.10.2022
1396 Clear 20 1004 49 10000 0.45 80 22:54 16.10.2022
1397 Clear 20 1004 49 10000 0.45 80 22:54 16.10.2022
1398 Clear 21 1003 48 10000 0.45 64 21:22 16.10.2022
1399 Clear 21 1003 48 10000 0.45 64 21:22 16.10.2022
1400 Clouds 21 1003 47 10000 0.45 166 19:52 16.10.2022
1401 Clouds 21 1003 47 10000 2.16 98 19:33 16.10.2022
1402 Clouds 24 1001 44 10000 0.89 324 17:46 16.10.2022
1403 Clouds 23 1001 42 10000 1.34 2 16:32 16.10.2022
1404 Clouds 25 1001 41 10000 0.89 358 15:55 16.10.2022
1405 Clear 23 1022 63 10000 1.36 56 12:34 16.10.2022
1406 Clear 22 1002 42 10000 1.33 84 11:39 16.10.2022
1407 Clear 22 1001 46 10000 1.75 122 10:26 16.10.2022
1408 Clear 20 1000 47 10000 2.37 122 07:38 16.10.2022
1409 Clouds 20 999 58 10000 1.73 109 23:43 15.10.2022
1410 Clouds 20 999 58 10000 1.73 109 23:43 15.10.2022
1411 Clouds 20 999 58 10000 0.54 17 21:58 15.10.2022
1412 Clouds 21 998 58 10000 0.7 13 21:20 15.10.2022
1413 Clouds 22 997 48 10000 1.03 20 19:34 15.10.2022
1414 Clouds 22 1017 77 10000 2.14 346 17:24 15.10.2022
1415 Clouds 23 996 53 10000 0.89 12 15:45 15.10.2022
1416 Clouds 22 996 51 10000 0.89 182 13:37 15.10.2022
1417 Clouds 22 997 61 10000 0.89 182 11:51 15.10.2022
1418 Clouds 20 1017 88 10000 1.99 316 09:57 15.10.2022
1419 Clouds 19 996 55 10000 0.45 164 07:55 15.10.2022
1420 Clear 21 996 49 10000 1.9 276 00:41 15.10.2022
1421 Clear 21 997 48 10000 0.89 125 22:59 14.10.2022
1422 Clear 21 997 48 10000 0.45 207 22:22 14.10.2022
1423 Clear 21 997 48 10000 0.45 290 21:24 14.10.2022
1424 Clouds 21 996 51 10000 4.2 314 19:22 14.10.2022
1425 Clouds 23 996 42 10000 6.19 319 16:19 14.10.2022
1426 Clouds 23 1017 64 10000 6.05 319 13:21 14.10.2022
1427 Clouds 23 997 45 10000 0.45 3 11:36 14.10.2022
1428 Clouds 21 996 48 10000 1.79 267 08:59 14.10.2022
1429 Clouds 21 996 50 10000 0.89 246 06:53 14.10.2022
1430 Clouds 20 996 50 10000 0.89 271 06:18 14.10.2022
1431 Clouds 20 996 51 10000 0.89 294 05:42 14.10.2022
1432 Clouds 20 996 53 10000 0.89 179 03:24 14.10.2022
1433 Clouds 21 996 50 10000 0.89 179 23:43 13.10.2022
1434 Clouds 21 996 47 10000 0.89 209 21:57 13.10.2022
1435 Clouds 22 996 47 10000 0.89 197 21:21 13.10.2022
1436 Clouds 23 995 45 10000 1.79 219 19:43 13.10.2022
1437 Clouds 23 996 43 10000 0.45 255 18:53 13.10.2022
1438 Clouds 23 995 45 10000 1.79 210 18:21 13.10.2022
1439 Clouds 23 995 45 10000 1.79 210 18:21 13.10.2022
1440 Clouds 24 995 47 10000 0.89 227 16:28 13.10.2022
1441 Clouds 22 995 49 10000 7 252 15:41 13.10.2022
1442 Clouds 22 996 25 10000 5.6 241 14:18 13.10.2022
1443 Clouds 21 998 43 10000 4.56 230 12:45 13.10.2022
1444 Clouds 21 998 25 10000 1.34 182 11:34 13.10.2022
1445 Rain 22 1019 76 4261 2.67 202 09:21 13.10.2022
1446 Clouds 22 1018 77 5568 3.18 201 07:39 13.10.2022
1447 Clouds 21 1019 80 10000 2.66 208 06:29 13.10.2022
1448 Clouds 21 998 57 10000 2.92 121 01:47 13.10.2022
1449 Clouds 21 998 58 10000 2.53 126 00:45 13.10.2022
1450 Clouds 22 998 59 10000 2.95 131 22:46 12.10.2022
1451 Clouds 21 998 65 10000 3.36 123 21:51 12.10.2022
1452 Clouds 21 998 65 10000 3.04 102 21:20 12.10.2022
1453 Rain 20 1020 93 10000 3.04 102 20:46 12.10.2022
1454 Rain 22 999 61 10000 1.32 87 19:26 12.10.2022
1455 Clouds 22 998 58 10000 0.74 52 18:19 12.10.2022
1456 Rain 23 998 55 10000 0.74 52 17:45 12.10.2022
1457 Clouds 25 998 48 10000 0.89 341 14:52 12.10.2022
1458 Clouds 26 999 47 10000 2.24 2 13:54 12.10.2022
1459 Clouds 25 999 46 10000 2.24 341 12:31 12.10.2022
1460 Clouds 22 999 48 10000 0.45 157 09:37 12.10.2022
1461 Clouds 21 998 45 10000 0.45 157 07:42 12.10.2022
1462 Clouds 21 998 47 10000 0.45 157 06:45 12.10.2022
1463 Clouds 21 998 47 10000 0.45 157 06:22 12.10.2022
1464 Clouds 21 998 51 10000 0.45 157 00:55 12.10.2022
1465 Clear 22 998 52 10000 0.45 157 21:59 11.10.2022
1466 Clear 22 998 51 10000 0.45 157 20:38 11.10.2022
1467 Clouds 23 998 48 10000 1.79 56 18:28 11.10.2022
1468 Clouds 24 998 46 10000 0.89 22 16:37 11.10.2022
1469 Clouds 25 998 49 10000 0.89 359 14:34 11.10.2022
1470 Clouds 25 998 51 10000 1.34 4 11:52 11.10.2022
1471 Clouds 22 998 47 10000 0.89 47 10:28 11.10.2022
1472 Clouds 22 998 56 10000 0.89 47 09:26 11.10.2022
1473 Clouds 21 997 45 10000 0.89 47 05:36 11.10.2022
1474 Clear 21 998 52 10000 0.45 118 02:22 11.10.2022
1475 Clear 21 998 52 10000 1.06 235 00:29 11.10.2022
1476 Clear 21 997 49 10000 0.45 141 21:24 10.10.2022
1477 Clear 22 997 48 10000 0.45 171 19:46 10.10.2022
1478 Clear 22 997 48 10000 0.45 171 19:46 10.10.2022
1479 Clear 22 997 48 10000 0.45 171 19:46 10.10.2022
1480 Clear 23 997 45 10000 1.75 313 18:30 10.10.2022
1481 Clear 24 997 41 10000 1.92 322 16:51 10.10.2022
1482 Clouds 26 996 41 10000 2.24 354 15:20 10.10.2022
1483 Clouds 24 1018 73 10000 1.98 226 12:54 10.10.2022
1484 Clouds 23 1018 82 10000 2.57 192 11:56 10.10.2022
1485 Rain 21 997 50 10000 3.07 219 08:45 10.10.2022
1486 Clouds 21 1017 72 10000 2.84 191 05:42 10.10.2022
1487 Clouds 22 996 41 10000 2.94 189 04:39 10.10.2022
1488 Clouds 20 997 50 10000 1.34 42 00:31 10.10.2022
1489 Clouds 20 997 49 10000 1.34 42 22:37 09.10.2022
1490 Rain 20 997 49 10000 1.34 42 22:18 09.10.2022
1491 Rain 20 998 48 10000 1.34 42 21:22 09.10.2022
1492 Rain 20 999 48 10000 1.34 42 20:20 09.10.2022
1493 Rain 20 998 48 10000 1.34 42 19:37 09.10.2022
1494 Rain 20 998 50 10000 1.34 42 18:43 09.10.2022
1495 Clouds 25 996 41 10000 1.57 148 16:56 09.10.2022
1496 Clouds 25 996 41 10000 0.45 346 16:33 09.10.2022
1497 Clouds 26 996 38 10000 1.34 360 15:38 09.10.2022
1498 Clouds 27 997 39 10000 1.34 342 14:31 09.10.2022
1499 Clouds 27 998 39 10000 0.89 345 13:34 09.10.2022
1500 Clouds 26 998 40 10000 0.89 7 12:29 09.10.2022
1501 Clouds 24 1020 63 10000 1.12 131 10:49 09.10.2022
1502 Clouds 23 998 47 10000 1.76 145 08:30 09.10.2022
1503 Clouds 21 998 45 10000 0.45 115 03:40 09.10.2022
1504 Clouds 21 1019 70 10000 1.57 175 02:52 09.10.2022
1505 Clouds 21 998 40 10000 0.89 144 00:38 09.10.2022
1506 Clear 21 999 47 10000 2.29 148 22:58 08.10.2022
1507 Clear 21 999 40 10000 0.45 117 22:19 08.10.2022
1508 Clear 21 999 44 10000 1.52 117 20:29 08.10.2022
1509 Clear 22 998 41 10000 0.45 181 18:57 08.10.2022
1510 Clear 25 998 40 10000 0.89 326 17:33 08.10.2022
1511 Clear 26 998 38 10000 1.53 14 15:26 08.10.2022
1512 Clear 26 999 37 10000 0.89 26 13:31 08.10.2022
1513 Clear 23 1021 60 10000 0.64 209 10:48 08.10.2022
1514 Clouds 23 1021 62 10000 1.14 198 10:24 08.10.2022
1515 Clouds 22 1021 67 10000 1.49 204 09:19 08.10.2022
1516 Clouds 20 999 44 10000 0.45 48 05:31 08.10.2022
1517 Clouds 20 1000 46 10000 1.48 206 00:59 08.10.2022
1518 Clouds 20 1001 44 10000 1.37 194 23:39 07.10.2022
1519 Clouds 20 1001 44 10000 0.45 114 23:20 07.10.2022
1520 Clouds 21 1001 43 10000 1.42 164 21:52 07.10.2022
1521 Clouds 21 1001 43 10000 0.45 217 19:56 07.10.2022
1522 Clouds 24 1000 38 10000 1.5 65 17:54 07.10.2022
1523 Clouds 24 1000 36 10000 1.79 356 16:51 07.10.2022
1524 Clear 25 1001 35 10000 2.24 351 15:27 07.10.2022
1525 Clear 26 1001 28 10000 1.8 7 14:22 07.10.2022
1526 Clear 23 1024 52 10000 0.59 12 11:38 07.10.2022
1527 Clear 21 1024 66 10000 1.06 149 09:25 07.10.2022
1528 Clouds 20 1002 44 10000 0.45 180 08:29 07.10.2022
1529 Clouds 19 1002 43 10000 1.57 149 04:39 07.10.2022
1530 Clouds 20 1004 42 10000 0.45 53 23:52 06.10.2022
1531 Clouds 21 1005 40 10000 1.86 103 22:50 06.10.2022
1532 Clouds 21 1005 33 10000 2.26 90 21:39 06.10.2022
1533 Clouds 21 1005 36 10000 2.33 80 20:41 06.10.2022
1534 Clouds 23 1004 31 10000 0.89 50 18:58 06.10.2022
1535 Clouds 24 1004 31 10000 3.28 53 18:32 06.10.2022
1536 Clear 26 1004 30 10000 1.34 360 15:47 06.10.2022
1537 Clouds 26 1005 29 10000 2.68 21 13:49 06.10.2022
1538 Clouds 23 1027 60 10000 1.92 64 10:43 06.10.2022
1539 Clear 19 1004 35 10000 0.45 81 05:20 06.10.2022
1540 Clouds 20 1005 36 10000 1.02 174 02:22 06.10.2022
1541 Clouds 21 1005 40 10000 0.45 113 22:29 05.10.2022
1542 Clouds 22 1004 37 10000 0.45 53 19:54 05.10.2022
1543 Clear 25 1004 32 10000 1.34 333 17:48 05.10.2022
1544 Clear 24 1024 50 10000 2.58 53 17:27 05.10.2022
1545 Clear 27 1004 26 10000 1.79 10 15:37 05.10.2022
1546 Clear 26 1004 25 10000 0.45 36 14:38 05.10.2022
1547 Clear 27 1004 26 10000 0.89 32 13:39 05.10.2022
1548 Clear 26 1004 34 10000 1.34 352 12:19 05.10.2022
1549 Clear 20 1003 47 10000 1.52 112 08:31 05.10.2022
1550 Clear 20 1003 42 10000 2.08 108 07:22 05.10.2022
1551 Clear 21 1002 41 10000 0.45 41 05:35 05.10.2022
1552 Clear 21 1002 46 10000 0.45 81 02:40 05.10.2022
1553 Clear 22 1002 44 10000 0.45 49 00:41 05.10.2022
1554 Clear 22 1002 44 10000 2.26 89 00:23 05.10.2022
1555 Clouds 22 1001 47 10000 2.03 82 21:48 04.10.2022
1556 Clouds 23 1001 46 10000 0.89 80 20:22 04.10.2022
1557 Clouds 23 1000 45 10000 0.45 45 18:56 04.10.2022
1558 Clouds 24 1000 45 10000 1.97 64 18:34 04.10.2022
1559 Clear 25 999 43 10000 1.79 354 16:58 04.10.2022
1560 Clear 26 999 43 10000 0.45 22 16:26 04.10.2022
1561 Clear 25 999 42 10000 1.34 4 11:25 04.10.2022
1562 Clear 21 998 49 10000 8.05 0 08:42 04.10.2022
1563 Clouds 20 996 49 10000 0.89 180 06:25 04.10.2022
1564 Clouds 21 1017 73 10000 0.54 276 01:24 04.10.2022
1565 Clouds 22 996 46 10000 1.27 276 23:36 03.10.2022
1566 Clouds 22 996 45 10000 1.52 275 21:46 03.10.2022
1567 Clouds 22 996 44 10000 1.17 305 20:51 03.10.2022
1568 Clouds 23 996 43 10000 1.8 331 18:57 03.10.2022
1569 Clouds 24 1017 64 10000 3 344 17:39 03.10.2022
1570 Clear 26 996 39 10000 0.45 348 16:40 03.10.2022
1571 Clear 27 996 39 10000 3.13 348 15:26 03.10.2022
1572 Clear 26 1017 54 10000 3.57 316 13:44 03.10.2022
1573 Clear 25 997 41 10000 2.95 294 11:47 03.10.2022
1574 Clear 25 997 41 10000 2.65 266 10:25 03.10.2022
1575 Clear 24 998 42 10000 1.76 249 08:59 03.10.2022
1576 Clear 21 1019 67 10000 1.24 202 04:49 03.10.2022
1577 Clouds 21 1021 69 10000 1.5 242 01:52 03.10.2022
1578 Clear 21 1022 73 10000 0.54 185 22:24 02.10.2022
1579 Clear 21 1022 73 10000 0.54 185 22:24 02.10.2022
1580 Clear 22 1023 70 10000 0.33 217 20:32 02.10.2022
1581 Clear 24 1002 45 10000 0.45 319 18:27 02.10.2022
1582 Clear 25 1002 43 10000 2.24 335 17:32 02.10.2022
1583 Clear 26 1002 43 10000 0.89 22 16:33 02.10.2022
1584 Clear 26 1003 42 10000 0.89 8 15:40 02.10.2022
1585 Clear 26 1004 40 10000 1.79 358 13:51 02.10.2022
1586 Clear 25 1004 40 10000 1.34 1 12:48 02.10.2022
1587 Clear 25 1004 43 10000 0.45 355 12:24 02.10.2022
1588 Clear 25 1004 43 10000 0.89 28 11:35 02.10.2022
1589 Clear 23 1024 64 10000 1.82 297 10:36 02.10.2022
1590 Clear 21 1004 49 10000 0.45 236 08:31 02.10.2022
1591 Clear 21 1004 49 10000 0.45 236 08:31 02.10.2022
1592 Clear 21 1003 40 10000 0.89 221 06:38 02.10.2022
1593 Clear 21 1003 38 10000 2.98 292 02:54 02.10.2022
1594 Clouds 20 1003 37 10000 3.38 298 00:45 02.10.2022
1595 Clouds 21 1003 43 10000 0.45 93 23:42 01.10.2022
1596 Clear 21 1003 42 10000 0.45 186 22:31 01.10.2022
1597 Clouds 22 1002 42 10000 1.34 227 19:58 01.10.2022
1598 Clouds 22 1001 47 10000 0.89 319 17:49 01.10.2022
1599 Clouds 24 1001 47 10000 1.79 281 16:29 01.10.2022
1600 Clouds 24 1021 72 10000 4.89 326 14:19 01.10.2022
1601 Clouds 25 1020 69 10000 5.22 328 12:57 01.10.2022
1602 Clouds 25 1020 71 10000 5.19 328 12:29 01.10.2022
1603 Clouds 25 1019 71 10000 3.79 320 11:19 01.10.2022
1604 Clouds 24 1019 75 10000 3.79 320 10:31 01.10.2022
1605 Clouds 23 998 58 10000 2.24 1 09:27 01.10.2022
1606 Clouds 23 997 59 10000 2.24 1 08:41 01.10.2022
1607 Clouds 22 994 61 10000 2.24 1 03:55 01.10.2022
1608 Clouds 22 994 62 10000 2.24 1 03:28 01.10.2022
1609 Clouds 22 994 64 10000 2.24 1 23:33 30.09.2022
1610 Rain 22 993 57 10000 2.24 1 22:19 30.09.2022
1611 Rain 22 992 56 10000 2.24 1 21:22 30.09.2022
1612 Rain 23 992 54 10000 2.24 1 20:43 30.09.2022
1613 Rain 25 1013 68 10000 1.82 106 19:32 30.09.2022
1614 Clouds 29 988 35 10000 0.89 351 17:27 30.09.2022
1615 Clouds 30 989 34 10000 1.79 14 15:26 30.09.2022
1616 Clouds 30 989 27 10000 3.58 255 13:27 30.09.2022
1617 Clouds 27 1011 52 10000 3.58 159 11:57 30.09.2022
1618 Clouds 25 1011 60 10000 4.19 166 10:23 30.09.2022
1619 Clouds 23 1010 64 10000 4.47 166 08:23 30.09.2022
1620 Clouds 23 1009 65 10000 3.9 171 04:55 30.09.2022
1621 Clear 23 1009 59 10000 3.7 178 02:27 30.09.2022
1622 Clear 23 988 35 10000 0.89 270 22:26 29.09.2022
1623 Clear 23 988 35 10000 3.6 180 21:26 29.09.2022
1624 Clear 24 988 34 10000 1.34 42 20:35 29.09.2022
1625 Clear 26 1008 46 10000 4.02 210 18:32 29.09.2022
1626 Clear 27 1008 43 10000 6.87 211 17:22 29.09.2022
1627 Clear 28 1008 41 10000 7 216 16:28 29.09.2022
1628 Clear 28 1008 41 10000 7 216 15:35 29.09.2022
1629 Clear 27 1008 45 10000 7.23 228 14:25 29.09.2022
1630 Clear 25 987 40 10000 4.02 235 09:45 29.09.2022
1631 Clouds 21 1008 76 10000 5.25 233 06:45 29.09.2022
1632 Clouds 21 1009 71 10000 4.54 211 02:45 29.09.2022
1633 Clouds 22 988 43 10000 4.92 224 23:54 28.09.2022
1634 Clouds 22 1010 66 10000 3.89 213 22:32 28.09.2022
1635 Clouds 22 988 40 10000 0.89 196 21:29 28.09.2022
1636 Clouds 23 988 38 10000 4.83 248 20:22 28.09.2022
1637 Clouds 24 988 35 10000 0.89 238 18:20 28.09.2022
1638 Clear 26 988 33 10000 1.79 249 14:51 28.09.2022
1639 Clouds 25 993 41 10000 7.27 271 12:49 28.09.2022
1640 Clouds 24 993 49 10000 0.89 335 10:51 28.09.2022
1641 Clouds 22 991 48 10000 1.79 218 08:33 28.09.2022
1642 Clouds 22 991 48 10000 0.89 298 06:50 28.09.2022
1643 Clear 22 992 50 10000 1.79 220 01:56 28.09.2022
1644 Clear 22 993 60 10000 4.75 234 01:31 28.09.2022
1645 Clear 22 992 49 10000 3.58 200 01:31 28.09.2022
1646 Clear 23 991 47 10000 3.13 223 23:19 27.09.2022
1647 Clear 23 993 58 10000 5.19 248 21:42 27.09.2022
1648 Clear 23 991 40 10000 1.79 235 20:37 27.09.2022
1649 Clear 23 991 36 10000 0.89 259 19:47 27.09.2022
1650 Clear 25 990 32 10000 0.89 234 18:37 27.09.2022
1651 Clear 25 992 44 10000 5.69 276 17:44 27.09.2022
1652 Clear 26 990 35 10000 1.79 216 15:31 27.09.2022
1653 Clear 26 990 38 10000 1.79 256 14:55 27.09.2022
1654 Clouds 25 993 56 10000 5.34 288 12:42 27.09.2022
1655 Clouds 26 991 34 10000 1.79 250 11:32 27.09.2022
1656 Clouds 23 991 42 10000 0.45 142 08:49 27.09.2022
1657 Clouds 22 990 55 10000 0.45 266 06:39 27.09.2022
1658 Clouds 23 992 67 10000 0.45 275 01:57 27.09.2022
1659 Clouds 23 992 68 10000 0.45 275 01:28 27.09.2022
1660 Clouds 24 992 49 10000 3.6 243 23:26 26.09.2022
1661 Clouds 24 992 51 10000 3.6 243 22:34 26.09.2022
1662 Clouds 24 992 53 10000 2.24 225 20:45 26.09.2022
1663 Clouds 25 991 47 10000 1.79 216 19:31 26.09.2022
1664 Clouds 26 991 42 10000 2.24 220 18:32 26.09.2022
1665 Clouds 26 991 58 10000 1.34 53 16:34 26.09.2022
1666 Clouds 26 992 62 10000 1.34 335 14:28 26.09.2022
1667 Clouds 21 989 59 10000 4.05 173 11:29 26.09.2022
1668 Rain 21 990 59 10000 4.05 173 10:38 26.09.2022
1669 Rain 21 990 59 10000 3.38 192 10:20 26.09.2022
1670 Rain 21 991 59 10000 3.38 192 09:54 26.09.2022
1671 Rain 21 991 53 10000 3.23 200 09:24 26.09.2022
1672 Rain 21 991 53 10000 3.23 200 09:24 26.09.2022
1673 Rain 22 990 43 10000 2.73 185 07:56 26.09.2022
1674 Clouds 25 1014 60 10000 3.53 211 02:54 26.09.2022
1675 Clouds 25 1014 57 10000 4.52 187 23:50 25.09.2022
1676 Clouds 25 1015 51 10000 3.33 180 22:29 25.09.2022
1677 Clouds 25 1015 56 10000 3.33 180 21:35 25.09.2022
1678 Clouds 25 1015 56 10000 2.84 179 20:47 25.09.2022
1679 Clouds 27 992 33 10000 2.68 262 19:43 25.09.2022
1680 Clouds 27 992 30 10000 4.02 169 18:43 25.09.2022
1681 Clouds 28 992 28 10000 0.89 180 18:20 25.09.2022
1682 Clouds 29 1013 41 10000 4.89 203 16:36 25.09.2022
1683 Clear 29 1013 41 10000 4.73 204 15:44 25.09.2022
1684 Clouds 29 1015 42 10000 4.69 190 14:22 25.09.2022
1685 Clouds 29 994 28 10000 1.79 132 12:55 25.09.2022
1686 Clouds 26 994 34 10000 8.05 167 10:32 25.09.2022
1687 Clouds 23 1016 59 10000 3.81 180 08:24 25.09.2022
1688 Clouds 22 1016 60 10000 3.74 186 05:47 25.09.2022
1689 Clouds 22 1017 61 10000 3.58 183 01:55 25.09.2022
1690 Clouds 22 1019 60 10000 3.8 170 22:35 24.09.2022
1691 Clouds 23 996 36 10000 3.13 185 20:55 24.09.2022
1692 Clouds 24 997 34 10000 0.89 16 19:23 24.09.2022
1693 Clouds 24 1018 55 10000 4.1 201 17:49 24.09.2022
1694 Clouds 25 1018 52 10000 3.41 197 16:27 24.09.2022
1695 Clouds 26 1019 49 10000 3.36 196 15:21 24.09.2022
1696 Clouds 25 1020 49 10000 3.9 187 13:27 24.09.2022
1697 Clouds 26 1000 29 10000 0.45 275 12:51 24.09.2022
1698 Clouds 25 1000 30 10000 1.34 247 11:21 24.09.2022
1699 Clouds 22 1021 52 10000 3.13 177 09:46 24.09.2022
1700 Clouds 19 1002 37 10000 2.66 156 08:45 24.09.2022
1701 Clear 19 999 31 10000 2.32 146 07:38 24.09.2022
1702 Clear 18 1002 33 10000 2.61 136 04:46 24.09.2022
1703 Clear 18 1002 32 10000 2.37 126 02:24 24.09.2022
1704 Clear 20 1002 30 10000 2.43 101 22:36 23.09.2022
1705 Clear 20 1002 30 10000 2.68 81 21:28 23.09.2022
1706 Clear 21 1001 30 10000 0.89 48 20:56 23.09.2022
1707 Clear 21 1001 27 10000 0.89 53 20:20 23.09.2022
1708 Clear 23 1000 27 10000 0.89 2 18:50 23.09.2022
1709 Clear 24 1001 28 10000 1.79 42 14:55 23.09.2022
1710 Clear 24 1001 39 10000 3.52 62 10:55 23.09.2022
1711 Clear 23 1000 37 10000 1.79 8 09:33 23.09.2022
1712 Clear 21 997 38 10000 2.29 40 05:58 23.09.2022
1713 Clouds 22 998 42 10000 2.54 77 00:32 23.09.2022
1714 Clouds 22 998 40 10000 3.3 75 23:21 22.09.2022
1715 Clouds 22 998 39 10000 0.45 45 22:26 22.09.2022
1716 Clouds 23 998 38 10000 3.74 84 20:51 22.09.2022
1717 Clouds 23 997 34 10000 0.45 36 19:56 22.09.2022
1718 Clouds 24 997 39 10000 1.79 32 17:26 22.09.2022
1719 Clouds 25 998 42 10000 2.68 342 12:46 22.09.2022
1720 Clouds 23 995 44 10000 0.45 36 10:32 22.09.2022
1721 Clouds 24 997 49 10000 0.45 270 08:52 22.09.2022
1722 Clouds 22 997 50 10000 1.92 56 06:57 22.09.2022
1723 Clouds 22 997 51 10000 0.45 187 03:46 22.09.2022
1724 Clouds 23 998 55 10000 0.89 164 23:31 21.09.2022
1725 Clouds 24 997 48 10000 0.45 63 21:50 21.09.2022
1726 Clouds 25 997 41 10000 3.27 60 20:19 21.09.2022
1727 Clouds 26 997 38 10000 1.34 12 17:49 21.09.2022
1728 Clouds 28 996 32 10000 1.34 22 16:53 21.09.2022
1729 Clouds 28 996 31 10000 0.45 11 14:37 21.09.2022
1730 Clouds 28 996 33 10000 1.34 344 12:58 21.09.2022
1731 Clouds 27 997 39 10000 0.89 339 11:30 21.09.2022
1732 Clouds 26 998 54 10000 1.09 40 10:29 21.09.2022
1733 Clouds 25 998 59 10000 1.43 70 09:24 21.09.2022
1734 Clouds 23 996 52 10000 1.41 98 07:57 21.09.2022
1735 Clear 22 995 45 10000 0.89 181 02:49 21.09.2022
1736 Clear 23 995 45 10000 0.73 96 02:28 21.09.2022
1737 Clear 23 995 45 10000 0.48 101 00:56 21.09.2022
1738 Clear 23 995 48 10000 0.45 90 23:18 20.09.2022
1739 Clear 24 995 46 10000 1.92 100 20:52 20.09.2022
1740 Clear 25 995 45 10000 1.62 79 19:43 20.09.2022
1741 Clear 28 995 39 10000 1.34 4 16:41 20.09.2022
1742 Clear 28 995 38 10000 0.89 341 14:51 20.09.2022
1743 Clear 28 995 38 10000 2.24 6 13:48 20.09.2022
1744 Clear 27 997 52 10000 2.28 97 10:41 20.09.2022
1745 Clear 23 995 48 10000 2.89 103 08:29 20.09.2022
1746 Clear 22 995 45 10000 2.36 113 06:22 20.09.2022
1747 Clear 22 995 51 10000 0.45 132 04:28 20.09.2022
1748 Clouds 24 996 41 10000 2.04 137 23:32 19.09.2022
1749 Clouds 24 996 43 10000 1.91 104 22:23 19.09.2022
1750 Clear 25 996 42 10000 1.64 96 20:58 19.09.2022
1751 Clear 25 995 41 10000 1.64 96 20:39 19.09.2022
1752 Clouds 28 995 35 10000 0.45 354 17:55 19.09.2022
1753 Clouds 28 997 42 10000 0.89 358 15:53 19.09.2022
1754 Clouds 28 997 41 10000 1.34 1 13:39 19.09.2022
1755 Clouds 28 996 32 10000 1.79 268 11:30 19.09.2022
1756 Clouds 24 997 49 10000 1.41 202 09:20 19.09.2022
1757 Clear 22 996 42 10000 1.58 186 08:20 19.09.2022
1758 Clear 21 997 41 10000 0.45 53 02:31 19.09.2022
1759 Clear 23 997 37 10000 1.61 118 23:24 18.09.2022
1760 Clear 23 997 35 10000 0.89 77 21:47 18.09.2022
1761 Clear 23 997 35 10000 0.89 80 20:34 18.09.2022
1762 Clouds 24 997 35 10000 0.89 352 18:42 18.09.2022
1763 Clouds 26 998 41 10000 1.34 11 17:45 18.09.2022
1764 Clouds 27 997 28 10000 2.68 32 16:32 18.09.2022
1765 Clouds 27 997 26 10000 2.68 25 14:39 18.09.2022
1766 Clouds 27 997 28 10000 1.79 32 12:56 18.09.2022
1767 Clouds 26 997 32 10000 1.79 11 11:51 18.09.2022
1768 Clear 23 994 43 10000 1.79 319 06:45 18.09.2022
1769 Clear 25 993 44 10000 3.66 299 01:32 18.09.2022
1770 Clear 25 993 43 10000 0.45 332 00:49 18.09.2022
1771 Clear 26 993 38 10000 5.43 296 22:54 17.09.2022
1772 Clear 26 991 40 10000 1.34 259 20:50 17.09.2022
1773 Clear 27 990 35 10000 1.34 235 19:30 17.09.2022
1774 Clear 30 987 28 10000 2.24 227 17:21 17.09.2022
1775 Clouds 30 990 31 10000 3.13 231 14:18 17.09.2022
1776 Clouds 30 991 34 10000 1.34 242 12:33 17.09.2022
1777 Clouds 29 990 41 10000 1.79 320 10:48 17.09.2022
1778 Clouds 28 990 49 10000 1.34 231 06:31 17.09.2022
1779 Clouds 28 988 36 10000 3.58 185 03:55 17.09.2022
1780 Clouds 28 994 62 10000 5.16 247 23:23 16.09.2022
1781 Clouds 28 991 54 10000 1.47 248 21:47 16.09.2022
1782 Clouds 29 992 53 10000 0.89 50 20:42 16.09.2022
1783 Clouds 30 992 47 10000 0.89 347 18:29 16.09.2022
1784 Clouds 35 991 20 10000 1.79 15 16:21 16.09.2022
1785 Clouds 35 992 21 10000 1.79 354 14:44 16.09.2022
1786 Clouds 34 994 23 10000 0.89 348 12:51 16.09.2022
1787 Clouds 31 996 30 10000 2.24 28 09:39 16.09.2022
1788 Clouds 28 996 34 10000 3.11 249 07:22 16.09.2022
1789 Clouds 29 996 34 10000 3.11 249 06:48 16.09.2022
1790 Clouds 27 995 39 10000 2.77 226 05:43 16.09.2022
1791 Clouds 28 995 49 10000 2.7 188 01:31 16.09.2022
1792 Clouds 28 995 46 10000 2.57 152 21:31 15.09.2022
1793 Clouds 29 995 42 10000 0.89 174 20:29 15.09.2022
1794 Clouds 30 994 37 10000 0.89 334 18:57 15.09.2022
1795 Clouds 33 993 36 10000 1.79 353 17:38 15.09.2022
1796 Clouds 33 994 36 10000 0.89 330 17:20 15.09.2022
1797 Clouds 32 995 42 10000 0.89 359 15:37 15.09.2022
1798 Clouds 30 999 58 10000 4.01 2 12:50 15.09.2022
1799 Clouds 30 999 41 10000 0.89 5 11:47 15.09.2022
1800 Clouds 29 998 54 10000 1.34 15 09:43 15.09.2022
1801 Clouds 25 996 41 10000 2.51 189 05:37 15.09.2022
1802 Clouds 26 996 42 10000 0.89 75 02:58 15.09.2022
1803 Clouds 27 998 42 10000 1.51 151 22:51 14.09.2022
1804 Clouds 27 998 41 10000 2.29 130 20:30 14.09.2022
1805 Clear 28 997 41 10000 2.28 133 19:32 14.09.2022
1806 Clear 31 994 32 10000 1.45 116 17:35 14.09.2022
1807 Clear 32 997 29 10000 1.34 337 16:36 14.09.2022
1808 Clear 31 999 37 10000 1.51 37 14:50 14.09.2022
1809 Clear 30 999 32 10000 0.89 5 12:34 14.09.2022
1810 Clear 27 999 37 10000 0.89 184 09:51 14.09.2022
1811 Clear 25 998 38 10000 0.89 119 08:21 14.09.2022
1812 Clear 23 997 43 10000 0.89 142 06:49 14.09.2022
1813 Clear 23 997 42 10000 2.65 135 06:25 14.09.2022
1814 Clear 24 998 41 10000 0.45 119 02:19 14.09.2022
1815 Clear 24 998 40 10000 2.77 133 01:32 14.09.2022
1816 Clear 25 998 40 10000 0.45 158 00:52 14.09.2022
1817 Clear 24 998 41 10000 0.89 137 23:54 13.09.2022
1818 Clear 25 998 40 10000 2.88 131 23:36 13.09.2022
1819 Clear 25 998 40 10000 3.03 121 23:18 13.09.2022
1820 Clear 26 998 39 10000 0.89 61 22:22 13.09.2022
1821 Clear 26 997 38 10000 0.89 161 20:45 13.09.2022
1822 Clear 28 997 34 10000 0.89 354 18:43 13.09.2022
1823 Clear 31 997 32 10000 0.89 12 16:19 13.09.2022
1824 Clear 30 997 33 10000 2.68 34 15:18 13.09.2022
1825 Clouds 30 997 31 10000 0.89 7 13:31 13.09.2022
1826 Clouds 27 999 55 10000 2.31 96 09:58 13.09.2022
1827 Clear 24 997 52 10000 2.07 119 07:47 13.09.2022
1828 Clear 25 997 46 10000 1.59 90 00:58 13.09.2022
1829 Clear 26 997 47 10000 1.4 79 23:21 12.09.2022
1830 Clear 26 997 47 10000 0.45 58 22:26 12.09.2022
1831 Clear 26 997 48 10000 1.51 54 20:54 12.09.2022
1832 Clear 27 996 46 10000 0.89 357 19:31 12.09.2022
1833 Clear 28 993 37 10000 1.79 6 17:47 12.09.2022
1834 Clear 30 997 36 10000 1.79 18 15:41 12.09.2022
1835 Clear 29 998 40 10000 2.68 28 12:26 12.09.2022
1836 Clear 28 999 53 10000 2.4 30 10:27 12.09.2022
1837 Clear 25 997 51 10000 0.53 331 07:21 12.09.2022
1838 Clear 25 996 49 10000 0.45 176 04:32 12.09.2022
1839 Clear 25 997 47 10000 0.45 99 01:53 12.09.2022
1840 Clear 26 997 47 10000 0.68 28 22:46 11.09.2022
1841 Clear 26 997 46 10000 1.11 10 21:25 11.09.2022
1842 Clear 26 997 46 10000 1.08 33 20:44 11.09.2022
1843 Clear 27 997 48 10000 0.89 57 19:27 11.09.2022
1844 Clear 27 998 59 10000 2.11 353 18:58 11.09.2022
1845 Clear 30 997 40 10000 1.79 8 17:26 11.09.2022
1846 Clear 30 999 57 10000 1.79 358 15:51 11.09.2022
1847 Clear 31 999 35 10000 3.46 325 13:22 11.09.2022
1848 Clear 30 999 30 10000 0.89 337 11:25 11.09.2022
1849 Clear 26 997 45 10000 1.14 251 08:19 11.09.2022
1850 Clear 25 997 46 10000 1.22 272 05:19 11.09.2022
1851 Clear 26 999 56 10000 0.45 178 23:51 10.09.2022
1852 Clear 27 998 54 10000 1 267 22:22 10.09.2022
1853 Clear 28 998 53 10000 1.45 273 20:33 10.09.2022
1854 Clear 29 997 50 10000 0.45 263 19:44 10.09.2022
1855 Clear 29 997 51 10000 1.96 313 19:25 10.09.2022
1856 Clear 29 1015 69 10000 2.28 319 17:49 10.09.2022
1857 Clear 31 998 47 10000 0.89 20 15:35 10.09.2022
1858 Clouds 31 999 52 10000 2.68 20 13:41 10.09.2022
1859 Clouds 31 999 51 10000 1.79 34 12:30 10.09.2022
1860 Clear 30 1001 63 10000 0.89 357 10:34 10.09.2022
1861 Clear 29 999 55 10000 0.59 178 08:42 10.09.2022
1862 Clear 28 999 51 10000 1.12 178 08:20 10.09.2022
1863 Clear 28 999 51 10000 1.12 178 08:20 10.09.2022
1864 Clouds 27 998 61 10000 0.45 45 04:30 10.09.2022
1865 Clear 28 999 53 10000 0.95 218 23:37 09.09.2022
1866 Clouds 29 999 58 10000 0.89 313 22:36 09.09.2022
1867 Clouds 29 999 57 10000 0.45 287 20:59 09.09.2022
1868 Clouds 29 998 57 10000 1.32 10 20:20 09.09.2022
1869 Clouds 29 998 57 10000 0.89 317 19:23 09.09.2022
1870 Clouds 30 998 52 10000 0.89 335 17:50 09.09.2022
1871 Clear 32 998 48 10000 2.24 22 15:23 09.09.2022
1872 Clouds 34 997 34 10000 2.24 11 13:33 09.09.2022
1873 Clouds 34 999 28 10000 1.34 345 11:38 09.09.2022
1874 Clear 30 998 36 10000 0.89 343 07:58 09.09.2022
1875 Clear 30 998 37 10000 0.89 13 03:40 09.09.2022
1876 Clear 31 998 34 10000 2.16 187 00:21 09.09.2022
1877 Clear 31 998 38 10000 2.14 178 21:52 08.09.2022
1878 Clear 31 998 44 10000 1.82 181 20:49 08.09.2022
1879 Clear 32 997 33 10000 1.7 164 20:29 08.09.2022
1880 Clear 32 996 36 10000 0.89 232 19:25 08.09.2022
1881 Clear 34 997 35 10000 0.89 329 17:35 08.09.2022
1882 Clouds 35 996 29 10000 0.89 333 16:18 08.09.2022
1883 Clouds 35 997 31 10000 1.34 349 13:30 08.09.2022
1884 Clouds 33 998 39 10000 0.95 351 12:42 08.09.2022
1885 Clouds 33 998 43 10000 0.58 345 11:24 08.09.2022
1886 Clouds 31 999 50 10000 0.52 187 09:57 08.09.2022
1887 Clouds 27 997 44 10000 2 136 07:38 08.09.2022
1888 Clouds 27 997 49 10000 1.64 147 04:53 08.09.2022
1889 Clouds 27 998 50 10000 0.89 183 02:36 08.09.2022
1890 Clouds 27 997 47 10000 0.45 50 02:18 08.09.2022
1891 Clouds 28 999 49 10000 0.45 193 23:25 07.09.2022
1892 Clear 28 999 44 10000 1.86 124 21:58 07.09.2022
1893 Clear 28 999 47 10000 0.45 340 21:38 07.09.2022
1894 Clear 29 999 47 10000 1.69 74 20:30 07.09.2022
1895 Clear 29 998 46 10000 0.45 324 19:23 07.09.2022
1896 Clear 32 995 35 10000 1.79 2 16:30 07.09.2022
1897 Clear 32 1000 41 10000 1.79 354 11:28 07.09.2022
1898 Clear 30 1001 55 10000 0.56 85 10:36 07.09.2022
1899 Clouds 29 1000 50 10000 1.86 136 08:33 07.09.2022
1900 Clouds 27 998 49 10000 0.45 42 06:31 07.09.2022
1901 Clouds 27 1001 53 10000 2.69 220 00:49 07.09.2022
1902 Clear 28 1001 51 10000 0.89 360 21:58 06.09.2022
1903 Clear 28 1001 51 10000 2.47 129 21:36 06.09.2022
1904 Clouds 28 1000 51 10000 0.45 287 19:39 06.09.2022
1905 Clouds 30 1001 48 10000 1.34 333 18:40 06.09.2022
1906 Clouds 31 1001 44 10000 0.89 343 17:50 06.09.2022
1907 Clouds 31 1001 44 10000 0.89 343 17:50 06.09.2022
1908 Clouds 30 1002 46 10000 1.34 14 16:47 06.09.2022
1909 Clouds 31 1001 45 10000 0.89 16 16:25 06.09.2022
1910 Clouds 32 1001 42 10000 2.24 344 14:49 06.09.2022
1911 Clouds 32 1002 43 10000 2.24 7 13:44 06.09.2022
1912 Clouds 31 1002 44 10000 0.89 335 13:19 06.09.2022
1913 Clouds 31 1003 46 10000 1.79 356 10:56 06.09.2022
1914 Clear 30 1003 49 10000 1.79 336 09:49 06.09.2022
1915 Clear 27 1003 51 10000 0.92 148 08:18 06.09.2022
1916 Clear 26 1002 50 10000 1.38 98 06:22 06.09.2022
1917 Clear 27 1003 52 10000 1.35 181 01:22 06.09.2022
1918 Clear 27 1004 72 10000 1.89 129 22:57 05.09.2022
1919 Clear 28 1003 54 10000 2.31 116 21:39 05.09.2022
1920 Clear 28 1002 53 10000 2.06 98 20:32 05.09.2022
1921 Clear 30 1002 47 10000 1.79 331 18:53 05.09.2022
1922 Clear 30 1002 45 10000 0.45 340 18:26 05.09.2022
1923 Clear 31 1002 41 10000 0.45 355 17:57 05.09.2022
1924 Clear 32 1002 42 10000 3.58 341 15:54 05.09.2022
1925 Clear 31 1004 57 10000 3.41 55 14:48 05.09.2022
1926 Clear 31 1004 41 10000 1.79 8 12:56 05.09.2022
1927 Clear 32 1004 36 10000 1.79 6 11:37 05.09.2022
1928 Clear 28 1004 63 10000 1.98 78 08:58 05.09.2022
1929 Clear 27 1002 45 10000 0.89 181 05:20 05.09.2022
1930 Clear 28 1002 41 10000 1.41 63 01:35 05.09.2022
1931 Clear 28 1002 41 10000 0.51 243 22:29 04.09.2022
1932 Clear 29 1002 43 10000 0.51 243 21:59 04.09.2022
1933 Clear 29 1001 41 10000 0.89 246 20:35 04.09.2022
1934 Clouds 30 1002 45 10000 0.89 15 18:55 04.09.2022
1935 Clouds 32 1002 35 10000 2.86 320 17:43 04.09.2022
1936 Clouds 32 1018 40 10000 5.45 309 16:28 04.09.2022
1937 Clouds 33 1018 42 10000 5.09 314 14:25 04.09.2022
1938 Clouds 35 1000 19 10000 1.79 281 12:52 04.09.2022
1939 Clouds 33 1001 25 10000 2.68 4 11:37 04.09.2022
1940 Clouds 31 1002 42 10000 0.45 344 09:39 04.09.2022
1941 Clouds 29 1001 46 10000 1.85 177 06:40 04.09.2022
1942 Clouds 27 999 36 10000 2.1 179 03:18 04.09.2022
1943 Clouds 29 1000 42 10000 0.45 131 23:33 03.09.2022
1944 Clouds 29 999 41 10000 1.79 136 22:20 03.09.2022
1945 Clouds 29 999 41 10000 0.89 73 21:22 03.09.2022
1946 Clouds 29 999 41 10000 0.89 73 21:22 03.09.2022
1947 Clouds 30 998 41 10000 0.89 340 18:57 03.09.2022
1948 Clouds 32 998 37 10000 0.89 351 17:22 03.09.2022
1949 Clouds 34 998 33 10000 0.89 352 16:20 03.09.2022
1950 Clouds 33 998 33 10000 1.34 239 14:43 03.09.2022
1951 Clouds 33 998 31 10000 1.79 15 13:50 03.09.2022
1952 Clear 32 999 30 10000 1.79 279 11:34 03.09.2022
1953 Clear 29 998 37 10000 0.45 11 09:37 03.09.2022
1954 Clouds 26 998 43 10000 2.27 127 07:57 03.09.2022
1955 Clouds 25 998 44 10000 0.45 25 04:56 03.09.2022
1956 Clear 25 998 45 10000 0.45 82 03:29 03.09.2022
1957 Clouds 26 998 47 10000 0.45 62 23:49 02.09.2022
1958 Clouds 27 998 47 10000 0.89 60 22:34 02.09.2022
1959 Clouds 27 998 47 10000 2.21 98 20:57 02.09.2022
1960 Clouds 27 997 47 10000 1.8 61 20:23 02.09.2022
1961 Clouds 28 998 57 10000 1.95 40 18:59 02.09.2022
1962 Clouds 29 998 56 10000 2.27 17 18:26 02.09.2022
1963 Clouds 31 997 37 10000 1.34 335 17:30 02.09.2022
1964 Clouds 31 996 35 10000 3.58 8 17:30 02.09.2022
1965 Clouds 30 994 31 10000 4.02 12 16:44 02.09.2022
1966 Clouds 30 998 39 10000 2.68 26 13:51 02.09.2022
1967 Clouds 30 998 43 10000 2.24 50 11:36 02.09.2022
1968 Clear 28 998 56 10000 0.45 331 09:46 02.09.2022
1969 Clear 27 998 61 10000 1.86 292 08:49 02.09.2022
1970 Clear 25 996 50 10000 0.44 201 07:24 02.09.2022
1971 Clear 25 996 49 10000 0.45 193 06:34 02.09.2022
1972 Clear 26 996 48 10000 0.89 226 02:34 02.09.2022
1973 Clear 27 996 45 10000 0.45 221 22:24 01.09.2022
1974 Clear 27 996 44 10000 2.27 270 21:39 01.09.2022
1975 Clear 27 996 44 10000 0.45 69 21:20 01.09.2022
1976 Clear 27 996 46 10000 0.89 300 20:31 01.09.2022
1977 Clear 28 996 60 10000 3.31 292 18:37 01.09.2022
1978 Clear 30 996 50 10000 5.34 302 16:58 01.09.2022
1979 Clear 30 996 46 10000 0.45 344 15:29 01.09.2022
1980 Clear 30 996 49 10000 1.34 326 13:44 01.09.2022
1981 Clear 30 995 39 10000 1.79 303 12:56 01.09.2022
1982 Clear 31 995 33 10000 1.34 272 11:51 01.09.2022
1983 Clear 31 995 30 10000 0.89 253 11:29 01.09.2022
1984 Clear 30 996 35 10000 3.29 272 09:49 01.09.2022
1985 Clouds 27 995 35 10000 0.45 6 07:50 01.09.2022
1986 Clouds 26 995 38 10000 0.45 182 05:56 01.09.2022
1987 Clouds 28 997 44 10000 0.45 55 01:31 01.09.2022
1988 Clouds 28 997 47 10000 0.55 281 23:19 31.08.2022
1989 Rain 28 998 45 10000 0.89 215 20:48 31.08.2022
1990 Clouds 28 999 47 10000 1.5 332 19:23 31.08.2022
1991 Clouds 30 998 39 10000 2.24 351 16:49 31.08.2022
1992 Clouds 31 998 38 10000 1.79 8 15:39 31.08.2022
1993 Clouds 32 998 39 10000 1.87 349 13:38 31.08.2022
1994 Clouds 32 998 39 10000 1.87 349 13:38 31.08.2022
1995 Clear 31 999 36 10000 0.89 11 12:18 31.08.2022
1996 Clear 28 1000 54 10000 0.46 112 09:39 31.08.2022
1997 Clear 26 1000 57 10000 0.81 144 08:31 31.08.2022
1998 Clear 25 999 52 10000 0.89 173 02:59 31.08.2022
1999 Clear 27 1001 50 10000 2.08 109 22:42 30.08.2022
2000 Clear 27 1001 46 10000 1.46 91 21:31 30.08.2022
2001 Clear 27 1000 48 10000 0.45 55 20:35 30.08.2022
2002 Clear 31 997 30 10000 1.79 17 17:24 30.08.2022
2003 Clear 31 1001 36 10000 1.34 14 14:19 30.08.2022
2004 Clear 31 1002 39 10000 1.79 4 12:25 30.08.2022
2005 Clear 29 1003 57 10000 2.45 67 11:20 30.08.2022
2006 Clear 27 1003 62 10000 2.35 73 10:20 30.08.2022
2007 Clear 24 1001 53 10000 0.89 69 06:49 30.08.2022
2008 Clear 25 1001 49 10000 1.88 85 01:44 30.08.2022
2009 Clear 26 1000 46 10000 0.45 67 22:44 29.08.2022
2010 Clear 27 1000 46 10000 0.45 47 21:55 29.08.2022
2011 Clear 27 1001 46 10000 0.89 51 21:23 29.08.2022
2012 Clear 27 1001 46 10000 1.67 64 21:23 29.08.2022
2013 Clear 27 1000 46 10000 0.45 26 19:41 29.08.2022
2014 Clear 30 996 32 10000 1.79 16 17:42 29.08.2022
2015 Clear 30 996 32 10000 0.89 9 17:24 29.08.2022
2016 Clear 31 1000 37 10000 3.58 12 15:41 29.08.2022
2017 Clear 31 1000 41 10000 0.89 11 13:58 29.08.2022
2018 Clear 30 1000 42 10000 1.79 13 12:34 29.08.2022
2019 Clear 30 1000 47 10000 1.79 6 10:49 29.08.2022
2020 Clear 28 1001 65 10000 1.54 63 09:30 29.08.2022
2021 Clear 25 1000 52 10000 1.35 89 07:35 29.08.2022
2022 Clear 25 999 55 10000 0.45 68 02:34 29.08.2022
2023 Clear 26 999 50 10000 0.87 138 23:50 28.08.2022
2024 Clear 26 999 56 10000 1.66 126 21:57 28.08.2022
2025 Clear 26 998 54 10000 1.66 126 21:31 28.08.2022
2026 Rain 27 998 51 10000 0.45 213 20:24 28.08.2022
2027 Rain 28 998 47 10000 0.45 356 18:38 28.08.2022
2028 Clouds 29 997 45 10000 1.34 358 18:19 28.08.2022
2029 Clouds 30 1014 59 10000 1.64 37 16:55 28.08.2022
2030 Clouds 31 994 29 10000 1.79 341 15:42 28.08.2022
2031 Clouds 31 998 43 10000 1.79 356 13:34 28.08.2022
2032 Clear 30 998 37 10000 1.79 6 12:20 28.08.2022
2033 Clear 30 999 51 10000 1.17 230 10:27 28.08.2022
2034 Clear 29 998 58 10000 1.17 230 09:38 28.08.2022
2035 Clear 27 998 63 10000 2.14 212 08:32 28.08.2022
2036 Clouds 25 997 47 10000 1.37 182 07:34 28.08.2022
2037 Clouds 26 996 50 10000 0.89 69 01:28 28.08.2022
2038 Clouds 26 997 52 10000 0.45 162 00:20 28.08.2022
2039 Clear 27 997 46 10000 0.56 215 22:31 27.08.2022
2040 Clear 27 996 48 10000 1.12 96 20:53 27.08.2022
2041 Clear 28 995 45 10000 0.45 340 19:38 27.08.2022
2042 Clear 31 992 33 10000 0.89 355 16:37 27.08.2022
2043 Clear 31 994 41 10000 1.34 2 15:31 27.08.2022
2044 Clear 31 994 43 10000 0.89 9 14:35 27.08.2022
2045 Clear 29 995 38 10000 0.45 24 12:22 27.08.2022
2046 Clear 30 996 54 10000 0.89 349 10:33 27.08.2022
2047 Clear 29 996 56 10000 1.3 310 09:40 27.08.2022
2048 Clear 29 996 56 10000 1.3 310 09:40 27.08.2022
2049 Clear 25 994 49 10000 0.45 153 06:55 27.08.2022
2050 Clear 25 994 52 10000 1.19 282 02:31 27.08.2022
2051 Clear 26 994 50 10000 0.54 196 23:53 26.08.2022
2052 Clear 26 994 49 10000 0.71 70 22:24 26.08.2022
2053 Clear 27 993 47 10000 0.45 69 20:25 26.08.2022
2054 Clear 28 993 43 10000 0.89 8 18:59 26.08.2022
2055 Clear 29 991 32 10000 2.68 7 16:46 26.08.2022
2056 Clear 30 993 39 10000 1.79 356 15:27 26.08.2022
2057 Clear 30 993 39 10000 1.79 356 15:27 26.08.2022
2058 Clear 30 994 38 10000 1.34 344 13:46 26.08.2022
2059 Clear 30 995 39 10000 2.68 17 12:35 26.08.2022
2060 Clear 30 995 41 10000 1.79 6 11:22 26.08.2022
2061 Clear 29 996 51 10000 0.45 347 10:25 26.08.2022
2062 Clear 25 995 57 10000 0.41 227 06:50 26.08.2022
2063 Clear 26 996 53 10000 0.45 185 01:22 26.08.2022
2064 Clear 26 996 48 10000 0.89 80 23:29 25.08.2022
2065 Clear 27 996 48 10000 0.45 52 21:26 25.08.2022
2066 Clear 27 996 48 10000 0.89 45 20:21 25.08.2022
2067 Clear 28 997 58 10000 0.45 337 18:49 25.08.2022
2068 Clear 29 993 32 10000 1.34 29 17:32 25.08.2022
2069 Clear 30 993 32 10000 2.68 33 16:50 25.08.2022
2070 Clear 31 996 35 10000 1.79 23 15:39 25.08.2022
2071 Clear 30 996 34 10000 1.79 7 14:33 25.08.2022
2072 Clear 30 998 49 10000 2.94 31 11:53 25.08.2022
2073 Clear 28 998 61 10000 2.86 38 10:46 25.08.2022
2074 Clear 26 996 57 10000 0.45 350 08:54 25.08.2022
2075 Clear 25 996 60 10000 0.92 18 05:20 25.08.2022
2076 Clear 25 997 59 10000 1.13 295 00:59 25.08.2022
2077 Clear 26 997 53 10000 0.45 243 23:26 24.08.2022
2078 Clear 27 997 52 10000 0.45 183 22:22 24.08.2022
2079 Clear 27 997 51 10000 1.14 304 21:34 24.08.2022
2080 Clear 27 996 51 10000 0.68 15 20:32 24.08.2022
2081 Clear 28 997 58 10000 2.3 347 18:57 24.08.2022
2082 Clear 29 1013 58 10000 3.73 336 16:36 24.08.2022
2083 Clear 29 1013 60 10000 4.11 335 15:52 24.08.2022
2084 Clear 29 996 45 10000 2.24 21 13:33 24.08.2022
2085 Clear 29 997 52 10000 2.69 323 11:29 24.08.2022
2086 Clear 26 997 76 10000 2.07 302 09:35 24.08.2022
2087 Clear 24 993 37 10000 0.89 155 07:50 24.08.2022
2088 Clear 26 996 47 10000 0.45 180 02:36 24.08.2022
2089 Clear 26 997 46 10000 0.89 53 23:32 23.08.2022
2090 Clear 26 996 47 10000 0.62 33 22:32 23.08.2022
2091 Clear 27 996 43 10000 1.08 7 21:29 23.08.2022
2092 Clear 27 995 44 10000 2.05 13 20:20 23.08.2022
2093 Clear 28 995 43 10000 1.34 22 18:46 23.08.2022
2094 Clear 29 992 31 10000 4.02 11 17:49 23.08.2022
2095 Clear 30 995 39 10000 1.34 2 16:54 23.08.2022
2096 Clear 30 994 39 10000 4.02 29 15:39 23.08.2022
2097 Clear 30 995 38 10000 2.24 8 13:29 23.08.2022
2098 Clear 29 996 52 10000 1.34 1 11:32 23.08.2022
2099 Clear 30 996 52 10000 1.84 15 10:48 23.08.2022
2100 Clear 29 996 52 10000 0.89 320 10:24 23.08.2022
2101 Clear 27 995 62 10000 0.74 27 08:52 23.08.2022
2102 Clear 26 995 66 10000 0.52 14 08:21 23.08.2022
2103 Clear 25 994 54 10000 0.89 168 07:38 23.08.2022
2104 Clear 24 993 54 10000 0.89 151 06:28 23.08.2022
2105 Clear 25 993 50 10000 0.89 45 04:45 23.08.2022
2106 Clear 26 993 51 10000 0.45 253 00:28 23.08.2022
2107 Clear 26 993 48 10000 1.18 20 23:37 22.08.2022
2108 Clear 26 993 47 10000 1.1 351 22:45 22.08.2022
2109 Clear 27 993 45 10000 0.89 44 21:45 22.08.2022
2110 Clouds 28 992 44 10000 2.78 34 19:48 22.08.2022
2111 Clouds 29 992 42 10000 1.79 1 19:18 22.08.2022
2112 Clouds 30 989 15 10000 1.34 21 17:37 22.08.2022
2113 Clouds 30 992 41 10000 2.68 8 15:39 22.08.2022
2114 Clouds 30 991 37 10000 2.68 38 14:32 22.08.2022
2115 Clouds 29 993 54 10000 0.45 1 10:49 22.08.2022
2116 Clear 26 993 62 10000 1.02 147 08:21 22.08.2022
2117 Clear 25 992 46 10000 0.45 266 04:30 22.08.2022
2118 Clouds 26 993 46 10000 1.74 272 00:49 22.08.2022
2119 Clouds 26 994 46 10000 1.88 282 00:26 22.08.2022
2120 Clouds 26 994 47 10000 0.89 208 22:53 21.08.2022
2121 Clouds 27 994 46 10000 1.84 284 21:36 21.08.2022
2122 Clear 27 994 47 10000 0.45 340 20:57 21.08.2022
2123 Clear 27 995 61 10000 3.24 341 19:27 21.08.2022
2124 Clear 30 995 55 10000 1.79 357 17:39 21.08.2022
2125 Clear 30 994 43 10000 2.24 14 15:58 21.08.2022
2126 Clear 30 995 55 10000 2.68 4 15:28 21.08.2022
2127 Clear 29 996 55 10000 1.79 353 13:58 21.08.2022
2128 Clear 30 996 53 10000 3.13 17 13:34 21.08.2022
2129 Clear 29 996 56 10000 1.34 18 11:56 21.08.2022
2130 Clear 28 997 55 10000 1.9 326 09:32 21.08.2022
2131 Clear 28 997 53 10000 2.08 307 08:56 21.08.2022
2132 Clear 28 997 54 10000 2.08 307 08:38 21.08.2022
2133 Clear 26 996 42 10000 0.45 180 07:28 21.08.2022
2134 Clear 26 996 45 10000 0.45 190 04:18 21.08.2022
2135 Clear 26 997 46 10000 2.42 227 00:31 21.08.2022
2136 Clear 26 997 43 10000 0.45 250 22:59 20.08.2022
2137 Clear 27 997 43 10000 1.63 270 21:43 20.08.2022
2138 Clear 27 998 58 10000 1.44 303 20:44 20.08.2022
2139 Clear 28 997 44 10000 0.89 265 19:41 20.08.2022
2140 Clear 29 998 53 10000 3.76 331 18:35 20.08.2022
2141 Clear 29 1014 59 10000 3.76 331 17:58 20.08.2022
2142 Clear 31 997 34 10000 2.24 359 17:18 20.08.2022
2143 Clear 30 998 44 10000 1.34 7 15:51 20.08.2022
2144 Clouds 30 998 53 10000 0.45 328 13:39 20.08.2022
2145 Clouds 29 999 51 10000 0.89 331 11:53 20.08.2022
2146 Clouds 28 999 54 10000 1.79 342 10:36 20.08.2022
2147 Clouds 28 997 45 10000 1.79 29 08:53 20.08.2022
2148 Clouds 26 996 46 10000 0.45 74 05:59 20.08.2022
2149 Clouds 27 996 45 10000 0.89 200 03:57 20.08.2022
2150 Clear 27 996 43 10000 0.89 200 00:51 20.08.2022
2151 Clear 27 997 43 10000 0.89 214 23:19 19.08.2022
2152 Clear 27 997 42 10000 0.89 240 22:35 19.08.2022
2153 Clear 27 997 40 10000 0.89 227 20:29 19.08.2022
2154 Clear 28 997 49 10000 4.33 292 18:51 19.08.2022
2155 Clear 31 997 43 10000 0.45 29 15:51 19.08.2022
2156 Clouds 30 998 47 10000 3.13 22 13:40 19.08.2022
2157 Clouds 31 997 53 10000 0.45 356 11:39 19.08.2022
2158 Clouds 31 998 52 10000 0.45 285 10:29 19.08.2022
2159 Clouds 29 996 51 10000 2.47 307 07:21 19.08.2022
2160 Clouds 30 994 49 10000 0.89 287 02:23 19.08.2022
2161 Clouds 32 992 38 10000 0.89 354 00:32 19.08.2022
2162 Clouds 33 992 29 10000 0.89 360 23:48 18.08.2022
2163 Clouds 33 990 13 10000 0.89 69 22:52 18.08.2022
2164 Clouds 34 993 20 10000 0.45 28 22:18 18.08.2022
2165 Clouds 33 993 37 10000 1.34 220 21:40 18.08.2022
2166 Clouds 33 993 36 10000 0.45 228 20:32 18.08.2022
2167 Clear 35 993 38 10000 0.89 359 19:32 18.08.2022
2168 Clouds 37 992 27 10000 1.79 21 18:19 18.08.2022
2169 Clouds 43 1009 34 10000 2.07 180 17:19 18.08.2022
2170 Clouds 43 1010 33 10000 3.2 172 15:27 18.08.2022
2171 Clouds 44 1010 32 10000 2.73 169 14:20 18.08.2022
2172 Clouds 42 990 6 10000 1.79 115 13:40 18.08.2022
2173 Clouds 40 1011 17 10000 0.75 164 12:27 18.08.2022
2174 Clouds 37 994 17 10000 0.89 347 10:25 18.08.2022
2175 Clouds 35 995 23 10000 0.45 25 09:42 18.08.2022
2176 Clouds 31 995 36 10000 0.89 30 07:26 18.08.2022
2177 Clouds 34 1010 39 10000 2.75 193 05:30 18.08.2022
2178 Clear 31 996 28 10000 0.89 353 00:23 18.08.2022
2179 Clear 33 996 25 10000 2.89 123 22:20 17.08.2022
2180 Clouds 33 996 27 10000 3.3 119 20:21 17.08.2022
2181 Clouds 33 996 27 10000 3.3 119 20:21 17.08.2022
2182 Clear 34 995 26 10000 3.26 118 19:33 17.08.2022
2183 Clear 34 995 26 10000 3.26 118 19:33 17.08.2022
2184 Clear 36 995 23 10000 1.34 313 18:21 17.08.2022
2185 Clear 37 995 20 10000 1.34 316 16:50 17.08.2022
2186 Clouds 37 996 21 10000 0.89 327 15:31 17.08.2022
2187 Clouds 37 996 20 10000 0.89 34 14:18 17.08.2022
2188 Clouds 35 997 22 10000 1.79 337 11:45 17.08.2022
2189 Clouds 34 996 29 10000 0.89 312 10:25 17.08.2022
2190 Clouds 34 996 29 10000 0.89 312 10:25 17.08.2022
2191 Clouds 31 997 39 10000 0.89 329 08:25 17.08.2022
2192 Clouds 29 996 40 10000 0.45 59 05:22 17.08.2022
2193 Clouds 31 997 36 10000 2.35 135 00:46 17.08.2022
2194 Clouds 31 997 37 10000 0.45 90 22:53 16.08.2022
2195 Clouds 31 996 38 10000 2.1 127 20:59 16.08.2022
2196 Clouds 32 996 36 10000 1.14 78 19:55 16.08.2022
2197 Clouds 33 996 35 10000 0.89 339 19:22 16.08.2022
2198 Clouds 35 994 27 10000 1.34 331 17:54 16.08.2022
2199 Clouds 36 995 29 10000 1.34 323 16:46 16.08.2022
2200 Clouds 35 997 40 10000 2.11 276 15:44 16.08.2022
2201 Clouds 35 997 42 10000 2.54 303 14:54 16.08.2022
2202 Clouds 34 1012 45 10000 2.54 303 14:36 16.08.2022
2203 Clouds 34 996 40 10000 0.4 320 11:40 16.08.2022
2204 Clouds 34 996 40 10000 0.41 319 11:40 16.08.2022
2205 Clouds 33 996 34 10000 1.88 191 10:20 16.08.2022
2206 Clouds 31 1012 53 10000 3.09 149 08:49 16.08.2022
2207 Clouds 30 1012 45 10000 3.1 193 08:20 16.08.2022
2208 Clouds 33 1011 58 10000 1.95 264 05:52 16.08.2022
2209 Clouds 31 997 26 10000 5.81 209 23:37 15.08.2022
2210 Clouds 29 994 45 10000 0.45 99 22:21 15.08.2022
2211 Clouds 29 994 45 10000 0.45 150 21:48 15.08.2022
2212 Clouds 30 995 43 10000 0.89 8 20:32 15.08.2022
2213 Clouds 32 994 31 10000 1.34 14 19:19 15.08.2022
2214 Clouds 33 992 32 10000 0.45 312 17:59 15.08.2022
2215 Clouds 33 993 30 10000 1.7 56 16:25 15.08.2022
2216 Clear 33 993 30 10000 0.89 351 15:27 15.08.2022
2217 Clear 32 995 39 10000 0.82 38 13:45 15.08.2022
2218 Clear 32 994 24 10000 1.33 104 10:38 15.08.2022
2219 Clear 31 994 26 10000 1.79 134 09:40 15.08.2022
2220 Clear 26 994 29 10000 0.89 54 07:32 15.08.2022
2221 Clear 26 994 33 10000 0.89 54 04:34 15.08.2022
2222 Clear 26 994 41 10000 0.89 54 00:22 15.08.2022
2223 Clear 28 995 46 10000 1.79 360 22:29 14.08.2022
2224 Clear 28 994 45 10000 1.79 360 21:37 14.08.2022
2225 Clouds 29 994 46 10000 0.89 345 19:47 14.08.2022
2226 Clouds 30 994 41 10000 0.89 357 18:53 14.08.2022
2227 Clouds 31 994 37 10000 3.13 360 18:18 14.08.2022
2228 Clouds 31 994 38 10000 2.68 35 16:50 14.08.2022
2229 Clouds 31 994 43 10000 2.24 39 15:48 14.08.2022
2230 Clear 30 995 61 10000 2.68 15 14:24 14.08.2022
2231 Clear 30 995 63 10000 1.34 10 13:49 14.08.2022
2232 Clear 31 996 61 10000 2.24 5 13:19 14.08.2022
2233 Clear 31 996 52 10000 0.45 283 11:56 14.08.2022
2234 Clear 29 996 60 10000 0.45 332 10:40 14.08.2022
2235 Clear 29 996 59 10000 2.19 295 08:50 14.08.2022
2236 Clear 26 994 45 10000 0.89 204 06:21 14.08.2022
2237 Clear 27 995 39 10000 0.45 125 02:47 14.08.2022
2238 Clear 28 996 49 10000 0.89 163 23:53 13.08.2022
2239 Clear 28 996 47 10000 1.81 271 22:52 13.08.2022
2240 Clear 29 995 49 10000 0.89 314 20:58 13.08.2022
2241 Clear 29 996 63 10000 0.45 340 20:31 13.08.2022
2242 Clear 30 996 57 10000 0.45 324 19:29 13.08.2022
2243 Clear 31 1011 61 10000 3.45 304 17:42 13.08.2022
2244 Clear 32 1012 52 10000 4.05 303 15:26 13.08.2022
2245 Clear 32 996 44 10000 3.22 314 14:27 13.08.2022
2246 Clear 32 997 47 10000 3.7 303 13:39 13.08.2022
2247 Clear 32 996 31 10000 2.24 271 11:52 13.08.2022
2248 Clear 30 998 48 10000 2.27 255 10:21 13.08.2022
2249 Clear 28 998 59 10000 2.09 251 08:45 13.08.2022
2250 Clear 26 996 52 10000 2.24 240 05:22 13.08.2022
2251 Clear 27 998 54 10000 0.89 188 23:58 12.08.2022
2252 Clear 27 997 48 10000 0.45 168 21:46 12.08.2022
2253 Clear 27 997 47 10000 0.45 170 20:53 12.08.2022
2254 Clear 28 996 42 10000 2.91 306 19:40 12.08.2022
2255 Clear 29 997 49 10000 0.45 283 18:46 12.08.2022
2256 Clear 30 995 33 10000 2.24 10 17:25 12.08.2022
2257 Clear 30 998 48 10000 0.89 4 15:52 12.08.2022
2258 Clear 30 997 42 10000 1.79 234 14:41 12.08.2022
2259 Rain 27 998 45 10000 0.89 319 12:55 12.08.2022
2260 Clouds 28 998 40 10000 2.68 16 10:45 12.08.2022
2261 Clouds 22 1013 62 10000 1.77 276 07:50 12.08.2022
2262 Rain 23 1013 69 10000 1.72 265 06:39 12.08.2022
2263 Clear 26 995 32 10000 0.89 56 03:20 12.08.2022
2264 Clear 26 995 42 10000 0.72 69 00:27 12.08.2022
2265 Clear 26 996 41 10000 0.72 69 23:35 11.08.2022
2266 Clear 26 996 40 10000 0.45 186 22:27 11.08.2022
2267 Clear 27 995 40 10000 0.45 49 21:43 11.08.2022
2268 Clear 27 996 41 10000 0.45 90 20:59 11.08.2022
2269 Clouds 28 996 41 10000 1.78 32 20:20 11.08.2022
2270 Clouds 29 995 40 10000 0.89 11 19:32 11.08.2022
2271 Clouds 30 995 37 10000 1.79 332 17:48 11.08.2022
2272 Clouds 30 995 37 10000 2.24 12 16:37 11.08.2022
2273 Clouds 31 996 31 10000 1.34 64 15:24 11.08.2022
2274 Clear 32 996 30 10000 1.79 344 13:37 11.08.2022
2275 Clear 30 997 15 10000 1.34 11 10:58 11.08.2022
2276 Clear 26 1014 71 10000 0.91 84 07:47 11.08.2022
2277 Clear 25 996 25 10000 0.45 174 03:54 11.08.2022
2278 Clear 26 996 37 10000 0.45 62 01:33 11.08.2022
2279 Clouds 26 996 37 10000 0.89 205 22:36 10.08.2022
2280 Clouds 26 996 36 10000 0.45 14 21:34 10.08.2022
2281 Clouds 26 996 44 10000 2.28 96 20:55 10.08.2022
2282 Clouds 28 996 42 10000 0.45 264 19:32 10.08.2022
2283 Clouds 28 1014 65 10000 2.15 142 18:42 10.08.2022
2284 Clouds 26 1014 70 10000 1.24 143 16:55 10.08.2022
2285 Clouds 28 1014 65 10000 3.47 0 13:36 10.08.2022
2286 Rain 28 1014 51 10000 2.89 352 12:46 10.08.2022
2287 Clear 30 996 41 10000 0.45 346 09:55 10.08.2022
2288 Clear 29 1015 59 10000 0.99 269 08:35 10.08.2022
2289 Clear 27 996 44 10000 1.08 259 07:20 10.08.2022
2290 Clear 27 996 40 10000 0.97 263 03:32 10.08.2022
2291 Clear 28 996 36 10000 0.45 152 23:58 09.08.2022
2292 Clear 28 997 34 10000 1.64 218 23:25 09.08.2022
2293 Clear 28 996 35 10000 1.59 164 21:37 09.08.2022
2294 Clear 28 996 33 10000 1.84 119 20:40 09.08.2022
2295 Clear 30 996 35 10000 2.09 360 18:45 09.08.2022
2296 Clear 31 996 35 10000 1.79 19 17:31 09.08.2022
2297 Clear 30 996 35 10000 2.68 323 16:42 09.08.2022
2298 Clear 30 996 33 10000 3.51 321 15:59 09.08.2022
2299 Clear 33 996 38 10000 4.45 336 14:29 09.08.2022
2300 Clear 32 997 41 10000 2.68 5 10:45 09.08.2022
2301 Clear 29 1015 70 10000 0.17 323 08:51 09.08.2022
2302 Clear 28 1015 70 10000 0.37 157 07:54 09.08.2022
2303 Clear 26 995 48 10000 0.42 334 04:31 09.08.2022
2304 Clear 28 996 46 10000 0.45 35 23:58 08.08.2022
2305 Clear 29 996 46 10000 0.45 90 22:58 08.08.2022
2306 Clear 29 996 46 10000 1.35 53 22:35 08.08.2022
2307 Clear 29 996 45 10000 2.12 32 21:30 08.08.2022
2308 Clear 30 995 45 10000 0.89 336 19:57 08.08.2022
2309 Clear 30 995 44 10000 0.89 7 19:31 08.08.2022
2310 Clear 32 994 42 10000 1.79 39 17:47 08.08.2022
2311 Clear 33 995 39 10000 3.58 23 15:46 08.08.2022
2312 Clouds 33 994 37 10000 3.58 6 14:45 08.08.2022
2313 Clear 32 995 37 10000 1.79 2 12:30 08.08.2022
2314 Clear 32 995 41 10000 0.89 346 10:25 08.08.2022
2315 Clear 27 1013 70 10000 1.61 93 07:49 08.08.2022
2316 Clear 27 1012 69 10000 0.88 105 03:39 08.08.2022
2317 Clear 28 995 45 10000 1.69 62 23:28 07.08.2022
2318 Clear 29 995 44 10000 0.45 43 21:41 07.08.2022
2319 Clear 29 994 44 10000 0.45 41 20:55 07.08.2022
2320 Clear 29 994 43 10000 0.45 36 20:18 07.08.2022
2321 Clear 30 994 42 10000 1.34 18 19:51 07.08.2022
2322 Clear 31 993 40 10000 0.45 11 18:41 07.08.2022
2323 Clear 32 993 39 10000 1.79 24 17:21 07.08.2022
2324 Clear 33 993 38 10000 0.45 35 16:41 07.08.2022
2325 Clear 33 993 37 10000 3.13 23 15:26 07.08.2022
2326 Clear 33 994 36 10000 3.58 30 13:47 07.08.2022
2327 Clear 32 995 37 10000 1.34 1 12:38 07.08.2022
2328 Clear 31 995 43 10000 0.89 13 10:42 07.08.2022
2329 Clear 29 1013 68 10000 1.37 28 09:35 07.08.2022
2330 Clear 27 994 39 10000 0.45 150 04:33 07.08.2022
2331 Clear 27 1013 46 10000 0.99 307 01:59 07.08.2022
2332 Clear 28 995 31 10000 0.45 180 22:33 06.08.2022
2333 Clear 28 995 32 10000 1.43 85 21:48 06.08.2022
2334 Clear 31 1013 43 10000 1.74 56 19:43 06.08.2022
2335 Clear 32 1013 35 10000 2.29 11 18:35 06.08.2022
2336 Clear 33 995 19 10000 2.68 360 17:45 06.08.2022
2337 Clear 35 995 15 10000 2.24 22 16:19 06.08.2022
2338 Clear 34 996 18 10000 2.24 20 13:51 06.08.2022
2339 Clear 34 996 21 10000 1.79 16 12:27 06.08.2022
2340 Clear 32 1014 33 10000 2.22 37 10:53 06.08.2022
2341 Clear 31 1014 34 10000 1.81 61 09:31 06.08.2022
2342 Clear 27 1013 38 10000 0.83 146 04:38 06.08.2022
2343 Clear 28 996 27 10000 0.45 120 00:46 06.08.2022
2344 Clear 28 996 34 10000 0.45 259 22:35 05.08.2022
2345 Clear 29 996 35 10000 1.89 90 20:50 05.08.2022
2346 Clear 32 996 33 10000 1.79 2 18:56 05.08.2022
2347 Clear 32 996 31 10000 0.45 360 18:38 05.08.2022
2348 Clear 33 996 29 10000 4.92 2 16:52 05.08.2022
2349 Clear 34 997 29 10000 0.89 5 15:25 05.08.2022
2350 Clear 33 997 32 10000 2.24 14 14:38 05.08.2022
2351 Clear 33 998 30 10000 3.58 3 13:38 05.08.2022
2352 Clear 33 998 30 10000 3.58 4 13:18 05.08.2022
2353 Clear 32 998 34 10000 1.79 2 11:55 05.08.2022
2354 Clear 29 1015 58 10000 1.03 338 09:18 05.08.2022
2355 Clear 28 1015 51 10000 1.25 281 07:57 05.08.2022
2356 Clear 27 997 35 10000 0.45 173 04:48 05.08.2022
2357 Clear 28 998 41 10000 2.09 117 23:49 04.08.2022
2358 Clear 29 997 41 10000 0.89 168 21:37 04.08.2022
2359 Clear 29 997 41 10000 1.74 81 21:18 04.08.2022
2360 Clear 29 997 41 10000 1.74 81 20:38 04.08.2022
2361 Clear 32 997 38 10000 0.89 348 19:00 04.08.2022
2362 Clear 32 997 36 10000 3.13 351 18:34 04.08.2022
2363 Clear 35 997 32 10000 1.34 342 15:59 04.08.2022
2364 Clear 33 997 31 10000 1.79 347 13:32 04.08.2022
2365 Clear 33 998 32 10000 1.79 345 11:42 04.08.2022
2366 Clear 32 998 36 10000 1.79 340 10:24 04.08.2022
2367 Clear 28 1015 48 10000 1.61 54 07:49 04.08.2022
2368 Clear 27 996 35 10000 0.91 157 03:33 04.08.2022
2369 Clear 27 997 41 10000 0.45 158 01:42 04.08.2022
2370 Clear 28 997 43 10000 1.29 76 23:41 03.08.2022
2371 Clear 28 997 43 10000 0.45 181 21:34 03.08.2022
2372 Clear 30 996 47 10000 2.36 33 20:22 03.08.2022
2373 Clear 31 996 42 10000 1.34 349 19:28 03.08.2022
2374 Clear 33 996 36 10000 0.89 12 17:20 03.08.2022
2375 Clear 34 997 33 10000 2.68 22 16:23 03.08.2022
2376 Clear 33 997 37 10000 2.68 354 14:23 03.08.2022
2377 Clear 33 997 30 10000 2.24 7 11:47 03.08.2022
2378 Clear 28 1015 48 10000 1.15 3 07:55 03.08.2022
2379 Clear 27 996 38 10000 0.89 310 04:46 03.08.2022
2380 Clear 27 996 40 10000 1.45 147 03:26 03.08.2022
2381 Clear 27 996 40 10000 1.76 104 01:18 03.08.2022
2382 Clear 27 997 34 10000 0.45 52 22:53 02.08.2022
2383 Clear 28 996 37 10000 0.89 63 21:53 02.08.2022
2384 Clear 29 996 36 10000 2.2 50 20:37 02.08.2022
2385 Clear 31 996 31 10000 1.79 13 18:48 02.08.2022
2386 Clear 32 996 30 10000 0.89 13 16:21 02.08.2022
2387 Clear 32 996 41 10000 0.89 22 11:45 02.08.2022
2388 Clear 28 1014 64 10000 2.5 30 09:18 02.08.2022
2389 Clear 28 1014 64 10000 1.81 40 07:54 02.08.2022
2390 Clear 27 996 35 10000 1.59 57 06:43 02.08.2022
2391 Clear 26 996 40 10000 0.45 173 04:55 02.08.2022
2392 Clear 28 996 38 10000 0.45 47 23:51 01.08.2022
2393 Clear 28 996 36 10000 0.89 61 22:25 01.08.2022
2394 Clear 29 996 36 10000 1.75 54 20:53 01.08.2022
2395 Clear 30 995 41 10000 1.79 14 19:32 01.08.2022
2396 Clear 31 996 38 10000 0.89 16 18:42 01.08.2022
2397 Clear 32 996 43 10000 1.79 33 16:54 01.08.2022
2398 Clear 32 996 41 10000 1.79 24 16:28 01.08.2022
2399 Clear 32 996 41 10000 2.68 356 15:30 01.08.2022
2400 Clear 32 996 43 10000 0.89 14 14:43 01.08.2022
2401 Clear 31 996 46 10000 1.79 27 12:51 01.08.2022
2402 Clear 31 996 40 10000 0.89 360 10:22 01.08.2022
2403 Clear 28 1014 67 10000 1.47 27 08:34 01.08.2022
2404 Clear 26 996 48 10000 0.45 24 06:21 01.08.2022
2405 Clear 26 996 47 10000 0.91 7 04:20 01.08.2022
2406 Clear 27 996 47 10000 1.31 45 00:49 01.08.2022
2407 Clear 28 997 46 10000 0.45 45 22:41 31.07.2022
2408 Clear 29 997 45 10000 1.83 57 21:33 31.07.2022
2409 Clear 29 996 44 10000 0.89 35 19:58 31.07.2022
2410 Clear 30 996 42 10000 0.89 35 18:36 31.07.2022
2411 Clear 32 996 38 10000 1.34 27 15:54 31.07.2022
2412 Clear 32 996 41 10000 2.68 22 13:51 31.07.2022
2413 Clear 32 997 41 10000 1.34 338 12:29 31.07.2022
2414 Clear 32 997 51 10000 0.89 8 10:22 31.07.2022
2415 Clear 29 1014 64 10000 1.52 70 08:18 31.07.2022
2416 Clear 26 997 57 10000 0.45 175 03:49 31.07.2022
2417 Clear 27 997 58 10000 0.89 139 00:23 31.07.2022
2418 Clear 28 997 57 10000 0.89 51 22:19 30.07.2022
2419 Clear 28 997 57 10000 0.45 45 22:19 30.07.2022
2420 Clear 28 997 57 10000 0.95 127 21:50 30.07.2022
2421 Clear 28 997 58 10000 0.45 200 21:20 30.07.2022
2422 Clear 30 997 54 10000 1.34 349 19:59 30.07.2022
2423 Clear 31 996 52 10000 1.79 354 19:20 30.07.2022
2424 Clear 33 996 48 10000 2.24 15 17:48 30.07.2022
2425 Clear 34 996 44 10000 3.13 28 16:21 30.07.2022
2426 Clear 33 997 45 10000 1.34 352 15:27 30.07.2022
2427 Clear 33 997 50 10000 3.58 346 13:21 30.07.2022
2428 Clear 32 997 50 10000 1.79 7 12:20 30.07.2022
2429 Clear 32 998 52 10000 1.79 7 10:44 30.07.2022
2430 Clear 32 997 53 10000 1.34 360 09:59 30.07.2022
2431 Clear 31 997 54 10000 1.34 360 08:44 30.07.2022
2432 Clear 27 996 56 10000 1.18 129 06:50 30.07.2022
2433 Clear 27 997 55 10000 0.45 41 02:33 30.07.2022
2434 Clear 27 998 56 10000 2.68 119 23:30 29.07.2022
2435 Clear 28 997 56 10000 0.45 276 21:36 29.07.2022
2436 Clear 29 997 55 10000 2.43 99 20:50 29.07.2022
2437 Clear 31 997 53 10000 1.79 339 19:34 29.07.2022
2438 Clear 33 997 49 10000 1.79 358 16:44 29.07.2022
2439 Clear 33 997 50 10000 0.89 353 14:38 29.07.2022
2440 Clear 32 998 51 10000 1.79 360 12:41 29.07.2022
2441 Clear 29 1015 66 10000 2.11 92 08:52 29.07.2022
2442 Clear 29 1015 65 10000 2.4 110 08:22 29.07.2022
2443 Clear 26 996 54 10000 0.89 174 05:19 29.07.2022
2444 Clear 28 997 54 10000 2.98 106 23:59 28.07.2022
2445 Clear 28 996 53 10000 2.78 105 21:39 28.07.2022
2446 Clear 29 996 53 10000 2.86 95 20:52 28.07.2022
2447 Clear 30 995 52 10000 0.45 297 20:18 28.07.2022
2448 Clear 31 995 50 10000 0.89 344 19:40 28.07.2022
2449 Clear 33 995 46 10000 0.89 328 18:19 28.07.2022
2450 Clear 33 995 46 10000 2.68 6 17:36 28.07.2022
2451 Clear 34 995 43 10000 2.68 354 16:41 28.07.2022
2452 Clear 33 995 46 10000 1.79 352 13:57 28.07.2022
2453 Clear 32 995 48 10000 2.68 20 12:41 28.07.2022
2454 Clear 31 995 54 10000 0.89 6 09:21 28.07.2022
2455 Clear 28 993 49 10000 1.69 94 05:41 28.07.2022
2456 Clear 27 1011 63 10000 1.35 96 05:21 28.07.2022
2457 Clear 28 994 55 10000 0.89 45 00:28 28.07.2022
2458 Clear 28 993 55 10000 3.17 73 21:58 27.07.2022
2459 Clear 30 992 54 10000 0.89 327 20:19 27.07.2022
2460 Clear 32 991 53 10000 0.45 328 19:30 27.07.2022
2461 Clear 34 992 43 10000 1.79 353 16:33 27.07.2022
2462 Clear 34 992 42 10000 1.79 309 15:51 27.07.2022
2463 Clear 34 993 44 10000 1.79 358 14:42 27.07.2022
2464 Clear 34 993 45 10000 1.34 308 13:57 27.07.2022
2465 Clear 33 994 47 10000 1.92 18 11:18 27.07.2022
2466 Clear 27 1010 54 10000 1.2 124 07:53 27.07.2022
2467 Clear 27 993 53 10000 0.45 169 05:18 27.07.2022
2468 Clear 27 994 56 10000 0.45 127 23:41 26.07.2022
2469 Clear 28 994 58 10000 1.35 141 22:20 26.07.2022
2470 Clear 28 994 58 10000 1.74 114 21:19 26.07.2022
2471 Clear 30 994 55 10000 0.89 352 19:39 26.07.2022
2472 Clear 32 994 53 10000 0.89 356 18:41 26.07.2022
2473 Clear 32 994 53 10000 1.79 356 17:55 26.07.2022
2474 Clear 33 995 50 10000 1.79 356 15:47 26.07.2022
2475 Clear 33 995 49 10000 2.68 2 14:43 26.07.2022
2476 Clear 33 995 52 10000 2.24 5 12:35 26.07.2022
2477 Clear 32 995 53 10000 1.79 5 10:35 26.07.2022
2478 Clear 30 995 56 10000 0.45 317 08:29 26.07.2022
2479 Clear 27 996 56 10000 0.45 161 03:58 26.07.2022
2480 Clear 28 996 52 10000 0.45 70 00:22 26.07.2022
2481 Clear 28 997 55 10000 1.6 118 22:43 25.07.2022
2482 Clear 28 997 55 10000 1.65 110 22:21 25.07.2022
2483 Clear 29 996 55 10000 0.45 172 21:31 25.07.2022
2484 Clear 29 996 54 10000 1.53 84 20:39 25.07.2022
2485 Clear 31 996 50 10000 2.68 347 19:26 25.07.2022
2486 Clear 33 996 46 10000 2.24 333 18:18 25.07.2022
2487 Clear 33 996 46 10000 2.24 333 18:18 25.07.2022
2488 Clear 34 997 42 10000 1.34 347 17:24 25.07.2022
2489 Clear 35 998 38 10000 2.24 1 14:19 25.07.2022
2490 Clear 35 999 37 10000 0.45 12 10:56 25.07.2022
2491 Clear 30 1016 48 10000 1.63 96 08:22 25.07.2022
2492 Clear 29 999 42 10000 0.45 124 01:49 25.07.2022
2493 Clear 29 1000 41 10000 0.45 132 23:49 24.07.2022
2494 Clear 28 1000 46 10000 0.45 128 22:51 24.07.2022
2495 Clear 28 1000 47 10000 1.71 111 22:24 24.07.2022
2496 Clear 29 999 48 10000 1.31 89 21:18 24.07.2022
2497 Clear 29 999 47 10000 1.31 89 20:45 24.07.2022
2498 Clear 31 1016 56 10000 1.42 73 19:37 24.07.2022
2499 Clear 33 999 44 10000 2.24 322 18:27 24.07.2022
2500 Clear 34 1000 44 10000 2.68 349 15:57 24.07.2022
2501 Clear 34 1000 43 10000 1.79 20 15:33 24.07.2022
2502 Clear 35 1001 40 10000 1.79 326 13:51 24.07.2022
2503 Clear 35 1001 38 10000 1.79 355 12:50 24.07.2022
2504 Clear 34 1001 40 10000 4.02 355 11:35 24.07.2022
2505 Clear 34 1001 43 10000 1.79 320 10:48 24.07.2022
2506 Clear 30 1018 58 10000 1.73 65 08:30 24.07.2022
2507 Clear 28 1017 63 10000 1.49 76 07:46 24.07.2022
2508 Clear 27 1000 45 10000 1.21 106 03:57 24.07.2022
2509 Clear 29 1001 48 10000 0.45 81 23:48 23.07.2022
2510 Clear 29 1001 51 10000 1.4 94 20:59 23.07.2022
2511 Clear 31 1000 49 10000 0.89 355 19:44 23.07.2022
2512 Clear 33 1000 48 10000 0.89 337 18:50 23.07.2022
2513 Clear 33 1000 44 10000 1.34 349 17:28 23.07.2022
2514 Clear 34 1001 44 10000 2.24 13 16:31 23.07.2022
2515 Clear 34 1001 42 10000 1.34 8 15:22 23.07.2022
2516 Clear 35 1001 43 10000 3.58 354 14:56 23.07.2022
2517 Clear 35 1001 42 10000 1.79 11 14:26 23.07.2022
2518 Clear 34 1001 41 10000 1.34 359 12:44 23.07.2022
2519 Clear 34 1001 45 10000 0.45 5 10:45 23.07.2022
2520 Clear 30 1017 56 10000 2.29 76 09:56 23.07.2022
2521 Clear 29 1017 58 10000 2.14 87 08:31 23.07.2022
2522 Clear 28 1000 35 10000 0.45 148 03:39 23.07.2022
2523 Clear 28 1001 42 10000 0.45 118 00:49 23.07.2022
2524 Clear 29 1001 46 10000 0.45 161 22:32 22.07.2022
2525 Clear 29 1000 43 10000 2.06 101 20:51 22.07.2022
2526 Clear 31 1000 46 10000 2.24 337 19:34 22.07.2022
2527 Clear 33 1000 38 10000 1.79 11 18:28 22.07.2022
2528 Clear 33 1000 46 10000 3.58 1 16:49 22.07.2022
2529 Clear 33 1001 46 10000 1.79 13 14:51 22.07.2022
2530 Clear 33 1001 41 10000 0.89 4 11:22 22.07.2022
2531 Clear 30 1017 54 10000 2.02 71 09:25 22.07.2022
2532 Clear 29 1017 58 10000 1.8 90 08:32 22.07.2022
2533 Clear 27 999 38 10000 1.35 125 05:19 22.07.2022
2534 Clear 27 1000 46 10000 0.45 184 00:48 22.07.2022
2535 Clear 27 1000 50 10000 0.45 45 22:43 21.07.2022
2536 Clear 28 1000 51 10000 1.68 83 21:33 21.07.2022
2537 Clear 31 1000 48 10000 2.24 360 19:27 21.07.2022
2538 Clear 33 1000 45 10000 1.79 355 17:41 21.07.2022
2539 Clear 33 1000 45 10000 1.79 30 17:19 21.07.2022
2540 Clear 33 1000 45 10000 1.79 30 17:19 21.07.2022
2541 Clear 33 1001 46 10000 1.79 31 15:22 21.07.2022
2542 Clear 34 1001 44 10000 2.24 20 14:37 21.07.2022
2543 Clear 33 1001 45 10000 0.89 18 12:28 21.07.2022
2544 Clear 32 1001 48 10000 1.34 333 11:19 21.07.2022
2545 Clear 30 1018 66 10000 1.61 44 09:38 21.07.2022
2546 Clear 29 1018 65 10000 1.41 71 08:52 21.07.2022
2547 Clear 28 1018 63 10000 1.39 100 07:50 21.07.2022
2548 Clear 27 1000 41 10000 0.89 95 05:47 21.07.2022
2549 Clear 27 1001 51 10000 1.61 103 00:48 21.07.2022
2550 Clear 28 1001 52 10000 0.92 93 22:22 20.07.2022
2551 Clear 29 1001 53 10000 0.99 79 20:59 20.07.2022
2552 Clear 31 1000 52 10000 0.45 309 19:53 20.07.2022
2553 Clear 31 1000 51 10000 1.79 339 19:25 20.07.2022
2554 Clear 32 1000 50 10000 0.89 3 18:51 20.07.2022
2555 Clear 33 1000 50 10000 2.24 8 18:22 20.07.2022
2556 Clear 34 1001 49 10000 2.24 8 16:45 20.07.2022
2557 Clear 34 1001 48 10000 1.79 8 15:32 20.07.2022
2558 Clear 35 1001 42 10000 1.79 360 14:20 20.07.2022
2559 Clear 33 1002 43 10000 0.89 10 11:37 20.07.2022
2560 Clear 32 1001 43 10000 1.79 315 09:43 20.07.2022
2561 Clear 27 1000 47 10000 0.45 128 04:36 20.07.2022
2562 Clear 27 1001 52 10000 0.45 82 00:52 20.07.2022
2563 Clear 27 1001 53 10000 0.45 154 23:41 19.07.2022
2564 Clear 28 1001 52 10000 0.45 180 22:33 19.07.2022
2565 Clear 28 1000 52 10000 0.12 183 21:46 19.07.2022
2566 Clear 30 1000 51 10000 0.28 57 20:48 19.07.2022
2567 Clear 32 1000 48 10000 2.24 360 19:21 19.07.2022
2568 Clear 33 1000 47 10000 1.79 360 18:34 19.07.2022
2569 Clear 33 1000 44 10000 1.34 320 17:49 19.07.2022
2570 Clear 34 1001 31 10000 0.89 339 14:58 19.07.2022
2571 Clear 33 1002 31 10000 4.02 356 11:58 19.07.2022
2572 Clear 33 1002 30 10000 2.68 360 11:31 19.07.2022
2573 Clear 29 1018 58 10000 1.75 347 09:44 19.07.2022
2574 Clear 32 1002 31 10000 1.3 342 08:42 19.07.2022
2575 Clear 27 1018 64 10000 0.68 300 07:19 19.07.2022
2576 Clear 29 1001 21 10000 0.86 290 05:48 19.07.2022
2577 Clear 29 1000 18 10000 0.84 242 04:58 19.07.2022
2578 Clear 28 1001 38 10000 0.45 80 01:58 19.07.2022
2579 Clear 29 1001 36 10000 0.45 185 23:50 18.07.2022
2580 Clear 28 1001 33 10000 0.89 224 23:19 18.07.2022
2581 Clear 29 1002 34 10000 2.75 83 22:23 18.07.2022
2582 Clear 30 1001 23 10000 2.89 61 20:57 18.07.2022
2583 Clear 32 1001 30 10000 1.87 27 19:52 18.07.2022
2584 Clear 33 1001 32 10000 0.89 34 18:24 18.07.2022
2585 Clear 33 1001 34 10000 2.68 292 16:28 18.07.2022
2586 Clear 33 1002 34 10000 2.68 315 15:19 18.07.2022
2587 Clear 34 1002 31 10000 1.79 12 13:31 18.07.2022
2588 Clear 33 1002 30 10000 1.34 360 11:31 18.07.2022
2589 Clear 32 1002 32 10000 0.45 353 09:54 18.07.2022
2590 Clear 28 1018 53 10000 1.92 100 07:49 18.07.2022
2591 Clear 27 1002 26 10000 1.71 113 03:32 18.07.2022
2592 Clear 27 1003 34 10000 0.45 186 22:56 17.07.2022
2593 Clear 27 1003 35 10000 0.45 184 22:29 17.07.2022
2594 Clear 27 1002 35 10000 3 100 21:39 17.07.2022
2595 Clear 28 1002 34 10000 2.53 95 20:46 17.07.2022
2596 Clear 30 1002 33 10000 0.89 320 19:50 17.07.2022
2597 Clear 31 1002 32 10000 0.89 311 19:21 17.07.2022
2598 Clear 32 1002 29 10000 1.34 326 17:43 17.07.2022
2599 Clear 33 1002 27 10000 1.79 344 17:25 17.07.2022
2600 Clear 33 1002 25 10000 1.79 334 16:32 17.07.2022
2601 Clear 33 1002 28 10000 1.34 346 15:49 17.07.2022
2602 Clear 33 1002 30 10000 1.79 357 13:51 17.07.2022
2603 Clear 32 1002 29 10000 1.79 339 12:43 17.07.2022
2604 Clear 32 1002 31 10000 1.79 5 10:20 17.07.2022
2605 Clear 26 1017 71 10000 1.87 88 06:59 17.07.2022
2606 Clear 26 1001 24 10000 0.45 72 02:35 17.07.2022
2607 Clear 26 1001 36 10000 0.89 53 23:28 16.07.2022
2608 Clear 26 1001 35 10000 0.45 60 22:33 16.07.2022
2609 Clear 28 1001 34 10000 2.13 94 20:40 16.07.2022
2610 Clear 30 1000 31 10000 1.34 334 18:58 16.07.2022
2611 Clear 31 1000 30 10000 2.68 350 17:47 16.07.2022
2612 Clear 31 1000 30 10000 4.47 360 15:54 16.07.2022
2613 Clear 32 1001 28 10000 0.89 360 13:26 16.07.2022
2614 Clear 30 1001 32 10000 1.34 357 10:29 16.07.2022
2615 Clear 28 1017 62 10000 2.29 83 09:26 16.07.2022
2616 Clear 28 1017 63 10000 2.3 83 08:41 16.07.2022
2617 Clear 25 1016 66 10000 2.04 109 07:23 16.07.2022
2618 Clear 25 1000 34 10000 0.45 133 03:38 16.07.2022
2619 Clear 25 1000 23 10000 2.22 117 00:48 16.07.2022
2620 Clear 26 1000 36 10000 2.42 112 22:57 15.07.2022
2621 Clear 26 1000 23 10000 0.45 64 22:26 15.07.2022
2622 Clear 27 1000 23 10000 0.45 10 20:44 15.07.2022
2623 Clear 29 999 31 10000 3.13 19 19:35 15.07.2022
2624 Clear 31 999 27 10000 3.58 342 18:23 15.07.2022
2625 Clear 30 1015 47 10000 3.57 43 17:19 15.07.2022
2626 Clear 32 1000 20 10000 4.02 358 14:24 15.07.2022
2627 Clear 31 1001 21 10000 2.68 9 12:38 15.07.2022
2628 Clear 31 1001 25 10000 2.24 14 10:52 15.07.2022
2629 Clear 26 1016 63 10000 1.04 73 07:55 15.07.2022
2630 Clear 23 1000 32 10000 1.24 107 04:54 15.07.2022
2631 Clear 24 1001 20 10000 1.32 82 00:43 15.07.2022
2632 Clear 25 1002 21 10000 1.34 48 23:25 14.07.2022
2633 Clear 26 1002 19 10000 0.89 47 22:32 14.07.2022
2634 Clear 27 1001 28 10000 2.06 62 21:41 14.07.2022
2635 Clear 27 1002 28 10000 0.45 35 21:22 14.07.2022
2636 Clear 27 1001 27 10000 0.45 24 20:43 14.07.2022
2637 Clear 28 1001 26 10000 0.89 34 20:19 14.07.2022
2638 Clear 30 1002 22 10000 3.13 37 18:38 14.07.2022
2639 Clear 31 1003 21 10000 0.89 5 16:20 14.07.2022
2640 Clear 32 1003 21 10000 3.13 11 15:26 14.07.2022
2641 Clear 32 1004 23 10000 0.89 10 13:52 14.07.2022
2642 Clear 31 1004 26 10000 0.89 21 12:39 14.07.2022
2643 Clear 30 1004 31 10000 2.68 355 11:28 14.07.2022
2644 Clear 30 1004 30 10000 0.89 360 10:58 14.07.2022
2645 Clear 28 1020 56 10000 1.52 31 09:29 14.07.2022
2646 Clear 24 1004 27 10000 0.45 167 05:18 14.07.2022
2647 Clear 25 1005 36 10000 0.45 50 01:22 14.07.2022
2648 Clear 25 1005 36 10000 2.04 102 00:52 14.07.2022
2649 Clear 26 1005 35 10000 0.45 180 22:32 13.07.2022
2650 Clear 26 1005 34 10000 2.09 106 21:51 13.07.2022
2651 Clear 27 1004 33 10000 2.19 88 20:44 13.07.2022
2652 Clear 29 1004 31 10000 2.24 360 19:19 13.07.2022
2653 Clear 30 1004 30 10000 0.89 5 17:35 13.07.2022
2654 Clear 31 1004 29 10000 2.24 3 16:23 13.07.2022
2655 Clear 31 1004 29 10000 3.58 17 15:24 13.07.2022
2656 Clear 31 1005 24 10000 3.58 21 12:39 13.07.2022
2657 Clear 31 1005 29 10000 1.79 352 10:45 13.07.2022
2658 Clear 30 1005 32 10000 0.89 347 09:57 13.07.2022
2659 Clear 29 1005 34 10000 1.34 30 09:21 13.07.2022
2660 Clear 25 1004 31 10000 0.45 63 06:19 13.07.2022
2661 Clear 26 1004 32 10000 0.45 97 01:27 13.07.2022
2662 Clear 26 1005 34 10000 0.89 10 23:42 12.07.2022
2663 Clear 26 1005 22 10000 0.45 190 21:55 12.07.2022
2664 Clear 27 1005 22 10000 0.88 58 21:29 12.07.2022
2665 Clear 28 1004 22 10000 0.89 324 20:41 12.07.2022
2666 Clear 30 1004 31 10000 1.34 3 19:26 12.07.2022
2667 Clear 30 1004 31 10000 4.02 9 17:49 12.07.2022
2668 Clear 32 1005 28 10000 0.89 11 16:20 12.07.2022
2669 Clear 31 1006 24 10000 3.58 26 14:31 12.07.2022
2670 Clear 31 1006 28 10000 1.79 28 12:48 12.07.2022
2671 Clear 31 1006 22 10000 1.79 3 11:26 12.07.2022
2672 Clear 29 1020 44 10000 1.4 320 09:42 12.07.2022
2673 Clear 28 1021 46 10000 0.88 245 08:24 12.07.2022
2674 Clear 25 1020 58 10000 1.21 204 06:59 12.07.2022
2675 Clear 24 1004 31 10000 0.89 135 05:42 12.07.2022
2676 Clear 25 1004 31 10000 1.3 156 02:52 12.07.2022
2677 Clear 26 1003 30 10000 2.05 131 23:30 11.07.2022
2678 Clear 26 1003 21 10000 0.45 50 22:31 11.07.2022
2679 Clear 27 1002 21 10000 0.45 39 20:41 11.07.2022
2680 Clear 28 1002 28 10000 0.45 23 19:50 11.07.2022
2681 Clear 30 1002 26 10000 1.79 7 18:32 11.07.2022
2682 Clear 30 1001 25 10000 2.68 6 17:53 11.07.2022
2683 Clear 30 1001 25 10000 0.89 360 16:22 11.07.2022
2684 Clear 31 1002 24 10000 3.58 12 14:49 11.07.2022
2685 Clear 30 1002 24 10000 0.89 9 12:18 11.07.2022
2686 Clear 29 1002 26 10000 2.24 348 10:42 11.07.2022
2687 Clear 29 1002 28 10000 1.79 359 09:54 11.07.2022
2688 Clear 28 1001 29 10000 1.34 39 08:36 11.07.2022
2689 Clear 25 1016 61 10000 2.07 83 07:32 11.07.2022
2690 Clear 24 1000 33 10000 0.56 122 00:47 11.07.2022
2691 Clear 25 1000 33 10000 0.45 54 23:48 10.07.2022
2692 Clear 25 1000 34 10000 0.89 52 22:34 10.07.2022
2693 Clear 26 999 34 10000 0.89 17 20:55 10.07.2022
2694 Clear 27 998 33 10000 0.89 350 20:00 10.07.2022
2695 Clear 28 998 32 10000 1.79 354 19:21 10.07.2022
2696 Clear 28 1014 59 10000 4.12 328 17:51 10.07.2022
2697 Clear 28 1014 57 10000 4.58 327 16:59 10.07.2022
2698 Clear 29 1015 55 10000 4.7 328 16:20 10.07.2022
2699 Clear 29 1015 54 10000 4.49 327 14:44 10.07.2022
2700 Clear 30 1000 27 10000 1.79 25 13:18 10.07.2022
2701 Clear 30 1000 28 10000 0.89 16 11:36 10.07.2022
2702 Clear 27 1016 57 10000 2.06 350 09:44 10.07.2022
2703 Clear 27 1000 31 10000 1.34 219 08:43 10.07.2022
2704 Clear 25 1000 34 10000 1 72 06:36 10.07.2022
2705 Clear 25 1001 21 10000 2.61 43 23:47 09.07.2022
2706 Clear 25 1002 30 10000 0.89 57 22:26 09.07.2022
2707 Clear 26 1001 31 10000 0.89 45 21:41 09.07.2022
2708 Clear 27 1001 28 10000 2.68 38 19:44 09.07.2022
2709 Clear 29 1001 26 10000 1.79 7 18:26 09.07.2022
2710 Clear 29 1001 26 10000 1.79 7 18:26 09.07.2022
2711 Clear 29 1001 27 10000 3.13 28 17:27 09.07.2022
2712 Clear 29 1002 27 10000 1.79 357 16:25 09.07.2022
2713 Clear 29 1002 25 10000 2.24 13 15:38 09.07.2022
2714 Clear 29 1002 25 10000 1.34 353 14:22 09.07.2022
2715 Clear 29 1002 26 10000 1.79 24 13:48 09.07.2022
2716 Clear 29 1003 25 10000 1.79 35 11:54 09.07.2022
2717 Clouds 28 1002 26 10000 2.24 28 10:27 09.07.2022
2718 Clouds 28 1002 28 10000 2.24 22 09:56 09.07.2022
2719 Clouds 26 1002 29 10000 0.89 33 07:44 09.07.2022
2720 Clouds 25 1001 31 10000 5.64 24 04:45 09.07.2022
2721 Clear 26 1001 32 10000 0.45 40 23:43 08.07.2022
2722 Clear 26 1001 35 10000 0.89 38 22:34 08.07.2022
2723 Clear 27 1000 35 10000 3.94 352 21:27 08.07.2022
2724 Clear 27 1000 34 10000 1.34 8 20:38 08.07.2022
2725 Clear 27 999 36 10000 2.68 347 19:48 08.07.2022
2726 Clear 30 999 33 10000 2.68 342 17:56 08.07.2022
2727 Clear 30 999 34 10000 1.79 355 16:37 08.07.2022
2728 Clear 30 999 32 10000 1.79 45 14:51 08.07.2022
2729 Clear 31 999 30 10000 1.34 29 12:42 08.07.2022
2730 Clear 31 999 31 10000 0.89 38 11:24 08.07.2022
2731 Clear 32 999 31 10000 1.34 26 10:21 08.07.2022
2732 Clear 28 1014 64 10000 2.92 297 08:24 08.07.2022
2733 Clear 26 1014 72 10000 2.57 298 06:47 08.07.2022
2734 Clouds 28 1000 40 10000 0.89 227 01:19 08.07.2022
2735 Clouds 28 1000 39 10000 0.89 31 22:57 07.07.2022
2736 Clouds 28 1000 39 10000 1.98 319 22:57 07.07.2022
2737 Clear 30 999 39 10000 0.89 232 21:57 07.07.2022
2738 Clear 30 1014 68 10000 0.48 19 19:53 07.07.2022
2739 Clear 33 1013 38 10000 2.01 2 18:18 07.07.2022
2740 Clear 35 999 17 10000 0.89 356 16:43 07.07.2022
2741 Clouds 34 1000 26 10000 3.58 359 14:32 07.07.2022
2742 Clear 35 1000 17 10000 0.89 348 12:53 07.07.2022
2743 Clear 34 1001 25 10000 1.79 347 12:23 07.07.2022
2744 Clear 34 1001 24 10000 1.79 342 11:35 07.07.2022
2745 Clear 35 1000 23 10000 0.89 343 10:47 07.07.2022
2746 Clear 32 1015 43 10000 2.23 50 10:29 07.07.2022
2747 Clear 32 1015 43 10000 2.23 50 09:52 07.07.2022
2748 Clouds 29 1000 20 10000 0.45 270 06:32 07.07.2022
2749 Clear 29 1001 14 10000 0.45 112 00:31 07.07.2022
2750 Clear 29 1001 14 10000 0.45 54 23:36 06.07.2022
2751 Clear 28 1001 30 10000 1.48 124 23:18 06.07.2022
2752 Clear 28 1001 32 10000 1.48 124 22:52 06.07.2022
2753 Clear 28 1001 33 10000 1.48 124 22:33 06.07.2022
2754 Clear 28 1001 33 10000 1.48 124 22:33 06.07.2022
2755 Clear 30 1000 34 10000 1.4 68 20:30 06.07.2022
2756 Clear 30 1000 34 10000 1.4 68 20:30 06.07.2022
2757 Clear 32 1000 33 10000 0.89 290 19:32 06.07.2022
2758 Clear 35 1000 26 10000 1.34 1 17:22 06.07.2022
2759 Clear 35 1001 29 10000 0.89 35 15:58 06.07.2022
2760 Clear 37 1001 27 10000 0.89 26 12:57 06.07.2022
2761 Clear 36 1001 26 10000 1.79 20 12:21 06.07.2022
2762 Clear 36 1002 26 10000 1.79 33 11:44 06.07.2022
2763 Clear 31 1016 54 10000 1.95 16 09:50 06.07.2022
2764 Clear 28 1016 57 10000 1.01 77 07:44 06.07.2022
2765 Clear 27 1016 60 10000 1.11 110 07:19 06.07.2022
2766 Clear 29 1001 25 10000 0.45 110 00:38 06.07.2022
2767 Clear 28 1001 33 10000 0.05 34 22:43 05.07.2022
2768 Clear 29 1001 37 10000 0.61 267 20:57 05.07.2022
2769 Clear 30 1001 36 10000 0.45 263 20:33 05.07.2022
2770 Clear 31 1001 34 10000 1.79 350 19:39 05.07.2022
2771 Clear 34 1001 28 10000 1.34 329 18:23 05.07.2022
2772 Clear 35 1001 27 10000 1.79 307 17:39 05.07.2022
2773 Clear 34 1001 29 10000 2.24 347 16:36 05.07.2022
2774 Clear 36 1001 23 10000 3.13 4 14:55 05.07.2022
2775 Clear 36 1001 27 10000 1.34 2 13:36 05.07.2022
2776 Clear 36 1002 28 10000 1.34 3 12:41 05.07.2022
2777 Clear 35 1002 33 10000 1.79 354 10:46 05.07.2022
2778 Clear 37 1002 1 10000 1.34 255 09:58 05.07.2022
2779 Clear 29 1002 41 10000 1.35 7 08:23 05.07.2022
2780 Clear 27 1015 67 10000 0.51 117 07:20 05.07.2022
2781 Clear 28 1000 22 10000 0.45 32 04:40 05.07.2022
2782 Clear 28 1001 34 10000 0.45 101 01:54 05.07.2022
2783 Clear 28 1001 43 10000 0.89 89 23:40 04.07.2022
2784 Clear 28 1001 44 10000 1.61 96 22:58 04.07.2022
2785 Clear 28 1001 46 10000 1.28 72 22:19 04.07.2022
2786 Clear 29 1000 45 10000 0.45 201 20:58 04.07.2022
2787 Clear 30 1000 44 10000 0.93 52 20:37 04.07.2022
2788 Clear 30 1000 42 10000 0.89 321 20:18 04.07.2022
2789 Clear 31 1000 42 10000 0.89 340 19:43 04.07.2022
2790 Clear 32 1000 42 10000 0.89 334 19:24 04.07.2022
2791 Clear 33 1000 40 10000 0.89 347 17:23 04.07.2022
2792 Clear 33 1001 41 10000 3.58 4 15:41 04.07.2022
2793 Clear 33 1001 41 10000 1.79 344 14:21 04.07.2022
2794 Clear 32 1002 42 10000 2.24 339 12:56 04.07.2022
2795 Clear 32 1002 35 10000 2.68 347 11:32 04.07.2022
2796 Clear 33 1002 33 10000 0.45 344 10:33 04.07.2022
2797 Clear 31 1001 38 10000 0.89 348 09:33 04.07.2022
2798 Clear 27 1001 41 10000 0.45 347 06:42 04.07.2022
2799 Clear 27 1001 46 10000 0.45 313 02:59 04.07.2022
2800 Clouds 27 1002 49 10000 0.45 80 23:53 03.07.2022
2801 Clouds 27 1002 49 10000 0.45 52 23:53 03.07.2022
2802 Clouds 28 1002 48 10000 0.79 39 22:48 03.07.2022
2803 Clouds 29 1001 45 10000 1.26 76 20:46 03.07.2022
2804 Clouds 30 1001 43 10000 0.89 285 19:59 03.07.2022
2805 Clouds 31 1001 42 10000 0.89 298 19:25 03.07.2022
2806 Clouds 31 1001 41 10000 1.79 340 18:31 03.07.2022
2807 Clouds 33 1001 39 10000 1.79 297 17:42 03.07.2022
2808 Clouds 33 1002 38 10000 1.34 332 15:28 03.07.2022
2809 Clouds 32 1002 40 10000 1.79 352 14:54 03.07.2022
2810 Clear 33 1002 42 10000 2.68 349 13:50 03.07.2022
2811 Clear 32 1003 42 10000 1.79 340 12:51 03.07.2022
2812 Clear 32 1003 42 10000 0.89 3 12:21 03.07.2022
2813 Clear 31 1003 43 10000 1.34 355 10:55 03.07.2022
2814 Clear 31 1003 43 10000 0.89 11 10:36 03.07.2022
2815 Clouds 27 1017 74 10000 1.8 49 08:21 03.07.2022
2816 Clouds 26 1016 76 10000 1.95 64 07:34 03.07.2022
2817 Clear 26 1002 52 10000 0.88 59 01:32 03.07.2022
2818 Clear 27 1002 53 10000 2.25 84 23:38 02.07.2022
2819 Clear 27 1002 50 10000 2.25 66 22:31 02.07.2022
2820 Clear 28 1002 48 10000 1 16 20:37 02.07.2022
2821 Clear 30 1002 44 10000 0.89 342 19:50 02.07.2022
2822 Clear 31 1002 44 10000 0.89 357 19:19 02.07.2022
2823 Clear 32 1002 39 10000 3.13 338 17:40 02.07.2022
2824 Clear 33 1002 38 10000 0.89 356 16:35 02.07.2022
2825 Clear 33 1002 35 10000 1.34 338 13:51 02.07.2022
2826 Clear 32 1004 43 10000 1.79 2 11:51 02.07.2022
2827 Clear 33 1003 36 10000 1.34 18 10:52 02.07.2022
2828 Clear 33 1003 34 10000 1.34 7 10:32 02.07.2022
2829 Clear 30 1003 56 10000 1.89 22 08:39 02.07.2022
2830 Clear 29 1003 62 10000 1.08 23 08:19 02.07.2022
2831 Clear 28 1002 53 10000 0.45 46 05:59 02.07.2022
2832 Clouds 29 1002 46 10000 0.89 210 00:47 02.07.2022
2833 Clouds 30 1002 44 10000 0.89 221 23:31 01.07.2022
2834 Clouds 30 1001 43 10000 3.21 123 22:40 01.07.2022
2835 Clouds 30 1002 45 10000 2.56 101 21:40 01.07.2022
2836 Clouds 30 1001 45 10000 0.89 17 20:59 01.07.2022
2837 Clouds 31 1001 44 10000 1.87 146 20:37 01.07.2022
2838 Clouds 31 1001 44 10000 0.89 278 19:41 01.07.2022
2839 Clouds 34 1002 39 10000 0.89 352 17:45 01.07.2022
2840 Clouds 35 999 35 10000 1.79 345 15:21 01.07.2022
2841 Clouds 35 1000 39 10000 3.2 65 13:54 01.07.2022
2842 Clouds 35 1000 39 10000 1.25 16 13:54 01.07.2022
2843 Clouds 33 1002 42 10000 0.89 18 11:49 01.07.2022
2844 Clouds 30 1001 62 10000 0.45 258 10:19 01.07.2022
2845 Clouds 31 1001 42 10000 2.63 64 08:46 01.07.2022
2846 Clear 27 1000 57 10000 0.89 86 03:18 01.07.2022
2847 Clouds 27 1000 61 10000 2.48 87 00:25 01.07.2022
2848 Clouds 28 1000 59 10000 0.71 152 22:56 30.06.2022
2849 Clouds 28 1000 56 10000 1.5 231 22:33 30.06.2022
2850 Clouds 28 1000 55 10000 1.5 231 21:59 30.06.2022
2851 Clouds 28 999 54 10000 1.5 231 21:35 30.06.2022
2852 Clear 29 999 48 10000 0.89 332 20:29 30.06.2022
2853 Clear 30 999 46 10000 1.92 100 19:54 30.06.2022
2854 Clear 30 998 44 10000 0.89 331 19:19 30.06.2022
2855 Clear 31 999 46 10000 2.04 92 18:42 30.06.2022
2856 Clear 33 999 42 10000 1.34 341 17:38 30.06.2022
2857 Clear 33 999 42 10000 2.24 360 16:48 30.06.2022
2858 Clear 33 999 43 10000 1.34 350 15:38 30.06.2022
2859 Clear 31 999 57 10000 2.53 62 13:34 30.06.2022
2860 Clear 32 999 45 10000 0.45 6 12:35 30.06.2022
2861 Clear 31 999 45 10000 2.68 32 11:37 30.06.2022
2862 Clear 30 1000 57 10000 2.04 96 09:54 30.06.2022
2863 Clear 29 1000 59 10000 2.04 96 09:34 30.06.2022
2864 Clouds 27 1001 65 10000 4.66 104 08:18 30.06.2022
2865 Clouds 26 999 73 10000 3.29 99 06:21 30.06.2022
2866 Clear 26 1000 59 10000 0.45 47 01:42 30.06.2022
2867 Clear 27 998 53 10000 0.45 136 23:34 29.06.2022
2868 Clear 27 999 47 10000 0.45 262 22:40 29.06.2022
2869 Clear 28 999 55 10000 0.45 356 21:39 29.06.2022
2870 Clouds 27 998 45 10000 2.24 37 20:34 29.06.2022
2871 Clouds 29 999 54 10000 1.79 349 19:39 29.06.2022
2872 Clouds 30 1000 53 10000 1.79 359 17:54 29.06.2022
2873 Clouds 32 1000 48 10000 3.13 352 16:43 29.06.2022
2874 Clear 31 1000 49 10000 2.24 341 15:26 29.06.2022
2875 Clear 31 1001 54 10000 2.68 5 12:49 29.06.2022
2876 Clear 30 1001 57 10000 4.47 6 11:47 29.06.2022
2877 Clear 30 1001 57 10000 1.79 350 09:34 29.06.2022
2878 Clear 28 1001 70 10000 1.2 360 08:42 29.06.2022
2879 Clouds 26 1000 64 10000 0.89 332 05:19 29.06.2022
2880 Clouds 28 1001 60 10000 1.8 268 01:48 29.06.2022
2881 Clouds 27 1001 60 10000 0.45 285 00:37 29.06.2022
2882 Clear 28 1001 59 10000 1.35 262 23:26 28.06.2022
2883 Clear 28 1000 54 10000 1.35 262 22:48 28.06.2022
2884 Clear 29 1001 57 10000 0.68 280 21:55 28.06.2022
2885 Clear 28 1001 59 10000 0.45 1 21:33 28.06.2022
2886 Clear 27 1015 78 10000 1.77 308 20:51 28.06.2022
2887 Clouds 28 1014 71 10000 2.74 306 19:43 28.06.2022
2888 Clouds 32 1001 36 10000 3.59 302 19:23 28.06.2022
2889 Clouds 33 1000 36 10000 0.89 345 17:49 28.06.2022
2890 Clouds 34 1002 36 10000 0.89 2 16:29 28.06.2022
2891 Clouds 35 1001 31 10000 1.79 345 15:53 28.06.2022
2892 Clear 35 1002 26 10000 0.89 328 14:22 28.06.2022
2893 Clear 35 1002 27 10000 1.79 347 13:55 28.06.2022
2894 Clear 34 1002 29 10000 1.79 340 13:26 28.06.2022
2895 Clear 33 1003 34 10000 1.79 5 11:37 28.06.2022
2896 Clear 34 1002 29 10000 1.34 296 09:46 28.06.2022
2897 Clear 33 1001 21 10000 0.73 344 08:46 28.06.2022
2898 Clear 31 1001 18 10000 2.14 270 07:58 28.06.2022
2899 Clear 30 1001 22 10000 2.99 257 07:19 28.06.2022
2900 Clear 31 1001 19 10000 2.38 136 01:36 28.06.2022
2901 Clear 32 1002 15 10000 1.8 130 23:45 27.06.2022
2902 Clear 33 1002 15 10000 1.97 135 22:55 27.06.2022
2903 Clear 34 1002 16 10000 0.45 80 21:38 27.06.2022
2904 Clear 34 1002 16 10000 0.45 80 21:38 27.06.2022
2905 Clear 34 1001 17 10000 2.66 142 20:55 27.06.2022
2906 Clouds 34 1015 24 10000 2.11 128 19:44 27.06.2022
2907 Clouds 36 1015 27 10000 1.92 117 18:40 27.06.2022
2908 Clouds 37 1002 20 10000 3.58 1 17:24 27.06.2022
2909 Clouds 37 1002 22 10000 2.68 345 15:43 27.06.2022
2910 Clouds 39 1002 17 10000 0.89 346 13:44 27.06.2022
2911 Clouds 36 1015 22 10000 0.87 355 12:57 27.06.2022
2912 Clouds 36 1002 12 10000 0.89 8 10:51 27.06.2022
2913 Clouds 35 1003 11 10000 1.16 139 09:43 27.06.2022
2914 Clouds 33 1002 16 10000 2.03 161 08:38 27.06.2022
2915 Clear 30 1002 17 10000 1.64 185 07:39 27.06.2022
2916 Clear 29 1001 15 10000 2.72 242 04:40 27.06.2022
2917 Clear 30 1001 21 10000 2.37 137 01:20 27.06.2022
2918 Clear 31 1001 24 10000 0.45 209 22:47 26.06.2022
2919 Clear 32 1001 25 10000 0.45 140 21:23 26.06.2022
2920 Clear 34 1008 19 10000 0.45 270 19:59 26.06.2022
2921 Clear 36 1000 23 10000 0.45 304 18:33 26.06.2022
2922 Clear 36 1001 21 10000 0.89 340 17:37 26.06.2022
2923 Clear 37 1001 10 10000 1.79 360 15:31 26.06.2022
2924 Clear 35 1001 20 10000 0.89 346 13:55 26.06.2022
2925 Clear 35 1001 24 10000 1.79 311 13:23 26.06.2022
2926 Clear 35 1002 19 10000 0.89 335 11:31 26.06.2022
2927 Clear 34 1002 20 10000 1.12 68 10:30 26.06.2022
2928 Clear 32 1002 29 10000 0.55 119 09:45 26.06.2022
2929 Clear 31 1001 25 10000 0.89 253 07:47 26.06.2022
2930 Clear 27 1001 42 10000 2.58 123 04:29 26.06.2022
2931 Clear 28 1001 39 10000 0.45 84 00:36 26.06.2022
2932 Clear 28 1001 41 10000 0.45 84 00:18 26.06.2022
2933 Clear 29 1001 41 10000 3.09 127 23:25 25.06.2022
2934 Clear 29 1001 40 10000 0.89 174 22:28 25.06.2022
2935 Clear 29 1001 40 10000 0.89 174 21:52 25.06.2022
2936 Clear 30 1001 37 10000 2.16 135 21:20 25.06.2022
2937 Clear 31 1001 27 10000 2.16 135 20:32 25.06.2022
2938 Clear 32 1001 23 10000 0.45 58 19:55 25.06.2022
2939 Clear 34 1000 22 10000 0.89 306 18:22 25.06.2022
2940 Clear 35 1000 19 10000 1.79 94 17:26 25.06.2022
2941 Clear 34 1001 23 10000 3.58 40 16:25 25.06.2022
2942 Clear 35 1002 23 10000 1.79 359 14:28 25.06.2022
2943 Clear 32 1003 32 10000 1.79 17 12:43 25.06.2022
2944 Clear 32 1003 39 10000 1.34 355 11:39 25.06.2022
2945 Clear 29 1004 58 10000 1.95 95 09:24 25.06.2022
2946 Clear 30 1003 47 10000 0.45 321 08:48 25.06.2022
2947 Clear 27 1003 65 10000 2.25 106 08:20 25.06.2022
2948 Clouds 26 1002 45 10000 2.31 92 06:26 25.06.2022
2949 Clear 27 1002 59 10000 0.89 53 00:44 25.06.2022
2950 Clear 27 1002 61 10000 2.23 127 23:32 24.06.2022
2951 Clear 28 1002 59 10000 2.2 76 22:22 24.06.2022
2952 Clear 29 1002 55 10000 0.89 42 21:22 24.06.2022
2953 Clear 30 1001 47 10000 2.38 101 20:23 24.06.2022
2954 Clear 32 1001 36 10000 0.45 326 19:24 24.06.2022
2955 Clear 31 1014 53 10000 2.22 94 18:50 24.06.2022
2956 Clear 32 1014 48 10000 2.22 94 18:31 24.06.2022
2957 Clear 32 1014 35 10000 1.91 77 17:47 24.06.2022
2958 Clear 34 1001 17 10000 4.47 338 16:34 24.06.2022
2959 Clear 35 1002 23 10000 1.79 346 14:30 24.06.2022
2960 Clear 33 1002 26 10000 0.89 345 13:58 24.06.2022
2961 Clear 33 1002 30 10000 0.89 334 12:28 24.06.2022
2962 Clear 33 1003 36 10000 1.34 309 11:40 24.06.2022
2963 Clear 32 1003 40 10000 1.79 358 10:34 24.06.2022
2964 Clear 29 1003 66 10000 0.89 10 09:41 24.06.2022
2965 Clear 28 1003 65 10000 1.34 5 08:53 24.06.2022
2966 Clear 28 1002 47 10000 1.34 199 07:39 24.06.2022
2967 Clear 26 1001 48 10000 0.89 1 06:42 24.06.2022
2968 Clear 27 1001 48 10000 0.89 162 06:18 24.06.2022
2969 Clear 27 1001 49 10000 1.72 201 03:47 24.06.2022
2970 Clear 28 1002 35 10000 0.45 42 23:19 23.06.2022
2971 Clear 29 1002 41 10000 0.45 67 22:40 23.06.2022
2972 Clouds 28 1002 51 10000 2.48 133 20:59 23.06.2022
2973 Clouds 29 1002 47 10000 2.48 133 20:35 23.06.2022
2974 Clouds 31 1002 31 10000 0.45 319 19:40 23.06.2022
2975 Clouds 33 1002 34 10000 0.89 326 17:53 23.06.2022
2976 Clouds 34 1002 33 10000 1.34 347 17:33 23.06.2022
2977 Clouds 34 1002 34 10000 3.13 342 15:57 23.06.2022
2978 Clouds 34 1003 22 10000 1.79 351 15:24 23.06.2022
2979 Clear 36 1002 17 10000 1.34 28 13:46 23.06.2022
2980 Clear 34 1003 22 10000 0.89 343 11:27 23.06.2022
2981 Clear 33 1003 27 10000 1.34 358 10:40 23.06.2022
2982 Clear 32 1003 34 10000 0.91 333 09:18 23.06.2022
2983 Clear 27 1001 35 10000 0.45 115 03:51 23.06.2022
2984 Clouds 28 1001 34 10000 0.45 62 00:27 23.06.2022
2985 Clouds 28 1001 34 10000 0.47 179 23:43 22.06.2022
2986 Clouds 28 1001 43 10000 1.58 163 22:50 22.06.2022
2987 Clouds 28 1001 43 10000 0.45 28 21:27 22.06.2022
2988 Clouds 29 1001 42 10000 0.45 56 20:48 22.06.2022
2989 Clear 30 1001 39 10000 2 123 19:58 22.06.2022
2990 Clear 30 1014 49 10000 1.72 103 18:50 22.06.2022
2991 Clear 33 1001 28 10000 0.89 323 17:29 22.06.2022
2992 Clear 34 1001 28 10000 0.89 346 16:37 22.06.2022
2993 Clear 33 1001 26 10000 1.79 339 15:27 22.06.2022
2994 Clear 33 1002 28 10000 0.89 15 14:40 22.06.2022
2995 Clear 32 1002 26 10000 2.68 333 13:45 22.06.2022
2996 Clear 33 1002 26 10000 2.68 5 13:23 22.06.2022
2997 Clear 34 1002 23 10000 1.79 349 11:50 22.06.2022
2998 Clear 35 1002 22 10000 0.45 349 10:58 22.06.2022
2999 Clear 35 1002 22 10000 0.45 349 10:58 22.06.2022
3000 Clear 32 1002 27 10000 0.45 321 10:20 22.06.2022
3001 Clear 31 1001 29 10000 0.89 355 08:48 22.06.2022
3002 Clear 26 1000 33 10000 1.54 157 06:21 22.06.2022
3003 Clear 26 1002 29 10000 1.99 121 01:50 22.06.2022
3004 Clear 26 1002 29 10000 0.45 157 00:56 22.06.2022
3005 Clear 26 1002 43 10000 0.86 136 22:40 21.06.2022
3006 Clear 28 1002 44 10000 2.85 129 20:40 21.06.2022
3007 Clear 30 1002 35 10000 1.34 10 19:18 21.06.2022
3008 Clear 31 1002 29 10000 0.89 345 17:44 21.06.2022
3009 Clear 32 1003 28 10000 0.89 1 16:34 21.06.2022
3010 Clear 31 1004 33 10000 1.79 3 11:56 21.06.2022
3011 Clear 31 1004 33 10000 2.24 356 10:33 21.06.2022
3012 Clear 27 1017 45 10000 0.96 65 08:54 21.06.2022
3013 Clear 25 1017 54 10000 1.09 63 07:35 21.06.2022
3014 Clear 25 1003 26 10000 0.89 139 04:42 21.06.2022
3015 Clear 25 1004 43 10000 1.97 162 23:45 20.06.2022
3016 Clear 25 1004 33 10000 0.45 158 22:21 20.06.2022
3017 Clear 25 1004 44 10000 0.45 180 21:32 20.06.2022
3018 Clear 27 1004 44 10000 1.66 55 20:27 20.06.2022
3019 Clear 27 1004 40 10000 1.34 336 19:23 20.06.2022
3020 Clear 30 1003 39 10000 0.89 358 18:25 20.06.2022
3021 Clear 30 1003 32 10000 0.89 7 17:44 20.06.2022
3022 Clear 31 1004 36 10000 1.79 20 16:24 20.06.2022
3023 Clear 30 1004 39 10000 2.68 18 14:41 20.06.2022
3024 Clear 29 1004 35 10000 1.79 15 11:47 20.06.2022
3025 Clear 27 1016 58 10000 1.65 348 09:55 20.06.2022
3026 Clear 26 1016 58 10000 1.23 321 08:46 20.06.2022
3027 Clear 25 1016 55 10000 0.43 308 07:36 20.06.2022
3028 Clear 23 1002 40 10000 0.67 209 04:56 20.06.2022
3029 Clouds 24 1003 45 10000 0.45 151 01:32 20.06.2022
3030 Clouds 24 1003 45 10000 0.45 64 23:49 19.06.2022
3031 Clouds 25 1003 46 10000 0.15 170 22:25 19.06.2022
3032 Clouds 25 1003 46 10000 0.15 171 21:43 19.06.2022
3033 Clouds 26 1003 44 10000 0.36 351 20:55 19.06.2022
3034 Clouds 27 1003 30 10000 1.34 325 20:25 19.06.2022
3035 Clouds 28 1003 42 10000 1.79 339 19:45 19.06.2022
3036 Clouds 28 1002 39 10000 3.58 352 18:33 19.06.2022
3037 Clouds 28 1015 56 10000 2.21 328 17:48 19.06.2022
3038 Clouds 28 1003 38 10000 3.13 359 17:20 19.06.2022
3039 Clouds 29 1003 38 10000 2.24 25 16:34 19.06.2022
3040 Clouds 29 1003 38 10000 1.34 11 15:35 19.06.2022
3041 Clouds 29 1003 38 10000 4.02 3 14:51 19.06.2022
3042 Clouds 29 1003 38 10000 3.58 360 13:54 19.06.2022
3043 Clouds 29 1003 39 10000 1.79 27 12:39 19.06.2022
3044 Clouds 28 1003 46 10000 2.24 24 10:53 19.06.2022
3045 Clear 29 1003 44 10000 1.79 4 09:34 19.06.2022
3046 Clear 26 1016 62 10000 1.94 257 08:43 19.06.2022
3047 Clear 25 1016 66 10000 1.83 235 07:36 19.06.2022
3048 Clear 23 1002 48 10000 1.34 180 04:41 19.06.2022
3049 Clear 24 1003 52 10000 1.23 178 01:28 19.06.2022
3050 Clear 24 1003 53 10000 0.45 98 00:24 19.06.2022
3051 Clear 24 1003 52 10000 0.8 157 23:35 18.06.2022
3052 Clouds 25 1003 46 10000 0.56 142 22:36 18.06.2022
3053 Clear 26 1003 10 10000 0.45 217 20:55 18.06.2022
3054 Clear 27 1002 34 10000 0.45 339 20:28 18.06.2022
3055 Clear 28 1002 43 10000 2.68 352 19:37 18.06.2022
3056 Clear 29 1002 43 10000 2.68 354 18:45 18.06.2022
3057 Clear 29 1002 38 10000 1.79 3 17:31 18.06.2022
3058 Clear 30 1003 44 10000 0.89 350 16:37 18.06.2022
3059 Clear 29 1003 46 10000 2.24 5 15:30 18.06.2022
3060 Clear 29 1011 52 10000 3.58 90 14:42 18.06.2022
3061 Clouds 29 1004 44 10000 4.47 354 13:22 18.06.2022
3062 Clouds 29 1004 43 10000 0.45 5 11:38 18.06.2022
3063 Clouds 29 1004 43 10000 0.89 30 10:46 18.06.2022
3064 Clouds 25 1017 73 10000 2.68 52 09:22 18.06.2022
3065 Clouds 25 1021 74 10000 2.24 90 08:19 18.06.2022
3066 Clouds 24 1017 75 10000 2.24 69 06:44 18.06.2022
3067 Clouds 25 1004 48 10000 0.89 180 03:24 18.06.2022
3068 Clouds 25 1004 47 10000 0.45 171 01:24 18.06.2022
3069 Clouds 25 1004 41 10000 1.37 132 00:45 18.06.2022
3070 Clouds 25 1005 50 10000 2.08 118 23:52 17.06.2022
3071 Clouds 25 1005 50 10000 2.46 112 23:19 17.06.2022
3072 Clouds 26 1004 49 10000 0.45 337 20:42 17.06.2022
3073 Clouds 28 1004 44 10000 1.79 322 19:31 17.06.2022
3074 Clouds 30 1004 42 10000 2.24 315 18:37 17.06.2022
3075 Clouds 31 1005 35 10000 1.79 355 17:43 17.06.2022
3076 Clouds 32 1004 34 10000 2.24 349 16:43 17.06.2022
3077 Clouds 31 1005 39 10000 0.89 338 15:43 17.06.2022
3078 Clouds 32 1005 37 10000 3.13 333 14:58 17.06.2022
3079 Clear 32 1005 37 10000 3.73 34 14:20 17.06.2022
3080 Clear 31 1006 39 10000 0.89 351 13:45 17.06.2022
3081 Clear 31 1006 39 10000 1.34 348 12:53 17.06.2022
3082 Clear 31 1006 36 10000 2.24 356 11:57 17.06.2022
3083 Clear 31 1014 36 10000 3.58 3 11:36 17.06.2022
3084 Clear 31 1014 35 10000 1.34 335 10:51 17.06.2022
3085 Clear 28 1022 46 10000 0.89 90 08:30 17.06.2022
3086 Clear 28 1022 45 10000 0.45 90 07:47 17.06.2022
3087 Clear 24 1005 38 10000 1.77 105 05:57 17.06.2022
3088 Clear 25 1018 54 10000 1.39 135 02:52 17.06.2022
3089 Clouds 26 1006 40 10000 0.89 217 00:42 17.06.2022
3090 Clouds 25 1019 63 10000 2.49 131 22:45 16.06.2022
3091 Clouds 26 1019 63 10000 2.87 121 22:20 16.06.2022
3092 Clouds 27 1005 44 10000 3.31 77 21:19 16.06.2022
3093 Clouds 27 1005 44 10000 3.31 77 20:50 16.06.2022
3094 Clouds 28 1005 41 10000 2.54 81 19:57 16.06.2022
3095 Clouds 30 1005 35 10000 2.68 341 18:44 16.06.2022
3096 Clouds 30 1005 35 10000 0.89 332 17:44 16.06.2022
3097 Clouds 30 1005 41 10000 1.79 348 16:46 16.06.2022
3098 Clouds 30 1006 39 10000 1.79 316 15:44 16.06.2022
3099 Clouds 29 1006 41 10000 2.68 334 15:20 16.06.2022
3100 Clouds 30 1007 42 10000 1.79 355 13:49 16.06.2022
3101 Rain 30 1014 38 10000 2.24 344 12:38 16.06.2022
3102 Clear 30 1014 35 10000 3.58 135 11:55 16.06.2022
3103 Clear 30 1014 33 10000 3.58 135 11:21 16.06.2022
3104 Clear 30 1014 34 10000 2.68 90 10:35 16.06.2022
3105 Clear 29 1022 39 10000 3.58 90 09:37 16.06.2022
3106 Clear 28 1022 39 10000 1.79 90 08:50 16.06.2022
3107 Clear 28 1022 39 10000 1.79 90 08:50 16.06.2022
3108 Clouds 26 1021 46 10000 0.65 95 07:38 16.06.2022
3109 Clouds 23 1005 33 10000 0.45 112 05:48 16.06.2022
3110 Clouds 24 1005 41 10000 0.45 25 03:44 16.06.2022
3111 Clear 24 1006 43 10000 0.45 252 01:52 16.06.2022
3112 Clear 24 1006 43 10000 0.89 305 01:52 16.06.2022
3113 Clear 25 1006 42 10000 2.28 122 01:22 16.06.2022
3114 Clear 25 1006 37 10000 0.45 169 23:58 15.06.2022
3115 Clear 25 1006 34 10000 0.45 168 22:53 15.06.2022
3116 Clear 25 1006 33 10000 2.2 131 21:34 15.06.2022
3117 Clear 25 1005 25 10000 1.89 101 20:59 15.06.2022
3118 Clear 27 1006 25 10000 1.89 101 20:36 15.06.2022
3119 Clear 28 1006 38 10000 0.89 343 19:57 15.06.2022
3120 Clear 29 1006 33 10000 0.89 320 18:37 15.06.2022
3121 Clear 30 1006 30 10000 1.34 339 17:46 15.06.2022
3122 Clear 31 1006 38 10000 1.79 344 16:27 15.06.2022
3123 Clear 31 1006 39 10000 3.58 354 15:19 15.06.2022
3124 Clear 30 1006 38 10000 0.89 353 13:29 15.06.2022
3125 Clear 29 1006 36 10000 2.24 319 12:47 15.06.2022
3126 Clear 31 1014 31 10000 2.24 344 11:28 15.06.2022
3127 Clear 30 1022 38 10000 2.24 90 10:22 15.06.2022
3128 Clear 28 1018 44 10000 2.21 66 09:34 15.06.2022
3129 Clear 24 1018 53 10000 2.43 100 07:43 15.06.2022
3130 Clear 24 1006 23 10000 1.38 119 05:57 15.06.2022
3131 Clear 24 1005 31 10000 0.45 180 02:56 15.06.2022
3132 Clear 24 1017 48 10000 1.79 116 01:37 15.06.2022
3133 Clear 25 1005 33 10000 0.45 145 00:37 15.06.2022
3134 Clear 25 1005 34 10000 0.45 104 23:38 14.06.2022
3135 Clear 25 1005 37 10000 2.77 124 22:48 14.06.2022
3136 Clear 25 1005 34 10000 2.9 121 21:44 14.06.2022
3137 Clear 25 1004 23 10000 2.48 106 21:21 14.06.2022
3138 Clear 26 1004 23 10000 2.47 106 20:40 14.06.2022
3139 Clear 27 1004 33 10000 1.34 354 19:58 14.06.2022
3140 Clear 29 1003 29 10000 0.89 338 18:45 14.06.2022
3141 Clear 29 1004 27 10000 2.24 349 17:20 14.06.2022
3142 Clear 29 1004 26 10000 2.24 340 16:43 14.06.2022
3143 Clear 30 1004 23 10000 1.79 353 15:49 14.06.2022
3144 Clear 31 1004 20 10000 1.79 345 14:56 14.06.2022
3145 Clear 31 1004 21 10000 1.79 315 14:18 14.06.2022
3146 Clear 30 1005 26 10000 3.58 343 13:29 14.06.2022
3147 Clear 30 1004 27 10000 1.34 27 12:25 14.06.2022
3148 Clear 27 1016 48 10000 2.47 56 10:59 14.06.2022
3149 Clear 30 1004 30 10000 0.89 346 10:59 14.06.2022
3150 Clear 30 1004 32 10000 2.47 56 10:33 14.06.2022
3151 Clear 27 1012 41 10000 2.24 90 09:28 14.06.2022
3152 Clear 27 1012 41 10000 2.24 90 09:28 14.06.2022
3153 Clear 25 1020 59 10000 1.34 90 08:41 14.06.2022
3154 Clear 21 1019 57 10000 0.45 270 06:54 14.06.2022
3155 Clear 21 1003 38 10000 0.45 42 04:28 14.06.2022
3156 Clear 22 1003 28 10000 0.45 56 02:43 14.06.2022
3157 Clear 22 1016 60 10000 1.61 251 00:27 14.06.2022
3158 Clear 23 1016 62 10000 1.72 254 23:18 13.06.2022
3159 Clear 23 1016 71 10000 1.61 263 22:24 13.06.2022
3160 Clear 23 1016 74 10000 1.6 263 21:43 13.06.2022
3161 Clear 25 1015 69 10000 1.56 314 20:19 13.06.2022
3162 Clear 26 1015 65 10000 2.61 316 19:26 13.06.2022
3163 Clear 27 1015 60 10000 2.89 326 17:57 13.06.2022
3164 Clear 27 1015 53 10000 2.89 326 17:35 13.06.2022
3165 Clear 27 1015 56 10000 3.23 327 16:32 13.06.2022
3166 Clear 27 1015 59 10000 3.84 324 15:20 13.06.2022
3167 Clear 27 1015 61 10000 3.85 324 14:41 13.06.2022
3168 Clear 30 1004 34 10000 0.89 18 13:41 13.06.2022
3169 Clear 29 1005 32 10000 1.34 21 12:25 13.06.2022
3170 Clear 28 1021 56 10000 0.89 90 11:25 13.06.2022
3171 Clear 27 1016 52 10000 2.2 320 10:26 13.06.2022
3172 Clear 26 1020 51 10000 0.89 90 09:23 13.06.2022
3173 Clear 24 1016 55 10000 1.26 296 07:34 13.06.2022
3174 Clear 21 1016 63 10000 1.05 222 05:42 13.06.2022
3175 Clear 22 1004 41 10000 0.89 129 02:50 13.06.2022
3176 Clear 22 1013 52 10000 0.89 225 01:37 13.06.2022
3177 Clear 23 1006 43 10000 0.59 49 00:18 13.06.2022
3178 Clear 23 1005 43 10000 0.45 48 23:24 12.06.2022
3179 Clear 23 1005 42 10000 0.45 180 22:22 12.06.2022
3180 Clear 24 1005 41 10000 1.26 328 21:20 12.06.2022
3181 Clear 25 1004 40 10000 1.44 336 20:27 12.06.2022
3182 Clear 24 1016 73 10000 1.44 336 19:30 12.06.2022
3183 Clear 24 1016 73 10000 1.44 336 19:30 12.06.2022
3184 Clear 28 1004 38 10000 2.24 13 17:51 12.06.2022
3185 Clear 26 1016 68 10000 3.19 330 16:24 12.06.2022
3186 Clear 27 1017 45 10000 3.33 335 14:58 12.06.2022
3187 Clear 27 1017 50 10000 3.48 333 14:23 12.06.2022
3188 Clear 27 1017 54 10000 3.39 337 13:55 12.06.2022
3189 Clear 28 1006 35 10000 1.79 16 12:40 12.06.2022
3190 Clear 27 1006 40 10000 0.45 4 11:39 12.06.2022
3191 Clear 27 1006 36 10000 1.79 9 10:38 12.06.2022
3192 Clear 26 1021 55 10000 0.89 90 09:19 12.06.2022
3193 Clear 25 1017 60 10000 2.17 319 08:45 12.06.2022
3194 Clear 23 1017 68 10000 1.27 317 07:33 12.06.2022
3195 Clear 21 1012 48 10000 0.89 90 04:52 12.06.2022
3196 Clear 21 1005 40 10000 0.45 171 03:24 12.06.2022
3197 Clear 22 1006 41 10000 0.89 344 01:42 12.06.2022
3198 Clear 22 1006 42 10000 0.89 166 00:58 12.06.2022
3199 Clear 22 1006 42 10000 2.25 292 00:21 12.06.2022
3200 Clear 23 1006 41 10000 2.25 292 23:44 11.06.2022
3201 Clear 23 1006 39 10000 0.45 56 22:39 11.06.2022
3202 Clear 23 1006 39 10000 2.05 293 21:53 11.06.2022
3203 Clear 24 1017 72 10000 2.09 311 20:38 11.06.2022
3204 Clear 26 1005 37 10000 0.89 351 19:59 11.06.2022
3205 Clear 26 1005 42 10000 1.79 9 19:26 11.06.2022
3206 Clear 27 1005 38 10000 1.34 11 18:34 11.06.2022
3207 Clear 27 1005 37 10000 3.58 2 17:51 11.06.2022
3208 Clear 27 1005 37 10000 0.89 3 17:28 11.06.2022
3209 Clear 27 1005 36 10000 1.79 360 16:57 11.06.2022
3210 Clear 27 1005 37 10000 1.79 30 16:30 11.06.2022
3211 Clear 28 1005 39 10000 2.68 15 15:43 11.06.2022
3212 Clear 28 1005 37 10000 2.68 7 13:53 11.06.2022
3213 Clear 28 1005 33 10000 2.24 346 12:57 11.06.2022
3214 Clear 25 1015 63 10000 3.18 338 10:55 11.06.2022
3215 Clear 25 1015 64 10000 2.77 331 10:19 11.06.2022
3216 Clear 24 1015 69 10000 2.39 326 09:19 11.06.2022
3217 Clear 23 1018 70 10000 0.45 90 07:46 11.06.2022
3218 Clear 22 1003 47 10000 0.45 57 06:30 11.06.2022
3219 Clear 21 1002 46 10000 0.45 174 05:19 11.06.2022
3220 Clear 22 1013 71 10000 2.12 312 01:53 11.06.2022
3221 Clear 22 1013 71 10000 2.05 328 01:33 11.06.2022
3222 Clear 22 1013 72 10000 2.14 298 00:21 11.06.2022
3223 Clear 22 1002 44 10000 0.45 189 22:32 10.06.2022
3224 Clear 22 1001 44 10000 0.89 250 21:52 10.06.2022
3225 Clear 23 1001 43 10000 0.89 204 20:42 10.06.2022
3226 Clear 23 1000 44 10000 0.89 271 20:22 10.06.2022
3227 Clear 24 1000 43 10000 0.89 276 19:48 10.06.2022
3228 Clear 23 1011 71 10000 4.4 328 19:18 10.06.2022
3229 Clear 24 1010 68 10000 5.12 333 18:19 10.06.2022
3230 Clear 25 999 40 10000 2.24 271 17:36 10.06.2022
3231 Clear 24 1010 67 10000 5.66 333 16:55 10.06.2022
3232 Clear 24 1010 66 10000 5.95 335 15:47 10.06.2022
3233 Clear 25 999 34 10000 1.79 353 15:19 10.06.2022
3234 Clouds 26 999 35 10000 3.58 4 13:44 10.06.2022
3235 Clouds 25 998 34 10000 1.79 306 12:28 10.06.2022
3236 Clouds 24 998 34 10000 3.13 347 11:40 10.06.2022
3237 Clouds 24 997 34 10000 1.79 305 10:40 10.06.2022
3238 Clear 23 1004 49 10000 8.94 315 09:43 10.06.2022
3239 Clear 23 997 43 10000 3.13 258 08:23 10.06.2022
3240 Clear 22 996 39 10000 1.34 273 06:52 10.06.2022
3241 Clear 23 996 36 10000 2.24 271 06:32 10.06.2022
3242 Clear 22 1008 69 10000 6.22 298 05:45 10.06.2022
3243 Clear 22 1008 73 10000 5.57 288 03:41 10.06.2022
3244 Clear 22 1008 70 10000 5.15 282 01:38 10.06.2022
3245 Clear 22 1012 71 10000 5.81 315 00:25 10.06.2022
3246 Clear 23 1009 61 10000 5 259 23:25 09.06.2022
3247 Clear 23 1004 41 10000 6.26 225 21:47 09.06.2022
3248 Clear 23 1004 42 10000 6.26 225 21:29 09.06.2022
3249 Clear 23 1004 41 10000 5.36 225 20:54 09.06.2022
3250 Clouds 24 1004 41 10000 5.81 315 19:55 09.06.2022
3251 Clouds 26 1003 40 10000 5.36 292 18:49 09.06.2022
3252 Clouds 26 1004 40 10000 5.36 292 18:21 09.06.2022
3253 Clouds 27 1011 44 10000 4.92 315 16:46 09.06.2022
3254 Clouds 27 1011 50 10000 3.58 315 15:47 09.06.2022
3255 Clouds 27 1012 56 10000 3.58 315 14:35 09.06.2022
3256 Clouds 29 1004 31 10000 4.92 315 13:48 09.06.2022
3257 Clouds 29 1004 31 10000 4.47 225 13:26 09.06.2022
3258 Clouds 28 1005 32 10000 7.6 225 11:54 09.06.2022
3259 Clouds 27 1005 33 10000 5.36 315 10:53 09.06.2022
3260 Clouds 27 1005 39 10000 6.26 315 09:43 09.06.2022
3261 Clouds 27 1005 38 10000 5.81 0 09:23 09.06.2022
3262 Clouds 25 1013 53 10000 2.24 270 07:44 09.06.2022
3263 Clouds 25 1009 48 10000 3.42 222 05:47 09.06.2022
3264 Clouds 24 1006 47 10000 0.45 51 02:20 09.06.2022
3265 Clouds 25 1008 50 10000 1.83 213 23:34 08.06.2022
3266 Clouds 25 1000 42 10000 0.45 138 22:56 08.06.2022
3267 Clouds 25 1000 43 10000 0.45 316 22:26 08.06.2022
3268 Clouds 26 1000 43 10000 1.38 218 21:52 08.06.2022
3269 Clouds 26 1000 25 10000 0.45 37 20:59 08.06.2022
3270 Clouds 27 1000 39 10000 0.45 346 19:55 08.06.2022
3271 Clouds 27 1000 39 10000 0.89 348 19:27 08.06.2022
3272 Clouds 28 999 40 10000 0.89 323 18:42 08.06.2022
3273 Clouds 31 1008 32 10000 1.79 339 16:39 08.06.2022
3274 Clouds 31 1008 33 10000 0.89 356 15:27 08.06.2022
3275 Clouds 30 1008 32 10000 4.02 135 13:37 08.06.2022
3276 Clouds 29 1009 31 10000 3.13 90 11:51 08.06.2022
3277 Clouds 29 1009 30 10000 3.58 90 11:25 08.06.2022
3278 Clouds 28 1017 43 10000 0.89 90 09:48 08.06.2022
3279 Clouds 28 1016 42 10000 2.24 90 09:20 08.06.2022
3280 Clouds 27 1016 40 10000 1.79 90 08:18 08.06.2022
3281 Clear 24 1012 44 10000 1.39 156 05:47 08.06.2022
3282 Clear 25 1001 30 10000 0.89 149 03:20 08.06.2022
3283 Clouds 25 1009 36 10000 2.24 315 00:28 08.06.2022
3284 Clouds 25 1002 37 10000 1.93 261 23:25 07.06.2022
3285 Clouds 25 1014 62 10000 1.93 261 22:42 07.06.2022
3286 Clouds 25 1002 39 10000 0.89 158 22:20 07.06.2022
3287 Clouds 25 1001 38 10000 0.45 180 21:28 07.06.2022
3288 Clouds 26 1001 39 10000 0.89 185 20:53 07.06.2022
3289 Clouds 26 1001 40 10000 0.89 273 20:31 07.06.2022
3290 Clear 28 1009 37 10000 1.79 315 19:27 07.06.2022
3291 Clear 30 1001 27 10000 0.89 25 18:19 07.06.2022
3292 Clear 31 1001 26 10000 2.68 343 17:25 07.06.2022
3293 Clear 31 1009 26 10000 2.68 338 16:42 07.06.2022
3294 Clear 31 1010 30 10000 2.68 351 15:44 07.06.2022
3295 Clear 31 1010 30 10000 3.58 135 15:24 07.06.2022
3296 Clear 31 1010 32 10000 2.68 348 14:46 07.06.2022
3297 Clear 31 1002 32 10000 1.34 8 14:27 07.06.2022
3298 Clear 31 1010 29 10000 3.13 202 13:30 07.06.2022
3299 Clear 29 1013 48 10000 3.19 25 12:45 07.06.2022
3300 Clear 31 1010 27 10000 1.79 323 11:37 07.06.2022
3301 Clear 30 1011 33 10000 3.13 180 10:26 07.06.2022
3302 Clear 27 1019 50 10000 1.34 90 08:49 07.06.2022
3303 Clear 27 1019 52 10000 1.34 90 08:49 07.06.2022
3304 Clear 27 1019 50 10000 1.34 90 08:49 07.06.2022
3305 Clear 23 1015 78 10000 1.56 294 07:32 07.06.2022
3306 Clear 23 1011 48 10000 0.89 270 05:58 07.06.2022
3307 Clear 24 1003 41 10000 0.45 122 03:22 07.06.2022
3308 Clear 24 1012 47 10000 0.89 225 00:44 07.06.2022
3309 Clear 25 1012 48 10000 0.89 48 23:35 06.06.2022
3310 Clear 24 1004 48 10000 0.45 167 22:47 06.06.2022
3311 Clear 25 1004 47 10000 0.41 233 21:56 06.06.2022
3312 Clear 26 1020 73 10000 0.86 294 20:35 06.06.2022
3313 Clouds 28 1012 49 10000 0.89 354 19:24 06.06.2022
3314 Clouds 29 1012 48 10000 2.24 90 18:47 06.06.2022
3315 Clouds 29 1012 47 10000 3.13 315 17:55 06.06.2022
3316 Clouds 30 1012 51 10000 2.68 225 16:51 06.06.2022
3317 Clouds 30 1012 49 10000 2.68 292 15:44 06.06.2022
3318 Clouds 30 1004 47 10000 2.68 341 14:57 06.06.2022
3319 Clouds 30 1012 38 10000 2.24 330 13:40 06.06.2022
3320 Clouds 31 1013 38 10000 2.24 325 13:19 06.06.2022
3321 Clouds 30 1005 45 10000 1.79 354 12:33 06.06.2022
3322 Clouds 31 1013 47 10000 1.34 332 11:45 06.06.2022
3323 Clouds 30 1013 41 10000 0.89 90 09:51 06.06.2022
3324 Clouds 28 1005 43 10000 2.26 286 08:44 06.06.2022
3325 Clouds 26 1005 45 10000 0.89 5 07:44 06.06.2022
3326 Clouds 26 1005 53 10000 3.13 262 06:49 06.06.2022
3327 Clouds 23 1003 56 10000 0.89 84 04:38 06.06.2022
3328 Clouds 24 1020 83 10000 0.89 90 01:53 06.06.2022
3329 Clouds 24 1021 86 10000 0.45 90 00:57 06.06.2022
3330 Clouds 24 1021 85 10000 2.31 188 00:34 06.06.2022
3331 Clouds 23 1017 85 10000 0.79 118 22:59 05.06.2022
3332 Clouds 24 1018 82 10000 1.18 288 22:21 05.06.2022
3333 Clouds 26 1016 73 10000 2.08 287 20:24 05.06.2022
3334 Clouds 28 1016 65 10000 1.61 291 19:23 05.06.2022
3335 Clouds 28 1016 63 10000 2.54 300 18:19 05.06.2022
3336 Clouds 30 1016 65 10000 2.54 300 17:39 05.06.2022
3337 Clouds 30 1017 66 10000 2.86 307 17:20 05.06.2022
3338 Clouds 31 1017 51 10000 2.86 307 16:47 05.06.2022
3339 Clouds 35 1007 27 10000 0.45 270 15:28 05.06.2022
3340 Clear 35 1007 28 10000 0.45 270 14:21 05.06.2022
3341 Clear 34 1007 19 10000 1.79 353 11:59 05.06.2022
3342 Clouds 34 1007 22 10000 1.79 346 10:51 05.06.2022
3343 Clouds 34 1007 22 10000 1.79 1 10:24 05.06.2022
3344 Clouds 32 1017 42 10000 1.12 41 09:44 05.06.2022
3345 Clear 29 1018 44 10000 0.42 243 08:25 05.06.2022
3346 Clear 28 1007 29 10000 0.45 195 06:47 05.06.2022
3347 Clear 27 1006 33 10000 0.89 61 05:20 05.06.2022
3348 Clear 26 1017 62 10000 1.15 188 02:57 05.06.2022
3349 Clear 27 1006 38 10000 2.31 151 01:24 05.06.2022
3350 Clear 27 1006 38 10000 2.31 151 01:24 05.06.2022
3351 Clear 26 1015 48 10000 0.45 315 23:43 04.06.2022
3352 Clear 27 1007 44 10000 2.95 113 21:31 04.06.2022
3353 Clouds 29 1018 48 10000 2.33 95 19:46 04.06.2022
3354 Clouds 32 1018 29 10000 2.52 53 17:50 04.06.2022
3355 Clouds 36 1007 12 10000 1.34 322 16:22 04.06.2022
3356 Clouds 35 1007 18 10000 1.79 352 15:54 04.06.2022
3357 Clouds 36 1007 19 10000 1.34 305 14:36 04.06.2022
3358 Clouds 33 1008 22 10000 1.34 344 11:48 04.06.2022
3359 Clouds 32 1008 22 10000 1.79 356 10:57 04.06.2022
3360 Clouds 32 1008 22 10000 1.34 337 10:20 04.06.2022
3361 Clouds 31 1008 24 10000 1.79 11 09:41 04.06.2022
3362 Clouds 27 1019 41 10000 1.05 309 08:40 04.06.2022
3363 Clouds 28 1007 29 10000 1.45 271 07:38 04.06.2022
3364 Clouds 26 1006 26 10000 0.89 180 04:33 04.06.2022
3365 Clouds 26 1006 26 10000 0.89 180 04:33 04.06.2022
3366 Clouds 26 1006 26 10000 0.89 180 04:33 04.06.2022
3367 Clouds 26 1006 26 10000 0.89 180 04:33 04.06.2022
3368 Clouds 27 1007 31 10000 2.79 119 00:48 04.06.2022
3369 Clouds 26 1018 41 10000 2.04 92 23:35 03.06.2022
3370 Clouds 27 1007 27 10000 0.45 123 22:30 03.06.2022
3371 Clear 29 1007 16 10000 0.45 105 20:52 03.06.2022
3372 Clouds 30 1007 13 10000 0.41 220 20:27 03.06.2022
3373 Clear 33 1007 12 10000 1.34 341 17:39 03.06.2022
3374 Clear 34 1007 9 10000 1.79 325 16:47 03.06.2022
3375 Clear 34 1007 22 10000 1.79 341 15:18 03.06.2022
3376 Clouds 33 1007 35 10000 1.34 7 12:56 03.06.2022
3377 Clouds 32 1007 28 10000 1.34 353 10:54 03.06.2022
3378 Clear 28 1017 54 10000 1.87 85 09:38 03.06.2022
3379 Clear 33 1006 24 10000 0.45 7 08:32 03.06.2022
3380 Clear 23 1017 63 10000 2.14 130 07:26 03.06.2022
3381 Clear 26 1006 29 10000 0.45 137 06:32 03.06.2022
3382 Clear 25 1006 35 10000 0.45 72 05:19 03.06.2022
3383 Clear 27 1006 30 10000 0.89 134 00:25 03.06.2022
3384 Clear 27 1006 33 10000 0.45 148 22:41 02.06.2022
3385 Clear 26 1006 32 10000 0.45 45 21:38 02.06.2022
3386 Clear 27 1005 32 10000 2.71 116 20:22 02.06.2022
3387 Clear 28 1005 30 10000 0.45 290 19:43 02.06.2022
3388 Clear 29 1005 30 10000 0.45 296 19:23 02.06.2022
3389 Clear 31 1015 36 10000 2.86 89 17:32 02.06.2022
3390 Clear 31 1016 32 10000 3 69 16:27 02.06.2022
3391 Clear 31 1016 34 10000 3.91 77 14:19 02.06.2022
3392 Clear 30 1017 35 10000 3.65 64 13:29 02.06.2022
3393 Clear 29 1016 39 10000 3.41 76 11:24 02.06.2022
3394 Clear 27 1016 52 10000 3.19 79 10:20 02.06.2022
3395 Clear 27 1016 59 10000 2.37 67 09:27 02.06.2022
3396 Clear 25 1016 55 10000 1.69 85 08:26 02.06.2022
3397 Clear 24 1016 61 10000 3 111 07:25 02.06.2022
3398 Clear 23 1015 66 10000 3.07 113 04:52 02.06.2022
3399 Clear 23 1016 78 10000 2.46 93 02:38 02.06.2022
3400 Clear 24 1016 72 10000 2.4 120 23:47 01.06.2022
3401 Clear 25 1016 64 10000 2.43 103 22:32 01.06.2022
3402 Clear 25 1016 66 10000 2.41 103 21:35 01.06.2022
3403 Clear 26 1016 55 10000 2.36 113 20:58 01.06.2022
3404 Clear 27 1016 48 10000 2.36 113 20:37 01.06.2022
3405 Clear 28 1015 42 10000 2.97 87 19:28 01.06.2022
3406 Clear 29 1015 53 10000 2.7 78 17:46 01.06.2022
3407 Clear 30 1015 48 10000 2.61 67 16:38 01.06.2022
3408 Clear 31 1004 33 10000 2.67 54 14:59 01.06.2022
3409 Clear 30 1004 36 10000 2.25 44 13:53 01.06.2022
3410 Clear 30 1005 42 10000 0.45 33 12:26 01.06.2022
3411 Clear 29 1004 36 10000 1.84 61 09:48 01.06.2022
3412 Clear 28 1004 41 10000 2.03 79 08:53 01.06.2022
3413 Clear 24 1004 58 10000 1.97 139 07:24 01.06.2022
3414 Clear 22 1004 63 10000 2.03 138 05:52 01.06.2022
3415 Clouds 25 1004 55 10000 2.11 239 00:48 01.06.2022
3416 Clouds 25 1004 57 10000 2.21 237 23:30 31.05.2022
3417 Clouds 25 1004 57 10000 2.21 237 23:30 31.05.2022
3418 Clouds 25 1004 54 10000 1.27 214 22:37 31.05.2022
3419 Clouds 26 1004 52 10000 1.1 170 21:46 31.05.2022
3420 Clear 25 1015 64 10000 1.34 165 20:46 31.05.2022
3421 Clouds 27 1003 45 10000 0.7 112 20:20 31.05.2022
3422 Clouds 29 1003 35 10000 0.73 333 18:53 31.05.2022
3423 Clouds 27 1014 53 10000 1.43 313 17:50 31.05.2022
3424 Clouds 29 1014 50 10000 0.98 302 16:57 31.05.2022
3425 Clouds 32 1003 27 10000 1.34 356 15:41 31.05.2022
3426 Clouds 32 1003 26 10000 1.64 303 14:18 31.05.2022
3427 Clouds 32 1003 22 10000 0.89 354 12:21 31.05.2022
3428 Clouds 32 1003 22 10000 0.98 269 10:55 31.05.2022
3429 Clouds 32 1003 23 10000 0.45 357 10:55 31.05.2022
3430 Clouds 28 1003 38 10000 1.58 190 09:31 31.05.2022
3431 Clouds 24 1003 48 10000 1.63 124 07:25 31.05.2022
3432 Clear 22 1002 59 10000 2.33 144 05:22 31.05.2022
3433 Clouds 25 1002 48 10000 2.47 261 01:35 31.05.2022
3434 Clouds 26 1002 38 10000 2.16 168 23:27 30.05.2022
3435 Clouds 24 1014 54 10000 2.16 168 22:56 30.05.2022
3436 Clouds 23 1013 60 10000 2.45 161 21:59 30.05.2022
3437 Clouds 24 1013 54 10000 2.06 164 21:33 30.05.2022
3438 Clouds 26 1012 54 10000 0.9 155 20:20 30.05.2022
3439 Clouds 28 1012 43 10000 1.33 125 18:41 30.05.2022
3440 Clouds 30 1011 42 10000 1.78 117 17:38 30.05.2022
3441 Clouds 29 1011 46 10000 1.61 146 16:44 30.05.2022
3442 Clouds 30 1011 41 10000 1.32 134 14:51 30.05.2022
3443 Clouds 30 1011 36 10000 1.56 144 12:29 30.05.2022
3444 Clouds 29 1011 25 10000 1.07 150 10:46 30.05.2022
3445 Clouds 30 999 19 10000 1.36 172 09:38 30.05.2022
3446 Clouds 24 998 29 10000 3.03 202 07:22 30.05.2022
3447 Clouds 23 997 32 10000 3.48 209 05:49 30.05.2022
3448 Clear 23 998 34 10000 4.01 208 01:48 30.05.2022
3449 Clear 24 998 31 10000 3.79 207 23:21 29.05.2022
3450 Clear 24 1010 40 10000 3.79 207 22:38 29.05.2022
3451 Clear 24 1009 52 10000 4.07 222 20:57 29.05.2022
3452 Clear 26 1008 35 10000 4.16 247 19:34 29.05.2022
3453 Clear 27 1007 31 10000 5.49 263 18:59 29.05.2022
3454 Clear 26 1007 48 10000 6.38 274 17:32 29.05.2022
3455 Clear 27 1006 52 10000 6.59 273 15:49 29.05.2022
3456 Clear 26 1006 52 10000 6.77 275 15:23 29.05.2022
3457 Clear 26 1006 51 10000 6.35 279 14:18 29.05.2022
3458 Clear 26 1000 45 10000 3.58 225 11:48 29.05.2022
3459 Clear 25 1000 53 10000 2.24 225 10:40 29.05.2022
3460 Clear 24 995 57 10000 1.31 260 09:51 29.05.2022
3461 Clear 19 994 75 10000 3.08 226 06:51 29.05.2022
3462 Clear 18 994 75 10000 3.51 238 04:47 29.05.2022
3463 Clear 18 994 76 10000 3.22 227 04:19 29.05.2022
3464 Clouds 19 999 76 10000 0.45 270 23:53 28.05.2022
3465 Clouds 19 999 75 10000 0.45 270 23:34 28.05.2022
3466 Clouds 20 995 70 10000 1.37 271 22:40 28.05.2022
3467 Clouds 20 998 72 10000 0.89 315 21:40 28.05.2022
3468 Clouds 22 994 61 10000 0.45 222 19:51 28.05.2022
3469 Clouds 22 998 68 10000 0.45 90 19:18 28.05.2022
3470 Clouds 22 994 69 10000 2.03 163 17:44 28.05.2022
3471 Clouds 22 995 73 10000 2.53 184 16:50 28.05.2022
3472 Rain 22 999 72 10000 1.79 90 15:44 28.05.2022
3473 Clouds 22 999 73 8750 2.24 315 14:35 28.05.2022
3474 Clouds 24 1000 58 10000 3.58 270 13:21 28.05.2022
3475 Clouds 24 1000 55 10000 2.24 225 12:40 28.05.2022
3476 Clouds 23 1000 54 10000 1.34 225 11:26 28.05.2022
3477 Clouds 24 1001 52 10000 3.13 202 10:25 28.05.2022
3478 Clouds 23 1001 56 10000 4.92 225 09:22 28.05.2022
3479 Clear 21 1001 65 10000 2.24 248 07:47 28.05.2022
3480 Clear 19 1001 78 10000 0.89 270 06:32 28.05.2022
3481 Clear 20 1003 79 10000 0.89 292 03:53 28.05.2022
3482 Clouds 21 1004 77 10000 3.58 292 00:33 28.05.2022
3483 Clouds 21 1005 71 10000 3.13 270 23:42 27.05.2022
3484 Clouds 22 1015 73 10000 4.47 315 22:24 27.05.2022
3485 Clouds 23 1004 66 10000 4.02 292 20:58 27.05.2022
3486 Clouds 22 1015 72 10000 3.13 270 20:31 27.05.2022
3487 Clouds 22 1015 73 10000 3.13 292 19:55 27.05.2022
3488 Clouds 23 1014 70 10000 2.68 315 19:33 27.05.2022
3489 Clouds 26 1014 63 10000 1.34 315 18:37 27.05.2022
3490 Clouds 26 1015 64 10000 4.47 270 16:42 27.05.2022
3491 Clouds 26 1015 65 10000 2.24 225 15:44 27.05.2022
3492 Clouds 27 1015 60 10000 5.36 315 14:45 27.05.2022
3493 Clouds 28 1012 42 10000 0.44 38 13:30 27.05.2022
3494 Clouds 28 1008 36 10000 1.34 90 11:43 27.05.2022
3495 Clouds 28 1006 29 10000 2.24 90 11:25 27.05.2022
3496 Clouds 28 1007 28 10000 2.24 90 10:35 27.05.2022
3497 Clouds 28 1001 24 10000 1.44 269 09:42 27.05.2022
3498 Clouds 25 1014 47 10000 1.09 199 08:24 27.05.2022
3499 Clouds 24 1014 40 10000 1.19 223 06:50 27.05.2022
3500 Clouds 26 1007 15 10000 0.89 270 02:56 27.05.2022
3501 Clouds 26 1003 28 10000 3.41 140 00:53 27.05.2022
3502 Clouds 26 1004 36 10000 4.46 98 22:50 26.05.2022
3503 Clouds 27 1004 35 10000 3.57 97 21:43 26.05.2022
3504 Clouds 27 1008 34 10000 0.89 270 20:59 26.05.2022
3505 Clouds 29 1009 27 10000 4.02 315 19:29 26.05.2022
3506 Clouds 29 1008 28 10000 0.89 315 18:24 26.05.2022
3507 Clouds 29 1009 28 10000 1.79 90 16:59 26.05.2022
3508 Clouds 29 1009 32 10000 1.34 45 15:52 26.05.2022
3509 Clouds 29 1005 35 10000 4.28 113 15:18 26.05.2022
3510 Clouds 28 1010 55 10000 2.68 90 13:45 26.05.2022
3511 Clouds 29 1011 43 10000 0.89 90 11:47 26.05.2022
3512 Clouds 29 1011 41 10000 2.68 90 10:39 26.05.2022
3513 Clouds 28 1010 38 10000 0.89 90 09:37 26.05.2022
3514 Clouds 26 1010 48 10000 2.05 105 08:38 26.05.2022
3515 Clouds 23 1005 56 10000 2.78 127 05:25 26.05.2022
3516 Clouds 22 1016 60 10000 3.89 131 01:26 26.05.2022
3517 Clouds 23 1017 60 10000 2.19 134 23:41 25.05.2022
3518 Clouds 24 1017 52 10000 1.28 280 22:51 25.05.2022
3519 Clouds 25 1021 46 10000 0.89 270 21:39 25.05.2022
3520 Clouds 25 1020 47 10000 4.92 292 20:43 25.05.2022
3521 Clouds 28 1018 41 10000 0.89 90 19:32 25.05.2022
3522 Clouds 29 1017 38 10000 4.02 315 18:23 25.05.2022
3523 Clouds 31 1013 29 10000 1.47 324 16:53 25.05.2022
3524 Clouds 32 1012 21 10000 1.5 338 16:25 25.05.2022
3525 Clouds 31 1012 27 10000 1.5 338 15:36 25.05.2022
3526 Clouds 33 1012 14 10000 0.93 294 14:42 25.05.2022
3527 Clouds 33 1012 14 10000 0.79 220 14:24 25.05.2022
3528 Clouds 32 1012 17 10000 1.56 138 13:21 25.05.2022
3529 Clouds 32 1007 14 10000 0.89 45 11:32 25.05.2022
3530 Clouds 30 1000 13 10000 1.71 158 10:24 25.05.2022
3531 Clouds 28 1000 16 10000 2.07 170 09:29 25.05.2022
3532 Clouds 24 999 25 10000 2.31 155 07:26 25.05.2022
3533 Clouds 22 999 34 10000 1.97 162 05:41 25.05.2022
3534 Clear 24 1000 35 10000 2.31 201 01:51 25.05.2022
3535 Clouds 24 999 42 10000 2.8 254 23:48 24.05.2022
3536 Clouds 25 1004 41 10000 0.89 270 22:58 24.05.2022
3537 Clouds 26 1004 40 10000 0.45 315 21:57 24.05.2022
3538 Clouds 26 1002 42 10000 0.89 270 21:37 24.05.2022
3539 Clouds 25 1014 49 10000 0.89 90 21:18 24.05.2022
3540 Clouds 28 1014 39 10000 2.2 102 19:23 24.05.2022
3541 Clouds 28 1014 41 10000 0.89 90 18:29 24.05.2022
3542 Clouds 30 1014 38 10000 0.89 90 16:39 24.05.2022
3543 Clouds 30 1014 38 10000 0.89 90 16:39 24.05.2022
3544 Clouds 30 1015 37 10000 2.24 90 15:45 24.05.2022
3545 Clouds 30 1015 39 10000 1.34 158 14:38 24.05.2022
3546 Clouds 30 1003 25 10000 0.45 90 13:47 24.05.2022
3547 Clouds 29 1004 30 10000 3.58 90 12:24 24.05.2022
3548 Clouds 27 1004 38 10000 0.89 90 09:52 24.05.2022
3549 Clouds 26 1004 41 10000 0.89 90 08:52 24.05.2022
3550 Clear 23 1000 51 10000 0.38 198 07:56 24.05.2022
3551 Clear 21 1004 55 10000 0.89 270 06:41 24.05.2022
3552 Clear 21 999 57 10000 1.13 177 03:41 24.05.2022
3553 Clear 23 1004 49 10000 1.34 225 01:47 24.05.2022
3554 Clear 22 1003 54 10000 0.89 270 00:34 24.05.2022
3555 Clear 23 1005 53 10000 0.89 270 22:24 23.05.2022
3556 Clear 23 1005 52 10000 0.45 270 21:53 23.05.2022
3557 Clear 24 1004 52 10000 0.89 90 20:49 23.05.2022
3558 Clear 24 1015 57 10000 0.45 90 19:56 23.05.2022
3559 Clear 26 1004 43 10000 1.48 88 19:27 23.05.2022
3560 Clear 26 1015 51 10000 0.89 90 18:41 23.05.2022
3561 Clear 26 1015 50 10000 0.89 90 17:56 23.05.2022
3562 Clear 27 1015 47 10000 0.89 90 16:40 23.05.2022
3563 Clear 29 1004 42 10000 0.89 112 14:44 23.05.2022
3564 Clear 27 1005 37 10000 1.79 180 11:58 23.05.2022
3565 Clear 27 1005 38 10000 1.34 90 11:20 23.05.2022
3566 Clear 26 1005 38 10000 1.34 90 09:48 23.05.2022
3567 Clear 24 1005 44 10000 0.89 90 08:50 23.05.2022
3568 Clear 24 1016 61 10000 1.44 136 07:41 23.05.2022
3569 Clear 19 1005 56 10000 0.89 270 06:41 23.05.2022
3570 Clear 19 1005 57 10000 0.89 270 04:40 23.05.2022
3571 Clear 20 1006 59 10000 0.89 270 02:19 23.05.2022
3572 Clear 20 1006 61 10000 0.89 270 01:33 23.05.2022
3573 Clear 21 1007 64 10000 0.89 270 23:42 22.05.2022
3574 Clear 21 1007 64 10000 0.45 90 22:34 22.05.2022
3575 Clear 22 1007 61 10000 0.45 90 21:54 22.05.2022
3576 Clear 22 1007 58 10000 0.89 90 20:51 22.05.2022
3577 Clear 22 1006 58 10000 0.89 90 20:23 22.05.2022
3578 Clear 23 1006 53 10000 2.6 113 19:54 22.05.2022
3579 Clear 24 1007 50 10000 0.89 90 18:53 22.05.2022
3580 Clear 24 1018 55 10000 1.34 90 18:24 22.05.2022
3581 Clear 25 1018 52 10000 2.24 90 17:28 22.05.2022
3582 Clear 26 1018 51 10000 2.68 90 15:59 22.05.2022
3583 Clear 27 1008 44 10000 0.45 90 14:48 22.05.2022
3584 Clear 26 1008 47 10000 2.24 90 13:38 22.05.2022
3585 Clear 26 1009 44 10000 1.34 90 12:50 22.05.2022
3586 Clear 26 1009 39 10000 1.79 90 11:37 22.05.2022
3587 Clear 24 1009 39 10000 1.34 90 09:42 22.05.2022
3588 Clear 22 1010 45 10000 0.89 90 08:31 22.05.2022
3589 Clear 19 1006 53 10000 1.79 126 07:21 22.05.2022
3590 Clear 18 1010 48 10000 0.89 270 05:31 22.05.2022
3591 Clear 19 1011 54 10000 0.89 270 01:41 22.05.2022
3592 Clear 19 1012 57 10000 0.89 270 00:43 22.05.2022
3593 Clear 19 1012 60 10000 0.45 90 23:54 21.05.2022
3594 Clear 20 1012 61 10000 0.89 90 22:57 21.05.2022
3595 Clear 20 1012 59 10000 0.45 90 21:42 21.05.2022
3596 Clear 19 1023 70 10000 2.65 130 20:59 21.05.2022
3597 Clear 21 1012 54 10000 1.9 97 20:22 21.05.2022
3598 Clear 22 1013 47 10000 0.45 90 19:30 21.05.2022
3599 Clear 23 1024 54 10000 0.89 90 17:51 21.05.2022
3600 Clear 24 1024 49 10000 3.58 90 16:43 21.05.2022
3601 Clouds 26 1015 34 10000 2.24 90 14:37 21.05.2022
3602 Clouds 25 1015 32 10000 2.24 135 13:42 21.05.2022
3603 Clouds 25 1016 34 10000 2.68 90 12:50 21.05.2022
3604 Clouds 25 1016 35 10000 0.89 90 12:26 21.05.2022
3605 Clouds 24 1017 30 10000 3.13 90 10:34 21.05.2022
3606 Clouds 23 1017 36 10000 1.79 90 09:44 21.05.2022
3607 Clouds 22 1017 43 10000 2.24 90 08:57 21.05.2022
3608 Clouds 19 1016 51 10000 2.24 90 07:54 21.05.2022
3609 Clouds 17 1017 60 10000 0.89 270 04:29 21.05.2022
3610 Clear 19 1019 70 10000 0.45 270 23:54 20.05.2022
3611 Clear 19 1019 65 10000 0.89 270 22:59 20.05.2022
3612 Clear 20 1020 63 10000 0.45 270 22:24 20.05.2022
3613 Clear 17 1030 76 10000 0.45 270 21:47 20.05.2022
3614 Clear 19 1030 70 10000 0.45 225 20:57 20.05.2022
3615 Clear 20 1030 66 10000 0.45 90 20:25 20.05.2022
3616 Clear 23 1019 53 10000 0.45 270 19:26 20.05.2022
3617 Clear 23 1030 62 10000 1.34 270 18:46 20.05.2022
3618 Clear 23 1030 55 10000 3.13 270 17:37 20.05.2022
3619 Clear 25 1031 45 10000 1.79 270 16:20 20.05.2022
3620 Clear 25 1031 46 10000 0.89 270 15:53 20.05.2022
3621 Clear 24 1031 50 10000 2.24 315 14:31 20.05.2022
3622 Clear 25 1021 38 10000 3.13 270 13:55 20.05.2022
3623 Clear 24 1022 46 10000 1.79 315 11:38 20.05.2022
3624 Clear 24 1022 53 10000 1.34 270 10:23 20.05.2022
3625 Clear 22 1021 64 10000 1.34 90 08:45 20.05.2022
3626 Clear 19 1021 66 10000 0.89 90 07:18 20.05.2022
3627 Clear 18 1021 70 10000 0.45 270 06:34 20.05.2022
3628 Clear 18 1020 68 10000 1.79 248 04:59 20.05.2022
3629 Clear 19 1019 70 10000 0.45 270 00:54 20.05.2022
3630 Clear 21 1019 77 10000 2.29 161 22:57 19.05.2022
3631 Clear 21 1019 77 10000 0.89 90 22:25 19.05.2022
3632 Clear 20 1029 82 10000 1.34 90 21:48 19.05.2022
3633 Clear 20 1028 79 10000 0.89 90 21:23 19.05.2022
3634 Clear 20 1028 80 10000 1.79 45 20:40 19.05.2022
3635 Clear 21 1028 78 10000 1.79 90 19:53 19.05.2022
3636 Clear 23 1027 70 10000 3.13 135 18:34 19.05.2022
3637 Clear 24 1027 68 10000 3.58 135 17:31 19.05.2022
3638 Clear 24 1027 65 10000 1.34 180 15:33 19.05.2022
3639 Clear 25 1027 63 10000 2.24 90 14:29 19.05.2022
3640 Clear 26 1016 51 10000 3.58 135 13:50 19.05.2022
3641 Clear 24 1016 62 10000 3.58 90 11:46 19.05.2022
3642 Clear 23 1016 72 10000 3.13 45 09:46 19.05.2022
3643 Clear 22 1015 76 10000 3.58 45 08:27 19.05.2022
3644 Clear 20 1014 63 10000 0.45 90 06:31 19.05.2022
3645 Clear 20 1012 70 10000 0.89 90 02:57 19.05.2022
3646 Clear 20 1014 69 10000 0.45 315 00:47 19.05.2022
3647 Clear 21 1013 68 10000 0.45 248 22:53 18.05.2022
3648 Clear 21 1013 69 10000 1.34 225 22:35 18.05.2022
3649 Clear 21 1013 66 10000 0.45 219 21:31 18.05.2022
3650 Clear 22 1012 64 10000 0.45 220 20:55 18.05.2022
3651 Clear 22 1012 64 10000 0.45 220 20:55 18.05.2022
3652 Clear 22 1012 59 10000 1.34 71 20:19 18.05.2022
3653 Clear 23 1022 61 10000 0.45 90 18:46 18.05.2022
3654 Clear 25 1022 52 10000 1.34 90 17:41 18.05.2022
3655 Clear 25 1015 56 10000 1.79 329 17:23 18.05.2022
3656 Clear 25 1022 47 10000 1.79 90 16:35 18.05.2022
3657 Clear 27 1015 46 10000 2.24 338 15:42 18.05.2022
3658 Clear 27 1015 46 10000 2.24 135 15:19 18.05.2022
3659 Clear 26 1011 36 10000 3.13 90 13:48 18.05.2022
3660 Clouds 26 1012 36 10000 2.68 135 12:53 18.05.2022
3661 Clouds 26 1012 33 10000 3.58 90 11:47 18.05.2022
3662 Clouds 25 1012 32 10000 2.24 135 11:29 18.05.2022
3663 Clouds 23 1012 44 10000 2.24 158 09:59 18.05.2022
3664 Clear 20 1011 49 10000 1.79 90 07:56 18.05.2022
3665 Clear 18 1010 55 10000 0.89 270 06:50 18.05.2022
3666 Clear 19 1009 54 10000 1.34 270 02:44 18.05.2022
3667 Clouds 19 1010 60 10000 0.89 225 00:31 18.05.2022
3668 Clouds 20 1011 66 10000 0.45 90 22:57 17.05.2022
3669 Clear 21 1010 63 10000 2.32 109 21:21 17.05.2022
3670 Clear 21 1010 60 10000 0.45 90 20:38 17.05.2022
3671 Clear 23 1010 51 10000 0.89 341 19:29 17.05.2022
3672 Clouds 25 1010 43 10000 0.89 90 18:22 17.05.2022
3673 Clear 25 1015 53 10000 0.89 324 17:28 17.05.2022
3674 Clear 26 1015 51 10000 1.34 8 16:53 17.05.2022
3675 Clear 26 1015 46 10000 2.68 90 15:45 17.05.2022
3676 Clear 26 1012 36 10000 3.13 135 14:48 17.05.2022
3677 Clear 26 1011 35 10000 2.24 334 14:23 17.05.2022
3678 Clear 25 1012 35 10000 3.58 342 12:36 17.05.2022
3679 Clear 24 1013 39 10000 1.79 342 10:23 17.05.2022
3680 Clear 22 1013 46 10000 1.79 90 08:51 17.05.2022
3681 Clear 20 1014 52 10000 1.34 90 07:41 17.05.2022
3682 Clear 17 1013 58 10000 0.89 270 05:58 17.05.2022
3683 Clouds 18 1014 60 10000 0.89 98 00:47 17.05.2022
3684 Clouds 19 1014 63 10000 0.45 90 22:51 16.05.2022
3685 Clouds 19 1013 65 10000 0.89 90 22:30 16.05.2022
3686 Clear 20 1013 62 10000 0.45 184 20:56 16.05.2022
3687 Clear 21 1013 62 10000 0.45 186 20:33 16.05.2022
3688 Clear 23 1013 50 10000 0.89 90 18:41 16.05.2022
3689 Clear 26 1016 52 10000 2.24 90 16:42 16.05.2022
3690 Clear 27 1017 48 10000 1.79 23 14:58 16.05.2022
3691 Clear 26 1013 38 10000 2.24 4 13:34 16.05.2022
3692 Clear 25 1013 44 10000 3.58 112 12:34 16.05.2022
3693 Clear 24 1014 34 10000 3.58 90 10:35 16.05.2022
3694 Clear 20 1014 56 10000 0.89 90 07:48 16.05.2022
3695 Clouds 18 1012 47 10000 0.89 270 05:44 16.05.2022
3696 Clear 19 1013 44 10000 0.89 248 00:48 16.05.2022
3697 Clear 20 1013 39 10000 0.89 90 22:44 15.05.2022
3698 Clear 21 1012 37 10000 0.89 90 21:59 15.05.2022
3699 Clear 20 1016 39 10000 0.89 90 21:36 15.05.2022
3700 Clear 20 1016 32 10000 0.89 90 20:43 15.05.2022
3701 Clouds 23 1022 39 10000 1.34 90 18:39 15.05.2022
3702 Clouds 25 1016 19 10000 1.34 352 16:54 15.05.2022
3703 Clouds 26 1013 19 10000 4.02 90 14:29 15.05.2022
3704 Clouds 25 1013 27 10000 2.24 90 13:45 15.05.2022
3705 Clouds 24 1013 28 10000 3.58 135 11:59 15.05.2022
3706 Clouds 24 1013 29 10000 2.24 90 10:47 15.05.2022
3707 Clear 22 1013 44 10000 3.13 135 09:46 15.05.2022
3708 Clear 18 1013 57 10000 0.89 90 07:23 15.05.2022
3709 Clear 17 1013 60 10000 0.89 270 06:55 15.05.2022
3710 Clear 18 1013 56 10000 0.89 270 02:55 15.05.2022
3711 Clear 19 1013 49 10000 0.89 90 00:24 15.05.2022
3712 Clear 19 1013 49 10000 0.89 70 23:37 14.05.2022
3713 Clear 17 1023 68 10000 0.89 90 21:50 14.05.2022
3714 Clear 20 1013 48 10000 0.89 90 21:26 14.05.2022
3715 Clear 20 1016 46 10000 0.45 179 20:27 14.05.2022
3716 Clear 23 1012 44 10000 0.89 344 19:20 14.05.2022
3717 Clear 23 1013 47 10000 1.34 90 18:57 14.05.2022
3718 Clear 24 1016 36 10000 2.24 344 17:47 14.05.2022
3719 Clear 25 1017 32 10000 1.79 330 15:58 14.05.2022
3720 Clear 25 1017 32 10000 3.13 350 14:39 14.05.2022
3721 Clear 25 1017 32 10000 4.47 90 14:18 14.05.2022
3722 Clear 25 1013 28 10000 1.79 90 11:46 14.05.2022
3723 Clear 23 1014 41 10000 2.68 90 10:45 14.05.2022
3724 Clear 23 1014 42 10000 2.24 90 10:19 14.05.2022
3725 Clear 22 1014 48 10000 1.34 90 09:25 14.05.2022
3726 Clear 19 1014 55 10000 0.8 95 07:43 14.05.2022
3727 Clear 17 1013 60 10000 0.89 270 04:49 14.05.2022
3728 Clear 18 1014 53 10000 0.89 270 01:42 14.05.2022
3729 Clear 19 1014 52 10000 0.89 90 23:28 13.05.2022
3730 Clear 19 1015 51 10000 0.89 90 22:56 13.05.2022
3731 Clear 19 1014 49 10000 0.89 51 22:22 13.05.2022
3732 Clear 19 1018 46 10000 0.89 90 21:19 13.05.2022
3733 Clear 19 1018 39 10000 0.89 90 20:40 13.05.2022
3734 Clear 20 1018 47 10000 1.51 106 20:21 13.05.2022
3735 Clear 22 1014 50 10000 0.45 90 19:18 13.05.2022
3736 Clear 23 1024 54 10000 1.79 90 17:47 13.05.2022
3737 Clear 24 1017 35 10000 2.24 135 17:23 13.05.2022
3738 Clear 24 1024 47 10000 2.24 90 15:48 13.05.2022
3739 Clear 25 1018 34 10000 1.79 351 14:45 13.05.2022
3740 Clear 24 1015 40 10000 2.24 90 12:54 13.05.2022
3741 Clear 24 1015 30 10000 3.13 339 12:20 13.05.2022
3742 Clear 23 1016 39 10000 2.24 90 10:23 13.05.2022
3743 Clear 22 1016 46 10000 0.89 90 09:29 13.05.2022
3744 Clouds 19 1016 60 10000 0.89 90 07:59 13.05.2022
3745 Clouds 19 1016 60 10000 0.89 90 07:59 13.05.2022
3746 Clouds 18 1016 63 10000 1.16 144 07:26 13.05.2022
3747 Clouds 17 1015 52 10000 0.89 270 05:31 13.05.2022
3748 Clouds 18 1013 52 10000 0.45 142 01:37 13.05.2022
3749 Clouds 19 1013 51 10000 1.58 148 23:34 12.05.2022
3750 Clouds 19 1017 60 10000 0.89 90 22:35 12.05.2022
3751 Clouds 19 1016 61 10000 0.45 54 21:35 12.05.2022
3752 Clear 20 1016 66 10000 1.67 110 19:55 12.05.2022
3753 Clear 21 1026 70 10000 1.34 90 18:29 12.05.2022
3754 Clear 23 1020 44 10000 2.24 90 16:48 12.05.2022
3755 Clear 24 1020 39 10000 3.13 15 15:22 12.05.2022
3756 Clear 25 1021 36 10000 3.13 90 13:52 12.05.2022
3757 Clear 24 1017 33 10000 1.34 90 12:29 12.05.2022
3758 Clear 22 1017 47 10000 0.89 338 10:34 12.05.2022
3759 Clear 20 1017 59 10000 2.24 90 08:58 12.05.2022
3760 Clear 19 1018 65 10000 0.89 90 08:37 12.05.2022
3761 Clouds 17 1018 67 10000 0.45 90 07:36 12.05.2022
3762 Clouds 16 1016 53 10000 0.89 248 04:50 12.05.2022
3763 Clear 17 1016 56 10000 0.89 225 01:55 12.05.2022
3764 Clear 17 1017 57 10000 0.89 114 23:42 11.05.2022
3765 Clear 18 1017 56 10000 0.45 103 22:29 11.05.2022
3766 Clear 19 1016 56 10000 0.45 178 21:29 11.05.2022
3767 Clear 18 1020 54 10000 0.45 90 20:48 11.05.2022
3768 Clear 22 1019 46 10000 1.34 90 17:54 11.05.2022
3769 Clear 21 1025 58 10000 1.34 90 16:47 11.05.2022
3770 Clear 23 1019 39 10000 1.79 14 14:50 11.05.2022
3771 Clear 23 1020 37 10000 2.24 343 14:26 11.05.2022
3772 Clear 23 1015 33 10000 2.68 45 13:44 11.05.2022
3773 Clear 23 1016 37 10000 2.24 90 11:50 11.05.2022
3774 Clear 20 1016 61 10000 2.24 90 09:39 11.05.2022
3775 Clear 18 1016 73 10000 1.05 88 07:53 11.05.2022
3776 Clouds 15 1014 78 10000 0.89 270 04:43 11.05.2022
3777 Clouds 16 1015 71 10000 0.45 90 23:48 10.05.2022
3778 Clouds 17 1015 68 10000 1.45 150 22:30 10.05.2022
3779 Clouds 18 1012 67 10000 1.36 99 21:45 10.05.2022
3780 Clear 18 1014 67 10000 1.38 71 20:48 10.05.2022
3781 Clouds 19 1014 71 10000 1.21 18 19:25 10.05.2022
3782 Clouds 20 1023 68 10000 0.89 90 17:47 10.05.2022
3783 Clouds 20 1023 64 10000 1.34 90 16:41 10.05.2022
3784 Clear 22 1018 45 10000 3.58 135 13:59 10.05.2022
3785 Clear 20 1018 48 10000 3.58 180 12:37 10.05.2022
3786 Clear 19 1018 50 10000 2.24 90 11:49 10.05.2022
3787 Clear 19 1018 53 10000 3.58 90 11:18 10.05.2022
3788 Clear 18 1017 61 10000 2.24 90 09:57 10.05.2022
3789 Clear 18 1017 61 10000 2.24 90 09:25 10.05.2022
3790 Clouds 14 1022 95 10000 0.82 147 06:44 10.05.2022
3791 Clouds 15 1022 94 10000 0.73 136 02:59 10.05.2022
3792 Clouds 15 1023 93 10000 0.89 270 00:24 10.05.2022
3793 Clouds 15 1022 93 10000 0.89 270 22:43 09.05.2022
3794 Clouds 15 1022 93 10000 0.89 225 21:48 09.05.2022
3795 Clouds 16 1015 72 10000 0.45 90 20:25 09.05.2022
3796 Clouds 17 1014 73 10000 2.31 120 18:43 09.05.2022
3797 Clouds 17 1015 71 10000 0.89 90 17:40 09.05.2022
3798 Clouds 17 1015 69 10000 2.52 54 16:29 09.05.2022
3799 Clouds 17 1015 67 10000 2.52 54 15:49 09.05.2022
3800 Clouds 17 1015 70 10000 0.45 225 14:54 09.05.2022
3801 Clouds 17 1015 68 10000 1.34 270 14:22 09.05.2022
3802 Clouds 17 1015 70 10000 1.79 315 13:36 09.05.2022
3803 Clouds 17 1015 67 10000 1.79 270 13:36 09.05.2022
3804 Clouds 18 1015 54 10000 2.68 270 12:18 09.05.2022
3805 Clouds 17 1015 57 10000 1.34 315 10:55 09.05.2022
3806 Clouds 17 1015 56 10000 1.79 270 10:36 09.05.2022
3807 Clouds 17 1014 66 10000 1.34 90 08:31 09.05.2022
3808 Clear 16 1019 90 10000 1.08 235 07:49 09.05.2022
3809 Clear 15 1019 88 10000 0.45 225 02:55 09.05.2022
3810 Clear 15 1018 89 10000 0.89 225 23:34 08.05.2022
3811 Clear 15 1018 88 10000 0.89 270 22:52 08.05.2022
3812 Clear 16 1018 87 10000 0.89 292 21:48 08.05.2022
3813 Clear 16 1018 87 10000 0.89 292 21:48 08.05.2022
3814 Clear 15 1017 86 10000 0.45 90 20:35 08.05.2022
3815 Clouds 17 1005 54 10000 1.74 92 19:43 08.05.2022
3816 Clouds 18 1005 53 10000 1.91 79 18:53 08.05.2022
3817 Clouds 18 1005 54 10000 1.95 64 17:57 08.05.2022
3818 Clouds 18 1005 53 10000 1.76 52 16:42 08.05.2022
3819 Clouds 18 1004 52 10000 1.47 18 15:31 08.05.2022
3820 Clouds 19 1013 70 10000 1.47 18 14:44 08.05.2022
3821 Clouds 20 1004 46 10000 2.25 311 12:25 08.05.2022
3822 Clouds 19 1012 68 10000 1.92 254 10:31 08.05.2022
3823 Clouds 18 1012 69 10000 1.92 254 09:57 08.05.2022
3824 Clouds 18 1012 69 10000 1.92 254 09:57 08.05.2022
3825 Clouds 17 1012 75 10000 2.99 259 08:56 08.05.2022
3826 Clouds 16 1003 51 10000 3.26 251 06:58 08.05.2022
3827 Clouds 15 1011 94 10000 3.39 239 03:35 08.05.2022
3828 Clouds 15 1011 94 10000 3.6 231 02:45 08.05.2022
3829 Clouds 16 1013 89 10000 1.79 225 00:24 08.05.2022
3830 Clouds 16 1013 89 10000 1.79 270 23:49 07.05.2022
3831 Clouds 16 1011 86 10000 1.8 203 22:46 07.05.2022
3832 Clouds 16 1011 85 10000 1.63 199 21:58 07.05.2022
3833 Clouds 16 1011 86 10000 1.63 199 21:34 07.05.2022
3834 Clouds 16 1009 87 10000 2.53 126 20:28 07.05.2022
3835 Clouds 16 1009 87 10000 2.53 126 19:44 07.05.2022
3836 Clouds 17 1000 62 10000 2.97 126 17:35 07.05.2022
3837 Clouds 17 1000 56 10000 2.92 136 15:46 07.05.2022
3838 Clouds 18 1000 54 10000 2.32 120 13:39 07.05.2022
3839 Clouds 17 1000 54 10000 2.52 156 10:46 07.05.2022
3840 Clouds 17 1000 55 10000 2.91 184 09:19 07.05.2022
3841 Clouds 16 1000 61 10000 2.71 183 07:50 07.05.2022
3842 Clouds 16 1000 54 10000 2.08 171 06:43 07.05.2022
3843 Clouds 16 1000 54 10000 2.49 175 04:56 07.05.2022
3844 Clouds 16 1001 45 10000 3.27 183 01:24 07.05.2022
3845 Clouds 17 1006 58 10000 4.02 248 23:37 06.05.2022
3846 Clouds 17 1007 56 10000 3.82 203 22:27 06.05.2022
3847 Clouds 17 1007 56 10000 0.45 309 21:43 06.05.2022
3848 Clouds 17 1006 55 10000 3.58 270 20:33 06.05.2022
3849 Clouds 18 1006 50 10000 3.13 198 19:30 06.05.2022
3850 Clouds 18 1006 48 10000 3.58 225 18:57 06.05.2022
3851 Clouds 18 1006 49 10000 3.13 215 18:18 06.05.2022
3852 Clouds 19 1006 51 10000 4.47 225 16:39 06.05.2022
3853 Clouds 18 1006 58 10000 3.13 0 15:39 06.05.2022
3854 Clouds 17 1006 58 10000 3.13 315 14:46 06.05.2022
3855 Clouds 21 1011 63 10000 0.45 90 12:54 06.05.2022
3856 Clouds 21 1012 63 10000 1.79 90 12:36 06.05.2022
3857 Clouds 21 1012 60 10000 1.34 315 11:42 06.05.2022
3858 Clouds 21 1012 59 10000 0.89 45 10:27 06.05.2022
3859 Clouds 22 1006 39 10000 1.79 45 09:45 06.05.2022
3860 Clouds 20 1011 57 10000 3.58 225 08:27 06.05.2022
3861 Clouds 22 1008 72 10000 6.07 161 06:45 06.05.2022
3862 Clouds 24 1007 65 10000 6.96 154 04:53 06.05.2022
3863 Clear 20 1008 50 10000 9.62 157 02:45 06.05.2022
3864 Clouds 21 1009 44 10000 9.34 145 23:45 05.05.2022
3865 Clear 21 1009 47 10000 7.85 146 21:56 05.05.2022
3866 Clear 21 1009 48 10000 7.66 129 21:19 05.05.2022
3867 Clouds 23 1013 43 10000 4.92 90 19:53 05.05.2022
3868 Clouds 24 1013 42 10000 4.02 90 18:31 05.05.2022
3869 Clouds 27 1015 33 10000 9.39 90 16:20 05.05.2022
3870 Clouds 27 1016 35 10000 4.02 90 14:49 05.05.2022
3871 Clouds 23 1018 52 10000 3.13 68 13:22 05.05.2022
3872 Clouds 25 1012 37 10000 3.13 90 12:49 05.05.2022
3873 Clouds 25 1013 37 10000 3.58 90 10:48 05.05.2022
3874 Clouds 23 1013 41 10000 1.34 90 09:39 05.05.2022
3875 Clouds 20 1013 44 10000 0.45 90 07:35 05.05.2022
3876 Clouds 18 1012 52 10000 0.89 248 04:42 05.05.2022
3877 Clouds 18 1013 52 10000 0.89 270 01:53 05.05.2022
3878 Clouds 18 1014 52 10000 0.45 90 01:24 05.05.2022
3879 Clouds 18 1015 54 10000 0.45 90 23:50 04.05.2022
3880 Clouds 18 1015 54 10000 0.89 90 22:42 04.05.2022
3881 Clouds 19 1009 45 10000 4.1 136 21:50 04.05.2022
3882 Clouds 18 1019 72 10000 3.71 112 21:26 04.05.2022
3883 Clouds 18 1014 54 10000 0.89 90 20:24 04.05.2022
3884 Clouds 19 1015 51 10000 2.28 103 19:53 04.05.2022
3885 Clouds 20 1015 47 10000 1.34 90 18:56 04.05.2022
3886 Clouds 21 1015 47 10000 0.89 90 18:22 04.05.2022
3887 Clouds 20 1015 48 10000 0.89 90 17:38 04.05.2022
3888 Clouds 21 1015 48 10000 2.24 90 15:41 04.05.2022
3889 Clear 21 1016 48 10000 2.24 90 15:23 04.05.2022
3890 Clear 22 1016 47 10000 2.24 90 14:21 04.05.2022
3891 Clouds 22 1016 46 10000 1.79 90 13:33 04.05.2022
3892 Clouds 22 1015 42 10000 4.47 135 12:33 04.05.2022
3893 Clouds 22 1015 41 10000 0.89 90 10:41 04.05.2022
3894 Clear 21 1015 47 10000 2.24 135 09:43 04.05.2022
3895 Clear 18 1020 69 10000 0.45 90 08:46 04.05.2022
3896 Clear 15 1013 48 10000 0.89 90 06:41 04.05.2022
3897 Clear 14 1013 47 10000 0.89 315 02:58 04.05.2022
3898 Clouds 15 1013 58 10000 0.45 225 00:38 04.05.2022
3899 Clouds 16 1013 56 10000 0.89 270 22:37 03.05.2022
3900 Clouds 16 1013 56 10000 0.89 90 21:46 03.05.2022
3901 Clouds 16 1012 51 10000 0.45 90 20:54 03.05.2022
3902 Clouds 17 1018 74 10000 0.89 90 19:59 03.05.2022
3903 Clear 19 1012 49 10000 2.3 74 18:54 03.05.2022
3904 Clear 19 1011 48 10000 1.79 90 18:21 03.05.2022
3905 Clear 20 1011 43 10000 2.24 158 16:44 03.05.2022
3906 Clear 21 1012 42 10000 2.24 90 15:38 03.05.2022
3907 Clouds 21 1011 43 10000 3.13 135 12:47 03.05.2022
3908 Clouds 20 1011 44 10000 2.24 90 12:27 03.05.2022
3909 Clouds 20 1011 47 10000 1.79 90 10:57 03.05.2022
3910 Clouds 18 1016 67 10000 2.24 90 09:35 03.05.2022
3911 Clouds 16 1010 58 10000 0.45 90 07:33 03.05.2022
3912 Clouds 14 1010 58 10000 0.89 225 06:45 03.05.2022
3913 Clouds 14 1010 58 10000 0.45 90 01:47 03.05.2022
3914 Clear 15 1011 50 10000 0.45 90 22:39 02.05.2022
3915 Clear 14 1017 84 10000 0.45 90 21:54 02.05.2022
3916 Clear 15 1017 83 10000 0.3 192 21:23 02.05.2022
3917 Clear 19 1009 50 10000 3.13 315 18:46 02.05.2022
3918 Clear 18 1009 48 10000 2.68 315 18:25 02.05.2022
3919 Clear 20 1009 46 10000 1.79 315 17:37 02.05.2022
3920 Clear 20 1009 43 10000 0.89 90 16:23 02.05.2022
3921 Clear 19 1015 62 10000 2.24 315 15:31 02.05.2022
3922 Clear 20 1009 46 10000 0.45 90 13:58 02.05.2022
3923 Clear 20 1010 44 10000 3.58 90 12:27 02.05.2022
3924 Clear 20 1009 43 10000 2.24 90 10:52 02.05.2022
3925 Clear 18 1015 63 10000 0.89 90 09:31 02.05.2022
3926 Clear 17 1009 49 10000 1.34 90 07:57 02.05.2022
3927 Clear 14 1009 43 10000 1.79 225 04:44 02.05.2022
3928 Clear 14 1011 51 10000 0.45 90 00:25 02.05.2022
3929 Clear 14 1011 51 10000 0.89 90 23:52 01.05.2022
3930 Clear 14 1011 46 10000 0.89 90 22:45 01.05.2022
3931 Clear 14 1011 46 10000 0.89 90 21:30 01.05.2022
3932 Clouds 16 1011 42 10000 0.45 90 20:19 01.05.2022
3933 Clouds 18 1011 51 10000 0.89 270 19:18 01.05.2022
3934 Clouds 18 1017 66 10000 0.89 270 18:50 01.05.2022
3935 Clouds 20 1011 41 10000 1.66 30 17:47 01.05.2022
3936 Clouds 21 1011 36 10000 2.68 90 16:24 01.05.2022
3937 Clouds 21 1011 39 10000 1.79 90 15:43 01.05.2022
3938 Clouds 21 1012 28 10000 2.24 180 14:41 01.05.2022
3939 Clouds 20 1013 42 10000 2.24 90 11:53 01.05.2022
3940 Clouds 19 1013 39 10000 0.45 90 09:33 01.05.2022
3941 Clouds 18 1013 41 10000 1.79 90 08:49 01.05.2022
3942 Clouds 15 1012 38 10000 0.89 270 05:31 01.05.2022
3943 Clouds 16 1014 47 10000 0.89 90 00:43 01.05.2022
3944 Clouds 16 1014 56 10000 0.45 90 21:59 30.04.2022
3945 Clouds 16 1014 56 10000 0.45 90 21:30 30.04.2022
3946 Clouds 16 1014 56 10000 0.45 90 21:30 30.04.2022
3947 Clouds 16 1014 56 10000 0.45 90 21:30 30.04.2022
3948 Clouds 16 1014 56 10000 0.45 90 21:30 30.04.2022
3949 Clouds 17 1014 55 10000 0.89 90 19:47 30.04.2022
3950 Clouds 19 1013 51 10000 1.79 90 18:50 30.04.2022
3951 Clouds 20 1014 42 10000 0.89 90 17:20 30.04.2022
3952 Clouds 21 1015 38 10000 3.58 90 15:50 30.04.2022
3953 Clouds 21 1015 46 10000 0.89 270 14:54 30.04.2022
3954 Clouds 22 1015 43 10000 2.68 225 13:41 30.04.2022
3955 Clouds 21 1016 42 10000 1.79 90 11:35 30.04.2022
3956 Clouds 20 1022 58 10000 2.68 90 10:55 30.04.2022
3957 Clouds 20 1021 56 10000 2.24 90 09:54 30.04.2022
3958 Clouds 15 1020 72 10000 0.45 225 07:35 30.04.2022
3959 Clouds 14 1015 64 10000 0.89 270 03:45 30.04.2022
3960 Clouds 15 1016 64 10000 0.45 248 23:54 29.04.2022
3961 Clouds 15 1016 64 10000 0.89 90 22:35 29.04.2022
3962 Clouds 16 1015 65 10000 0.89 90 21:54 29.04.2022
3963 Clouds 16 1015 66 10000 0.45 90 21:19 29.04.2022
3964 Clouds 17 1009 54 10000 0.38 68 19:52 29.04.2022
3965 Clouds 17 1014 60 10000 1.34 90 18:58 29.04.2022
3966 Clouds 18 1014 57 10000 1.79 90 17:33 29.04.2022
3967 Clouds 20 1014 53 10000 0.89 90 15:58 29.04.2022
3968 Clouds 21 1014 50 10000 0.89 90 14:34 29.04.2022
3969 Clouds 20 1014 48 10000 0.89 90 13:27 29.04.2022
3970 Clouds 20 1014 48 10000 2.68 248 12:26 29.04.2022
3971 Clouds 19 1014 41 10000 2.24 270 09:48 29.04.2022
3972 Clouds 17 1013 45 10000 1.34 270 07:42 29.04.2022
3973 Clouds 17 1013 45 10000 1.34 270 07:42 29.04.2022
3974 Clouds 16 1013 45 10000 0.45 270 07:23 29.04.2022
3975 Clouds 16 1013 33 10000 1.79 225 05:57 29.04.2022
3976 Clouds 16 1015 47 10000 0.89 270 00:51 29.04.2022
3977 Clouds 16 1015 54 10000 0.89 225 23:49 28.04.2022
3978 Clouds 16 1014 55 10000 0.89 90 22:45 28.04.2022
3979 Clouds 16 1014 51 10000 0.97 177 21:59 28.04.2022
3980 Clouds 17 1014 51 10000 0.89 90 21:37 28.04.2022
3981 Clouds 17 1013 51 10000 1.11 146 20:41 28.04.2022
3982 Clouds 17 1013 50 10000 0.88 80 19:49 28.04.2022
3983 Clouds 18 1013 49 10000 1.24 68 19:23 28.04.2022
3984 Clouds 19 1013 45 10000 0.89 90 18:38 28.04.2022
3985 Clouds 20 1013 40 10000 2.24 90 17:32 28.04.2022
3986 Clouds 21 1013 39 10000 1.34 90 16:50 28.04.2022
3987 Clouds 21 1013 41 10000 2.68 90 16:20 28.04.2022
3988 Clouds 22 1013 42 10000 0.89 90 15:41 28.04.2022
3989 Clouds 22 1013 43 10000 1.79 90 14:47 28.04.2022
3990 Clouds 22 1013 40 10000 1.34 90 13:20 28.04.2022
3991 Clouds 21 1014 43 10000 0.89 90 12:28 28.04.2022
3992 Clouds 20 1014 43 10000 2.24 90 10:51 28.04.2022
3993 Clouds 21 1013 39 10000 2.24 90 10:26 28.04.2022
3994 Clouds 19 1013 30 10000 1.79 90 09:41 28.04.2022
3995 Clouds 17 1013 41 10000 2 102 07:40 28.04.2022
3996 Clouds 16 1012 43 10000 2.21 113 06:38 28.04.2022
3997 Clouds 16 1018 60 10000 2.33 105 05:40 28.04.2022
3998 Clouds 16 1012 41 10000 0.45 90 04:42 28.04.2022
3999 Clouds 17 1014 49 10000 0.89 90 00:51 28.04.2022
4000 Clouds 17 1014 47 10000 0.45 90 22:52 27.04.2022
4001 Clouds 17 1014 47 10000 0.89 90 21:58 27.04.2022
4002 Clouds 17 1014 46 10000 2.76 119 21:32 27.04.2022
4003 Clouds 17 1013 42 10000 2.91 117 20:44 27.04.2022
4004 Clouds 18 1019 62 10000 2.87 110 19:41 27.04.2022
4005 Clouds 19 1013 40 10000 0.89 90 19:22 27.04.2022
4006 Clouds 19 1013 40 10000 0.89 90 19:22 27.04.2022
4007 Clouds 19 1019 52 10000 0.89 90 18:38 27.04.2022
4008 Clouds 20 1019 53 10000 1.79 90 17:26 27.04.2022
4009 Clear 22 1013 35 10000 1.79 180 15:56 27.04.2022
4010 Clear 22 1014 40 10000 1.34 135 12:34 27.04.2022
4011 Clear 21 1014 40 10000 3.13 90 11:23 27.04.2022
4012 Clear 21 1013 41 10000 2.24 90 10:26 27.04.2022
4013 Clear 18 1012 53 10000 2.42 106 07:41 27.04.2022
4014 Clear 14 1012 51 10000 0.89 248 06:36 27.04.2022
4015 Clear 16 1012 47 10000 0.89 225 02:25 27.04.2022
4016 Clear 16 1012 49 10000 0.89 270 01:18 27.04.2022
4017 Clear 16 1012 52 10000 0.89 270 00:27 27.04.2022
4018 Clear 16 1013 55 10000 0.89 270 23:23 26.04.2022
4019 Clear 16 1013 57 10000 0.89 270 22:43 26.04.2022
4020 Clear 16 1013 56 10000 0.89 90 21:57 26.04.2022
4021 Clear 17 1013 53 10000 0.45 90 20:58 26.04.2022
4022 Clear 17 1012 52 10000 0.45 90 20:36 26.04.2022
4023 Clear 17 1018 70 10000 0.45 90 19:44 26.04.2022
4024 Clear 19 1012 48 10000 2.28 97 19:24 26.04.2022
4025 Clear 20 1012 44 10000 0.45 90 18:20 26.04.2022
4026 Clear 20 1012 43 10000 0.45 90 17:34 26.04.2022
4027 Clear 21 1012 43 10000 1.34 90 14:59 26.04.2022
4028 Clouds 21 1012 45 10000 2.24 90 13:38 26.04.2022
4029 Clouds 21 1013 48 10000 2.24 90 12:35 26.04.2022
4030 Clouds 20 1013 51 10000 0.89 90 10:57 26.04.2022
4031 Clouds 19 1013 50 10000 2.24 90 10:29 26.04.2022
4032 Clouds 16 1017 76 10000 2.61 105 08:29 26.04.2022
4033 Clouds 14 1010 48 10000 0.89 270 04:39 26.04.2022
4034 Clouds 15 1010 48 10000 0.89 315 03:59 26.04.2022
4035 Clouds 14 1012 54 10000 2.67 120 00:46 26.04.2022
4036 Clouds 15 1012 57 10000 0.89 90 23:48 25.04.2022
4037 Clouds 15 1012 63 10000 2.58 125 21:49 25.04.2022
4038 Clouds 16 1012 62 10000 0.45 90 21:23 25.04.2022
4039 Clouds 16 1012 58 10000 1.34 90 19:39 25.04.2022
4040 Clouds 17 1017 74 10000 1.34 90 18:25 25.04.2022
4041 Clouds 18 1017 68 10000 2.24 90 17:39 25.04.2022
4042 Clouds 20 1011 42 10000 2.24 90 16:30 25.04.2022
4043 Clouds 20 1012 44 10000 0.89 135 15:19 25.04.2022
4044 Clouds 21 1012 39 10000 2.24 112 14:22 25.04.2022
4045 Clouds 20 1012 42 10000 2.24 180 12:40 25.04.2022
4046 Clouds 18 1017 57 10000 0.89 135 10:29 25.04.2022
4047 Clouds 18 1017 57 10000 0.89 135 10:29 25.04.2022
4048 Clouds 19 1011 41 10000 0.89 90 09:39 25.04.2022
4049 Clear 17 1010 40 10000 0.89 270 07:34 25.04.2022
4050 Clear 15 1015 49 10000 2.24 315 05:53 25.04.2022
4051 Clear 16 1016 50 10000 3.58 315 01:27 25.04.2022
4052 Clear 16 1017 55 10000 1.79 292 23:54 24.04.2022
4053 Clear 16 1011 37 10000 2.24 270 23:20 24.04.2022
4054 Clear 16 1011 39 10000 1.79 315 22:37 24.04.2022
4055 Clear 15 1017 61 10000 0.45 315 21:54 24.04.2022
4056 Clear 16 1017 60 10000 0.45 270 21:21 24.04.2022
4057 Clear 16 1016 56 10000 1.34 270 20:41 24.04.2022
4058 Clouds 17 1016 60 10000 2.24 0 19:57 24.04.2022
4059 Clouds 18 1016 58 10000 2.24 0 18:33 24.04.2022
4060 Clouds 20 1010 42 10000 4.02 315 17:41 24.04.2022
4061 Clouds 19 1016 56 10000 2.24 315 17:20 24.04.2022
4062 Clouds 19 1016 56 10000 2.24 315 16:51 24.04.2022
4063 Clouds 20 1016 51 10000 3.58 315 16:22 24.04.2022
4064 Clouds 20 1015 54 10000 4.92 292 15:36 24.04.2022
4065 Clouds 21 1015 60 10000 2.24 270 14:31 24.04.2022
4066 Clouds 21 1009 39 10000 3.58 248 13:26 24.04.2022
4067 Clouds 23 1009 42 10000 4.47 225 12:44 24.04.2022
4068 Clouds 23 1015 42 10000 1.79 270 11:46 24.04.2022
4069 Clouds 22 1012 43 10000 2.53 287 10:33 24.04.2022
4070 Clouds 21 1015 49 10000 1.79 90 09:42 24.04.2022
4071 Clouds 18 1015 51 10000 0.89 270 07:41 24.04.2022
4072 Clouds 19 1011 59 10000 2.58 225 05:32 24.04.2022
4073 Clouds 17 1012 43 10000 3.8 233 01:51 24.04.2022
4074 Clouds 17 1011 59 10000 3.42 188 00:38 24.04.2022
4075 Clouds 16 1011 61 10000 3.95 158 23:45 23.04.2022
4076 Clouds 17 1011 58 10000 3.7 152 23:25 23.04.2022
4077 Clear 17 1008 48 10000 0.45 22 21:56 23.04.2022
4078 Clear 17 1008 49 10000 0.45 270 21:36 23.04.2022
4079 Clear 17 1008 48 10000 0.89 0 20:58 23.04.2022
4080 Clear 18 1008 47 10000 3.28 142 19:54 23.04.2022
4081 Clear 18 1008 51 10000 2.47 132 19:19 23.04.2022
4082 Clear 18 1008 50 10000 0.45 90 18:53 23.04.2022
4083 Clear 19 1008 49 10000 2.49 131 18:28 23.04.2022
4084 Clear 19 1008 50 10000 0.89 90 17:43 23.04.2022
4085 Clear 20 1008 48 10000 0.89 90 16:43 23.04.2022
4086 Clear 21 1008 46 10000 2.68 135 15:32 23.04.2022
4087 Clear 21 1009 45 10000 2.24 90 12:54 23.04.2022
4088 Clear 20 1009 46 10000 1.79 1 10:52 23.04.2022
4089 Clouds 18 1014 63 10000 2.24 135 09:38 23.04.2022
4090 Clouds 15 1008 55 10000 1.79 270 07:38 23.04.2022
4091 Clouds 14 1007 57 10000 1.34 225 03:56 23.04.2022
4092 Clouds 15 1008 58 10000 2.24 315 01:55 23.04.2022
4093 Clouds 16 1007 55 10000 2.24 270 23:33 22.04.2022
4094 Clouds 16 1007 53 10000 3.58 270 22:28 22.04.2022
4095 Clouds 16 1006 55 10000 5.36 292 21:44 22.04.2022
4096 Clouds 16 1001 46 10000 0.89 149 20:55 22.04.2022
4097 Clouds 16 1001 47 10000 1.79 212 20:28 22.04.2022
4098 Clouds 17 999 45 10000 2.24 219 19:22 22.04.2022
4099 Clouds 16 999 45 10000 0.89 205 18:46 22.04.2022
4100 Clouds 17 998 42 10000 1.79 245 17:54 22.04.2022
4101 Clouds 17 1002 56 10000 9.39 0 16:52 22.04.2022
4102 Clouds 17 1002 56 10000 5.36 225 15:47 22.04.2022
4103 Clouds 16 1002 54 10000 3.58 225 15:21 22.04.2022
4104 Clouds 16 1002 51 10000 4.92 225 13:54 22.04.2022
4105 Clouds 17 1002 51 10000 3.58 202 13:27 22.04.2022
4106 Clouds 17 1001 47 10000 5.81 315 12:29 22.04.2022
4107 Clouds 17 1006 59 10000 1.34 90 11:22 22.04.2022
4108 Clouds 17 1005 57 10000 3.58 270 10:52 22.04.2022
4109 Clouds 17 1005 56 10000 0.89 180 10:31 22.04.2022
4110 Clouds 16 1005 58 10000 5.36 180 09:53 22.04.2022
4111 Clouds 16 1005 63 10000 4.02 270 08:56 22.04.2022
4112 Clouds 15 1004 68 10000 4.02 315 07:44 22.04.2022
4113 Clouds 14 1004 75 10000 5.36 315 05:20 22.04.2022
4114 Clouds 15 1005 73 10000 2.68 315 00:53 22.04.2022
4115 Clouds 16 1004 81 10000 4.47 315 23:28 21.04.2022
4116 Clouds 16 1004 83 10000 3.58 315 22:29 21.04.2022
4117 Clouds 17 1002 74 10000 4.02 225 20:55 21.04.2022
4118 Clouds 17 1002 83 10000 3.58 225 20:26 21.04.2022
4119 Clouds 18 1001 73 10000 5.36 225 18:48 21.04.2022
4120 Rain 21 992 38 10000 1.63 135 18:19 21.04.2022
4121 Clouds 23 995 33 10000 2.24 270 16:49 21.04.2022
4122 Clouds 23 996 28 10000 4.92 270 15:23 21.04.2022
4123 Clouds 23 996 27 10000 6.26 315 14:50 21.04.2022
4124 Clouds 23 995 26 10000 4.02 90 13:44 21.04.2022
4125 Clouds 23 997 26 10000 1.79 225 13:18 21.04.2022
4126 Clouds 22 997 24 10000 6.26 135 11:25 21.04.2022
4127 Clouds 21 999 27 10000 1.79 90 08:59 21.04.2022
4128 Clouds 19 1003 43 10000 3.66 150 07:55 21.04.2022
4129 Clouds 17 1004 52 10000 4.02 154 06:21 21.04.2022
4130 Clouds 17 1006 69 10000 2.41 182 03:35 21.04.2022
4131 Clouds 17 1006 68 10000 2.16 225 02:48 21.04.2022
4132 Clouds 16 1007 71 10000 2.06 244 01:50 21.04.2022
4133 Clouds 19 1007 48 10000 4.29 176 23:53 20.04.2022
4134 Clouds 20 1007 44 10000 5.16 164 23:23 20.04.2022
4135 Clouds 20 1007 45 10000 5.15 164 22:51 20.04.2022
4136 Clouds 19 1007 48 10000 5.15 164 22:32 20.04.2022
4137 Clouds 20 1007 48 10000 4.81 154 21:33 20.04.2022
4138 Clouds 19 1008 52 10000 4.06 163 20:42 20.04.2022
4139 Clouds 19 1007 57 10000 3.79 150 19:55 20.04.2022
4140 Clouds 19 1006 57 10000 4.96 136 19:29 20.04.2022
4141 Clouds 19 1011 57 10000 1.34 90 18:33 20.04.2022
4142 Clouds 18 1010 66 10000 4.02 158 16:58 20.04.2022
4143 Clouds 19 1012 61 10000 0.89 90 16:38 20.04.2022
4144 Clouds 20 1013 60 10000 1.79 90 14:48 20.04.2022
4145 Clouds 19 1014 59 10000 0.89 90 11:57 20.04.2022
4146 Clouds 19 1014 57 10000 2.68 135 11:33 20.04.2022
4147 Clouds 20 1014 42 10000 1.34 90 10:29 20.04.2022
4148 Clouds 19 1014 46 10000 0.89 90 09:27 20.04.2022
4149 Clouds 16 1011 55 10000 2.87 161 08:24 20.04.2022
4150 Clouds 14 1011 56 10000 3.05 157 07:43 20.04.2022
4151 Clear 14 1014 64 10000 1.79 248 04:49 20.04.2022
4152 Clear 13 1015 69 10000 1.79 248 01:20 20.04.2022
4153 Clear 13 1016 68 10000 1.79 270 00:20 20.04.2022
4154 Clear 13 1016 74 10000 0.89 225 22:44 19.04.2022
4155 Clear 13 1016 75 10000 0.45 225 22:22 19.04.2022
4156 Clear 13 1016 75 10000 0.89 270 21:38 19.04.2022
4157 Clear 13 1016 74 10000 3.02 152 20:56 19.04.2022
4158 Clear 13 1016 73 10000 0.45 90 20:36 19.04.2022
4159 Clear 14 1016 70 10000 1.98 132 19:32 19.04.2022
4160 Clear 16 1016 67 10000 0.89 90 18:26 19.04.2022
4161 Clear 17 1016 64 10000 1.79 90 16:47 19.04.2022
4162 Clear 17 1016 62 10000 2.24 90 16:24 19.04.2022
4163 Clear 17 1017 60 10000 1.34 158 15:23 19.04.2022
4164 Clear 17 1017 59 10000 0.89 135 14:40 19.04.2022
4165 Clear 17 1017 51 10000 2.24 225 12:52 19.04.2022
4166 Clear 17 1017 50 10000 1.79 225 12:29 19.04.2022
4167 Clear 16 1018 57 10000 1.34 90 11:23 19.04.2022
4168 Clear 14 1017 60 10000 0.89 90 09:27 19.04.2022
4169 Clear 11 1016 73 10000 2.68 292 07:37 19.04.2022
4170 Clear 10 1016 75 10000 1.79 292 04:23 19.04.2022
4171 Clear 12 1017 74 10000 1.79 270 01:18 19.04.2022
4172 Clear 12 1017 73 10000 2.24 270 23:40 18.04.2022
4173 Clear 11 1016 78 10000 2.68 0 21:57 18.04.2022
4174 Clear 11 1016 77 10000 1.79 270 21:25 18.04.2022
4175 Clear 12 1016 72 10000 2.24 270 20:38 18.04.2022
4176 Clouds 13 1015 67 10000 0.89 270 19:59 18.04.2022
4177 Clouds 13 1015 69 10000 0.89 270 19:30 18.04.2022
4178 Clouds 14 1015 61 10000 0.89 292 18:37 18.04.2022
4179 Clouds 15 1014 63 10000 2.24 315 17:39 18.04.2022
4180 Clouds 15 1014 61 10000 2.68 270 17:19 18.04.2022
4181 Clouds 15 1014 59 10000 1.79 248 16:38 18.04.2022
4182 Clouds 15 1014 60 10000 3.13 315 15:30 18.04.2022
4183 Clouds 15 1014 62 10000 3.58 292 14:22 18.04.2022
4184 Clouds 16 1012 58 10000 4.11 3 12:54 18.04.2022
4185 Clouds 16 1012 58 10000 3.84 3 12:23 18.04.2022
4186 Clouds 15 1012 64 10000 3.29 4 10:46 18.04.2022
4187 Clouds 14 1011 71 10000 2.91 357 09:32 18.04.2022
4188 Clouds 13 1010 80 10000 2.72 345 08:39 18.04.2022
4189 Clouds 11 1010 79 10000 2.19 1 06:52 18.04.2022
4190 Clouds 11 1011 90 10000 0.89 270 02:28 18.04.2022
4191 Clouds 12 1009 85 10000 5.11 24 23:21 17.04.2022
4192 Clouds 12 1009 86 10000 5.11 24 22:36 17.04.2022
4193 Clouds 12 1009 86 6683 6.07 19 21:34 17.04.2022
4194 Clouds 12 1008 86 4750 7.3 30 20:51 17.04.2022
4195 Clouds 12 1008 90 8716 3.13 22 20:19 17.04.2022
4196 Clouds 12 1006 86 9389 3.44 346 18:45 17.04.2022
4197 Rain 12 1008 90 10000 4.92 292 17:26 17.04.2022
4198 Clouds 13 1008 86 10000 2.68 270 15:34 17.04.2022
4199 Clouds 12 1009 87 10000 4.92 270 14:45 17.04.2022
4200 Rain 12 1009 87 10000 5.81 315 13:29 17.04.2022
4201 Rain 13 1009 85 10000 4.92 315 12:49 17.04.2022
4202 Clouds 17 1009 73 10000 4.47 248 10:58 17.04.2022
4203 Clouds 16 1009 75 10000 4.92 270 10:29 17.04.2022
4204 Clouds 16 1009 71 10000 4.92 270 09:55 17.04.2022
4205 Clouds 16 1009 73 10000 3.58 270 09:21 17.04.2022
4206 Clouds 16 1009 74 10000 2.68 270 08:41 17.04.2022
4207 Clouds 15 1009 64 10000 4.47 270 06:29 17.04.2022
4208 Clouds 16 1012 58 10000 3.13 315 02:26 17.04.2022
4209 Clouds 16 1013 59 10000 3.58 270 00:42 17.04.2022
4210 Clouds 16 1013 57 10000 3.58 292 23:38 16.04.2022
4211 Clouds 16 1014 57 10000 2.24 315 21:49 16.04.2022
4212 Clouds 16 1013 63 10000 0.89 315 20:54 16.04.2022
4213 Clouds 17 1012 65 10000 1.42 8 19:30 16.04.2022
4214 Clouds 17 1012 57 10000 2.24 90 18:44 16.04.2022
4215 Clouds 19 1012 53 10000 1.34 90 17:21 16.04.2022
4216 Clouds 19 1012 52 10000 3.13 90 16:19 16.04.2022
4217 Clouds 20 1013 52 10000 2.68 45 14:59 16.04.2022
4218 Clouds 20 1014 53 10000 3.58 45 14:41 16.04.2022
4219 Clouds 19 1014 57 10000 2.68 90 13:50 16.04.2022
4220 Clouds 19 1014 58 10000 2.24 90 13:18 16.04.2022
4221 Clouds 19 1015 61 10000 0.89 90 11:50 16.04.2022
4222 Clouds 18 1015 55 10000 0.89 90 10:35 16.04.2022
4223 Clouds 17 1015 58 10000 0.43 189 09:38 16.04.2022
4224 Clouds 17 1015 57 10000 0.62 202 08:52 16.04.2022
4225 Clouds 16 1014 60 10000 0.45 270 07:23 16.04.2022
4226 Clouds 16 1014 56 10000 0.89 90 05:45 16.04.2022
4227 Clouds 16 1017 62 10000 1.79 225 01:49 16.04.2022
4228 Clouds 17 1016 50 10000 0.89 248 23:53 15.04.2022
4229 Clouds 17 1017 47 10000 2.24 225 22:51 15.04.2022
4230 Clouds 17 1017 47 10000 2.24 225 22:31 15.04.2022
4231 Clouds 17 1017 50 10000 0.89 270 21:34 15.04.2022
4232 Clouds 17 1016 51 10000 1.79 270 20:44 15.04.2022
4233 Clouds 17 1016 52 10000 0.89 90 19:49 15.04.2022
4234 Clouds 18 1016 52 10000 0.41 141 19:30 15.04.2022
4235 Clouds 18 1016 47 10000 1.2 114 18:45 15.04.2022
4236 Clouds 18 1016 44 10000 1.63 69 18:23 15.04.2022
4237 Clouds 19 1016 42 10000 0.45 90 17:28 15.04.2022
4238 Clouds 20 1016 42 10000 1.56 108 16:25 15.04.2022
4239 Clouds 20 1016 43 10000 0.45 90 16:25 15.04.2022
4240 Clouds 19 1017 48 10000 0.89 90 15:52 15.04.2022
4241 Clouds 20 1018 45 10000 0.45 90 14:22 15.04.2022
4242 Clouds 21 1018 35 10000 2.24 90 12:53 15.04.2022
4243 Clouds 21 1018 38 10000 1.34 90 12:28 15.04.2022
4244 Clouds 21 1018 35 10000 1.79 90 11:54 15.04.2022
4245 Clouds 19 1018 35 10000 0.89 90 10:48 15.04.2022
4246 Clouds 19 1018 35 10000 0.45 90 10:21 15.04.2022
4247 Clouds 18 1018 34 10000 1.34 90 09:23 15.04.2022
4248 Clouds 17 1019 36 10000 0.45 270 08:57 15.04.2022
4249 Clouds 15 1018 42 10000 2.24 248 06:55 15.04.2022
4250 Clouds 14 1017 45 10000 0.45 270 05:56 15.04.2022
4251 Clouds 17 1018 36 10000 0.89 270 01:33 15.04.2022
4252 Clouds 17 1018 41 10000 0.45 315 23:30 14.04.2022
4253 Clouds 17 1018 43 10000 0.89 225 22:46 14.04.2022
4254 Clouds 17 1018 44 10000 0.45 270 22:27 14.04.2022
4255 Clouds 17 1018 44 10000 0.45 270 22:27 14.04.2022
4256 Clouds 18 1018 44 10000 0.45 225 21:53 14.04.2022
4257 Clouds 17 1017 50 10000 1.34 0 19:57 14.04.2022
4258 Clouds 17 1016 50 10000 1.34 90 19:22 14.04.2022
4259 Clouds 18 1016 52 10000 0.89 90 17:56 14.04.2022
4260 Clouds 18 1016 55 10000 0.89 90 17:27 14.04.2022
4261 Clouds 18 1016 55 10000 4.47 135 16:33 14.04.2022
4262 Clouds 21 1017 49 10000 0.89 90 14:20 14.04.2022
4263 Clouds 21 1017 48 10000 1.79 90 13:31 14.04.2022
4264 Clouds 21 1017 46 10000 3.13 90 12:42 14.04.2022
4265 Clouds 21 1016 45 10000 4.02 90 12:22 14.04.2022
4266 Clouds 19 1013 52 10000 3.6 109 11:21 14.04.2022
4267 Clouds 19 1016 46 10000 1.79 90 10:36 14.04.2022
4268 Clouds 18 1016 48 10000 2.24 90 09:54 14.04.2022
4269 Clouds 16 1016 53 10000 2.84 127 08:40 14.04.2022
4270 Clouds 14 1015 50 10000 0.89 90 06:50 14.04.2022
4271 Clouds 13 1013 56 10000 1.72 159 02:45 14.04.2022
4272 Clouds 14 1015 60 10000 2.14 160 22:52 13.04.2022
4273 Clouds 14 1017 74 10000 2.32 156 21:44 13.04.2022
4274 Clouds 14 1016 72 10000 2.03 144 20:55 13.04.2022
4275 Clouds 14 1016 71 10000 0.89 90 20:22 13.04.2022
4276 Clouds 15 1016 70 10000 1.34 90 19:24 13.04.2022
4277 Clouds 16 1016 63 10000 2.24 90 18:19 13.04.2022
4278 Clouds 17 1017 58 10000 0.89 90 17:23 13.04.2022
4279 Clouds 17 1017 59 10000 1.79 90 16:33 13.04.2022
4280 Clouds 18 1017 52 10000 2.24 90 15:35 13.04.2022
4281 Clouds 18 1017 51 10000 4.47 112 14:50 13.04.2022
4282 Clouds 18 1018 49 10000 2.68 90 14:19 13.04.2022
4283 Clouds 18 1018 50 10000 1.79 180 13:19 13.04.2022
4284 Clouds 19 1018 47 10000 2.68 135 12:25 13.04.2022
4285 Clouds 18 1018 42 10000 2.24 90 10:49 13.04.2022
4286 Clouds 17 1017 48 10000 2.24 90 09:41 13.04.2022
4287 Clouds 16 1017 48 10000 0.89 90 08:41 13.04.2022
4288 Clouds 12 1017 50 10000 0.89 90 06:51 13.04.2022
4289 Clouds 12 1017 57 10000 0.89 270 06:25 13.04.2022
4290 Clouds 12 1017 59 10000 0.45 90 05:20 13.04.2022
4291 Clouds 13 1020 67 10000 0.89 248 00:21 13.04.2022
4292 Clouds 13 1020 66 10000 1.79 45 23:29 12.04.2022
4293 Clouds 14 1020 68 10000 1.34 90 22:18 12.04.2022
4294 Clouds 14 1020 73 10000 0.45 90 21:18 12.04.2022
4295 Clouds 14 1020 72 10000 0.45 90 20:41 12.04.2022
4296 Clouds 14 1020 69 10000 0.45 90 19:49 12.04.2022
4297 Clouds 15 1020 69 10000 0.45 90 19:30 12.04.2022
4298 Clouds 16 1020 65 10000 0.89 90 18:26 12.04.2022
4299 Clouds 16 1020 63 10000 0.89 90 17:28 12.04.2022
4300 Clouds 16 1020 63 10000 0.89 90 17:28 12.04.2022
4301 Clouds 17 1021 60 10000 2.68 90 16:22 12.04.2022
4302 Clouds 18 1021 60 10000 0.89 90 15:33 12.04.2022
4303 Clouds 18 1022 60 10000 3.13 135 14:26 12.04.2022
4304 Clouds 18 1022 60 10000 2.24 90 13:36 12.04.2022
4305 Clouds 17 1022 60 10000 2.24 90 12:52 12.04.2022
4306 Clouds 17 1023 56 10000 1.79 180 11:47 12.04.2022
4307 Clouds 17 1023 56 10000 2.68 135 10:47 12.04.2022
4308 Clouds 15 1022 59 10000 1.79 90 09:21 12.04.2022
4309 Clouds 13 1022 70 10000 0.89 90 07:56 12.04.2022
4310 Clouds 10 1022 77 10000 1.79 225 06:24 12.04.2022
4311 Clouds 9 1022 80 10000 1.79 270 05:31 12.04.2022
4312 Clouds 11 1024 67 10000 0.45 270 23:59 11.04.2022
4313 Clouds 11 1024 68 10000 0.89 270 22:47 11.04.2022
4314 Clouds 11 1024 67 10000 0.89 90 21:41 11.04.2022
4315 Clouds 12 1024 69 10000 0.45 90 20:57 11.04.2022
4316 Clouds 12 1024 64 10000 2.19 118 20:29 11.04.2022
4317 Clouds 12 1024 65 10000 1.98 123 19:54 11.04.2022
4318 Clouds 14 1024 58 10000 0.45 90 19:18 11.04.2022
4319 Clouds 14 1024 62 10000 0.89 158 18:47 11.04.2022
4320 Clouds 15 1024 57 10000 1.34 90 17:57 11.04.2022
4321 Clear 15 1024 51 10000 3.58 90 16:54 11.04.2022
4322 Clear 16 1024 49 10000 1.79 90 15:56 11.04.2022
4323 Clear 16 1025 53 10000 2.24 135 14:24 11.04.2022
4324 Clouds 16 1025 54 10000 3.13 90 12:52 11.04.2022
4325 Clouds 16 1025 52 10000 4.92 90 12:32 11.04.2022
4326 Clouds 15 1025 57 10000 4.02 90 11:33 11.04.2022
4327 Clouds 14 1025 59 10000 3.58 135 10:28 11.04.2022
4328 Clear 14 1024 67 10000 1.79 90 09:20 11.04.2022
4329 Clear 10 1023 78 10000 0.89 90 06:24 11.04.2022
4330 Clear 9 1023 76 10000 0.45 270 01:55 11.04.2022
4331 Clear 10 1023 71 10000 1.34 292 22:37 10.04.2022
4332 Clear 11 1023 67 10000 0.89 315 21:55 10.04.2022
4333 Clouds 11 1022 66 10000 0.89 292 21:29 10.04.2022
4334 Clouds 12 1022 65 10000 0.89 315 20:31 10.04.2022
4335 Clear 12 1021 61 10000 0.89 315 19:44 10.04.2022
4336 Clear 13 1021 59 10000 0.89 338 19:20 10.04.2022
4337 Clear 13 1021 58 10000 2.68 315 18:42 10.04.2022
4338 Clear 14 1020 53 10000 4.02 315 17:52 10.04.2022
4339 Clear 14 1020 52 10000 4.02 270 17:33 10.04.2022
4340 Clear 14 1020 62 10000 3.58 292 16:21 10.04.2022
4341 Clear 15 1020 63 10000 4.47 315 14:59 10.04.2022
4342 Clear 15 1019 54 10000 4.92 270 13:58 10.04.2022
4343 Clear 16 1019 60 10000 4.92 315 12:33 10.04.2022
4344 Clear 16 1019 57 10000 5.81 270 11:46 10.04.2022
4345 Clear 16 1019 57 10000 5.36 270 11:28 10.04.2022
4346 Clear 15 1018 58 10000 5.81 315 10:43 10.04.2022
4347 Clear 14 1018 58 10000 7.6 270 09:55 10.04.2022
4348 Clear 14 1018 59 10000 6.26 315 09:21 10.04.2022
4349 Clear 14 1017 59 10000 7.6 248 08:21 10.04.2022
4350 Clear 13 1017 62 10000 4.92 315 07:18 10.04.2022
4351 Clear 13 1016 75 10000 4.92 270 05:27 10.04.2022
4352 Clear 15 1015 57 10000 7.6 0 02:20 10.04.2022
4353 Clear 16 1015 58 10000 6.26 315 23:54 09.04.2022
4354 Clear 16 1015 58 10000 4.92 270 23:35 09.04.2022
4355 Clear 16 1015 63 10000 6.71 270 22:43 09.04.2022
4356 Clear 17 1015 64 10000 4.92 292 21:32 09.04.2022
4357 Clear 16 1014 73 10000 4.47 270 20:48 09.04.2022
4358 Clouds 17 1014 69 10000 6.26 315 20:23 09.04.2022
4359 Clouds 18 1012 55 10000 4.41 240 19:41 09.04.2022
4360 Clouds 19 1014 49 10000 6.26 315 18:54 09.04.2022
4361 Clouds 20 1014 57 10000 6.71 225 18:18 09.04.2022
4362 Clouds 20 1014 51 10000 5.36 248 17:32 09.04.2022
4363 Clouds 20 1011 59 10000 4.82 253 16:43 09.04.2022
4364 Clouds 20 1011 56 10000 5.38 251 15:53 09.04.2022
4365 Clouds 21 1014 39 10000 6.71 292 15:28 09.04.2022
4366 Clouds 22 1015 36 10000 6.26 315 14:27 09.04.2022
4367 Clouds 22 1014 36 10000 4.92 248 14:27 09.04.2022
4368 Clouds 21 1015 40 10000 6.71 315 13:47 09.04.2022
4369 Clouds 21 1014 40 10000 6.71 248 12:59 09.04.2022
4370 Clouds 20 1015 45 10000 6.26 292 11:56 09.04.2022
4371 Clear 20 1014 42 10000 6.26 315 11:21 09.04.2022
4372 Clear 19 1014 42 10000 5.36 292 10:20 09.04.2022
4373 Clear 18 1014 46 10000 5.36 225 09:37 09.04.2022
4374 Clear 18 1014 48 10000 4.02 248 08:50 09.04.2022
4375 Clear 16 1014 48 10000 4.47 248 05:58 09.04.2022
4376 Clear 18 1015 58 10000 4.67 209 01:31 09.04.2022
4377 Clear 18 1016 57 10000 4.11 205 23:25 08.04.2022
4378 Clear 17 1017 60 10000 4.03 204 21:58 08.04.2022
4379 Clear 17 1019 57 10000 4.02 315 20:47 08.04.2022
4380 Clear 17 1019 55 10000 3.58 292 20:23 08.04.2022
4381 Clear 18 1018 53 10000 3.58 315 19:18 08.04.2022
4382 Clear 20 1018 43 10000 4.92 315 18:28 08.04.2022
4383 Clear 20 1019 41 10000 4.92 292 17:45 08.04.2022
4384 Clear 21 1019 42 10000 4.92 315 17:22 08.04.2022
4385 Clear 17 1016 54 10000 5 266 16:47 08.04.2022
4386 Clear 22 1016 40 10000 5.3 269 15:56 08.04.2022
4387 Clear 21 1016 39 10000 5.72 271 15:25 08.04.2022
4388 Clear 22 1017 37 10000 5.66 273 14:26 08.04.2022
4389 Clear 22 1017 36 10000 5.58 273 13:45 08.04.2022
4390 Clear 22 1020 37 10000 3.58 292 13:27 08.04.2022
4391 Clear 21 1020 39 10000 2.68 270 11:54 08.04.2022
4392 Clear 20 1020 40 10000 3.58 292 10:33 08.04.2022
4393 Clear 18 1020 45 10000 3.58 270 09:37 08.04.2022
4394 Clouds 17 1019 52 10000 4.92 270 08:44 08.04.2022
4395 Clear 15 1017 56 10000 4.84 224 06:54 08.04.2022
4396 Clouds 14 1017 61 10000 5.09 221 04:58 08.04.2022
4397 Clear 14 1019 72 10000 3.58 315 01:27 08.04.2022
4398 Clear 15 1019 64 10000 6.26 292 00:25 08.04.2022
4399 Clear 15 1019 66 10000 4.92 270 22:59 07.04.2022
4400 Clear 15 1019 68 10000 4.92 270 22:39 07.04.2022
4401 Clear 15 1019 70 10000 4.02 315 22:21 07.04.2022
4402 Clear 15 1019 66 10000 6.26 270 21:51 07.04.2022
4403 Clear 15 1019 67 10000 6.26 292 21:19 07.04.2022
4404 Clear 15 1018 65 10000 6.26 292 20:31 07.04.2022
4405 Clear 16 1017 63 10000 5.81 315 18:34 07.04.2022
4406 Clear 17 1017 62 10000 8.05 315 17:26 07.04.2022
4407 Clear 17 1017 63 10000 6.26 292 16:44 07.04.2022
4408 Clear 17 1017 62 10000 8.05 315 16:21 07.04.2022
4409 Clear 17 1016 56 10000 6.26 315 14:50 07.04.2022
4410 Clouds 16 1016 60 10000 6.26 315 13:43 07.04.2022
4411 Clouds 15 1016 63 10000 8.05 248 12:46 07.04.2022
4412 Clouds 14 1015 83 10000 7.15 315 11:30 07.04.2022
4413 Clouds 14 1013 80 10000 5.81 315 09:37 07.04.2022
4414 Clouds 14 1013 76 10000 7.15 315 08:38 07.04.2022
4415 Clouds 14 1011 79 10000 4.92 315 06:43 07.04.2022
4416 Clouds 15 1010 71 10000 7.6 315 02:54 07.04.2022
4417 Clouds 15 1010 70 10000 5.36 315 02:25 07.04.2022
4418 Clouds 15 1011 71 10000 7.6 180 00:28 07.04.2022
4419 Clouds 16 1011 79 10000 4.02 315 22:52 06.04.2022
4420 Clouds 16 1011 81 10000 6.26 270 22:27 06.04.2022
4421 Clouds 17 1011 80 10000 3.58 225 21:45 06.04.2022
4422 Clouds 16 1011 77 10000 1.79 225 20:40 06.04.2022
4423 Clear 15 1010 78 10000 1.34 90 19:54 06.04.2022
4424 Clear 16 1010 74 10000 0.89 270 18:52 06.04.2022
4425 Clear 16 1010 72 10000 2.68 225 18:33 06.04.2022
4426 Clear 17 1010 60 10000 2.68 225 17:35 06.04.2022
4427 Clear 18 1010 63 10000 2.68 292 16:39 06.04.2022
4428 Clear 18 1010 61 10000 2.24 90 15:49 06.04.2022
4429 Clear 19 1010 63 10000 0.89 90 15:21 06.04.2022
4430 Clear 18 1011 64 10000 0.89 90 15:21 06.04.2022
4431 Clear 18 1012 66 10000 2.24 90 13:28 06.04.2022
4432 Clear 18 1013 64 10000 2.24 135 12:27 06.04.2022
4433 Clear 17 1013 66 10000 0.45 90 10:54 06.04.2022
4434 Clear 17 1013 70 10000 1.76 104 10:31 06.04.2022
4435 Clear 16 1013 75 10000 0.89 90 09:42 06.04.2022
4436 Clear 14 1012 77 10000 0.45 90 08:36 06.04.2022
4437 Clear 14 1012 77 10000 0.45 90 08:36 06.04.2022
4438 Clouds 13 1012 82 10000 0.89 90 07:56 06.04.2022
4439 Clouds 13 1014 81 10000 0.89 270 04:42 06.04.2022
4440 Clouds 13 1015 81 10000 0.45 90 23:57 05.04.2022
4441 Clouds 14 1015 79 10000 2.01 143 23:22 05.04.2022
4442 Clouds 14 1015 78 10000 0.45 90 21:31 05.04.2022
4443 Clouds 14 1015 77 10000 0.45 90 20:54 05.04.2022
4444 Clouds 14 1014 77 10000 1.88 140 20:23 05.04.2022
4445 Clouds 15 1014 71 10000 0.89 90 18:26 05.04.2022
4446 Clouds 16 1014 68 10000 2.24 90 17:20 05.04.2022
4447 Clouds 16 1014 67 10000 2.24 135 16:41 05.04.2022
4448 Clouds 17 1014 65 10000 2.24 90 15:50 05.04.2022
4449 Clouds 17 1014 64 10000 3.13 90 15:30 05.04.2022
4450 Clouds 18 1015 59 10000 2.68 135 13:45 05.04.2022
4451 Clear 17 1014 66 10000 3.13 45 11:55 05.04.2022
4452 Clear 16 1014 68 10000 2.24 90 11:33 05.04.2022
4453 Clear 16 1013 70 10000 1.52 27 10:58 05.04.2022
4454 Clouds 14 1013 82 10000 2.24 90 09:31 05.04.2022
4455 Clouds 13 1012 80 10000 1.89 68 08:22 05.04.2022
4456 Clouds 12 1012 85 10000 1.5 124 03:37 05.04.2022
4457 Clouds 12 1013 83 10000 1.79 90 23:38 04.04.2022
4458 Clouds 12 1013 73 10000 3.51 117 22:37 04.04.2022
4459 Clouds 12 1013 71 10000 3.66 106 21:46 04.04.2022
4460 Clouds 13 1014 73 10000 3.85 95 21:18 04.04.2022
4461 Clouds 13 1014 73 10000 3.85 95 20:47 04.04.2022
4462 Clouds 13 1014 74 10000 3.13 90 19:28 04.04.2022
4463 Clouds 13 1014 73 10000 3.13 90 18:40 04.04.2022
4464 Clouds 14 1014 72 10000 4.92 90 17:20 04.04.2022
4465 Clouds 14 1015 71 10000 4.92 112 16:31 04.04.2022
4466 Clouds 15 1015 66 10000 3.58 135 15:33 04.04.2022
4467 Clouds 14 1016 69 10000 2.68 135 14:46 04.04.2022
4468 Clouds 14 1016 69 10000 4.47 90 14:27 04.04.2022
4469 Clouds 15 1016 68 10000 4.92 90 12:58 04.04.2022
4470 Clouds 14 1017 68 10000 4.47 90 11:29 04.04.2022
4471 Clouds 14 1016 68 10000 4.52 91 10:29 04.04.2022
4472 Clouds 10 1017 78 10000 0.89 90 06:58 04.04.2022
4473 Clouds 10 1018 74 10000 0.45 90 03:18 04.04.2022
4474 Clouds 11 1019 70 10000 2.2 109 23:42 03.04.2022
4475 Clouds 11 1019 68 10000 1.82 83 22:18 03.04.2022
4476 Clouds 11 1019 67 10000 0.89 90 21:32 03.04.2022
4477 Clouds 11 1019 69 10000 0.89 90 20:35 03.04.2022
4478 Rain 12 1018 60 10000 0.45 180 18:51 03.04.2022
4479 Clouds 12 1018 60 10000 3.58 270 18:26 03.04.2022
4480 Clouds 12 1018 60 10000 2.68 292 17:41 03.04.2022
4481 Clouds 13 1017 60 10000 3.58 315 16:50 03.04.2022
4482 Clouds 13 1018 59 10000 2.68 292 15:59 03.04.2022
4483 Clouds 14 1018 55 10000 3.13 45 14:27 03.04.2022
4484 Clouds 14 1018 52 10000 3.58 270 13:38 03.04.2022
4485 Clouds 14 1018 52 10000 4.92 270 11:59 03.04.2022
4486 Clouds 13 1017 52 10000 7.15 270 10:32 03.04.2022
4487 Clouds 12 1016 60 10000 7.15 315 09:23 03.04.2022
4488 Clouds 10 1015 63 10000 5.36 315 07:24 03.04.2022
4489 Clouds 9 1014 69 10000 5.36 315 03:46 03.04.2022
4490 Clouds 10 1015 67 10000 9.39 315 00:36 03.04.2022
4491 Clouds 10 1014 67 10000 6.26 315 22:54 02.04.2022
4492 Clouds 10 1014 68 10000 4.92 315 21:57 02.04.2022
4493 Clouds 9 1013 71 10000 7.15 270 21:33 02.04.2022
4494 Clear 9 1013 76 10000 6.26 315 20:51 02.04.2022
4495 Clouds 10 1012 78 10000 10.99 273 19:28 02.04.2022
4496 Clouds 10 1011 76 10000 11.55 265 18:21 02.04.2022
4497 Clouds 10 1011 74 10000 11.55 265 17:47 02.04.2022
4498 Clouds 12 1011 61 10000 11.83 264 16:23 02.04.2022
4499 Clouds 10 1011 72 10000 12.09 260 15:21 02.04.2022
4500 Clouds 11 1011 66 10000 12.09 260 14:47 02.04.2022
4501 Clouds 14 1011 39 10000 11.3 255 13:35 02.04.2022
4502 Clouds 14 1012 42 10000 11.26 252 12:37 02.04.2022
4503 Clouds 13 1011 58 10000 9.32 250 11:23 02.04.2022
4504 Clouds 12 1011 64 10000 6.56 251 08:50 02.04.2022
4505 Clouds 10 1011 72 10000 5.25 244 06:51 02.04.2022
4506 Clouds 12 1010 62 10000 7.74 268 03:52 02.04.2022
4507 Clouds 13 1009 64 10000 9.5 266 23:57 01.04.2022
4508 Clouds 13 1009 68 10000 9.1 249 23:22 01.04.2022
4509 Clear 14 1007 63 10000 7.13 231 21:34 01.04.2022
4510 Clear 14 1006 63 10000 6.12 228 20:51 01.04.2022
4511 Clouds 14 1006 61 10000 6.71 239 20:25 01.04.2022
4512 Clouds 15 1006 59 10000 6.7 239 19:32 01.04.2022
4513 Clouds 15 1005 58 10000 7.76 244 18:48 01.04.2022
4514 Clouds 16 1005 60 10000 8.55 252 17:47 01.04.2022
4515 Clouds 16 1004 61 10000 8.71 256 16:53 01.04.2022
4516 Clouds 15 1004 65 10000 8.69 253 15:41 01.04.2022
4517 Clouds 15 1003 74 10000 9.32 246 14:25 01.04.2022
4518 Clouds 13 1004 73 10000 8.49 248 13:34 01.04.2022
4519 Clouds 13 1003 70 10000 7.36 239 12:32 01.04.2022
4520 Clouds 16 1004 66 10000 5.85 231 11:41 01.04.2022
4521 Clouds 15 1003 69 10000 5.29 235 10:19 01.04.2022
4522 Clouds 13 1003 79 10000 5.01 231 08:58 01.04.2022
4523 Clouds 14 1002 77 10000 4.81 227 06:54 01.04.2022
4524 Clouds 14 1002 76 10000 4.96 228 04:51 01.04.2022
4525 Clouds 14 1002 76 10000 4.95 228 04:33 01.04.2022
4526 Clouds 14 1002 77 10000 5.01 215 01:57 01.04.2022
4527 Clouds 15 1002 74 10000 5.17 212 00:44 01.04.2022
4528 Clouds 15 1002 80 10000 4.48 210 21:54 31.03.2022
4529 Clouds 15 1002 77 10000 3.84 223 21:32 31.03.2022
4530 Clouds 15 1001 81 10000 3.9 240 20:29 31.03.2022
4531 Clouds 15 1001 79 10000 3.9 240 19:50 31.03.2022
4532 Clouds 16 1000 77 10000 3.39 252 18:51 31.03.2022
4533 Clouds 17 1000 72 10000 3.9 270 17:50 31.03.2022
4534 Clouds 18 999 66 10000 4.43 271 16:39 31.03.2022
4535 Clouds 19 999 68 10000 3.9 272 15:46 31.03.2022
4536 Clouds 19 999 71 10000 3.69 270 15:20 31.03.2022
4537 Clouds 18 999 75 10000 3.69 270 14:40 31.03.2022
4538 Clouds 17 999 82 10000 3.18 245 12:30 31.03.2022
4539 Clouds 17 999 80 10000 3.97 255 11:28 31.03.2022
4540 Clouds 16 999 79 10000 4.51 253 09:50 31.03.2022
4541 Clouds 16 999 82 10000 3.37 255 08:29 31.03.2022
4542 Clouds 17 998 72 10000 2.86 192 06:21 31.03.2022
4543 Clouds 21 1002 55 10000 5.9 194 00:46 31.03.2022
4544 Clouds 18 1001 69 10000 7.3 180 23:23 30.03.2022
4545 Clouds 21 1002 58 10000 6.92 192 21:43 30.03.2022
4546 Clouds 21 1002 55 10000 7.33 196 21:25 30.03.2022
4547 Clouds 21 1001 54 10000 7.33 200 20:21 30.03.2022
4548 Clouds 20 1001 56 10000 7.33 200 19:36 30.03.2022
4549 Clouds 24 1002 72 10000 4.77 183 18:34 30.03.2022
4550 Clouds 21 1002 50 10000 6.03 177 17:48 30.03.2022
4551 Clouds 22 1001 51 10000 5.16 167 16:57 30.03.2022
4552 Clouds 21 1001 52 10000 5.14 167 16:38 30.03.2022
4553 Clouds 22 1003 46 10000 6.5 152 15:24 30.03.2022
4554 Clouds 22 1004 50 10000 6.2 156 13:57 30.03.2022
4555 Clouds 21 1005 58 10000 7.78 172 13:18 30.03.2022
4556 Clouds 20 1007 55 10000 8.76 183 11:36 30.03.2022
4557 Clouds 19 1007 55 10000 7 181 10:37 30.03.2022
4558 Clouds 17 1008 52 10000 5.07 176 09:27 30.03.2022
4559 Clouds 16 1008 59 10000 4.95 159 07:41 30.03.2022
4560 Clouds 17 1009 59 10000 3.12 201 05:41 30.03.2022
4561 Clouds 16 1010 67 10000 3.41 171 04:19 30.03.2022
4562 Clouds 15 1013 73 10000 3.25 161 00:42 30.03.2022
4563 Clouds 14 1014 80 10000 3.22 136 22:34 29.03.2022
4564 Clouds 14 1014 79 10000 2.81 139 21:46 29.03.2022
4565 Clouds 14 1014 78 10000 3.1 138 20:54 29.03.2022
4566 Clouds 14 1016 82 10000 2.63 131 20:20 29.03.2022
4567 Clouds 15 1015 80 10000 1.55 134 18:56 29.03.2022
4568 Clouds 15 1016 79 10000 1.34 90 18:31 29.03.2022
4569 Clouds 16 1016 76 10000 0.89 90 17:36 29.03.2022
4570 Clouds 16 1016 73 10000 1.79 74 16:58 29.03.2022
4571 Clouds 16 1017 72 10000 1.79 135 15:58 29.03.2022
4572 Clouds 17 1018 71 10000 2.68 90 14:53 29.03.2022
4573 Clouds 17 1018 70 10000 0.89 90 14:18 29.03.2022
4574 Clouds 18 1019 66 10000 2.68 90 12:53 29.03.2022
4575 Clouds 17 1020 69 10000 0.89 90 11:44 29.03.2022
4576 Clouds 17 1020 68 10000 1.79 90 10:55 29.03.2022
4577 Clouds 16 1020 73 10000 0.89 90 09:49 29.03.2022
4578 Clouds 12 1019 80 10000 0.89 270 07:57 29.03.2022
4579 Clouds 13 1020 80 10000 0.89 225 04:47 29.03.2022
4580 Clear 13 1022 80 10000 0.89 270 00:36 29.03.2022
4581 Clear 13 1022 83 10000 1.79 225 23:24 28.03.2022
4582 Clear 13 1022 83 10000 0.89 90 22:53 28.03.2022
4583 Clear 13 1022 84 10000 0.45 90 22:26 28.03.2022
4584 Clear 14 1022 85 10000 0.45 90 20:58 28.03.2022
4585 Clouds 14 1022 84 10000 1.37 109 20:23 28.03.2022
4586 Clouds 15 1022 80 10000 0.89 90 19:45 28.03.2022
4587 Clouds 15 1021 78 10000 1.79 90 19:27 28.03.2022
4588 Clouds 15 1022 77 10000 0.89 90 18:40 28.03.2022
4589 Clouds 16 1022 69 10000 1.79 90 17:39 28.03.2022
4590 Clouds 17 1022 70 10000 0.89 90 16:21 28.03.2022
4591 Clouds 17 1022 65 10000 1.79 90 14:48 28.03.2022
4592 Clouds 17 1023 66 10000 1.79 90 14:21 28.03.2022
4593 Clouds 18 1024 59 10000 0.89 315 12:24 28.03.2022
4594 Clouds 19 1024 53 10000 1.79 225 11:31 28.03.2022
4595 Clouds 16 1023 61 10000 2.24 270 09:43 28.03.2022
4596 Clouds 16 1023 62 10000 1.79 225 09:19 28.03.2022
4597 Clouds 14 1023 64 10000 2.24 315 08:22 28.03.2022
4598 Clouds 13 1023 65 10000 1.34 180 07:34 28.03.2022
4599 Clouds 15 1023 64 10000 0.89 270 03:52 28.03.2022
4600 Clouds 16 1023 64 10000 0.89 292 23:30 27.03.2022
4601 Clouds 16 1023 64 10000 3.29 194 22:24 27.03.2022
4602 Clouds 16 1022 62 10000 3.29 194 21:42 27.03.2022
4603 Clouds 16 1021 62 10000 3.45 202 20:57 27.03.2022
4604 Clouds 17 1021 60 10000 3.53 174 19:48 27.03.2022
4605 Clouds 17 1021 56 10000 0.89 90 19:24 27.03.2022
4606 Clouds 19 1021 51 10000 3.58 135 18:27 27.03.2022
4607 Clouds 19 1020 50 10000 1.79 158 17:39 27.03.2022
4608 Clouds 20 1020 47 10000 2.93 87 16:28 27.03.2022
4609 Clouds 21 1020 46 10000 1.79 112 15:21 27.03.2022
4610 Clouds 21 1021 49 10000 1.79 90 13:56 27.03.2022
4611 Clouds 20 1021 49 10000 1.34 90 12:31 27.03.2022
4612 Clouds 19 1022 44 10000 3.58 68 10:57 27.03.2022
4613 Clouds 16 1022 46 10000 4.92 45 08:51 27.03.2022
4614 Clouds 15 1021 43 10000 3.13 90 05:54 27.03.2022
4615 Clouds 15 1023 42 10000 3.58 135 00:48 27.03.2022
4616 Clouds 15 1024 44 10000 3.58 90 23:42 26.03.2022
4617 Clouds 15 1024 41 10000 4.02 45 22:36 26.03.2022
4618 Clouds 16 1023 41 10000 4.49 146 21:34 26.03.2022
4619 Clouds 16 1023 47 10000 3.83 155 20:52 26.03.2022
4620 Clouds 16 1023 58 10000 4.05 122 19:21 26.03.2022
4621 Clouds 16 1022 56 10000 4.02 106 17:53 26.03.2022
4622 Clouds 16 1022 54 10000 4.02 106 17:32 26.03.2022
4623 Clouds 17 1022 64 10000 4.16 98 16:27 26.03.2022
4624 Clouds 18 1022 58 10000 3.99 103 14:57 26.03.2022
4625 Clouds 17 1023 54 10000 4.22 103 13:53 26.03.2022
4626 Clouds 18 1023 44 10000 4.03 100 12:51 26.03.2022
4627 Clouds 18 1024 36 10000 3.47 95 11:33 26.03.2022
4628 Clouds 17 1025 45 10000 2.59 129 10:22 26.03.2022
4629 Clouds 14 1025 61 10000 2.34 128 08:33 26.03.2022
4630 Clouds 12 1024 59 10000 2.02 140 05:54 26.03.2022
4631 Clouds 12 1024 57 10000 1.85 144 04:21 26.03.2022
4632 Clouds 12 1026 55 10000 2.53 151 23:51 25.03.2022
4633 Clouds 12 1026 72 10000 2.83 137 21:41 25.03.2022
4634 Clouds 12 1026 71 10000 2.46 146 20:46 25.03.2022
4635 Clouds 13 1026 70 10000 2.12 147 19:36 25.03.2022
4636 Clouds 13 1025 70 10000 1.73 140 18:47 25.03.2022
4637 Clouds 14 1025 63 10000 1.29 113 17:37 25.03.2022
4638 Clouds 15 1025 61 10000 1.11 88 16:50 25.03.2022
4639 Clouds 15 1025 59 10000 1.15 68 16:18 25.03.2022
4640 Clouds 16 1025 53 10000 1.28 47 14:23 25.03.2022
4641 Clouds 16 1026 54 10000 1.36 46 12:33 25.03.2022
4642 Clear 15 1027 47 10000 0.79 76 09:57 25.03.2022
4643 Clear 14 1027 48 10000 0.89 108 09:27 25.03.2022
4644 Clear 12 1027 48 10000 1.17 123 07:53 25.03.2022
4645 Clear 11 1027 54 10000 1.56 160 07:26 25.03.2022
4646 Clear 10 1027 48 10000 1.5 172 05:35 25.03.2022
4647 Clear 11 1028 50 10000 1.98 166 00:42 25.03.2022
4648 Clear 11 1028 57 10000 1.6 159 22:30 24.03.2022
4649 Clear 11 1028 56 10000 1.12 160 21:35 24.03.2022
4650 Clear 11 1028 59 10000 0.45 176 19:51 24.03.2022
4651 Clear 12 1028 60 10000 0.45 176 19:33 24.03.2022
4652 Clouds 14 1027 58 10000 1.36 21 17:46 24.03.2022
4653 Clouds 15 1027 54 10000 1.98 11 16:54 24.03.2022
4654 Clouds 17 1027 47 10000 2.74 1 15:21 24.03.2022
4655 Clouds 17 1027 45 10000 2.74 1 14:43 24.03.2022
4656 Clear 16 1027 45 10000 2.76 351 13:59 24.03.2022
4657 Clear 16 1028 42 10000 2.48 344 12:47 24.03.2022
4658 Clear 16 1028 43 10000 2.01 335 11:33 24.03.2022
4659 Clear 14 1028 48 10000 1.31 295 09:51 24.03.2022
4660 Clear 13 1028 44 10000 1.05 264 08:40 24.03.2022
4661 Clear 10 1027 49 10000 1.4 201 06:48 24.03.2022
4662 Clear 10 1028 48 10000 1.99 164 02:18 24.03.2022
4663 Clear 10 1029 64 10000 1.64 138 23:18 23.03.2022
4664 Clear 10 1029 70 10000 1.94 164 21:27 23.03.2022
4665 Clear 10 1029 70 10000 1.94 164 20:49 23.03.2022
4666 Clear 11 1028 69 10000 1.77 148 19:45 23.03.2022
4667 Clear 11 1028 64 10000 1.46 122 18:36 23.03.2022
4668 Clear 13 1027 59 10000 1.72 69 17:36 23.03.2022
4669 Clear 15 1026 55 10000 2.38 37 16:21 23.03.2022
4670 Clear 15 1026 58 10000 2.21 29 14:51 23.03.2022
4671 Clear 15 1027 60 10000 1.75 34 14:24 23.03.2022
4672 Clear 15 1028 57 10000 1.58 37 12:45 23.03.2022
4673 Clear 12 1029 60 10000 1.27 44 09:38 23.03.2022
4674 Clear 8 1029 62 10000 0.33 181 06:41 23.03.2022
4675 Clear 8 1029 61 10000 1.09 182 04:31 23.03.2022
4676 Clear 8 1031 63 10000 1.09 117 00:29 23.03.2022
4677 Clear 8 1031 63 10000 1.14 125 22:46 22.03.2022
4678 Clear 9 1031 62 10000 1.7 106 21:29 22.03.2022
4679 Clear 9 1031 60 10000 1.72 106 20:40 22.03.2022
4680 Clear 9 1031 58 10000 2.14 93 19:41 22.03.2022
4681 Clear 9 1030 56 10000 2.94 91 19:18 22.03.2022
4682 Clear 11 1030 51 10000 3.36 78 18:22 22.03.2022
4683 Clear 12 1029 49 10000 4.26 72 17:29 22.03.2022
4684 Clear 13 1029 43 10000 4.56 75 16:21 22.03.2022
4685 Clear 14 1029 41 10000 4.43 78 15:22 22.03.2022
4686 Clear 13 1029 45 10000 4.43 78 14:46 22.03.2022
4687 Clear 13 1030 42 10000 4.4 79 14:27 22.03.2022
4688 Clear 13 1030 40 10000 3.74 73 13:27 22.03.2022
4689 Clear 13 1030 47 10000 3.22 70 11:52 22.03.2022
4690 Clear 13 1031 50 10000 2.85 70 10:35 22.03.2022
4691 Clear 10 1031 58 10000 1.95 90 08:29 22.03.2022
4692 Clear 7 1031 69 10000 1.47 152 05:25 22.03.2022
4693 Clear 7 1031 69 10000 1.89 156 03:47 22.03.2022
4694 Clouds 8 1031 68 10000 2.3 117 00:22 22.03.2022
4695 Clouds 8 1031 72 10000 2.58 116 22:29 21.03.2022
4696 Clouds 8 1031 70 10000 2.87 106 20:57 21.03.2022
4697 Clouds 8 1031 69 10000 2.86 106 20:38 21.03.2022
4698 Clouds 10 1031 66 10000 3.35 92 19:58 21.03.2022
4699 Clouds 10 1031 65 10000 3.1 90 19:33 21.03.2022
4700 Clouds 11 1030 61 10000 3.7 74 18:22 21.03.2022
4701 Clouds 12 1029 54 10000 4.28 72 17:19 21.03.2022
4702 Clouds 12 1029 52 10000 4.24 72 16:44 21.03.2022
4703 Clouds 12 1029 55 10000 4.37 64 15:55 21.03.2022
4704 Clouds 13 1029 54 10000 4.17 57 15:19 21.03.2022
4705 Clouds 13 1030 54 10000 3.83 51 14:25 21.03.2022
4706 Clouds 13 1030 55 10000 3.06 36 12:42 21.03.2022
4707 Clouds 12 1031 62 10000 2.55 29 11:53 21.03.2022
4708 Clouds 11 1031 68 10000 1.78 35 10:40 21.03.2022
4709 Clouds 11 1031 73 10000 0.71 53 08:55 21.03.2022
4710 Clouds 8 1031 82 10000 0.97 172 06:54 21.03.2022
4711 Clouds 8 1030 83 10000 2.06 195 02:55 21.03.2022
4712 Clouds 9 1031 69 10000 2.34 194 00:35 21.03.2022
4713 Clouds 9 1031 69 10000 2.43 181 22:54 20.03.2022
4714 Clouds 10 1031 65 10000 2.65 178 21:57 20.03.2022
4715 Clouds 11 1031 66 10000 2.79 178 21:29 20.03.2022
4716 Clouds 11 1031 65 10000 2.79 178 20:45 20.03.2022
4717 Clouds 12 1030 64 10000 2.84 179 19:59 20.03.2022
4718 Clouds 12 1030 63 10000 2.84 179 19:38 20.03.2022
4719 Clouds 12 1030 64 10000 2.7 173 18:40 20.03.2022
4720 Clouds 13 1030 63 10000 2.65 162 17:37 20.03.2022
4721 Clouds 13 1029 63 10000 2.52 147 16:57 20.03.2022
4722 Clouds 14 1029 61 10000 2.18 118 15:52 20.03.2022
4723 Clouds 14 1029 57 10000 2.28 99 14:36 20.03.2022
4724 Clouds 14 1029 54 10000 2.14 121 13:18 20.03.2022
4725 Clouds 13 1030 57 10000 2.28 132 11:32 20.03.2022
4726 Clouds 12 1029 69 10000 2.57 131 09:40 20.03.2022
4727 Clouds 10 1028 74 10000 2.27 136 07:50 20.03.2022
4728 Clouds 11 1028 70 10000 2.72 151 05:49 20.03.2022
4729 Clouds 11 1026 74 10000 2.96 158 02:53 20.03.2022
4730 Clouds 11 1027 71 10000 3.99 155 00:48 20.03.2022
4731 Clouds 12 1027 67 10000 3.57 151 23:21 19.03.2022
4732 Clouds 12 1027 63 10000 3.71 142 21:54 19.03.2022
4733 Clouds 12 1026 64 10000 3.89 135 21:20 19.03.2022
4734 Clouds 12 1025 67 10000 3.84 146 19:21 19.03.2022
4735 Clouds 13 1024 67 10000 4.67 157 18:25 19.03.2022
4736 Clouds 13 1024 64 10000 4.67 157 17:41 19.03.2022
4737 Clouds 14 1023 60 10000 4.3 151 16:40 19.03.2022
4738 Clouds 15 1023 59 10000 4.45 137 15:21 19.03.2022
4739 Clouds 15 1023 59 10000 5.12 131 13:40 19.03.2022
4740 Clouds 16 1023 57 10000 5.4 122 12:42 19.03.2022
4741 Clouds 16 1024 57 10000 5.32 120 12:19 19.03.2022
4742 Clouds 16 1024 57 10000 5.32 120 11:42 19.03.2022
4743 Clouds 15 1024 69 10000 4 123 08:57 19.03.2022
4744 Clouds 15 1023 61 10000 3.38 136 04:42 19.03.2022
4745 Clouds 15 1023 58 10000 3.73 138 02:32 19.03.2022
4746 Clouds 15 1023 58 10000 3.09 133 23:50 18.03.2022
4747 Rain 16 1023 58 10000 3 139 22:48 18.03.2022
4748 Clouds 16 1023 59 10000 2.92 160 22:21 18.03.2022
4749 Clouds 16 1022 58 10000 3.33 151 20:25 18.03.2022
4750 Clouds 16 1022 58 10000 3.33 151 20:25 18.03.2022
4751 Clouds 16 1022 58 10000 3.33 151 20:25 18.03.2022
4752 Clouds 16 1021 56 10000 3.28 145 19:24 18.03.2022
4753 Clouds 16 1021 54 10000 3.28 145 18:43 18.03.2022
4754 Clouds 18 1020 47 10000 4.15 114 16:54 18.03.2022
4755 Clouds 18 1020 44 10000 4.96 109 16:23 18.03.2022
4756 Clouds 19 1020 46 10000 5.29 107 14:27 18.03.2022
4757 Clouds 19 1020 52 10000 5.29 107 13:39 18.03.2022
4758 Clouds 17 1021 51 10000 4.36 102 11:35 18.03.2022
4759 Clouds 17 1021 58 10000 4.23 107 10:21 18.03.2022
4760 Clouds 14 1021 63 10000 4.58 118 08:46 18.03.2022
4761 Clouds 13 1020 62 10000 3.27 140 06:45 18.03.2022
4762 Clouds 13 1020 67 10000 3.54 126 04:55 18.03.2022
4763 Rain 13 1020 66 10000 2.78 151 00:55 18.03.2022
4764 Clouds 13 1020 64 10000 3.07 191 23:52 17.03.2022
4765 Rain 13 1020 65 10000 3.09 187 22:45 17.03.2022
4766 Clouds 13 1019 65 10000 2.75 176 22:19 17.03.2022
4767 Rain 13 1019 66 10000 2.75 176 21:30 17.03.2022
4768 Clouds 13 1019 67 10000 2.52 179 20:53 17.03.2022
4769 Clouds 13 1019 69 10000 2.31 155 20:19 17.03.2022
4770 Clouds 13 1019 73 10000 2.31 155 19:38 17.03.2022
4771 Clouds 13 1018 73 10000 2.38 143 18:52 17.03.2022
4772 Clouds 15 1017 73 10000 2.92 124 17:40 17.03.2022
4773 Clouds 16 1016 72 10000 4.64 84 16:20 17.03.2022
4774 Clouds 16 1016 69 10000 4.64 84 15:43 17.03.2022
4775 Clouds 16 1018 68 10000 4.08 107 14:59 17.03.2022
4776 Clouds 17 1018 62 10000 2.33 102 13:45 17.03.2022
4777 Clouds 17 1019 56 10000 2.23 99 12:46 17.03.2022
4778 Clouds 17 1019 57 10000 1.78 98 11:33 17.03.2022
4779 Clouds 17 1020 57 10000 1.87 95 10:44 17.03.2022
4780 Clouds 15 1020 61 10000 1.83 71 09:37 17.03.2022
4781 Clouds 14 1021 64 10000 0.45 90 08:19 17.03.2022
4782 Clouds 11 1022 73 10000 0.89 90 05:51 17.03.2022
4783 Clouds 11 1022 75 10000 0.45 270 04:40 17.03.2022
4784 Clouds 12 1024 78 10000 0.45 270 00:27 17.03.2022
4785 Clouds 12 1024 78 10000 1.79 90 22:56 16.03.2022
4786 Clouds 12 1024 78 10000 2.38 141 22:36 16.03.2022
4787 Clouds 12 1024 78 10000 0.89 90 21:56 16.03.2022
4788 Clouds 12 1025 82 10000 0.45 90 20:40 16.03.2022
4789 Clouds 13 1024 80 10000 2.05 147 19:23 16.03.2022
4790 Clouds 14 1024 78 10000 1.99 147 18:42 16.03.2022
4791 Clouds 14 1025 76 10000 0.89 90 17:49 16.03.2022
4792 Clouds 14 1025 75 10000 0.45 90 17:31 16.03.2022
4793 Clouds 15 1025 72 10000 0.89 135 16:35 16.03.2022
4794 Clouds 16 1025 69 10000 2.24 90 14:58 16.03.2022
4795 Clouds 16 1026 66 10000 1.79 180 13:36 16.03.2022
4796 Clouds 17 1027 61 10000 1.34 180 12:55 16.03.2022
4797 Clouds 17 1028 62 10000 3.13 135 11:23 16.03.2022
4798 Clouds 15 1028 66 10000 1.79 180 10:37 16.03.2022
4799 Clouds 15 1029 68 10000 0.89 90 09:57 16.03.2022
4800 Clear 13 1029 73 10000 1.34 90 08:24 16.03.2022
4801 Clouds 11 1030 73 10000 1.79 270 02:46 16.03.2022
4802 Clouds 11 1031 81 10000 0.89 270 22:56 15.03.2022
4803 Clouds 11 1031 81 10000 0.89 292 22:36 15.03.2022
4804 Clouds 13 1032 68 10000 2.54 158 21:19 15.03.2022
4805 Clouds 11 1032 78 10000 2.35 140 19:46 15.03.2022
4806 Clouds 15 1032 71 10000 1.72 87 17:47 15.03.2022
4807 Clouds 16 1032 65 10000 1.67 68 16:41 15.03.2022
4808 Clouds 18 1031 53 10000 1.73 56 15:42 15.03.2022
4809 Clouds 18 1032 53 10000 1.45 31 14:54 15.03.2022
4810 Clouds 18 1032 54 10000 1 20 13:57 15.03.2022
4811 Clouds 18 1033 53 10000 0.43 117 13:23 15.03.2022
4812 Clouds 17 1034 55 10000 0.7 160 11:34 15.03.2022
4813 Clouds 16 1034 59 10000 1.22 153 10:53 15.03.2022
4814 Clouds 14 1034 64 10000 2.05 169 09:29 15.03.2022
4815 Clouds 12 1034 64 10000 2.23 164 08:27 15.03.2022
4816 Clouds 12 1034 71 10000 2.23 164 07:38 15.03.2022
4817 Clouds 11 1034 74 10000 2.41 169 06:32 15.03.2022
4818 Clear 12 1033 72 10000 2.33 183 00:58 15.03.2022
4819 Clear 12 1033 73 10000 2.18 179 23:30 14.03.2022
4820 Clouds 12 1033 74 10000 2.12 170 22:52 14.03.2022
4821 Clouds 12 1033 77 10000 2.43 153 21:55 14.03.2022
4822 Clouds 12 1032 76 10000 2.29 138 20:59 14.03.2022
4823 Clouds 13 1031 75 10000 2.38 122 20:28 14.03.2022
4824 Clouds 13 1031 75 10000 2.38 122 19:33 14.03.2022
4825 Clouds 14 1030 71 10000 2.46 105 17:59 14.03.2022
4826 Clouds 14 1030 70 10000 2.46 105 17:41 14.03.2022
4827 Clouds 15 1029 67 10000 2.57 94 16:33 14.03.2022
4828 Clouds 15 1031 70 10000 2.24 135 14:52 14.03.2022
4829 Clouds 15 1031 68 10000 3.58 135 13:58 14.03.2022
4830 Clouds 16 1031 68 10000 2.24 90 11:27 14.03.2022
4831 Clouds 15 1031 71 10000 0.89 90 09:57 14.03.2022
4832 Clouds 15 1030 73 10000 0.89 90 09:35 14.03.2022
4833 Clouds 14 1030 76 10000 0.89 90 08:58 14.03.2022
4834 Clouds 14 1030 79 10000 0.89 90 08:30 14.03.2022
4835 Clouds 10 1029 85 10000 0.45 270 06:47 14.03.2022
4836 Clouds 11 1027 80 10000 1.34 315 03:27 14.03.2022
4837 Clouds 10 1027 81 10000 0.89 270 01:39 14.03.2022
4838 Clouds 10 1027 80 10000 1.34 270 00:29 14.03.2022
4839 Clouds 11 1027 79 10000 1.79 270 21:51 13.03.2022
4840 Clouds 11 1026 79 10000 0.89 270 21:22 13.03.2022
4841 Clouds 11 1026 78 10000 1.34 270 20:46 13.03.2022
4842 Clouds 11 1026 78 10000 1.79 225 20:22 13.03.2022
4843 Clouds 11 1026 78 10000 1.79 270 19:42 13.03.2022
4844 Clouds 11 1025 77 10000 1.34 270 19:22 13.03.2022
4845 Clouds 12 1025 76 10000 0.45 90 18:45 13.03.2022
4846 Clouds 13 1025 73 10000 3.17 140 18:26 13.03.2022
4847 Clouds 13 1025 70 10000 3.17 140 17:38 13.03.2022
4848 Clouds 13 1024 70 10000 3.35 132 16:45 13.03.2022
4849 Clouds 13 1024 68 10000 0.89 90 16:23 13.03.2022
4850 Clouds 13 1024 69 10000 0.89 90 15:42 13.03.2022
4851 Clouds 13 1024 69 10000 3.43 134 14:41 13.03.2022
4852 Clouds 12 1024 74 10000 1.34 180 13:29 13.03.2022
4853 Clouds 11 1023 70 10000 4.93 149 12:23 13.03.2022
4854 Clouds 11 1024 78 10000 1.34 90 11:39 13.03.2022
4855 Clouds 11 1024 80 10000 1.34 90 10:50 13.03.2022
4856 Clouds 11 1024 82 10000 0.89 90 10:29 13.03.2022
4857 Clouds 10 1024 82 10000 0.89 90 09:42 13.03.2022
4858 Clouds 9 1024 83 8986 1.79 90 08:50 13.03.2022
4859 Clouds 9 1024 84 8986 0.89 90 08:30 13.03.2022
4860 Clouds 8 1023 84 10000 2.24 135 07:19 13.03.2022
4861 Clouds 8 1022 87 9251 1.79 90 04:58 13.03.2022
4862 Clouds 9 1022 82 10000 0.89 90 01:47 13.03.2022
4863 Clouds 10 1022 78 10000 0.89 90 23:26 12.03.2022
4864 Clouds 11 1022 74 10000 0.45 90 21:39 12.03.2022
4865 Clouds 11 1022 73 10000 0.89 90 20:19 12.03.2022
4866 Clouds 11 1022 74 10000 0.89 90 19:46 12.03.2022
4867 Clouds 11 1023 73 10000 1.79 90 18:40 12.03.2022
4868 Clouds 11 1023 75 10000 0.89 90 17:49 12.03.2022
4869 Clouds 12 1023 74 10000 2.24 90 16:28 12.03.2022
4870 Clouds 12 1023 73 10000 1.79 135 15:48 12.03.2022
4871 Clouds 12 1023 73 10000 2.24 90 15:19 12.03.2022
4872 Clouds 12 1024 70 10000 1.79 90 13:53 12.03.2022
4873 Clouds 13 1025 67 10000 2.68 90 12:27 12.03.2022
4874 Clouds 13 1025 68 10000 2.24 90 11:52 12.03.2022
4875 Clouds 13 1025 67 10000 2.24 90 11:32 12.03.2022
4876 Clouds 13 1025 66 10000 3.13 135 10:24 12.03.2022
4877 Clouds 12 1024 69 10000 2.68 180 09:43 12.03.2022
4878 Clouds 11 1024 78 10000 0.89 90 07:52 12.03.2022
4879 Clouds 8 1024 79 10000 0.89 270 06:30 12.03.2022
4880 Clouds 10 1024 74 10000 0.45 90 00:31 12.03.2022
4881 Clouds 10 1024 75 10000 2.6 132 23:41 11.03.2022
4882 Clouds 10 1024 74 10000 0.45 90 22:32 11.03.2022
4883 Clouds 10 1025 76 10000 1.79 90 21:24 11.03.2022
4884 Clouds 10 1025 76 10000 1.79 90 21:24 11.03.2022
4885 Clouds 10 1025 75 10000 1.79 90 20:46 11.03.2022
4886 Clouds 11 1025 73 10000 0.89 90 20:26 11.03.2022
4887 Clouds 11 1025 73 10000 0.89 90 19:32 11.03.2022
4888 Clouds 12 1024 68 10000 3.13 135 17:53 11.03.2022
4889 Clouds 12 1024 67 10000 1.34 90 17:24 11.03.2022
4890 Clouds 13 1024 60 10000 1.34 90 15:59 11.03.2022
4891 Clouds 14 1024 59 10000 3.58 135 15:32 11.03.2022
4892 Clouds 14 1024 60 10000 2.68 90 13:42 11.03.2022
4893 Clouds 14 1025 55 10000 2.68 135 12:39 11.03.2022
4894 Clouds 15 1025 54 10000 2.24 112 12:19 11.03.2022
4895 Clouds 14 1026 58 10000 1.28 124 10:44 11.03.2022
4896 Clouds 12 1025 62 10000 1.34 90 09:34 11.03.2022
4897 Clouds 11 1025 75 10000 3.13 90 08:28 11.03.2022
4898 Clouds 10 1025 80 10000 2.24 90 07:48 11.03.2022
4899 Clouds 9 1025 78 10000 0.45 90 06:42 11.03.2022
4900 Clouds 8 1024 79 10000 0.45 270 04:37 11.03.2022
4901 Clouds 8 1024 77 10000 0.89 315 01:29 11.03.2022
4902 Clear 10 1025 75 10000 0.89 270 22:32 10.03.2022
4903 Clear 9 1025 76 10000 1.79 315 21:53 10.03.2022
4904 Clear 10 1025 78 10000 0.89 315 21:25 10.03.2022
4905 Clear 10 1025 80 10000 1.34 315 20:34 10.03.2022
4906 Clear 10 1026 76 10000 1.79 315 19:20 10.03.2022
4907 Clear 11 1025 68 10000 1.79 315 17:51 10.03.2022
4908 Clear 12 1025 65 10000 4.47 270 16:52 10.03.2022
4909 Clear 13 1025 60 10000 6.26 315 15:28 10.03.2022
4910 Clear 13 1026 57 10000 2.68 315 13:45 10.03.2022
4911 Clear 13 1026 48 10000 4.92 315 12:41 10.03.2022
4912 Clear 13 1027 48 10000 4.02 292 11:28 10.03.2022
4913 Clear 12 1027 62 10000 2.68 292 09:43 10.03.2022
4914 Clear 10 1027 68 10000 1.79 292 08:23 10.03.2022
4915 Clear 7 1026 72 10000 1.79 315 05:32 10.03.2022
4916 Clear 8 1026 68 10000 1.79 315 02:33 10.03.2022
4917 Clouds 9 1025 64 10000 0.89 315 23:32 09.03.2022
4918 Clouds 9 1025 59 10000 1.34 292 22:28 09.03.2022
4919 Clouds 9 1024 63 10000 0.89 270 21:47 09.03.2022
4920 Clouds 9 1024 71 10000 2.68 292 20:44 09.03.2022
4921 Clouds 9 1024 67 10000 3.38 348 18:50 09.03.2022
4922 Clouds 10 1023 53 10000 1.79 0 17:28 09.03.2022
4923 Clouds 10 1022 51 10000 0.89 68 16:39 09.03.2022
4924 Clouds 10 1022 49 10000 2.68 90 15:37 09.03.2022
4925 Clouds 10 1022 47 10000 4.47 45 14:23 09.03.2022
4926 Clouds 10 1022 47 10000 3.58 90 13:25 09.03.2022
4927 Clouds 10 1022 48 10000 5.36 90 12:20 09.03.2022
4928 Clouds 10 1022 47 10000 1.79 45 11:45 09.03.2022
4929 Clouds 10 1022 47 10000 2.24 338 10:50 09.03.2022
4930 Clouds 9 1022 48 10000 2.68 45 09:22 09.03.2022
4931 Clouds 9 1022 48 10000 1.34 90 08:42 09.03.2022
4932 Clouds 8 1013 51 10000 1.79 0 05:36 09.03.2022
4933 Clouds 9 1013 48 10000 1.79 0 00:56 09.03.2022
4934 Clouds 9 1012 51 10000 1.34 90 23:37 08.03.2022
4935 Clouds 9 1012 57 10000 1.79 90 22:45 08.03.2022
4936 Clouds 9 1012 67 10000 1.79 90 21:43 08.03.2022
4937 Clouds 8 1012 72 10000 0.89 90 21:18 08.03.2022
4938 Clouds 8 1011 77 10000 1.34 90 20:18 08.03.2022
4939 Clouds 9 1010 52 10000 3.58 315 18:53 08.03.2022
4940 Clear 10 1009 54 10000 5.81 315 17:51 08.03.2022
4941 Clear 12 1005 49 10000 0.89 355 16:37 08.03.2022
4942 Clear 13 1009 44 10000 3.58 315 14:24 08.03.2022
4943 Clouds 12 1009 56 10000 1.34 351 13:22 08.03.2022
4944 Clouds 11 1009 62 10000 4.02 292 12:19 08.03.2022
4945 Clouds 10 1009 73 10000 1.79 292 11:41 08.03.2022
4946 Clouds 9 1010 72 10000 1.79 315 10:27 08.03.2022
4947 Clouds 11 1009 59 10000 1.34 225 08:30 08.03.2022
4948 Clouds 9 1008 62 10000 0.89 0 05:48 08.03.2022
4949 Clouds 9 1009 59 10000 3.58 315 01:48 08.03.2022
4950 Clouds 9 1009 68 10000 1.79 315 22:24 07.03.2022
4951 Clouds 9 1009 68 10000 1.79 270 21:35 07.03.2022
4952 Clouds 10 1009 67 10000 1.79 315 20:55 07.03.2022
4953 Clouds 10 1010 68 10000 2.24 315 20:26 07.03.2022
4954 Clouds 10 1009 66 10000 1.34 315 19:41 07.03.2022
4955 Clouds 10 1009 66 10000 2.24 292 18:48 07.03.2022
4956 Clouds 11 1009 66 10000 1.34 270 18:25 07.03.2022
4957 Clouds 12 1005 59 10000 3.47 330 16:56 07.03.2022
4958 Clouds 11 1008 60 10000 2.68 292 16:34 07.03.2022
4959 Clouds 11 1016 69 10000 2.68 292 14:41 07.03.2022
4960 Clear 13 1009 52 10000 2.24 315 12:34 07.03.2022
4961 Clear 12 1009 47 10000 2.24 292 10:48 07.03.2022
4962 Clear 12 1010 47 10000 1.34 315 10:25 07.03.2022
4963 Clear 8 1009 67 10000 1.79 270 07:42 07.03.2022
4964 Clouds 9 1009 63 10000 4.47 292 00:37 07.03.2022
4965 Clouds 9 1009 63 10000 4.47 315 00:19 07.03.2022
4966 Clouds 9 1009 63 10000 2.68 270 23:19 06.03.2022
4967 Clouds 9 1009 63 10000 1.79 270 22:25 06.03.2022
4968 Clouds 9 1009 61 10000 1.79 315 21:22 06.03.2022
4969 Clouds 9 1008 60 10000 2.24 315 20:29 06.03.2022
4970 Clouds 10 1008 59 10000 2.68 315 19:35 06.03.2022
4971 Clouds 10 1008 55 10000 3.13 315 18:40 06.03.2022
4972 Clouds 11 1008 55 10000 2.68 315 17:36 06.03.2022
4973 Clouds 11 1008 52 10000 4.92 315 17:18 06.03.2022
4974 Clouds 12 1008 49 10000 3.58 270 16:26 06.03.2022
4975 Clouds 12 1008 47 10000 2.68 315 15:25 06.03.2022
4976 Clouds 12 1015 51 10000 4.92 315 14:42 06.03.2022
4977 Clouds 13 1008 47 10000 3.13 315 13:48 06.03.2022
4978 Clouds 13 1008 47 10000 2.24 270 12:39 06.03.2022
4979 Clouds 12 1008 50 10000 3.58 270 11:39 06.03.2022
4980 Clouds 12 1008 52 10000 3.13 315 10:39 06.03.2022
4981 Clouds 11 1008 54 10000 4.02 0 09:18 06.03.2022
4982 Clouds 10 1007 58 10000 3.58 270 08:27 06.03.2022
4983 Clouds 9 1007 60 10000 4.92 292 07:23 06.03.2022
4984 Clear 9 1006 55 10000 5.81 315 01:54 06.03.2022
4985 Clouds 9 1006 54 10000 5.36 315 00:34 06.03.2022
4986 Clouds 10 1006 57 10000 4.92 315 23:57 05.03.2022
4987 Clouds 10 1006 60 10000 3.58 315 23:18 05.03.2022
4988 Clouds 10 1005 67 10000 4.02 270 22:32 05.03.2022
4989 Clouds 10 1005 67 10000 3.13 292 21:29 05.03.2022
4990 Clouds 10 1005 66 10000 2.68 270 20:27 05.03.2022
4991 Clouds 10 1004 67 10000 1.79 225 19:18 05.03.2022
4992 Clouds 11 1004 67 10000 1.79 225 18:37 05.03.2022
4993 Clouds 11 1003 67 10000 1.79 315 17:31 05.03.2022
4994 Clouds 11 1003 67 10000 0.89 7 16:18 05.03.2022
4995 Clouds 13 1003 60 10000 4.47 270 14:54 05.03.2022
4996 Clouds 12 1002 63 10000 3.58 270 14:36 05.03.2022
4997 Clouds 13 1003 62 10000 3.58 292 13:39 05.03.2022
4998 Clouds 13 1003 61 10000 2.68 315 12:40 05.03.2022
4999 Clouds 12 1004 68 10000 4.92 270 11:20 05.03.2022
5000 Clouds 12 1004 71 10000 3.13 315 10:52 05.03.2022
5001 Clouds 11 1003 79 10000 4.92 315 09:31 05.03.2022
5002 Clouds 11 1003 85 10000 4.92 315 08:24 05.03.2022
5003 Clouds 10 1002 87 10000 3.58 225 07:21 05.03.2022
5004 Clouds 11 1002 78 10000 3.13 315 05:25 05.03.2022
5005 Clouds 11 1004 77 10000 0.89 270 00:33 05.03.2022
5006 Clouds 11 1005 80 10000 0.45 90 22:45 04.03.2022
5007 Clouds 11 1005 79 10000 0.89 90 22:25 04.03.2022
5008 Clouds 12 1005 78 10000 1.63 131 21:43 04.03.2022
5009 Clouds 12 1006 76 10000 0.99 124 20:42 04.03.2022
5010 Clouds 12 1006 75 10000 0.3 108 19:37 04.03.2022
5011 Clouds 12 1006 73 10000 0.43 355 18:58 04.03.2022
5012 Clouds 12 1006 73 10000 0.56 349 18:35 04.03.2022
5013 Clouds 13 1006 70 10000 0.45 90 17:29 04.03.2022
5014 Clouds 14 1006 65 10000 1.34 135 15:58 04.03.2022
5015 Clouds 14 1006 62 10000 0.89 90 15:27 04.03.2022
5016 Clear 14 1007 64 10000 2.24 270 13:36 04.03.2022
5017 Clouds 15 1007 61 10000 3.13 270 12:48 04.03.2022
5018 Clear 14 1007 64 10000 1.79 292 11:37 04.03.2022
5019 Clear 14 1008 66 10000 1.34 6 10:26 04.03.2022
5020 Clear 13 1008 74 10000 1.79 292 09:28 04.03.2022
5021 Clear 10 1007 82 10000 1.34 225 07:49 04.03.2022
5022 Clouds 9 1007 82 10000 1.79 315 06:26 04.03.2022
5023 Clouds 10 1007 82 10000 2.24 315 02:26 04.03.2022
5024 Clouds 10 1008 83 10000 1.79 315 23:43 03.03.2022
5025 Clouds 10 1009 79 10000 3.58 225 22:18 03.03.2022
5026 Clouds 10 1009 74 10000 1.79 292 21:36 03.03.2022
5027 Clouds 11 1010 69 10000 3.58 338 20:50 03.03.2022
5028 Clouds 11 1009 69 10000 0.89 90 19:34 03.03.2022
5029 Clouds 11 1010 67 10000 0.45 90 18:44 03.03.2022
5030 Clouds 11 1010 63 10000 1.96 124 17:43 03.03.2022
5031 Clouds 12 1010 63 10000 1.63 113 17:24 03.03.2022
5032 Clouds 12 1011 59 10000 0.45 90 15:47 03.03.2022
5033 Clouds 12 1011 59 10000 0.45 90 14:51 03.03.2022
5034 Clouds 12 1011 59 10000 1.07 132 14:32 03.03.2022
5035 Clouds 13 1013 50 10000 0.89 180 12:44 03.03.2022
5036 Clouds 13 1013 49 10000 0.89 90 11:39 03.03.2022
5037 Clouds 12 1014 54 10000 2.24 90 10:40 03.03.2022
5038 Clouds 9 1014 72 10000 1.79 135 08:45 03.03.2022
5039 Clouds 6 1014 77 10000 2.68 315 06:58 03.03.2022
5040 Clouds 6 1014 77 10000 2.24 315 06:33 03.03.2022
5041 Clouds 7 1016 74 10000 2.24 315 00:43 03.03.2022
5042 Clear 7 1016 73 10000 0.89 0 23:28 02.03.2022
5043 Clear 8 1017 72 10000 0.89 315 22:49 02.03.2022
5044 Clear 8 1017 73 10000 1.34 315 21:25 02.03.2022
5045 Clear 8 1017 71 10000 1.34 315 20:40 02.03.2022
5046 Clear 8 1016 70 10000 0.89 315 19:56 02.03.2022
5047 Clear 8 1017 70 10000 1.79 315 19:33 02.03.2022
5048 Clouds 9 1016 68 10000 1.34 315 18:44 02.03.2022
5049 Clouds 10 1016 64 10000 2.73 306 17:50 02.03.2022
5050 Clouds 10 1016 62 10000 0.89 315 17:21 02.03.2022
5051 Clouds 11 1016 59 10000 0.89 270 16:42 02.03.2022
5052 Clouds 11 1017 58 10000 1.34 15 14:43 02.03.2022
5053 Clouds 10 1017 64 10000 0.89 315 13:24 02.03.2022
5054 Clouds 10 1014 63 10000 3.2 327 12:42 02.03.2022
5055 Clouds 10 1015 62 10000 3.21 339 11:40 02.03.2022
5056 Clouds 10 1015 60 10000 0.89 3 11:21 02.03.2022
5057 Clouds 10 1014 64 10000 4.08 348 09:41 02.03.2022
5058 Clouds 10 1014 66 10000 4.44 343 08:54 02.03.2022
5059 Clouds 9 1014 63 10000 0.45 311 07:28 02.03.2022
5060 Clouds 9 1014 63 10000 5.08 317 06:40 02.03.2022
5061 Clouds 7 1018 60 10000 0.45 225 01:32 02.03.2022
5062 Clouds 9 1015 53 10000 6.49 13 23:49 01.03.2022
5063 Clouds 8 1015 56 10000 0.45 332 22:45 01.03.2022
5064 Clouds 8 1015 55 10000 0.45 31 21:58 01.03.2022
5065 Clouds 8 1015 56 10000 1.34 12 21:24 01.03.2022
5066 Clouds 8 1014 57 10000 6.4 20 20:30 01.03.2022
5067 Clouds 8 1014 57 10000 6.4 20 20:30 01.03.2022
5068 Clouds 8 1014 61 10000 5.42 10 19:44 01.03.2022
5069 Clouds 7 1013 70 10000 4.85 7 18:50 01.03.2022
5070 Clouds 7 1013 69 10000 5.01 2 18:21 01.03.2022
5071 Clouds 7 1022 74 10000 5.01 2 17:30 01.03.2022
5072 Clouds 8 1022 85 10000 5.28 10 16:34 01.03.2022
5073 Clouds 8 1021 88 10000 7.69 8 15:41 01.03.2022
5074 Clouds 8 1021 81 8534 8.11 358 14:40 01.03.2022
5075 Clouds 9 1021 75 10000 8.41 329 13:58 01.03.2022
5076 Clouds 10 1021 68 10000 8.33 322 13:25 01.03.2022
5077 Clouds 11 1021 66 10000 9.04 312 12:33 01.03.2022
5078 Clouds 11 1022 75 10000 6.18 318 10:37 01.03.2022
5079 Clouds 10 1022 75 10000 2.95 302 08:45 01.03.2022
5080 Clouds 8 1018 84 10000 3.13 270 07:54 01.03.2022
5081 Clear 7 1018 89 10000 1.79 315 06:26 01.03.2022
5082 Clear 8 1015 78 10000 0.48 36 02:44 01.03.2022
5083 Clouds 9 1015 76 10000 1.68 98 00:36 01.03.2022
5084 Clouds 9 1016 75 10000 2.02 88 23:33 28.02.2022
5085 Clouds 10 1016 73 10000 2.07 86 22:24 28.02.2022
5086 Clouds 8 1016 74 10000 2.07 86 21:39 28.02.2022
5087 Clouds 9 1015 72 10000 1.78 36 20:28 28.02.2022
5088 Clouds 10 1015 72 10000 1.78 36 19:41 28.02.2022
5089 Clouds 10 1015 70 10000 2.28 22 18:49 28.02.2022
5090 Clouds 11 1014 63 10000 2.73 14 17:33 28.02.2022
5091 Clouds 13 1014 63 10000 0.45 326 16:53 28.02.2022
5092 Clouds 12 1021 58 10000 3.39 13 15:58 28.02.2022
5093 Clouds 13 1021 61 10000 2.84 7 14:32 28.02.2022
5094 Clouds 12 1021 67 10000 2.38 352 13:48 28.02.2022
5095 Clouds 12 1021 72 10000 1.94 359 12:53 28.02.2022
5096 Clouds 11 1022 66 10000 1.55 341 11:59 28.02.2022
5097 Clouds 12 1022 66 10000 1.54 356 11:19 28.02.2022
5098 Clouds 12 1021 72 10000 2.37 355 10:22 28.02.2022
5099 Clouds 11 1021 75 10000 2.37 355 09:43 28.02.2022
5100 Clouds 9 1022 79 10000 1.34 315 08:51 28.02.2022
5101 Clouds 7 1017 88 10000 0.45 315 07:57 28.02.2022
5102 Clouds 8 1016 85 10000 1.34 315 05:53 28.02.2022
5103 Clouds 8 1016 84 10000 1.34 0 04:30 28.02.2022
5104 Clouds 10 1015 67 10000 3.13 315 00:52 28.02.2022
5105 Clouds 10 1014 59 10000 0.45 323 22:45 27.02.2022
5106 Clouds 10 1014 62 10000 0.45 21 22:26 27.02.2022
5107 Clouds 10 1014 57 10000 0.45 307 21:37 27.02.2022
5108 Clouds 10 1015 59 10000 6.71 315 20:43 27.02.2022
5109 Clouds 10 1013 58 10000 6.54 302 20:18 27.02.2022
5110 Clouds 10 1015 59 10000 6.26 315 19:48 27.02.2022
5111 Clouds 10 1013 58 10000 0.45 347 19:21 27.02.2022
5112 Clouds 10 1013 65 10000 6.05 299 18:33 27.02.2022
5113 Clouds 10 1013 68 10000 6.86 308 17:49 27.02.2022
5114 Clouds 11 1012 60 10000 0.89 327 16:25 27.02.2022
5115 Clouds 10 1012 82 10000 7.61 311 15:21 27.02.2022
5116 Clouds 9 1015 80 10000 4.92 315 12:37 27.02.2022
5117 Clouds 9 1015 80 10000 4.92 292 11:51 27.02.2022
5118 Clouds 9 1015 83 10000 5.81 292 10:37 27.02.2022
5119 Clouds 9 1015 84 10000 3.58 315 09:58 27.02.2022
5120 Clouds 9 1012 84 10000 5.84 300 09:24 27.02.2022
5121 Clouds 9 1012 87 10000 5.84 300 08:48 27.02.2022
5122 Clouds 8 1013 83 10000 4.02 270 06:30 27.02.2022
5123 Clouds 10 1009 68 10000 1.34 297 04:19 27.02.2022
5124 Clouds 8 1011 77 10000 6.71 315 00:31 27.02.2022
5125 Clouds 9 1011 63 10000 7.6 270 22:48 26.02.2022
5126 Clouds 10 1011 65 10000 10.28 292 21:34 26.02.2022
5127 Clouds 10 1011 61 10000 9.39 315 20:43 26.02.2022
5128 Clouds 10 1011 64 10000 6.71 0 19:58 26.02.2022
5129 Clouds 10 1009 62 10000 0.89 310 19:33 26.02.2022
5130 Clouds 11 1009 59 10000 0.89 354 18:40 26.02.2022
5131 Clouds 11 1009 61 10000 0.45 352 17:38 26.02.2022
5132 Clouds 11 1009 63 10000 0.89 325 16:48 26.02.2022
5133 Clouds 12 1008 65 10000 1.79 141 15:45 26.02.2022
5134 Clouds 12 1008 67 10000 8.24 310 15:20 26.02.2022
5135 Clouds 12 1008 67 10000 1.34 34 14:51 26.02.2022
5136 Clouds 12 1008 73 10000 0.45 205 14:24 26.02.2022
5137 Clouds 14 1008 67 10000 1.34 324 13:18 26.02.2022
5138 Clouds 14 1009 65 10000 1.34 3 11:54 26.02.2022
5139 Clouds 14 1009 66 10000 1.34 315 11:28 26.02.2022
5140 Clouds 14 1009 68 10000 0.89 346 10:31 26.02.2022
5141 Clouds 13 1009 68 10000 4.22 220 08:45 26.02.2022
5142 Clouds 11 1011 74 10000 3.13 225 06:46 26.02.2022
5143 Clouds 10 1013 75 10000 1.79 292 00:50 26.02.2022
5144 Clouds 10 1014 75 10000 0.89 270 22:47 25.02.2022
5145 Clouds 11 1015 73 10000 2.24 315 21:40 25.02.2022
5146 Clouds 11 1015 73 10000 1.79 315 21:21 25.02.2022
5147 Clouds 11 1016 71 10000 2.68 315 20:32 25.02.2022
5148 Clear 12 1016 68 10000 1.23 193 18:41 25.02.2022
5149 Clear 13 1015 61 10000 1.34 14 17:27 25.02.2022
5150 Clear 14 1020 59 10000 0.89 90 16:24 25.02.2022
5151 Clear 14 1021 56 10000 1.34 135 15:43 25.02.2022
5152 Clear 15 1021 56 10000 0.89 135 15:20 25.02.2022
5153 Clear 15 1015 50 10000 1.34 340 14:42 25.02.2022
5154 Clear 15 1015 52 10000 1.79 180 13:36 25.02.2022
5155 Clear 15 1016 54 10000 0.89 135 12:56 25.02.2022
5156 Clear 14 1017 57 10000 0.4 56 11:28 25.02.2022
5157 Clear 14 1014 60 10000 0.51 156 10:29 25.02.2022
5158 Clear 14 1014 61 10000 0.51 156 09:57 25.02.2022
5159 Clear 13 1014 61 10000 1.33 137 09:18 25.02.2022
5160 Clear 10 1014 63 10000 1.75 151 07:41 25.02.2022
5161 Clouds 10 1013 56 10000 1.9 187 05:49 25.02.2022
5162 Clouds 10 1014 55 10000 2.16 211 04:32 25.02.2022
5163 Clouds 10 1017 53 10000 2.16 194 23:47 24.02.2022
5164 Clouds 12 1018 52 10000 0.45 315 21:58 24.02.2022
5165 Clouds 12 1018 52 10000 0.45 315 21:58 24.02.2022
5166 Clouds 12 1018 52 10000 1.34 270 21:39 24.02.2022
5167 Clouds 12 1018 51 10000 1.34 225 21:19 24.02.2022
5168 Clouds 13 1017 57 10000 3.58 270 19:42 24.02.2022
5169 Clouds 13 1017 58 10000 4.47 315 18:44 24.02.2022
5170 Clouds 13 1023 63 10000 3.58 315 18:19 24.02.2022
5171 Clouds 14 1018 55 10000 0.85 206 17:34 24.02.2022
5172 Clouds 14 1023 54 10000 0.48 278 16:50 24.02.2022
5173 Clouds 15 1023 51 10000 0.45 90 16:24 24.02.2022
5174 Clouds 15 1024 47 10000 0.89 135 14:56 24.02.2022
5175 Clouds 15 1024 47 10000 0.89 135 14:36 24.02.2022
5176 Clouds 16 1018 39 10000 1.34 90 13:40 24.02.2022
5177 Clouds 16 1019 39 10000 0.45 90 13:21 24.02.2022
5178 Clouds 15 1021 55 10000 1.79 90 10:41 24.02.2022
5179 Clouds 13 1021 66 10000 2.24 90 09:24 24.02.2022
5180 Clouds 12 1021 70 10000 1.34 90 08:41 24.02.2022
5181 Clear 9 1020 79 10000 0.89 270 05:58 24.02.2022
5182 Clear 10 1021 73 10000 1.34 270 02:59 24.02.2022
5183 Clear 11 1020 64 10000 0.89 45 23:40 23.02.2022
5184 Clear 11 1021 69 10000 1.79 180 21:53 23.02.2022
5185 Clear 11 1020 65 10000 0.89 90 20:32 23.02.2022
5186 Clear 12 1020 64 10000 0.45 292 19:49 23.02.2022
5187 Clear 12 1020 64 10000 2.68 315 18:42 23.02.2022
5188 Clear 13 1017 54 10000 3.49 20 17:45 23.02.2022
5189 Clear 14 1023 55 10000 4.92 12 15:26 23.02.2022
5190 Clear 15 1015 50 10000 1.34 327 13:34 23.02.2022
5191 Clear 15 1016 49 10000 1.34 359 12:26 23.02.2022
5192 Clear 14 1016 41 10000 1.34 355 10:45 23.02.2022
5193 Clear 13 1018 45 10000 4.92 135 09:24 23.02.2022
5194 Clear 12 1017 50 10000 1.34 16 08:27 23.02.2022
5195 Clear 12 1014 55 10000 6.68 14 07:18 23.02.2022
5196 Clear 13 1011 49 10000 0.45 349 01:22 23.02.2022
5197 Clear 13 1010 49 10000 10.04 18 23:40 22.02.2022
5198 Clear 13 1010 64 10000 2.24 13 22:59 22.02.2022
5199 Clear 13 1010 63 10000 0.45 335 21:58 22.02.2022
5200 Clear 13 1010 62 10000 0.45 326 21:40 22.02.2022
5201 Clear 13 1010 59 10000 6.77 19 21:18 22.02.2022
5202 Clear 13 1009 58 10000 6.77 19 20:31 22.02.2022
5203 Clear 13 1009 58 10000 7.31 17 19:53 22.02.2022
5204 Clear 13 1008 57 10000 7.31 17 19:33 22.02.2022
5205 Clear 13 1008 59 10000 7.91 358 18:27 22.02.2022
5206 Clear 13 1006 59 10000 1.34 21 17:26 22.02.2022
5207 Clear 14 1006 54 10000 2.24 13 16:42 22.02.2022
5208 Clear 14 1005 50 10000 0.89 53 15:59 22.02.2022
5209 Clear 15 1004 49 10000 3.58 355 14:52 22.02.2022
5210 Clear 15 1004 50 10000 0.89 347 13:37 22.02.2022
5211 Clouds 14 1007 52 10000 3.58 338 10:54 22.02.2022
5212 Clouds 14 1003 59 10000 1.79 31 09:22 22.02.2022
5213 Clouds 13 1002 65 10000 0.45 325 07:28 22.02.2022
5214 Clouds 13 1003 66 10000 0.89 313 06:53 22.02.2022
5215 Clouds 13 1003 55 10000 2.24 26 02:48 22.02.2022
5216 Clouds 14 1007 56 10000 7.15 315 23:18 21.02.2022
5217 Clouds 14 1007 60 10000 2.68 303 21:56 21.02.2022
5218 Clouds 14 1006 64 10000 3.13 354 20:38 21.02.2022
5219 Clouds 13 1010 66 10000 9.83 292 18:47 21.02.2022
5220 Clouds 14 1007 61 10000 1.34 7 18:18 21.02.2022
5221 Clouds 15 1008 61 10000 0.89 312 15:49 21.02.2022
5222 Clouds 16 1009 62 10000 0.89 330 14:22 21.02.2022
5223 Clouds 16 1009 66 10000 2.24 335 13:31 21.02.2022
5224 Clouds 16 1010 61 10000 0.89 295 12:41 21.02.2022
5225 Clouds 15 1013 61 10000 5.36 315 12:20 21.02.2022
5226 Clouds 14 1015 66 10000 4.02 315 10:26 21.02.2022
5227 Clear 11 1013 78 10000 3.37 236 06:25 21.02.2022
5228 Clouds 12 1015 81 10000 3.27 239 00:35 21.02.2022
5229 Clouds 13 1015 81 10000 3.29 266 22:32 20.02.2022
5230 Clouds 13 1017 83 10000 1.79 292 21:43 20.02.2022
5231 Clouds 13 1017 83 10000 1.79 270 21:21 20.02.2022
5232 Clouds 14 1014 82 10000 3.23 264 20:43 20.02.2022
5233 Clouds 14 1014 82 10000 2.66 255 19:49 20.02.2022
5234 Clouds 14 1014 81 10000 0.45 9 18:55 20.02.2022
5235 Clouds 15 1013 80 10000 2.99 268 18:34 20.02.2022
5236 Clouds 15 1013 79 10000 3.21 279 17:55 20.02.2022
5237 Clouds 16 1013 78 10000 0.89 330 16:59 20.02.2022
5238 Clouds 17 1012 71 10000 1.34 330 14:55 20.02.2022
5239 Clouds 17 1015 71 10000 0.89 270 13:58 20.02.2022
5240 Clouds 17 1012 70 10000 1.72 292 12:42 20.02.2022
5241 Clouds 17 1012 65 10000 1.38 291 11:30 20.02.2022
5242 Clouds 17 1012 62 10000 1.32 281 10:21 20.02.2022
5243 Clouds 16 1012 62 10000 1.16 254 09:24 20.02.2022
5244 Clouds 14 1010 59 10000 2.38 212 06:28 20.02.2022
5245 Clouds 17 1010 51 10000 3 176 00:32 20.02.2022
5246 Clouds 16 1010 54 10000 3 176 23:32 19.02.2022
5247 Clouds 16 1010 58 10000 2.21 202 22:24 19.02.2022
5248 Clouds 17 1010 62 10000 2.14 203 21:45 19.02.2022
5249 -273 0 0 0 0 0 20:26 19.02.2022
5250 Clouds 15 1010 75 10000 2.47 147 20:25 19.02.2022
5251 Clouds 15 1010 80 10000 2.47 147 19:34 19.02.2022
5252 Clouds 15 1010 80 10000 3.09 151 18:39 19.02.2022
5253 Clouds 15 1010 83 10000 3.41 144 17:54 19.02.2022
5254 Clouds 16 1010 80 10000 3.11 131 16:47 19.02.2022
5255 Clouds 17 1010 76 10000 1.35 120 15:20 19.02.2022
5256 Clouds 17 1010 76 10000 1.35 120 14:53 19.02.2022
5257 Clouds 18 1011 73 10000 1.15 145 13:50 19.02.2022
5258 Clouds 16 1012 76 10000 1.3 130 11:42 19.02.2022
5259 Clouds 15 1013 81 10000 0.75 195 10:45 19.02.2022
5260 Clear 12 1012 90 10000 1.1 193 08:54 19.02.2022
5261 Clear 11 1019 84 10000 2.06 213 06:45 19.02.2022
5262 Clear 12 1012 81 10000 1.54 188 00:23 19.02.2022
5263 Clear 12 1013 78 10000 2.08 159 22:24 18.02.2022
5264 Clear 12 1013 77 10000 2.21 140 21:18 18.02.2022
5265 Clear 13 1013 75 10000 2.28 135 19:56 18.02.2022
5266 Clear 14 1013 71 10000 1.95 149 18:51 18.02.2022
5267 Clear 14 1013 70 10000 1.97 130 18:25 18.02.2022
5268 Clear 15 1013 69 10000 1.97 130 17:56 18.02.2022
5269 Clear 17 1019 60 10000 1.63 89 15:35 18.02.2022
5270 Clear 18 1012 57 10000 2.05 82 13:56 18.02.2022
5271 Clear 17 1012 57 10000 2.11 79 13:28 18.02.2022
5272 Clear 17 1012 60 10000 2.11 78 12:42 18.02.2022
5273 Clear 16 1013 62 10000 1.58 75 11:56 18.02.2022
5274 Clear 15 1013 66 10000 1.67 98 10:42 18.02.2022
5275 Clear 10 1011 85 10000 1.57 132 06:58 18.02.2022
5276 Clear 10 1011 84 10000 1 120 05:42 18.02.2022
5277 Clouds 11 1010 79 10000 1.29 175 23:53 17.02.2022
5278 Clouds 11 1011 77 10000 1.63 191 21:56 17.02.2022
5279 Clouds 12 1010 76 10000 1.54 191 21:27 17.02.2022
5280 Clouds 12 1010 75 10000 1.56 192 20:40 17.02.2022
5281 Clouds 12 1010 74 10000 1.33 224 19:54 17.02.2022
5282 Clouds 13 1010 72 10000 1.49 226 18:57 17.02.2022
5283 Clouds 13 1009 68 10000 0.97 213 17:59 17.02.2022
5284 Clouds 15 1016 63 10000 0.77 295 16:43 17.02.2022
5285 Clouds 15 1017 63 10000 1.45 297 15:44 17.02.2022
5286 Clouds 15 1017 60 10000 2.48 301 14:29 17.02.2022
5287 Clouds 15 1009 59 10000 2.38 302 12:51 17.02.2022
5288 Clouds 15 1010 62 10000 1.34 347 11:30 17.02.2022
5289 Clouds 14 1011 74 10000 1.34 7 09:38 17.02.2022
5290 Clouds 11 1009 79 10000 2.56 251 06:37 17.02.2022
5291 Clouds 10 1010 73 10000 0.45 346 23:21 16.02.2022
5292 Clouds 9 1014 74 10000 3.58 292 22:20 16.02.2022
5293 Clouds 10 1014 75 10000 1.79 315 20:19 16.02.2022
5294 Clouds 10 1013 75 10000 2.68 0 18:50 16.02.2022
5295 Clouds 11 1013 73 10000 3.58 315 17:54 16.02.2022
5296 Clouds 11 1017 68 10000 1.79 315 15:58 16.02.2022
5297 Clouds 12 1016 63 10000 5.38 305 15:20 16.02.2022
5298 Clouds 11 1010 68 10000 0.89 342 13:31 16.02.2022
5299 Clouds 11 1013 75 10000 0.89 0 12:21 16.02.2022
5300 Clouds 11 1011 82 10000 4.69 297 11:35 16.02.2022
5301 Clouds 10 1011 77 10000 4.1 274 10:34 16.02.2022
5302 Rain 10 1011 73 10000 0.89 280 08:58 16.02.2022
5303 Clouds 9 1013 72 10000 4.92 292 06:43 16.02.2022
5304 Clouds 11 1015 76 10000 2.68 315 23:46 15.02.2022
5305 Clouds 12 1015 79 10000 2.68 315 22:34 15.02.2022
5306 Clouds 11 1015 81 10000 2.24 315 21:49 15.02.2022
5307 Clouds 11 1015 80 10000 2.68 315 21:29 15.02.2022
5308 Clouds 11 1015 81 10000 3.13 315 20:56 15.02.2022
5309 Clouds 11 1015 80 10000 2.24 270 20:19 15.02.2022
5310 Clouds 12 1016 79 10000 1.79 315 19:33 15.02.2022
5311 Clouds 12 1015 80 10000 2.68 0 18:24 15.02.2022
5312 Clouds 11 1015 83 10000 6.71 315 17:52 15.02.2022
5313 Clouds 11 1015 85 10000 5.36 315 17:26 15.02.2022
5314 Rain 12 1011 83 10000 1.34 41 15:34 15.02.2022
5315 Clouds 13 1011 73 10000 1.34 345 13:29 15.02.2022
5316 Clouds 14 1011 70 10000 1.34 42 12:59 15.02.2022
5317 Clouds 14 1021 66 10000 3.58 292 11:41 15.02.2022
5318 Clouds 16 1015 57 10000 2.24 225 09:54 15.02.2022
5319 Clouds 13 1011 69 10000 2.41 198 07:00 15.02.2022
5320 Clouds 12 1011 72 10000 2.73 201 06:19 15.02.2022
5321 Clouds 12 1015 74 10000 0.89 315 23:34 14.02.2022
5322 Clouds 12 1015 75 10000 1.79 292 21:55 14.02.2022
5323 Clouds 12 1016 79 10000 0.45 225 20:51 14.02.2022
5324 Clouds 13 1016 80 10000 0.45 270 19:46 14.02.2022
5325 Clouds 13 1016 75 10000 1.96 154 19:26 14.02.2022
5326 Clouds 13 1016 77 10000 0.45 270 18:23 14.02.2022
5327 Clouds 14 1015 76 10000 0.45 10 17:27 14.02.2022
5328 Clouds 15 1015 71 10000 0.89 19 16:27 14.02.2022
5329 Clouds 15 1022 60 10000 1.79 90 14:43 14.02.2022
5330 Clouds 16 1016 59 10000 2.24 90 13:34 14.02.2022
5331 Clouds 16 1017 58 10000 1.34 135 12:58 14.02.2022
5332 Clouds 16 1017 58 10000 0.89 90 12:58 14.02.2022
5333 Clouds 15 1018 59 10000 0.89 90 11:57 14.02.2022
5334 Clouds 15 1018 61 10000 0.89 225 11:38 14.02.2022
5335 Clouds 13 1016 71 10000 1.66 174 09:37 14.02.2022
5336 Clouds 9 1019 80 10000 0.45 270 07:37 14.02.2022
5337 Clouds 9 1019 80 10000 1.79 248 07:19 14.02.2022
5338 Clouds 10 1017 76 10000 1.87 184 22:48 13.02.2022
5339 Clouds 10 1017 76 10000 1.94 179 22:29 13.02.2022
5340 Clouds 11 1017 75 10000 1.94 179 21:48 13.02.2022
5341 Clouds 11 1017 74 10000 1.86 174 21:20 13.02.2022
5342 Clouds 11 1019 77 10000 0.45 270 20:27 13.02.2022
5343 Clouds 12 1019 75 10000 0.77 180 18:58 13.02.2022
5344 Clouds 12 1020 74 10000 0.89 90 18:40 13.02.2022
5345 Clouds 12 1020 71 10000 0.89 90 16:53 13.02.2022
5346 Clouds 15 1017 63 10000 1.61 322 15:51 13.02.2022
5347 Clouds 15 1023 63 10000 1.89 323 14:50 13.02.2022
5348 Clear 15 1017 61 10000 0.45 346 13:27 13.02.2022
5349 Clear 15 1018 60 10000 1.33 325 12:42 13.02.2022
5350 Clear 14 1019 69 10000 0.37 300 10:43 13.02.2022
5351 Clear 13 1022 72 10000 1.34 90 10:23 13.02.2022
5352 Clear 10 1022 81 10000 0.89 90 08:55 13.02.2022
5353 Clouds 9 1020 68 10000 0.89 270 01:26 13.02.2022
5354 Clouds 9 1018 70 10000 1.63 170 00:21 13.02.2022
5355 Clouds 10 1018 76 10000 1.79 152 22:34 12.02.2022
5356 Clouds 10 1018 79 10000 2.18 143 22:00 12.02.2022
5357 Clouds 11 1017 77 10000 2.35 139 20:55 12.02.2022
5358 Clouds 11 1017 77 10000 2.32 133 20:23 12.02.2022
5359 Clouds 11 1020 79 10000 0.89 90 18:54 12.02.2022
5360 Clouds 11 1020 78 10000 0.89 90 18:36 12.02.2022
5361 Clouds 12 1019 76 10000 1.79 90 17:39 12.02.2022
5362 Clouds 13 1019 72 10000 1.34 90 16:46 12.02.2022
5363 Clouds 14 1019 68 10000 1.79 90 15:59 12.02.2022
5364 Clouds 14 1018 66 10000 3.13 135 15:21 12.02.2022
5365 Clouds 15 1018 61 10000 2.68 135 14:29 12.02.2022
5366 Clouds 14 1020 60 10000 1.34 90 11:34 12.02.2022
5367 Clouds 13 1020 66 10000 0.45 90 10:33 12.02.2022
5368 Clouds 12 1019 65 10000 0.89 90 09:38 12.02.2022
5369 Clouds 11 1019 70 10000 0.89 90 08:47 12.02.2022
5370 Clouds 9 1019 76 10000 0.89 248 07:45 12.02.2022
5371 Clouds 9 1015 72 10000 1.79 130 05:31 12.02.2022
5372 Clouds 9 1015 70 10000 1.31 127 02:19 12.02.2022
5373 Clouds 10 1016 65 10000 1.52 148 23:56 11.02.2022
5374 Clouds 10 1018 64 10000 1.79 270 22:23 11.02.2022
5375 Clouds 10 1016 69 10000 1.63 145 21:37 11.02.2022
5376 Clouds 11 1016 72 10000 1.35 142 20:29 11.02.2022
5377 Clouds 11 1019 67 10000 1.79 270 19:29 11.02.2022
5378 Clouds 11 1019 68 10000 0.89 270 18:47 11.02.2022
5379 Clouds 13 1018 67 10000 0.45 90 17:27 11.02.2022
5380 Clouds 14 1018 65 10000 0.93 93 16:56 11.02.2022
5381 Clouds 14 1025 62 10000 0.45 90 15:26 11.02.2022
5382 Clouds 15 1025 59 10000 0.45 90 14:38 11.02.2022
5383 Clouds 15 1025 58 10000 0.89 135 14:20 11.02.2022
5384 Clouds 16 1019 52 10000 0.45 353 13:47 11.02.2022
5385 Clouds 15 1019 51 10000 0.89 3 13:28 11.02.2022
5386 Clear 14 1021 44 10000 0.45 90 11:26 11.02.2022
5387 Clear 12 1021 49 10000 1.34 90 09:39 11.02.2022
5388 Clear 11 1027 53 10000 0.45 90 08:39 11.02.2022
5389 Clear 10 1022 55 10000 1.09 156 08:21 11.02.2022
5390 Clear 9 1027 45 10000 1.79 270 06:31 11.02.2022
5391 Clear 9 1027 43 10000 2.24 270 02:25 11.02.2022
5392 Clear 9 1022 51 10000 1.34 270 00:46 11.02.2022
5393 Clear 10 1020 61 10000 2.34 143 22:45 10.02.2022
5394 Clear 10 1021 67 10000 2.7 139 21:44 10.02.2022
5395 Clear 11 1021 66 10000 2.87 131 20:52 10.02.2022
5396 Clear 11 1021 66 10000 2.96 126 20:24 10.02.2022
5397 Clear 11 1025 65 10000 0.89 315 19:24 10.02.2022
5398 Clear 12 1021 64 10000 2.95 121 18:43 10.02.2022
5399 Clear 13 1024 61 10000 0.89 90 17:26 10.02.2022
5400 Clear 14 1024 52 10000 2.46 92 16:47 10.02.2022
5401 Clear 14 1030 48 10000 0.45 90 15:45 10.02.2022
5402 Clear 15 1030 48 10000 0.89 90 15:25 10.02.2022
5403 Clear 15 1030 43 10000 1.34 90 14:44 10.02.2022
5404 Clear 16 1024 40 10000 1.79 135 14:22 10.02.2022
5405 Clear 15 1025 40 10000 2.24 90 13:20 10.02.2022
5406 Clear 15 1026 39 10000 1.79 135 11:58 10.02.2022
5407 Clear 14 1026 41 10000 1.79 180 11:33 10.02.2022
5408 Clear 14 1027 44 10000 0.45 90 10:35 10.02.2022
5409 Clear 13 1027 45 10000 1.34 90 09:49 10.02.2022
5410 Clear 11 1027 51 10000 1.34 90 08:53 10.02.2022
5411 Clear 8 1027 52 10000 1.34 270 06:42 10.02.2022
5412 Clear 8 1026 52 10000 0.89 270 03:39 10.02.2022
5413 Clear 9 1027 47 10000 0.45 270 01:43 10.02.2022
5414 Clear 10 1024 49 10000 1.08 124 00:42 10.02.2022
5415 Clear 10 1024 48 10000 1.1 128 00:24 10.02.2022
5416 Clear 10 1025 51 10000 1.07 124 22:58 09.02.2022
5417 Clear 10 1027 50 10000 0.89 270 22:33 09.02.2022
5418 Clear 10 1027 49 10000 0.45 90 21:49 09.02.2022
5419 Clear 11 1025 53 10000 1.22 137 21:28 09.02.2022
5420 Clear 11 1025 58 10000 1.22 137 20:45 09.02.2022
5421 Clear 11 1025 64 10000 1.17 124 20:23 09.02.2022
5422 Clear 12 1025 64 10000 1.16 124 19:43 09.02.2022
5423 Clear 12 1025 62 10000 1.11 99 18:58 09.02.2022
5424 Clear 12 1028 54 10000 1.41 75 17:32 09.02.2022
5425 Clear 14 1034 46 10000 0.89 90 16:26 09.02.2022
5426 Clear 14 1034 50 10000 1.79 90 15:32 09.02.2022
5427 Clear 15 1029 59 10000 1.79 315 13:57 09.02.2022
5428 Clear 14 1029 52 10000 1.79 135 12:25 09.02.2022
5429 Clear 13 1027 57 10000 0.46 20 10:37 09.02.2022
5430 Clear 12 1030 58 10000 1.79 135 09:57 09.02.2022
5431 Clear 11 1030 61 10000 2.24 90 09:23 09.02.2022
5432 Clear 10 1030 64 10000 1.79 90 08:51 09.02.2022
5433 Clear 9 1027 64 10000 0.69 117 07:28 09.02.2022
5434 Clear 9 1026 59 10000 1.23 69 05:29 09.02.2022
5435 Clear 10 1026 57 10000 2.1 60 03:49 09.02.2022
5436 Clear 11 1025 49 10000 0.45 317 00:21 09.02.2022
5437 Clear 11 1026 46 10000 5.2 34 23:29 08.02.2022
5438 Clear 11 1025 45 10000 0.89 341 22:43 08.02.2022
5439 Clear 11 1025 45 10000 5.77 38 22:20 08.02.2022
5440 Clear 11 1025 45 10000 5.77 38 21:38 08.02.2022
5441 Clear 11 1025 45 10000 1.79 28 21:19 08.02.2022
5442 Clear 11 1024 46 10000 1.34 2 20:41 08.02.2022
5443 Clear 11 1025 45 10000 6.68 41 19:41 08.02.2022
5444 Clear 11 1024 43 10000 5.32 43 18:24 08.02.2022
5445 Clear 12 1023 43 10000 5.32 43 17:33 08.02.2022
5446 Clear 13 1030 40 10000 6.92 38 15:52 08.02.2022
5447 Clear 13 1030 38 10000 7.92 39 15:28 08.02.2022
5448 Clear 13 1025 36 10000 4.02 45 13:54 08.02.2022
5449 Clear 13 1022 32 10000 1.34 26 12:39 08.02.2022
5450 Clear 13 1022 32 10000 2.24 16 11:20 08.02.2022
5451 Clear 12 1022 40 10000 0.89 359 09:51 08.02.2022
5452 Clear 12 1021 40 10000 0.89 26 08:54 08.02.2022
5453 Clouds 11 1020 41 10000 1.34 2 07:27 08.02.2022
5454 Clouds 11 1017 48 10000 0.45 10 04:40 08.02.2022
5455 Clouds 11 1017 47 10000 1.34 31 04:22 08.02.2022
5456 Clouds 12 1017 49 10000 0.89 32 03:36 08.02.2022
5457 Clouds 12 1016 50 10000 0.45 26 03:18 08.02.2022
5458 Clouds 12 1016 54 10000 8.01 41 02:59 08.02.2022
5459 Clouds 12 1016 56 10000 0.45 18 02:37 08.02.2022
5460 Clouds 12 1015 56 10000 0.45 7 02:18 08.02.2022
5461 Clouds 12 1015 61 10000 8.52 37 01:45 08.02.2022
5462 Clouds 12 1015 61 10000 0.89 12 01:25 08.02.2022
5463 Clouds 12 1015 70 10000 0.45 358 00:55 08.02.2022
5464 Clouds 12 1016 79 10000 1.79 45 00:36 08.02.2022
5465 Clouds 13 1013 81 10000 0.89 347 23:45 07.02.2022
5466 Clouds 13 1013 82 10000 0.45 2 23:18 07.02.2022
5467 Clouds 13 1013 79 10000 0.45 84 22:59 07.02.2022
5468 Clouds 14 1012 76 10000 1.34 323 22:19 07.02.2022
5469 Clouds 14 1012 75 10000 5.71 323 21:51 07.02.2022
5470 Clouds 14 1012 74 10000 7.82 302 21:28 07.02.2022
5471 Clouds 13 1011 75 10000 1.34 292 20:52 07.02.2022
5472 Clouds 13 1011 76 10000 1.34 290 20:34 07.02.2022
5473 Clouds 13 1011 76 10000 1.79 248 19:47 07.02.2022
5474 Clouds 13 1011 76 10000 1.79 248 19:47 07.02.2022
5475 Clouds 13 1011 76 10000 0.89 342 19:20 07.02.2022
5476 Clouds 13 1010 75 10000 0.45 336 17:39 07.02.2022
5477 Clouds 13 1010 75 10000 2.24 205 16:52 07.02.2022
5478 Clouds 14 1010 70 10000 1.79 43 15:49 07.02.2022
5479 Clouds 14 1010 67 10000 1.34 309 14:41 07.02.2022
5480 Clouds 15 1010 62 10000 1.79 340 13:27 07.02.2022
5481 Clouds 15 1011 60 10000 1.79 5 12:37 07.02.2022
5482 Clouds 15 1011 61 10000 0.45 282 11:55 07.02.2022
5483 Clouds 14 1012 62 10000 2.68 300 11:26 07.02.2022
5484 Clouds 14 1012 62 10000 0.45 175 10:45 07.02.2022
5485 Clouds 14 1012 62 10000 0.45 260 10:26 07.02.2022
5486 Clouds 13 1012 63 10000 0.45 82 09:52 07.02.2022
5487 Clouds 13 1012 64 10000 0.89 35 09:18 07.02.2022
5488 Clouds 12 1011 69 10000 0.89 337 07:59 07.02.2022
5489 Clouds 11 1012 73 10000 5.55 228 06:35 07.02.2022
5490 Clouds 12 1012 72 10000 4.69 220 05:26 07.02.2022
5491 Clouds 12 1014 76 10000 5.25 229 02:56 07.02.2022
5492 Clouds 12 1015 77 10000 4.5 214 00:33 07.02.2022
5493 Clouds 12 1016 78 10000 4.1 216 23:40 06.02.2022
5494 Clouds 13 1016 79 10000 3.91 217 22:46 06.02.2022
5495 Clouds 12 1017 79 10000 3.86 221 21:51 06.02.2022
5496 Clouds 12 1016 80 10000 3.96 227 21:26 06.02.2022
5497 Clouds 12 1016 81 10000 3.96 227 20:52 06.02.2022
5498 Clouds 12 1016 82 10000 3.68 242 20:24 06.02.2022
5499 Clouds 13 1016 81 10000 3.76 242 19:30 06.02.2022
5500 Clouds 13 1019 81 10000 1.79 225 18:38 06.02.2022
5501 Clouds 13 1018 80 10000 0.45 90 17:54 06.02.2022
5502 Clouds 14 1016 75 10000 2.92 271 16:53 06.02.2022
5503 Clouds 15 1015 73 10000 2.15 272 16:32 06.02.2022
5504 Clouds 15 1015 71 10000 2.16 272 15:47 06.02.2022
5505 Clouds 15 1016 71 10000 0.45 353 15:26 06.02.2022
5506 Clouds 15 1015 68 10000 0.45 1 14:27 06.02.2022
5507 Clouds 15 1016 68 10000 0.45 2 13:24 06.02.2022
5508 Clouds 16 1016 68 10000 0.52 314 12:49 06.02.2022
5509 Clouds 15 1017 68 10000 0.5 164 11:23 06.02.2022
5510 Clouds 14 1017 75 10000 1.03 168 09:56 06.02.2022
5511 Clouds 12 1017 83 10000 1.69 157 08:49 06.02.2022
5512 Clouds 10 1016 85 10000 2.1 156 07:36 06.02.2022
5513 Clouds 10 1015 82 10000 1.8 147 05:30 06.02.2022
5514 Clouds 11 1016 80 10000 0.77 218 02:26 06.02.2022
5515 Clouds 11 1016 81 10000 0.77 218 01:47 06.02.2022
5516 Clouds 12 1016 82 10000 1.45 228 00:26 06.02.2022
5517 Clouds 12 1015 83 10000 1.63 249 22:20 05.02.2022
5518 Clouds 12 1015 82 10000 1.62 251 20:59 05.02.2022
5519 Clouds 13 1015 82 10000 1.82 254 20:24 05.02.2022
5520 Clouds 13 1014 81 10000 1.81 254 19:45 05.02.2022
5521 Clouds 14 1014 79 10000 2.13 263 18:52 05.02.2022
5522 Clouds 14 1013 75 10000 2.41 274 17:38 05.02.2022
5523 Clouds 15 1012 74 10000 0.45 313 16:48 05.02.2022
5524 Clouds 16 1018 69 10000 3.4 280 15:34 05.02.2022
5525 Clouds 16 1018 64 10000 3.56 279 14:53 05.02.2022
5526 Clouds 17 1011 56 10000 3.64 271 12:47 05.02.2022
5527 Clouds 17 1012 54 10000 3 253 11:49 05.02.2022
5528 Clouds 16 1012 59 10000 0.45 356 10:47 05.02.2022
5529 Clouds 16 1012 59 10000 3.06 230 09:53 05.02.2022
5530 Clouds 16 1012 61 10000 3.06 230 09:30 05.02.2022
5531 Clouds 13 1011 65 10000 3.5 219 07:38 05.02.2022
5532 Clouds 13 1011 64 10000 3.36 214 06:56 05.02.2022
5533 Clear 14 1011 51 10000 3.49 209 04:28 05.02.2022
5534 Clear 15 1010 47 10000 3.09 202 01:19 05.02.2022
5535 Clear 15 1011 47 10000 3.06 204 00:51 05.02.2022
5536 Clear 15 1010 45 10000 3.07 200 23:39 04.02.2022
5537 Clear 16 1010 44 10000 2.96 198 23:21 04.02.2022
5538 Clear 16 1010 43 10000 3.09 195 21:54 04.02.2022
5539 Clear 15 1010 45 10000 3.04 198 21:36 04.02.2022
5540 Clear 15 1011 47 10000 3.07 197 21:18 04.02.2022
5541 Clear 13 1011 62 10000 3.05 200 19:36 04.02.2022
5542 Clouds 17 1011 49 10000 2.26 176 17:28 04.02.2022
5543 Clouds 18 1019 43 10000 2.1 182 15:39 04.02.2022
5544 Clouds 18 1019 40 10000 2.35 192 14:52 04.02.2022
5545 Clouds 19 1012 34 10000 1.34 10 13:24 04.02.2022
5546 Clouds 18 1012 35 10000 0.89 2 12:43 04.02.2022
5547 Clouds 18 1013 36 10000 0.45 4 11:41 04.02.2022
5548 Clouds 17 1014 38 10000 0.89 359 10:34 04.02.2022
5549 Clouds 13 1015 37 10000 0.89 9 08:34 04.02.2022
5550 Clouds 12 1023 36 10000 3.27 204 06:18 04.02.2022
5551 Clouds 11 1023 31 10000 2.33 181 02:42 04.02.2022
5552 Clear 11 1024 32 10000 2.47 184 01:22 04.02.2022
5553 Clear 10 1018 55 10000 2.73 166 23:29 03.02.2022
5554 Clear 10 1018 59 10000 2.73 166 22:33 03.02.2022
5555 Clear 10 1018 62 10000 2.89 165 21:49 03.02.2022
5556 Clear 11 1018 62 10000 2.85 158 20:38 03.02.2022
5557 Clear 11 1018 62 10000 2.62 158 20:18 03.02.2022
5558 Clear 11 1018 62 10000 2.62 158 19:30 03.02.2022
5559 Clear 12 1018 60 10000 3.03 153 18:34 03.02.2022
5560 Clear 13 1018 56 10000 2.34 129 17:32 03.02.2022
5561 Clear 15 1017 48 10000 2.22 111 16:25 03.02.2022
5562 Clear 15 1024 50 10000 2.1 88 14:37 03.02.2022
5563 Clear 15 1018 50 10000 2.82 70 12:51 03.02.2022
5564 Clear 14 1018 59 10000 0.45 13 10:58 03.02.2022
5565 Clear 11 1015 90 10000 4.56 86 08:36 03.02.2022
5566 Clouds 10 1011 87 10000 1.99 17 04:27 03.02.2022
5567 Clear 11 1010 75 10000 2.39 314 00:31 03.02.2022
5568 Clear 11 1010 71 10000 2.07 314 23:36 02.02.2022
5569 Clear 11 1008 63 10000 0.92 348 21:54 02.02.2022
5570 Clear 11 1008 63 10000 0.92 348 21:30 02.02.2022
5571 Clear 11 1008 58 10000 1.28 342 20:40 02.02.2022
5572 Clear 11 1010 60 10000 4.47 315 19:58 02.02.2022
5573 Clear 11 1007 63 10000 1.8 355 19:27 02.02.2022
5574 Clear 11 1010 64 10000 4.02 292 18:39 02.02.2022
5575 Clear 12 1006 59 10000 0.45 3 17:44 02.02.2022
5576 Clear 13 1006 61 10000 1.89 345 17:19 02.02.2022
5577 Clear 14 1006 57 10000 1.89 345 16:31 02.02.2022
5578 Clear 14 1006 56 10000 1.34 349 12:57 02.02.2022
5579 Clear 14 1005 53 10000 0.89 265 12:20 02.02.2022
5580 Clear 14 1006 52 10000 0.89 10 11:32 02.02.2022
5581 Clear 13 1006 62 10000 4.89 320 09:47 02.02.2022
5582 Clear 12 1006 59 10000 0.89 340 07:33 02.02.2022
5583 Clouds 11 1006 55 10000 0.45 339 22:51 01.02.2022
5584 Clouds 11 1005 55 10000 1.34 10 21:50 01.02.2022
5585 Clouds 12 1003 50 10000 2.24 19 19:58 01.02.2022
5586 Clouds 12 1002 51 10000 1.34 4 17:43 01.02.2022
5587 Clouds 12 1001 54 10000 0.45 355 16:39 01.02.2022
5588 Clouds 12 1001 54 10000 0.45 355 16:39 01.02.2022
5589 Clouds 11 999 68 10000 0.89 7 14:24 01.02.2022
5590 Clouds 11 998 74 10000 8.78 352 12:43 01.02.2022
5591 Rain 11 999 69 9093 0.89 17 11:30 01.02.2022
5592 Rain 10 997 88 10000 1.34 352 04:53 01.02.2022
5593 Clouds 12 997 71 10000 2.24 38 23:41 31.01.2022
5594 Clouds 13 998 68 10000 3.13 9 22:57 31.01.2022
5595 Clouds 13 999 66 10000 2.24 3 21:40 31.01.2022
5596 Clouds 13 998 65 10000 2.24 338 21:19 31.01.2022
5597 Clouds 13 998 66 10000 1.34 269 20:29 31.01.2022
5598 Clouds 13 998 67 10000 3.58 193 19:29 31.01.2022
5599 Clouds 14 1000 66 10000 2.68 354 18:26 31.01.2022
5600 Clouds 14 1001 63 10000 2.24 33 17:33 31.01.2022
5601 Clouds 15 1001 61 10000 1.34 317 16:29 31.01.2022
5602 Clouds 15 1011 60 10000 7.38 246 15:41 31.01.2022
5603 Clouds 15 1004 60 10000 8.16 251 14:22 31.01.2022
5604 Clouds 15 1007 64 10000 0.89 283 12:39 31.01.2022
5605 Clouds 15 1008 66 10000 0.45 251 11:55 31.01.2022
5606 Clouds 13 1010 77 10000 7.2 249 10:50 31.01.2022
5607 Clouds 13 1010 77 10000 7.2 249 10:30 31.01.2022
5608 Clouds 12 1010 79 10000 4.36 220 09:26 31.01.2022
5609 Clouds 12 1011 77 10000 4.36 220 08:50 31.01.2022
5610 Clouds 12 1011 77 10000 3.87 218 08:20 31.01.2022
5611 Clouds 12 1011 74 10000 4.03 243 06:18 31.01.2022
5612 Clouds 12 1015 75 10000 4.02 270 02:18 31.01.2022
5613 Clouds 11 1016 74 10000 1.79 292 23:18 30.01.2022
5614 Clouds 12 1016 72 10000 0.45 356 22:29 30.01.2022
5615 Clouds 12 1014 71 10000 3.67 212 21:42 30.01.2022
5616 Clouds 12 1017 72 10000 0.89 225 21:19 30.01.2022
5617 Clouds 12 1018 71 10000 0.45 239 20:49 30.01.2022
5618 Clouds 12 1018 71 10000 4.92 315 20:29 30.01.2022
5619 Clouds 12 1018 72 10000 0.45 261 19:52 30.01.2022
5620 Clear 12 1018 69 10000 3.58 315 18:44 30.01.2022
5621 Clear 13 1015 65 10000 3.87 242 18:20 30.01.2022
5622 Clear 13 1015 63 10000 3.52 252 17:27 30.01.2022
5623 Clear 14 1015 59 10000 3.52 252 16:40 30.01.2022
5624 Clear 15 1015 58 10000 3.08 264 16:22 30.01.2022
5625 Clear 14 1024 62 10000 3.58 270 15:51 30.01.2022
5626 Clear 13 1024 61 10000 2.68 315 15:32 30.01.2022
5627 Clear 14 1024 59 10000 4.92 292 14:46 30.01.2022
5628 Clear 15 1020 42 10000 0.45 217 12:54 30.01.2022
5629 Clear 15 1020 43 10000 3.13 315 12:33 30.01.2022
5630 Clear 13 1019 57 10000 0.45 97 10:36 30.01.2022
5631 Clear 12 1019 60 10000 3.21 290 09:56 30.01.2022
5632 Clear 11 1019 65 10000 2.67 295 08:58 30.01.2022
5633 Clear 9 1022 67 10000 3.58 248 07:56 30.01.2022
5634 Clear 9 1022 63 10000 3.58 0 02:42 30.01.2022
5635 Clear 10 1020 63 10000 3.7 7 01:39 30.01.2022
5636 Clear 11 1021 59 10000 4.1 354 23:21 29.01.2022
5637 Clear 11 1020 56 10000 0.45 329 22:34 29.01.2022
5638 Clear 11 1021 48 10000 0.45 16 21:27 29.01.2022
5639 Clear 11 1021 47 10000 4.81 354 20:38 29.01.2022
5640 Clear 11 1021 46 10000 0.89 2 19:36 29.01.2022
5641 Clouds 11 1021 45 10000 1.34 7 19:00 29.01.2022
5642 Clouds 11 1021 42 10000 2.24 4 18:30 29.01.2022
5643 Clear 11 1020 39 10000 1.34 20 17:41 29.01.2022
5644 Clouds 11 1020 40 10000 0.89 9 16:42 29.01.2022
5645 Clouds 13 1020 41 10000 1.79 17 14:33 29.01.2022
5646 Clouds 12 1021 42 10000 2.24 3 13:45 29.01.2022
5647 Clouds 13 1021 44 10000 1.34 25 13:25 29.01.2022
5648 Clouds 12 1024 46 10000 2.68 18 13:25 29.01.2022
5649 Clouds 12 1021 45 10000 8.69 42 12:36 29.01.2022
5650 Clouds 12 1021 45 10000 1.34 15 11:38 29.01.2022
5651 Clouds 12 1021 47 10000 0.89 3 10:21 29.01.2022
5652 Clouds 10 1019 77 10000 0.89 351 06:57 29.01.2022
5653 Clouds 12 1016 69 10000 4.02 336 01:35 29.01.2022
5654 Clouds 12 1017 70 10000 3.24 323 00:31 29.01.2022
5655 Clouds 12 1017 70 10000 2.4 287 22:53 28.01.2022
5656 Clouds 12 1017 69 10000 2.5 266 22:29 28.01.2022
5657 Clouds 12 1017 68 10000 2.5 266 21:53 28.01.2022
5658 Clouds 12 1018 67 10000 2.81 255 20:40 28.01.2022
5659 Clouds 12 1017 66 10000 3.19 243 19:51 28.01.2022
5660 Clouds 12 1018 67 10000 3.52 250 18:49 28.01.2022
5661 Clouds 12 1018 66 10000 3.01 252 17:45 28.01.2022
5662 Clouds 13 1019 67 10000 2.85 277 15:45 28.01.2022
5663 Clouds 14 1018 57 10000 3.34 281 14:20 28.01.2022
5664 Clouds 13 1020 62 10000 1.34 307 12:35 28.01.2022
5665 Clouds 13 1024 63 10000 3.58 315 11:38 28.01.2022
5666 Clouds 12 1021 72 10000 2.32 249 10:22 28.01.2022
5667 Clouds 12 1021 72 10000 2.32 249 10:22 28.01.2022
5668 Clouds 11 1021 78 10000 2.32 249 09:45 28.01.2022
5669 Clouds 7 1024 84 10000 2.68 315 07:40 28.01.2022
5670 Clouds 7 1024 83 10000 1.34 270 05:24 28.01.2022
5671 Clouds 8 1024 83 10000 1.34 270 03:47 28.01.2022
5672 Clouds 8 1024 83 10000 1.79 315 02:23 28.01.2022
5673 Clouds 8 1024 83 10000 0.89 315 01:35 28.01.2022
5674 Clouds 9 1024 81 10000 1.79 270 23:47 27.01.2022
5675 Clouds 10 1024 80 10000 1.79 315 21:54 27.01.2022
5676 Clouds 10 1024 81 10000 1.79 315 21:32 27.01.2022
5677 Clouds 10 1024 80 10000 3.13 315 20:55 27.01.2022
5678 Clouds 10 1024 80 10000 0.89 315 19:35 27.01.2022
5679 Clouds 12 1021 75 10000 1.5 272 17:56 27.01.2022
5680 Clouds 13 1021 74 10000 1.34 319 15:31 27.01.2022
5681 Clouds 12 1022 74 10000 2.13 290 13:39 27.01.2022
5682 Clouds 12 1022 73 10000 2.42 287 12:46 27.01.2022
5683 Clouds 12 1023 67 10000 1.81 282 10:57 27.01.2022
5684 Clouds 10 1025 75 10000 0.89 315 09:20 27.01.2022
5685 Clouds 9 1025 78 10000 1.79 270 08:38 27.01.2022
5686 Clouds 8 1025 80 10000 1.79 270 07:22 27.01.2022
5687 Clear 7 1022 80 10000 0.88 238 02:59 27.01.2022
5688 Clear 8 1025 78 10000 2.24 315 23:45 26.01.2022
5689 Clear 8 1025 77 10000 0.89 315 22:26 26.01.2022
5690 Clear 8 1026 76 10000 2.24 315 21:37 26.01.2022
5691 Clouds 8 1026 74 10000 3.13 292 20:41 26.01.2022
5692 Clouds 8 1026 74 10000 1.79 292 20:23 26.01.2022
5693 Clear 9 1026 72 10000 0.89 315 19:27 26.01.2022
5694 Clear 9 1026 73 10000 1.79 315 18:46 26.01.2022
5695 Clear 9 1025 70 10000 0.89 270 17:51 26.01.2022
5696 Clear 11 1023 67 10000 1.15 326 17:24 26.01.2022
5697 Clear 11 1022 62 10000 1.16 326 16:35 26.01.2022
5698 Clear 12 1029 59 10000 1.61 328 15:49 26.01.2022
5699 Clear 13 1023 58 10000 0.45 356 14:21 26.01.2022
5700 Clear 12 1024 59 10000 0.89 26 11:54 26.01.2022
5701 Clear 11 1024 63 10000 0.45 7 10:43 26.01.2022
5702 Clear 10 1024 68 10000 1.12 311 09:48 26.01.2022
5703 Clear 7 1027 72 10000 1.79 315 08:27 26.01.2022
5704 Clear 6 1027 71 10000 1.34 315 05:42 26.01.2022
5705 Clear 5 1027 64 10000 1.79 270 23:59 25.01.2022
5706 Clear 6 1027 64 10000 0.89 315 23:20 25.01.2022
5707 Clear 6 1028 62 10000 1.34 292 22:26 25.01.2022
5708 Clear 6 1028 61 10000 0.89 315 21:59 25.01.2022
5709 Clear 6 1028 59 10000 0.89 292 21:22 25.01.2022
5710 Clear 5 1028 61 10000 0.89 270 20:44 25.01.2022
5711 Clear 6 1028 56 10000 0.89 292 19:53 25.01.2022
5712 Clear 6 1028 56 10000 0.89 292 19:53 25.01.2022
5713 Clear 6 1025 55 10000 0.28 75 18:43 25.01.2022
5714 Clear 7 1024 51 10000 0.83 67 17:45 25.01.2022
5715 Clear 8 1027 45 10000 1.43 55 16:47 25.01.2022
5716 Clear 9 1024 41 10000 1.76 54 16:21 25.01.2022
5717 Clear 10 1031 46 10000 1.76 54 15:38 25.01.2022
5718 Clear 10 1031 44 10000 2.15 58 14:58 25.01.2022
5719 Clear 10 1023 44 10000 2.58 54 13:47 25.01.2022
5720 Clear 10 1025 47 10000 4.35 60 10:59 25.01.2022
5721 Clear 8 1024 56 10000 4.29 54 09:20 25.01.2022
5722 Clear 6 1023 56 10000 3.97 50 07:30 25.01.2022
5723 Clouds 6 1023 55 10000 3.8 50 06:51 25.01.2022
5724 Clouds 6 1025 55 10000 2.24 90 05:22 25.01.2022
5725 Clouds 9 1022 59 10000 7.19 66 23:37 24.01.2022
5726 Clouds 9 1025 59 10000 0.45 350 23:19 24.01.2022
5727 Clouds 9 1025 55 10000 3.58 45 23:00 24.01.2022
5728 Clouds 10 1021 52 10000 0.89 5 22:41 24.01.2022
5729 Clouds 10 1021 52 10000 7.21 59 21:57 24.01.2022
5730 Clouds 10 1021 56 10000 1.34 349 21:32 24.01.2022
5731 Clouds 10 1021 58 10000 0.45 356 20:33 24.01.2022
5732 Clouds 10 1021 62 10000 0.45 339 19:57 24.01.2022
5733 Clouds 10 1021 63 10000 5.53 38 19:35 24.01.2022
5734 Clouds 9 1023 63 10000 1.79 90 18:35 24.01.2022
5735 Clouds 10 1020 62 10000 0.45 325 17:24 24.01.2022
5736 Clouds 11 1020 62 10000 5.24 43 16:55 24.01.2022
5737 Clouds 10 1022 63 10000 1.79 90 16:29 24.01.2022
5738 Clouds 11 1019 80 10000 4.89 40 14:49 24.01.2022
5739 Clouds 10 1019 82 10000 3.82 37 13:38 24.01.2022
5740 Clouds 10 1023 76 10000 2.24 135 12:32 24.01.2022
5741 Clouds 11 1023 71 10000 3.13 0 11:21 24.01.2022
5742 Clouds 11 1023 70 10000 3.58 270 09:49 24.01.2022
5743 Clouds 11 1023 71 10000 1.79 315 09:25 24.01.2022
5744 Clear 9 1023 73 10000 0.45 344 07:28 24.01.2022
5745 Clear 7 1024 70 10000 2.24 315 01:34 24.01.2022
5746 Clouds 7 1024 69 10000 0.89 315 00:47 24.01.2022
5747 Clouds 7 1024 70 10000 2.24 315 00:28 24.01.2022
5748 Clouds 8 1022 64 10000 1.4 73 22:46 23.01.2022
5749 Clouds 8 1025 64 10000 0.45 90 21:51 23.01.2022
5750 Clouds 8 1025 63 10000 1.34 90 21:27 23.01.2022
5751 Clouds 8 1025 62 10000 0.89 90 20:54 23.01.2022
5752 Clouds 9 1025 59 10000 0.45 90 19:55 23.01.2022
5753 Clear 9 1025 57 10000 2.24 45 18:52 23.01.2022
5754 Clear 9 1025 52 10000 0.89 90 17:54 23.01.2022
5755 Clear 11 1022 45 10000 4.05 50 16:54 23.01.2022
5756 Clear 12 1028 44 10000 4.45 44 15:45 23.01.2022
5757 Clear 13 1022 43 10000 0.45 3 14:34 23.01.2022
5758 Clear 13 1022 49 10000 1.34 17 13:43 23.01.2022
5759 Clouds 13 1022 55 10000 0.89 357 12:40 23.01.2022
5760 Clouds 13 1023 58 10000 0.45 338 12:18 23.01.2022
5761 Clear 12 1026 72 10000 0.45 330 11:25 23.01.2022
5762 Clear 11 1026 73 10000 1.34 315 10:57 23.01.2022
5763 Clear 11 1023 77 10000 0.89 352 10:24 23.01.2022
5764 Clear 9 1023 78 10000 0.83 13 09:25 23.01.2022
5765 Clear 6 1022 77 10000 1.14 105 06:18 23.01.2022
5766 Clear 7 1021 74 10000 1.38 95 03:20 23.01.2022
5767 Clear 7 1021 71 10000 1.62 89 01:36 23.01.2022
5768 Clear 7 1021 70 10000 2.3 82 00:46 23.01.2022
5769 Clear 7 1021 69 10000 2.67 71 23:58 22.01.2022
5770 Clear 8 1021 69 10000 2.91 64 22:48 22.01.2022
5771 Clear 8 1021 68 10000 2.67 55 22:19 22.01.2022
5772 Clear 8 1021 63 10000 2.6 50 20:33 22.01.2022
5773 Clear 9 1020 59 10000 2.75 46 19:41 22.01.2022
5774 Clear 9 1020 58 10000 2.72 47 18:37 22.01.2022
5775 Clear 10 1019 55 10000 2.55 45 17:46 22.01.2022
5776 Clear 10 1019 55 10000 2.54 41 17:24 22.01.2022
5777 Clear 11 1018 56 10000 2.54 41 16:54 22.01.2022
5778 Clear 12 1025 61 10000 2.56 43 15:45 22.01.2022
5779 Clear 12 1025 60 10000 2.15 55 14:52 22.01.2022
5780 Clear 12 1018 65 10000 3.29 52 13:30 22.01.2022
5781 Clouds 12 1018 70 10000 0.45 8 12:40 22.01.2022
5782 Clouds 12 1018 70 10000 4.04 45 12:20 22.01.2022
5783 Clouds 12 1018 81 10000 3.42 56 10:54 22.01.2022
5784 Clouds 11 1018 87 10000 3.34 62 10:25 22.01.2022
5785 Clouds 10 1017 93 10000 3.76 56 08:59 22.01.2022
5786 Clouds 10 1017 93 10000 3.76 56 08:39 22.01.2022
5787 Clouds 9 1018 91 10000 0.89 270 06:46 22.01.2022
5788 Clouds 9 1017 85 10000 5.81 315 02:40 22.01.2022
5789 Clouds 10 1015 84 10000 4.34 297 23:52 21.01.2022
5790 Clouds 10 1015 84 10000 0.45 323 23:21 21.01.2022
5791 Clouds 11 1014 76 10000 3.16 270 21:45 21.01.2022
5792 Clouds 11 1013 65 10000 4.57 248 19:48 21.01.2022
5793 Clouds 12 1013 59 10000 4.85 254 17:53 21.01.2022
5794 Clouds 12 1013 63 10000 5.74 278 16:37 21.01.2022
5795 Clouds 13 1012 61 10000 6.54 268 15:23 21.01.2022
5796 Clouds 13 1013 63 10000 5.46 279 12:51 21.01.2022
5797 Clouds 13 1014 64 10000 5.85 268 11:29 21.01.2022
5798 Clouds 13 1014 67 10000 0.89 341 10:51 21.01.2022
5799 Clouds 11 1014 77 10000 5.55 259 09:24 21.01.2022
5800 Clouds 11 1014 76 10000 5.28 256 08:20 21.01.2022
5801 Clouds 12 1013 67 10000 5.01 245 04:36 21.01.2022
5802 Clouds 11 1018 69 10000 2.68 292 22:52 20.01.2022
5803 Clouds 11 1018 70 10000 0.89 270 21:49 20.01.2022
5804 Clouds 11 1018 69 10000 1.34 270 21:27 20.01.2022
5805 Clouds 12 1018 68 10000 0.89 45 19:55 20.01.2022
5806 Clouds 12 1018 66 10000 0.89 270 19:19 20.01.2022
5807 Clouds 13 1016 58 10000 3.7 233 17:38 20.01.2022
5808 Clouds 14 1016 55 10000 0.89 324 16:35 20.01.2022
5809 Clouds 15 1016 54 10000 3.55 241 15:40 20.01.2022
5810 Clouds 15 1016 55 10000 3.65 242 14:40 20.01.2022
5811 Clouds 15 1017 59 10000 3.31 233 13:18 20.01.2022
5812 Clouds 15 1017 58 10000 1.34 237 12:30 20.01.2022
5813 Clouds 14 1019 60 10000 0.89 223 11:20 20.01.2022
5814 Clouds 13 1022 63 10000 5.36 270 10:19 20.01.2022
5815 Clouds 11 1022 73 10000 3.58 315 09:19 20.01.2022
5816 Clouds 9 1022 75 10000 1.79 270 07:24 20.01.2022
5817 Clouds 10 1023 75 10000 4.02 292 00:41 20.01.2022
5818 Clouds 10 1024 79 10000 0.98 207 22:50 19.01.2022
5819 Clouds 11 1022 78 10000 0.93 190 21:44 19.01.2022
5820 Clouds 11 1024 79 10000 0.45 270 21:22 19.01.2022
5821 Clouds 12 1022 78 10000 0.96 175 20:45 19.01.2022
5822 Clouds 12 1023 77 10000 0.95 134 19:26 19.01.2022
5823 Clouds 12 1023 74 10000 0.67 72 17:51 19.01.2022
5824 Clouds 13 1022 74 10000 0.67 72 17:32 19.01.2022
5825 Clouds 14 1022 67 10000 1.32 4 15:44 19.01.2022
5826 Clouds 15 1023 61 10000 0.84 344 13:38 19.01.2022
5827 Clear 14 1027 62 10000 0.89 225 12:24 19.01.2022
5828 Clear 14 1028 64 10000 1.34 180 11:38 19.01.2022
5829 Clear 13 1025 73 10000 0.93 124 10:20 19.01.2022
5830 Clear 12 1028 82 10000 0.89 90 09:33 19.01.2022
5831 Clear 9 1028 87 10000 0.45 270 06:34 19.01.2022
5832 Clear 10 1028 82 10000 0.45 270 01:55 19.01.2022
5833 Clouds 11 1028 81 10000 1.79 315 23:19 18.01.2022
5834 Clouds 10 1028 81 10000 0.45 315 21:56 18.01.2022
5835 Clouds 11 1025 78 10000 1.17 359 20:55 18.01.2022
5836 Clouds 11 1025 76 10000 1.51 358 19:54 18.01.2022
5837 Clouds 12 1025 75 10000 0.7 336 19:35 18.01.2022
5838 Clouds 12 1025 74 10000 0.91 350 18:36 18.01.2022
5839 Clouds 12 1024 73 10000 1.73 358 17:51 18.01.2022
5840 Clouds 13 1023 71 10000 2.19 351 16:35 18.01.2022
5841 Clouds 14 1023 67 10000 2.54 347 15:39 18.01.2022
5842 Clouds 14 1023 66 10000 1.34 3 15:19 18.01.2022
5843 Clouds 14 1024 62 10000 2.11 332 11:53 18.01.2022
5844 Clouds 14 1024 64 10000 2.1 330 10:43 18.01.2022
5845 Clouds 11 1023 73 10000 1.56 300 08:49 18.01.2022
5846 Clouds 10 1025 74 10000 1.34 315 07:46 18.01.2022
5847 Clouds 12 1021 70 10000 2.5 312 02:31 18.01.2022
5848 Clouds 12 1021 72 10000 2.96 325 23:22 17.01.2022
5849 Clouds 12 1023 76 10000 0.45 335 22:23 17.01.2022
5850 Clouds 11 1023 75 10000 2.68 270 21:33 17.01.2022
5851 Clouds 12 1020 75 10000 3.07 303 19:56 17.01.2022
5852 Clear 12 1020 74 10000 3.06 322 18:29 17.01.2022
5853 Clear 12 1022 75 10000 0.45 349 17:24 17.01.2022
5854 Clear 13 1019 70 10000 2.6 327 16:35 17.01.2022
5855 Clear 15 1019 66 10000 2.63 307 14:59 17.01.2022
5856 Clear 15 1019 64 10000 1.34 311 14:33 17.01.2022
5857 Clear 14 1022 64 10000 2.24 225 13:20 17.01.2022
5858 Clear 14 1023 64 10000 1.34 3 12:54 17.01.2022
5859 Clear 14 1023 64 10000 0.45 90 11:48 17.01.2022
5860 Clear 13 1021 71 10000 1.22 262 10:21 17.01.2022
5861 Clear 11 1021 80 10000 1.51 233 08:51 17.01.2022
5862 Clouds 10 1021 81 10000 1.18 229 07:22 17.01.2022
5863 Clouds 12 1021 77 10000 1.65 275 02:54 17.01.2022
5864 Clouds 12 1021 76 10000 2.08 275 00:54 17.01.2022
5865 Clouds 12 1021 76 10000 2.04 267 21:44 16.01.2022
5866 Clouds 12 1021 75 10000 1.8 260 20:33 16.01.2022
5867 Clouds 12 1021 75 10000 1.8 260 20:33 16.01.2022
5868 Clouds 12 1020 76 10000 1.68 276 18:50 16.01.2022
5869 Clouds 13 1020 74 10000 1.54 294 17:57 16.01.2022
5870 Clouds 13 1020 74 10000 1.77 313 16:59 16.01.2022
5871 Clouds 13 1019 73 10000 2.35 324 16:20 16.01.2022
5872 Clouds 14 1019 72 10000 2.53 331 14:30 16.01.2022
5873 Clouds 14 1019 73 10000 0.89 4 13:34 16.01.2022
5874 Clouds 14 1020 74 10000 1.7 330 12:27 16.01.2022
5875 Clouds 14 1020 76 10000 1.7 330 11:40 16.01.2022
5876 Clouds 14 1020 81 10000 1.35 334 10:46 16.01.2022
5877 Clouds 12 1023 87 10000 0.89 90 09:59 16.01.2022
5878 Clouds 12 1020 89 10000 1.18 337 09:40 16.01.2022
5879 Clouds 11 1023 90 10000 0.92 336 09:21 16.01.2022
5880 Clouds 10 1022 91 10000 1.79 315 07:23 16.01.2022
5881 Clear 9 1021 87 10000 0.89 292 00:38 16.01.2022
5882 Clear 9 1019 85 10000 0.45 270 23:22 15.01.2022
5883 Clear 10 1018 83 10000 0.62 343 21:23 15.01.2022
5884 Clear 10 1018 83 10000 0.62 343 20:56 15.01.2022
5885 Clear 10 1018 82 10000 0.62 343 20:36 15.01.2022
5886 Clear 11 1017 80 10000 0.89 16 19:28 15.01.2022
5887 Clear 11 1017 78 10000 1.64 25 18:28 15.01.2022
5888 Clear 13 1017 73 10000 2 18 16:49 15.01.2022
5889 Clear 14 1017 68 10000 1.34 340 15:38 15.01.2022
5890 Clear 13 1017 68 10000 1.34 9 13:35 15.01.2022
5891 Clear 13 1018 68 10000 0.89 8 11:46 15.01.2022
5892 Clear 11 1019 81 10000 2.11 344 09:49 15.01.2022
5893 Clear 8 1020 80 10000 2.24 315 05:26 15.01.2022
5894 Clouds 9 1022 75 10000 1.34 315 23:40 14.01.2022
5895 Clear 9 1023 70 10000 1.34 270 21:29 14.01.2022
5896 Clear 9 1024 68 10000 0.45 315 20:37 14.01.2022
5897 Clear 9 1022 65 10000 2.18 22 19:56 14.01.2022
5898 Clear 9 1022 60 10000 2.19 17 18:43 14.01.2022
5899 Clear 10 1022 57 10000 2.34 14 17:53 14.01.2022
5900 Clear 11 1022 54 10000 2.71 10 16:47 14.01.2022
5901 Clear 12 1028 49 10000 2.76 2 15:33 14.01.2022
5902 Clear 13 1029 49 10000 2.01 355 14:29 14.01.2022
5903 Clear 12 1023 48 10000 0.45 357 12:59 14.01.2022
5904 Clear 12 1023 52 10000 0.45 351 11:59 14.01.2022
5905 Clear 11 1024 54 10000 0.89 358 10:46 14.01.2022
5906 Clear 9 1024 73 10000 0.91 118 08:54 14.01.2022
5907 Clear 8 1026 70 10000 1.24 129 07:46 14.01.2022
5908 Clouds 9 1024 68 10000 1.68 73 03:19 14.01.2022
5909 Clouds 10 1024 65 10000 1.57 79 00:35 14.01.2022
5910 Clouds 11 1024 67 10000 1.78 79 21:57 13.01.2022
5911 Clouds 11 1024 67 10000 1.78 79 21:30 13.01.2022
5912 Clouds 11 1023 70 10000 1.71 82 20:33 13.01.2022
5913 Clouds 11 1023 73 10000 1.85 85 19:32 13.01.2022
5914 Clouds 11 1022 74 10000 2.81 77 18:51 13.01.2022
5915 Clouds 12 1022 74 10000 3.11 69 17:23 13.01.2022
5916 Clouds 12 1021 71 10000 0.45 355 16:18 13.01.2022
5917 Clouds 13 1021 71 10000 3.29 59 15:31 13.01.2022
5918 Clouds 12 1020 75 10000 0.89 15 13:42 13.01.2022
5919 Clouds 12 1021 91 10000 4.19 50 11:43 13.01.2022
5920 Clouds 10 1020 91 10000 4.94 47 09:38 13.01.2022
5921 Clouds 9 1020 91 10000 4.46 46 08:54 13.01.2022
5922 Clouds 9 1019 91 10000 0.45 238 08:22 13.01.2022
5923 Clouds 10 1019 90 10000 4 42 07:21 13.01.2022
5924 Clouds 9 1018 90 10000 4.68 44 05:56 13.01.2022
5925 Clouds 9 1018 90 10000 4.07 51 05:18 13.01.2022
5926 Clouds 9 1016 89 10000 0.35 123 01:46 13.01.2022
5927 Clouds 8 1016 89 10000 0.89 189 23:54 12.01.2022
5928 Clouds 9 1016 89 10000 0.89 189 23:35 12.01.2022
5929 Clouds 8 1016 89 10000 1.07 143 22:56 12.01.2022
5930 Clouds 8 1016 89 10000 1 104 21:56 12.01.2022
5931 Clouds 8 1015 88 10000 0.95 126 21:21 12.01.2022
5932 Clouds 8 1015 87 10000 0.95 126 20:56 12.01.2022
5933 Clouds 8 1015 85 10000 0.83 213 19:35 12.01.2022
5934 Clouds 8 1014 84 10000 0.95 324 18:29 12.01.2022
5935 Clouds 9 1013 80 10000 1.33 302 16:59 12.01.2022
5936 Clouds 9 1012 76 10000 1.9 272 15:58 12.01.2022
5937 Clouds 10 1012 72 10000 2.35 275 14:47 12.01.2022
5938 Clouds 10 1012 80 10000 4.07 307 12:58 12.01.2022
5939 Clouds 10 1011 85 10000 0.64 210 09:59 12.01.2022
5940 Clouds 10 1009 81 10000 0.75 225 08:36 12.01.2022
5941 Clouds 9 1009 80 10000 0.74 256 07:34 12.01.2022
5942 Clouds 10 1008 77 10000 1.38 347 06:21 12.01.2022
5943 Clouds 12 1008 72 10000 3.65 11 23:31 11.01.2022
5944 Clouds 12 1007 73 10000 3.75 13 22:49 11.01.2022
5945 Clouds 12 1007 73 10000 3.9 19 22:21 11.01.2022
5946 Clouds 12 1007 75 10000 4.85 24 20:51 11.01.2022
5947 Clouds 12 1006 71 10000 5.82 21 19:45 11.01.2022
5948 Clouds 12 1006 70 10000 0.89 349 18:31 11.01.2022
5949 Clouds 12 1005 69 10000 0.89 1 17:24 11.01.2022
5950 Clouds 12 1005 69 10000 0.45 16 16:37 11.01.2022
5951 Clouds 12 1004 70 10000 0.45 5 15:34 11.01.2022
5952 Clouds 12 1004 70 10000 0.89 28 14:41 11.01.2022
5953 Clouds 12 1003 70 10000 6.31 17 13:54 11.01.2022
5954 Clouds 12 1003 68 10000 1.34 8 13:32 11.01.2022
5955 Clouds 12 1003 68 10000 1.34 34 12:42 11.01.2022
5956 Clouds 12 1003 69 10000 1.34 6 11:40 11.01.2022
5957 Clouds 12 1002 69 10000 1.34 19 09:28 11.01.2022
5958 Clouds 11 999 69 10000 1.34 19 06:36 11.01.2022
5959 Clouds 9 997 75 10000 0.89 358 00:31 11.01.2022
5960 Clouds 9 999 74 10000 1.34 270 23:41 10.01.2022
5961 Clouds 9 998 71 10000 0.89 270 22:51 10.01.2022
5962 Clouds 9 998 75 10000 0.45 306 22:19 10.01.2022
5963 Clouds 9 998 74 10000 1.34 315 21:54 10.01.2022
5964 Clouds 9 998 74 10000 0.45 307 21:20 10.01.2022
5965 Clouds 9 996 73 10000 5.37 355 20:56 10.01.2022
5966 Clouds 9 996 74 10000 0.45 331 20:28 10.01.2022
5967 Clouds 9 995 74 10000 0.45 280 19:42 10.01.2022
5968 Clouds 9 995 75 10000 0.45 298 19:20 10.01.2022
5969 Clouds 10 995 72 10000 0.45 279 18:48 10.01.2022
5970 Clouds 8 997 84 10000 3.58 270 17:41 10.01.2022
5971 Clouds 9 1001 75 10000 6.45 347 16:42 10.01.2022
5972 Clouds 9 993 78 10000 2.68 1 15:45 10.01.2022
5973 Clouds 10 992 76 10000 2.24 2 14:26 10.01.2022
5974 Clouds 8 992 88 6926 0.89 6 11:58 10.01.2022
5975 Clouds 8 991 88 5913 8.86 341 11:25 10.01.2022
5976 Clouds 8 992 89 10000 1.79 38 09:50 10.01.2022
5977 Clouds 9 990 70 10000 0.45 333 07:18 10.01.2022
5978 Clouds 9 991 75 10000 0.45 352 05:49 10.01.2022
5979 Clouds 9 991 75 10000 0.45 352 05:49 10.01.2022
5980 Clouds 9 994 79 10000 0.45 5 01:30 10.01.2022
5981 Clouds 12 995 65 10000 0.45 346 00:25 10.01.2022
5982 Clouds 12 995 63 10000 1.34 293 23:33 09.01.2022
5983 Clouds 11 996 68 10000 1.79 41 22:38 09.01.2022
5984 Clouds 13 996 59 10000 1.79 312 21:46 09.01.2022
5985 Clouds 13 996 55 10000 1.34 13 21:23 09.01.2022
5986 Clouds 13 997 52 10000 0.89 96 20:52 09.01.2022
5987 Clear 13 997 53 10000 0.45 286 20:34 09.01.2022
5988 Clear 13 997 55 10000 2.68 330 19:45 09.01.2022
5989 Clouds 13 997 55 10000 1.34 273 19:23 09.01.2022
5990 Clouds 13 997 54 10000 1.34 340 18:56 09.01.2022
5991 Clouds 13 997 52 10000 0.89 347 18:35 09.01.2022
5992 Clouds 14 997 45 10000 0.45 331 17:45 09.01.2022
5993 Clouds 14 998 57 10000 2.24 352 17:21 09.01.2022
5994 Clouds 14 998 62 10000 2.24 340 15:59 09.01.2022
5995 Clouds 14 998 62 10000 1.34 356 15:36 09.01.2022
5996 Clouds 14 998 64 10000 1.34 253 14:41 09.01.2022
5997 Clouds 14 999 63 10000 1.34 354 13:56 09.01.2022
5998 Clouds 14 1000 64 10000 3.13 328 13:36 09.01.2022
5999 Clouds 14 1001 61 10000 1.79 163 11:56 09.01.2022
6000 Clouds 14 1002 64 10000 1.34 312 11:19 09.01.2022
6001 Clouds 12 1006 69 10000 1.34 294 09:51 09.01.2022
6002 Clouds 11 1006 72 10000 0.45 317 08:54 09.01.2022
6003 Clouds 10 1006 71 10000 3.58 292 05:54 09.01.2022
6004 Clouds 10 1005 66 10000 5.61 315 01:26 09.01.2022
6005 Clouds 10 1007 66 10000 4.92 270 00:37 09.01.2022
6006 Clouds 10 1007 70 10000 1.79 315 23:27 08.01.2022
6007 Clouds 11 1005 68 10000 4.64 322 22:35 08.01.2022
6008 Clouds 11 1005 72 10000 5.35 327 21:27 08.01.2022
6009 Clouds 10 1005 73 10000 0.45 325 20:43 08.01.2022
6010 Clouds 10 1006 69 10000 5.6 336 20:21 08.01.2022
6011 Clouds 11 1005 64 10000 5.06 340 18:46 08.01.2022
6012 Clouds 11 1008 66 10000 0.45 1 17:24 08.01.2022
6013 Clouds 11 1005 64 10000 5.68 342 16:40 08.01.2022
6014 Clouds 11 1005 69 10000 1.34 17 14:52 08.01.2022
6015 Clouds 11 1008 72 10000 0.45 354 13:56 08.01.2022
6016 Clouds 10 1008 86 10000 0.45 2 11:30 08.01.2022
6017 Clouds 10 1008 86 10000 3.13 315 10:33 08.01.2022
6018 Clouds 10 1008 88 10000 1.34 328 09:57 08.01.2022
6019 Clouds 10 1008 90 10000 0.89 353 09:30 08.01.2022
6020 Clouds 10 1007 89 8206 1.79 315 05:39 08.01.2022
6021 Clouds 12 1007 84 10000 0.89 318 00:59 08.01.2022
6022 Clouds 12 1005 85 6744 0.89 332 23:30 07.01.2022
6023 Clouds 12 1005 84 10000 0.89 330 23:30 07.01.2022
6024 Clouds 13 1005 80 10000 4.17 344 21:47 07.01.2022
6025 Clouds 12 1008 80 10000 1.34 356 20:26 07.01.2022
6026 Clouds 12 1009 79 10000 0.89 334 19:26 07.01.2022
6027 Clouds 12 1008 81 10000 3.13 315 18:46 07.01.2022
6028 Clouds 12 1008 80 10000 1.79 45 18:18 07.01.2022
6029 Clouds 12 1008 76 10000 0.89 348 17:23 07.01.2022
6030 Clouds 12 1008 78 10000 1.79 0 14:55 07.01.2022
6031 Clouds 13 1008 79 10000 1.34 90 13:52 07.01.2022
6032 Clouds 12 1008 79 10000 1.34 90 12:51 07.01.2022
6033 Clouds 12 1007 89 10000 2.49 62 10:21 07.01.2022
6034 Clouds 11 1008 82 10000 1.79 315 02:59 07.01.2022
6035 Clouds 11 1008 82 10000 1.79 315 02:59 07.01.2022
6036 Clouds 11 1008 81 10000 1.79 292 02:22 07.01.2022
6037 Clouds 11 1007 82 10000 2.68 292 01:48 07.01.2022
6038 Clouds 11 1005 83 10000 2.03 314 01:25 07.01.2022
6039 Clouds 12 1006 82 10000 1.44 316 00:30 07.01.2022
6040 Clouds 11 1008 78 10000 0.89 338 22:33 06.01.2022
6041 Clouds 12 1007 76 10000 3.13 315 20:43 06.01.2022
6042 Clouds 12 1007 76 10000 2.24 315 20:18 06.01.2022
6043 Clouds 12 1005 73 10000 2.34 297 19:36 06.01.2022
6044 Clouds 13 1004 70 10000 2.68 302 17:51 06.01.2022
6045 Clouds 13 1003 69 10000 3.27 303 17:23 06.01.2022
6046 Clouds 13 1003 67 10000 3.27 303 16:32 06.01.2022
6047 Clouds 14 1003 65 10000 0.45 344 15:44 06.01.2022
6048 Clouds 15 1003 63 10000 3.74 297 15:21 06.01.2022
6049 Clouds 14 1002 64 10000 0.89 315 14:20 06.01.2022
6050 Clouds 15 1002 64 10000 0.45 246 13:39 06.01.2022
6051 Clouds 15 1003 62 10000 0.45 1 12:20 06.01.2022
6052 Clouds 15 1003 63 10000 0.45 258 11:30 06.01.2022
6053 Clouds 14 1003 66 10000 3.99 263 10:50 06.01.2022
6054 Clouds 13 1003 75 10000 3.51 259 06:38 06.01.2022
6055 Clouds 14 1003 70 10000 4.67 225 00:34 06.01.2022
6056 Clouds 14 1003 70 10000 4.69 215 23:33 05.01.2022
6057 Clouds 14 1003 69 10000 4.71 213 22:48 05.01.2022
6058 Clouds 14 1003 69 10000 4.6 217 22:28 05.01.2022
6059 Clouds 14 1004 67 10000 0.45 244 21:43 05.01.2022
6060 Clouds 15 1003 65 10000 0.45 256 20:44 05.01.2022
6061 Clouds 15 1004 63 10000 4.66 215 19:46 05.01.2022
6062 Clear 16 1003 62 10000 1.34 351 18:27 05.01.2022
6063 Clear 17 1002 58 10000 1.34 207 16:58 05.01.2022
6064 Clear 17 1002 52 10000 0.45 306 16:21 05.01.2022
6065 Clear 18 1009 48 10000 4.34 244 15:20 05.01.2022
6066 Clear 19 1002 49 10000 1.34 229 13:35 05.01.2022
6067 Clear 19 1002 43 10000 2.68 356 12:46 05.01.2022
6068 Clear 14 1010 39 10000 2.59 191 08:47 05.01.2022
6069 Clear 13 1010 40 10000 2.81 169 07:20 05.01.2022
6070 Clear 12 1013 86 10000 2.59 161 01:58 05.01.2022
6071 Clear 13 1014 69 10000 2.39 172 23:44 04.01.2022
6072 Clear 13 1015 69 10000 2.37 176 23:26 04.01.2022
6073 Clear 12 1015 89 10000 2.41 172 22:21 04.01.2022
6074 Clear 12 1008 92 10000 2.36 166 20:50 04.01.2022
6075 Clear 12 1009 87 10000 2.46 165 18:46 04.01.2022
6076 Clear 13 1012 77 10000 1.79 248 17:37 04.01.2022
6077 Clear 13 1010 81 10000 2.39 173 16:39 04.01.2022
6078 Clear 14 1010 80 10000 1.87 173 16:20 04.01.2022
6079 Clear 17 1010 69 10000 1.65 188 14:51 04.01.2022
6080 Clear 17 1010 71 10000 1.65 188 14:33 04.01.2022
6081 Clear 15 1011 76 10000 1.51 222 13:26 04.01.2022
6082 Clear 13 1013 89 10000 1.53 186 10:29 04.01.2022
6083 Clear 10 1021 97 10000 0.45 90 08:59 04.01.2022
6084 Clear 10 1021 86 10000 1.87 192 08:23 04.01.2022
6085 Clouds 11 1015 86 10000 1.41 235 01:19 04.01.2022
6086 Clouds 11 1015 85 10000 1.14 233 00:40 04.01.2022
6087 Clouds 12 1015 82 10000 1.57 176 22:41 03.01.2022
6088 Clouds 12 1016 80 10000 2.07 171 21:42 03.01.2022
6089 Clouds 12 1016 79 10000 0.5 78 21:23 03.01.2022
6090 Clouds 12 1018 79 10000 0.44 168 19:47 03.01.2022
6091 Clouds 13 1019 78 10000 0.89 225 18:33 03.01.2022
6092 Clouds 13 1019 76 10000 0.68 198 17:40 03.01.2022
6093 Clouds 13 1019 76 10000 0.68 198 17:40 03.01.2022
6094 Clear 14 1016 73 10000 0.23 29 16:58 03.01.2022
6095 Clear 14 1025 69 10000 1.34 315 14:55 03.01.2022
6096 Clear 14 1025 68 10000 0.89 90 14:29 03.01.2022
6097 Clouds 14 1020 69 10000 0.89 352 12:35 03.01.2022
6098 Clouds 14 1021 69 10000 0.45 90 11:33 03.01.2022
6099 Clouds 13 1022 71 10000 1.79 90 10:25 03.01.2022
6100 Clouds 12 1019 77 10000 0.63 142 08:46 03.01.2022
6101 Clouds 12 1022 79 10000 0.56 39 07:32 03.01.2022
6102 Clouds 12 1024 81 10000 0.89 270 23:54 02.01.2022
6103 Clouds 12 1021 79 10000 0.52 22 23:18 02.01.2022
6104 Clouds 12 1021 79 10000 0.52 22 22:43 02.01.2022
6105 Clouds 12 1021 80 10000 0.97 347 21:38 02.01.2022
6106 Clouds 13 1021 80 10000 0.7 3 20:31 02.01.2022
6107 Clouds 13 1021 80 10000 0.68 359 19:53 02.01.2022
6108 Clouds 13 1021 79 10000 0.62 346 19:26 02.01.2022
6109 Clear 13 1021 79 10000 0.53 127 18:33 02.01.2022
6110 Clear 13 1021 79 10000 0.64 88 17:43 02.01.2022
6111 Clear 13 1021 79 10000 0.91 61 17:21 02.01.2022
6112 Clear 13 1021 78 10000 0.92 62 16:53 02.01.2022
6113 Clear 13 1024 79 10000 0.89 90 16:23 02.01.2022
6114 Clear 14 1024 75 10000 0.89 90 14:19 02.01.2022
6115 Clouds 14 1024 77 10000 0.45 90 12:34 02.01.2022
6116 Clouds 14 1022 76 10000 1.55 28 11:56 02.01.2022
6117 Clouds 14 1022 77 10000 1.29 33 11:20 02.01.2022
6118 Clouds 13 1022 79 10000 1.29 33 10:37 02.01.2022
6119 Clouds 11 1024 85 10000 0.89 90 08:27 02.01.2022
6120 Clouds 12 1022 83 10000 1.77 61 03:22 02.01.2022
6121 Clouds 12 1022 84 10000 1.58 46 23:58 01.01.2022
6122 Clouds 12 1022 84 10000 1.58 46 23:39 01.01.2022
6123 Clouds 12 1022 84 10000 1.35 58 22:45 01.01.2022
6124 Clouds 12 1024 87 10000 0.89 90 22:19 01.01.2022
6125 Clouds 13 1022 85 10000 1.75 51 21:43 01.01.2022
6126 Clouds 13 1021 86 10000 1.29 47 20:52 01.01.2022
6127 Clouds 13 1022 86 10000 1.58 41 19:55 01.01.2022
6128 Clouds 13 1022 86 10000 1.12 59 18:58 01.01.2022
6129 Clouds 13 1021 87 10000 0.49 107 17:56 01.01.2022
6130 Clouds 13 1020 86 10000 1.25 40 16:35 01.01.2022
6131 Clear 13 1021 85 10000 0.45 1 15:57 01.01.2022
6132 Clear 14 1020 84 10000 0.89 2 14:57 01.01.2022
6133 Clear 14 1020 84 10000 1.88 302 13:42 01.01.2022
6134 Clear 14 1021 84 10000 1.7 331 12:49 01.01.2022
6135 Clear 14 1021 85 10000 1.46 327 11:47 01.01.2022
6136 Clear 13 1024 88 10000 0.89 90 11:21 01.01.2022
6137 Clear 13 1022 92 10000 1.04 236 10:26 01.01.2022
6138 Clear 13 1026 75 10000 1.04 236 09:41 01.01.2022
6139 Clear 12 1026 84 10000 0.7 315 08:25 01.01.2022
6140 Clear 11 1026 84 10000 0.7 315 07:43 01.01.2022
6141 Clear 11 1026 83 10000 0.99 284 06:46 01.01.2022
6142 Clear 12 1025 83 10000 1.04 248 05:26 01.01.2022
6143 Clear 12 1025 83 10000 1.04 248 04:37 01.01.2022
6144 Clear 13 1026 81 10000 1.23 263 00:53 01.01.2022
6145 Clear 12 1029 78 10000 0.89 292 23:35 31.12.2021
6146 Clear 13 1027 77 10000 1.12 280 21:52 31.12.2021
6147 Clear 13 1027 79 10000 1.02 249 20:33 31.12.2021
6148 Clear 13 1027 84 10000 0.83 271 19:30 31.12.2021
6149 Clear 15 1026 83 10000 1.2 276 18:32 31.12.2021
6150 Clear 14 1028 75 10000 3.13 315 17:38 31.12.2021
6151 Clear 14 1028 77 10000 3.13 315 17:18 31.12.2021
6152 Clear 14 1027 83 10000 0.89 270 16:24 31.12.2021
6153 Clear 15 1027 82 10000 0.89 90 15:56 31.12.2021
6154 Clear 15 1027 81 10000 0.45 90 15:28 31.12.2021
6155 Clear 16 1027 79 10000 0.89 90 14:52 31.12.2021
6156 Clear 16 1027 78 10000 1.34 90 14:29 31.12.2021
6157 Clear 16 1027 78 10000 1.34 90 13:36 31.12.2021
6158 Clear 16 1027 75 10000 1.79 90 12:45 31.12.2021
6159 Clear 16 1027 69 10000 3.58 90 11:47 31.12.2021
6160 Clear 16 1027 73 10000 0.89 90 11:29 31.12.2021
6161 Clear 15 1027 68 10000 0.89 90 10:35 31.12.2021
6162 Clear 15 1027 70 10000 1.34 180 09:54 31.12.2021
6163 Clear 14 1027 73 10000 0.89 90 09:32 31.12.2021
6164 Clear 12 1026 76 10000 0.45 270 08:27 31.12.2021
6165 Clear 13 1024 79 10000 1.3 86 07:31 31.12.2021
6166 Clear 12 1023 80 10000 0.89 90 23:32 30.12.2021
6167 Clear 12 1023 78 10000 0.45 90 22:33 30.12.2021
6168 Clear 13 1022 78 10000 0.45 315 21:56 30.12.2021
6169 Clear 13 1022 79 10000 2.68 292 21:37 30.12.2021
6170 Clear 13 1022 79 10000 0.89 315 20:47 30.12.2021
6171 Clear 13 1022 79 10000 1.34 292 20:27 30.12.2021
6172 Clear 13 1021 81 10000 2.24 270 19:47 30.12.2021
6173 Clear 13 1021 79 10000 1.34 270 18:48 30.12.2021
6174 Clear 13 1021 83 10000 1.34 45 18:19 30.12.2021
6175 Clear 15 1018 82 10000 1.99 341 16:20 30.12.2021
6176 Clear 15 1018 80 10000 1.99 341 15:52 30.12.2021
6177 Clear 16 1020 78 10000 3.13 315 14:40 30.12.2021
6178 Clear 16 1019 77 10000 4.02 315 13:55 30.12.2021
6179 Clouds 15 1019 80 10000 0.89 315 12:44 30.12.2021
6180 Clouds 14 1019 88 10000 0.45 90 10:59 30.12.2021
6181 Clouds 15 1017 86 10000 1.59 327 09:59 30.12.2021
6182 Clouds 14 1016 84 10000 1.21 294 09:23 30.12.2021
6183 Clouds 13 1016 78 10000 3.58 315 06:54 30.12.2021
6184 Clouds 15 1014 82 10000 3.13 275 04:20 30.12.2021
6185 Clouds 15 1014 82 10000 3.13 275 04:20 30.12.2021
6186 Clouds 15 1014 81 10000 3.13 275 03:39 30.12.2021
6187 Clouds 16 1013 78 10000 3.42 279 00:35 30.12.2021
6188 Clouds 16 1013 77 10000 3.87 292 23:31 29.12.2021
6189 Clouds 16 1013 78 10000 5.15 281 22:24 29.12.2021
6190 Clouds 15 1013 78 10000 5.16 281 21:53 29.12.2021
6191 Clouds 15 1013 77 10000 4.42 267 20:56 29.12.2021
6192 Clouds 15 1013 76 10000 4.33 259 19:54 29.12.2021
6193 Clouds 16 1013 75 10000 4.3 255 19:30 29.12.2021
6194 Clouds 16 1006 77 10000 4.65 262 18:26 29.12.2021
6195 Clouds 16 1006 78 10000 0.45 271 17:29 29.12.2021
6196 Clouds 16 1006 77 10000 5.05 270 16:58 29.12.2021
6197 Clouds 17 1006 75 10000 1.34 263 16:19 29.12.2021
6198 Clouds 17 1005 71 10000 0.45 2 14:47 29.12.2021
6199 Clouds 17 1005 72 10000 0.89 206 12:50 29.12.2021
6200 Clouds 17 1005 71 10000 1.79 6 12:30 29.12.2021
6201 Clouds 17 1006 72 10000 0.89 42 10:53 29.12.2021
6202 Clouds 16 1008 74 10000 0.89 319 08:56 29.12.2021
6203 Clouds 15 1014 71 10000 10.28 315 06:59 29.12.2021
6204 Clouds 15 1013 72 10000 7.6 128 06:30 29.12.2021
6205 Clouds 16 1012 73 10000 5.13 235 05:51 29.12.2021
6206 Clouds 15 1009 75 10000 2.24 357 03:47 29.12.2021
6207 Clouds 14 1009 77 10000 6.26 315 00:32 29.12.2021
6208 Clouds 14 1009 78 10000 4.92 270 23:57 28.12.2021
6209 Clouds 14 1009 79 10000 4.47 292 22:56 28.12.2021
6210 Clouds 14 1009 79 10000 4.02 270 22:25 28.12.2021
6211 Clouds 14 1009 79 10000 0.89 322 21:54 28.12.2021
6212 Clouds 14 1009 80 10000 0.89 1 21:34 28.12.2021
6213 Clouds 15 1006 77 10000 3.93 249 19:53 28.12.2021
6214 Clouds 15 1006 78 10000 0.45 318 18:53 28.12.2021
6215 Clouds 15 1006 77 10000 1.79 229 18:25 28.12.2021
6216 Clouds 15 1005 75 10000 1.34 349 17:29 28.12.2021
6217 Clouds 16 1005 73 10000 0.45 6 15:53 28.12.2021
6218 Clouds 16 1005 72 10000 0.89 278 15:29 28.12.2021
6219 Clouds 16 1005 70 10000 0.89 324 14:55 28.12.2021
6220 Clouds 17 1004 68 10000 0.45 347 14:37 28.12.2021
6221 Clouds 16 1004 69 10000 6.37 281 14:18 28.12.2021
6222 Clouds 16 1005 70 10000 0.45 351 13:37 28.12.2021
6223 Clouds 16 1005 67 10000 1.34 353 12:56 28.12.2021
6224 Clouds 17 1004 65 10000 0.45 321 12:20 28.12.2021
6225 Clear 16 1005 62 10000 0.89 325 10:19 28.12.2021
6226 Clear 15 1004 71 10000 0.89 304 07:33 28.12.2021
6227 Clouds 15 1003 74 10000 1.34 336 03:35 28.12.2021
6228 Clouds 16 1001 81 10000 0.45 326 23:40 27.12.2021
6229 Clouds 15 1003 84 10000 1.34 12 22:21 27.12.2021
6230 Clouds 15 1004 83 10000 1.79 320 21:30 27.12.2021
6231 Clouds 15 1004 80 10000 4.52 207 20:39 27.12.2021
6232 Clouds 15 1005 77 10000 4.88 211 19:49 27.12.2021
6233 Clouds 15 1005 76 10000 4.48 199 19:27 27.12.2021
6234 Clouds 16 1005 75 10000 4.01 213 17:54 27.12.2021
6235 Clouds 16 1005 75 10000 4.01 213 17:54 27.12.2021
6236 Clouds 16 1005 76 10000 3.71 234 17:28 27.12.2021
6237 Clouds 16 1005 78 10000 3.39 248 16:26 27.12.2021
6238 Clouds 16 1005 77 10000 3.38 248 15:49 27.12.2021
6239 Clouds 17 1005 74 10000 0.89 335 14:26 27.12.2021
6240 Clouds 16 1008 74 10000 4.47 315 13:31 27.12.2021
6241 Clouds 16 1006 79 10000 0.45 252 11:20 27.12.2021
6242 Clouds 16 1006 80 10000 3.59 223 10:27 27.12.2021
6243 Clouds 16 1006 82 10000 3.79 212 09:27 27.12.2021
6244 Clouds 15 1005 84 10000 4.04 210 07:34 27.12.2021
6245 Clouds 15 1005 82 10000 4.13 210 06:29 27.12.2021
6246 Clouds 16 1004 72 10000 0.89 342 01:58 27.12.2021
6247 Clouds 15 1005 74 10000 0.89 259 23:50 26.12.2021
6248 Clouds 15 1005 74 10000 4.78 182 23:32 26.12.2021
6249 Clouds 16 1006 69 10000 0.45 252 21:48 26.12.2021
6250 Clouds 17 1005 61 10000 3.66 226 20:25 26.12.2021
6251 Clouds 17 1005 57 10000 3.26 221 19:27 26.12.2021
6252 Clouds 17 1008 60 10000 0.89 252 18:23 26.12.2021
6253 Clouds 18 1006 56 10000 0.45 254 15:55 26.12.2021
6254 Clouds 19 1007 52 10000 2.24 250 13:52 26.12.2021
6255 Clouds 19 1007 50 10000 1.79 235 13:32 26.12.2021
6256 Clouds 19 1007 52 10000 1.79 219 12:38 26.12.2021
6257 Clouds 19 1008 52 10000 1.34 208 11:57 26.12.2021
6258 Clouds 17 1006 56 10000 3.36 186 09:52 26.12.2021
6259 Clear 17 1006 61 10000 3.62 188 09:18 26.12.2021
6260 Clear 15 1009 60 10000 0.89 90 08:39 26.12.2021
6261 Clouds 14 1009 61 10000 2.24 315 06:47 26.12.2021
6262 Clouds 14 1009 65 10000 3.58 315 00:58 26.12.2021
6263 Clouds 14 1009 64 10000 4.92 315 23:50 25.12.2021
6264 Clouds 15 1006 66 10000 3.69 190 23:26 25.12.2021
6265 Clouds 15 1006 65 10000 3.39 204 22:23 25.12.2021
6266 Clouds 15 1009 62 10000 5.81 292 20:48 25.12.2021
6267 Clouds 16 1006 61 10000 3.66 192 19:22 25.12.2021
6268 Clouds 16 1006 60 10000 3.64 193 18:54 25.12.2021
6269 Clouds 17 1013 59 10000 3.75 184 17:28 25.12.2021
6270 Clouds 17 1013 56 10000 3.76 184 16:35 25.12.2021
6271 Clouds 18 1005 52 10000 0.45 356 14:38 25.12.2021
6272 Clouds 18 1009 54 10000 2.24 199 12:49 25.12.2021
6273 Clouds 18 1009 58 10000 1.34 284 11:45 25.12.2021
6274 Clouds 17 1011 61 10000 5.36 315 09:50 25.12.2021
6275 Clouds 15 1016 67 10000 4.44 170 08:19 25.12.2021
6276 Clouds 12 1010 73 10000 3.82 175 02:22 25.12.2021
6277 Clouds 12 1014 71 10000 0.89 90 00:33 25.12.2021
6278 Clouds 12 1014 71 10000 0.45 241 23:39 24.12.2021
6279 Clear 12 1016 71 10000 0.89 270 19:40 24.12.2021
6280 Clear 13 1013 71 10000 2.49 165 19:22 24.12.2021
6281 Clear 14 1017 64 10000 1.79 135 16:50 24.12.2021
6282 Clear 15 1017 62 10000 1.34 315 16:21 24.12.2021
6283 Clear 15 1016 59 10000 0.45 354 15:46 24.12.2021
6284 Clear 16 1022 56 10000 3.13 225 14:46 24.12.2021
6285 Clear 16 1022 56 10000 2.24 248 14:23 24.12.2021
6286 Clear 16 1017 56 10000 0.89 12 13:37 24.12.2021
6287 Clear 16 1018 57 10000 3.58 225 12:48 24.12.2021
6288 Clear 15 1018 60 10000 3.58 292 11:58 24.12.2021
6289 Clear 15 1018 62 10000 1.79 270 11:27 24.12.2021
6290 Clear 14 1019 66 10000 3.58 225 10:53 24.12.2021
6291 Clear 13 1019 70 10000 0.45 358 10:22 24.12.2021
6292 Clear 10 1020 78 10000 2.24 292 08:25 24.12.2021
6293 Clear 10 1025 74 10000 2.24 292 07:50 24.12.2021
6294 Clear 9 1020 78 10000 2.24 292 03:21 24.12.2021
6295 Clear 9 1020 78 10000 0.89 225 00:19 24.12.2021
6296 Clear 10 1020 78 10000 2.68 315 23:23 23.12.2021
6297 Clear 9 1020 78 10000 1.34 270 22:39 23.12.2021
6298 Clear 10 1020 77 10000 3.13 292 22:20 23.12.2021
6299 Clear 10 1018 78 10000 1.6 226 21:33 23.12.2021
6300 Clouds 10 1018 79 10000 1.37 197 20:20 23.12.2021
6301 Clouds 11 1017 75 10000 1.23 193 18:37 23.12.2021
6302 Clouds 11 1017 74 10000 0.29 216 17:57 23.12.2021
6303 Clouds 12 1017 70 10000 0.64 343 16:57 23.12.2021
6304 Clouds 13 1017 67 10000 1.32 350 16:25 23.12.2021
6305 Clouds 13 1025 65 10000 0.45 90 15:31 23.12.2021
6306 Clouds 13 1025 65 10000 0.45 90 15:31 23.12.2021
6307 Clouds 14 1025 64 10000 0.45 90 14:54 23.12.2021
6308 Clouds 14 1025 63 10000 0.89 90 14:36 23.12.2021
6309 Clear 14 1020 61 10000 0.45 90 13:19 23.12.2021
6310 Clear 13 1021 67 10000 0.89 90 10:53 23.12.2021
6311 Clear 11 1021 75 10000 0.89 90 09:47 23.12.2021
6312 Clear 10 1021 78 10000 0.89 90 09:19 23.12.2021
6313 Clear 9 1017 81 10000 1.99 175 06:59 23.12.2021
6314 Clear 9 1023 74 10000 1.83 143 04:35 23.12.2021
6315 Clouds 10 1017 81 10000 0.45 228 23:26 22.12.2021
6316 Clouds 10 1017 81 10000 2.42 112 22:48 22.12.2021
6317 Clouds 11 1017 81 10000 2.53 105 21:57 22.12.2021
6318 Clouds 10 1020 82 10000 0.45 90 21:29 22.12.2021
6319 Clouds 11 1017 79 10000 2.46 106 20:50 22.12.2021
6320 Clouds 11 1017 79 10000 2.46 106 20:30 22.12.2021
6321 Clouds 11 1017 78 10000 2.37 104 19:35 22.12.2021
6322 Clouds 12 1016 75 10000 2.19 101 18:18 22.12.2021
6323 Clouds 12 1016 74 10000 2.18 101 17:35 22.12.2021
6324 Clouds 14 1015 65 10000 1.91 63 15:46 22.12.2021
6325 Clouds 15 1015 64 10000 0.45 6 13:44 22.12.2021
6326 Clouds 15 1015 60 10000 0.77 60 12:41 22.12.2021
6327 Clouds 14 1019 61 10000 1.79 90 10:46 22.12.2021
6328 Clouds 12 1020 69 10000 0.89 90 09:40 22.12.2021
6329 Clear 10 1019 74 10000 3.13 315 07:48 22.12.2021
6330 Clear 10 1016 78 10000 2.36 199 05:51 22.12.2021
6331 Clear 10 1019 78 10000 2.68 315 05:28 22.12.2021
6332 Clear 10 1018 78 10000 3.13 292 04:54 22.12.2021
6333 Clear 10 1016 79 10000 2.49 199 04:30 22.12.2021
6334 Clear 10 1016 79 10000 2.49 199 04:30 22.12.2021
6335 Clouds 10 1018 78 10000 1.79 315 03:34 22.12.2021
6336 Clouds 10 1018 78 10000 3.13 292 01:37 22.12.2021
6337 Clouds 10 1016 80 10000 2.99 209 23:33 21.12.2021
6338 Clouds 11 1016 79 10000 2.43 225 22:29 21.12.2021
6339 Clouds 11 1017 79 10000 2.43 225 21:51 21.12.2021
6340 Clouds 11 1016 79 10000 1.87 235 21:24 21.12.2021
6341 Clouds 11 1016 80 10000 1.48 235 20:23 21.12.2021
6342 Clouds 11 1016 79 10000 1.48 235 19:46 21.12.2021
6343 Clouds 12 1016 78 10000 1.32 238 19:19 21.12.2021
6344 Clouds 12 1016 77 10000 0.81 263 18:22 21.12.2021
6345 Clouds 12 1016 77 10000 0.81 263 17:47 21.12.2021
6346 Clouds 13 1016 74 10000 0.86 303 16:35 21.12.2021
6347 Clouds 14 1015 69 10000 0.45 355 15:29 21.12.2021
6348 Clouds 14 1015 68 10000 0.45 2 13:51 21.12.2021
6349 Clouds 15 1015 67 10000 0.45 5 13:31 21.12.2021
6350 Clear 15 1016 68 10000 0.81 281 11:57 21.12.2021
6351 Clear 13 1017 74 10000 0.42 200 10:37 21.12.2021
6352 Clear 11 1016 82 10000 1.2 175 09:35 21.12.2021
6353 Clear 9 1016 84 10000 1.2 175 08:30 21.12.2021
6354 Clear 9 1022 75 10000 1.52 183 07:32 21.12.2021
6355 Clear 10 1021 75 10000 1.64 183 06:54 21.12.2021
6356 Clear 9 1015 83 10000 1.82 187 03:20 21.12.2021
6357 Clear 9 1014 83 10000 1.63 197 01:18 21.12.2021
6358 Clear 10 1014 82 10000 1.73 198 23:34 20.12.2021
6359 Clear 10 1014 82 10000 1.74 198 22:34 20.12.2021
6360 Clear 10 1014 80 10000 1.6 198 21:48 20.12.2021
6361 Clear 11 1014 80 10000 1.23 210 21:24 20.12.2021
6362 Clear 11 1014 79 10000 1.23 210 20:48 20.12.2021
6363 Clear 11 1014 78 10000 1.8 236 19:55 20.12.2021
6364 Clear 11 1014 78 10000 1.8 236 19:55 20.12.2021
6365 Clear 11 1014 77 10000 1.8 236 19:34 20.12.2021
6366 Clear 11 1013 75 10000 1.52 237 18:55 20.12.2021
6367 Clear 12 1013 74 10000 1.47 262 18:25 20.12.2021
6368 Clear 12 1013 73 10000 1.47 262 17:46 20.12.2021
6369 Clear 13 1013 69 10000 1.83 279 16:44 20.12.2021
6370 Clear 14 1012 64 10000 2.24 281 15:52 20.12.2021
6371 Clear 14 1019 62 10000 2.38 280 14:58 20.12.2021
6372 Clear 15 1012 61 10000 2.01 287 13:31 20.12.2021
6373 Clear 14 1014 62 10000 1.78 264 11:36 20.12.2021
6374 Clear 12 1015 74 10000 2.06 236 09:56 20.12.2021
6375 Clear 12 1014 76 10000 2.06 236 09:32 20.12.2021
6376 Clear 10 1014 81 10000 0.45 337 08:43 20.12.2021
6377 Clear 8 1017 80 10000 4.47 315 07:59 20.12.2021
6378 Clear 8 1017 80 10000 4.92 315 07:31 20.12.2021
6379 Clear 9 1014 80 10000 2.81 236 06:32 20.12.2021
6380 Clear 9 1015 78 10000 3.17 238 00:19 20.12.2021
6381 Clear 9 1016 75 10000 2.78 242 22:56 19.12.2021
6382 Clear 10 1016 73 10000 2.44 243 21:58 19.12.2021
6383 Clear 10 1016 73 10000 2.44 243 21:32 19.12.2021
6384 Clear 10 1017 72 10000 2.03 246 20:35 19.12.2021
6385 Clear 10 1017 71 10000 1.66 262 19:53 19.12.2021
6386 Clear 10 1017 71 10000 1.66 262 19:34 19.12.2021
6387 Clear 11 1017 69 10000 1.77 270 18:35 19.12.2021
6388 Clear 11 1017 68 10000 2.11 282 17:53 19.12.2021
6389 Clear 11 1017 68 10000 1.95 303 17:28 19.12.2021
6390 Clear 12 1017 63 10000 1.9 325 16:27 19.12.2021
6391 Clear 12 1017 63 10000 1.9 325 16:27 19.12.2021
6392 Clear 12 1017 61 10000 1.27 306 15:51 19.12.2021
6393 Clear 13 1017 58 10000 1.15 334 15:23 19.12.2021
6394 Clear 13 1017 57 10000 0.45 2 14:45 19.12.2021
6395 Clouds 13 1018 56 10000 1.8 19 13:26 19.12.2021
6396 Clouds 13 1018 55 10000 1.34 5 12:50 19.12.2021
6397 Clouds 13 1018 56 10000 1.34 6 12:28 19.12.2021
6398 Clouds 13 1019 56 10000 1.34 14 11:30 19.12.2021
6399 Clouds 13 1019 57 10000 3.19 32 10:47 19.12.2021
6400 Clear 12 1022 61 10000 1.79 90 10:21 19.12.2021
6401 Clear 10 1020 64 10000 3.64 31 08:46 19.12.2021
6402 Clear 10 1019 58 10000 4.22 38 05:37 19.12.2021
6403 Clear 10 1020 54 10000 5.29 59 01:45 19.12.2021
6404 Clear 11 1020 54 10000 6.28 58 00:54 19.12.2021
6405 Clear 11 1020 54 10000 7.79 53 22:51 18.12.2021
6406 Clear 11 1020 53 10000 8.89 53 22:24 18.12.2021
6407 Clear 11 1020 49 10000 0.45 343 21:41 18.12.2021
6408 Clear 11 1020 49 10000 0.45 338 21:22 18.12.2021
6409 Clear 11 1020 45 10000 9.05 53 20:25 18.12.2021
6410 Clear 11 1021 44 10000 9.05 53 19:34 18.12.2021
6411 Clear 12 1020 46 10000 0.45 354 18:24 18.12.2021
6412 Clear 12 1020 48 10000 6.57 48 17:49 18.12.2021
6413 Clear 12 1020 45 10000 6.85 51 16:27 18.12.2021
6414 Clear 13 1020 41 10000 0.89 31 15:48 18.12.2021
6415 Clear 13 1025 43 10000 7.77 49 14:53 18.12.2021
6416 Clear 14 1019 39 10000 2.68 346 13:44 18.12.2021
6417 Clouds 14 1020 51 10000 0.89 356 11:55 18.12.2021
6418 Clouds 13 1020 71 10000 8.48 44 09:54 18.12.2021
6419 Clear 13 1020 80 10000 9.1 47 09:30 18.12.2021
6420 Clear 13 1019 82 10000 8.98 46 08:36 18.12.2021
6421 Clear 13 1019 82 10000 8.97 47 08:36 18.12.2021
6422 Clouds 11 1021 84 10000 0.89 315 06:28 18.12.2021
6423 Clouds 11 1021 81 10000 1.79 292 00:59 18.12.2021
6424 Clear 11 1022 80 10000 1.34 270 23:49 17.12.2021
6425 Clear 12 1020 77 10000 2.56 28 22:39 17.12.2021
6426 Clouds 12 1020 75 10000 2.84 23 21:29 17.12.2021
6427 Clouds 12 1020 75 10000 2.84 23 20:43 17.12.2021
6428 Clouds 12 1020 72 10000 2.78 14 19:56 17.12.2021
6429 Clouds 13 1021 70 10000 2.52 23 18:39 17.12.2021
6430 Clouds 13 1021 70 10000 3.25 21 17:50 17.12.2021
6431 Clouds 13 1020 68 10000 3.34 18 16:51 17.12.2021
6432 Clouds 14 1020 67 10000 3.27 15 16:27 17.12.2021
6433 Clouds 14 1020 63 10000 3.31 14 15:49 17.12.2021
6434 Clouds 15 1020 62 10000 3.41 12 14:43 17.12.2021
6435 Clouds 15 1020 65 10000 3.39 17 13:51 17.12.2021
6436 Clouds 14 1021 66 10000 0.89 8 12:36 17.12.2021
6437 Clouds 14 1022 74 10000 0.89 4 10:42 17.12.2021
6438 Clouds 12 1025 81 10000 1.79 90 09:47 17.12.2021
6439 Clouds 11 1022 83 10000 4.28 24 08:32 17.12.2021
6440 Clouds 11 1021 83 10000 3.79 26 07:38 17.12.2021
6441 Clouds 11 1020 84 10000 3.21 22 04:41 17.12.2021
6442 Clouds 10 1020 82 10000 1.45 90 00:28 17.12.2021
6443 Clouds 11 1020 80 10000 2 86 22:44 16.12.2021
6444 Clouds 11 1020 79 10000 2.23 77 22:22 16.12.2021
6445 Clouds 12 1020 77 10000 2.23 77 21:43 16.12.2021
6446 Clouds 11 1020 77 10000 2.46 75 20:40 16.12.2021
6447 Clouds 11 1020 76 10000 2.79 69 20:21 16.12.2021
6448 Clouds 11 1020 76 10000 3.02 65 19:27 16.12.2021
6449 Clouds 11 1019 73 10000 2.73 57 18:31 16.12.2021
6450 Clouds 12 1019 68 10000 3.04 51 17:36 16.12.2021
6451 Clouds 13 1018 64 10000 2.88 34 16:24 16.12.2021
6452 Clouds 14 1018 61 10000 2.78 31 15:26 16.12.2021
6453 Clouds 14 1018 67 10000 2.73 33 13:45 16.12.2021
6454 Clouds 14 1019 70 10000 1.76 22 11:56 16.12.2021
6455 Clouds 14 1022 70 10000 0.45 1 11:18 16.12.2021
6456 Clouds 13 1022 73 10000 0.45 350 10:39 16.12.2021
6457 Clouds 12 1019 81 10000 1.1 336 09:42 16.12.2021
6458 Clouds 10 1018 83 10000 0.49 232 06:23 16.12.2021
6459 Clouds 10 1018 83 10000 0.64 201 03:54 16.12.2021
6460 Clouds 10 1019 79 10000 1.04 184 23:36 15.12.2021
6461 Clouds 10 1019 79 10000 1.17 174 22:49 15.12.2021
6462 Clouds 10 1019 79 10000 0.97 157 22:20 15.12.2021
6463 Clouds 11 1019 77 10000 0.97 157 21:31 15.12.2021
6464 Clear 12 1019 76 10000 0.96 122 20:41 15.12.2021
6465 Clear 12 1019 74 10000 1.27 100 19:53 15.12.2021
6466 Clear 11 1021 74 10000 1.32 79 18:50 15.12.2021
6467 Clear 11 1021 72 10000 1.86 64 18:18 15.12.2021
6468 Clear 13 1018 69 10000 1.83 65 17:43 15.12.2021
6469 Clear 13 1018 67 10000 2.23 57 17:21 15.12.2021
6470 Clear 14 1020 60 10000 2.22 55 15:48 15.12.2021
6471 Clear 15 1017 56 10000 2.31 45 15:29 15.12.2021
6472 Clear 15 1023 61 10000 2.31 45 14:44 15.12.2021
6473 Clouds 15 1017 61 10000 1.35 54 13:28 15.12.2021
6474 Clouds 14 1020 68 10000 0.89 90 11:41 15.12.2021
6475 Clouds 14 1018 80 10000 2.25 51 10:18 15.12.2021
6476 Clouds 11 1017 91 10000 2.64 48 07:55 15.12.2021
6477 Clouds 11 1018 90 10000 1.34 270 04:22 15.12.2021
6478 Clear 11 1018 88 10000 1.79 315 00:32 15.12.2021
6479 Clear 11 1018 88 10000 2.24 292 23:21 14.12.2021
6480 Clear 12 1016 88 10000 1.7 46 22:42 14.12.2021
6481 Clear 11 1019 87 10000 1.34 292 21:38 14.12.2021
6482 Clear 12 1019 85 10000 1.79 270 20:20 14.12.2021
6483 Clear 12 1018 85 10000 2.24 315 19:26 14.12.2021
6484 Clear 13 1018 84 10000 2.68 315 18:38 14.12.2021
6485 Clear 13 1015 83 10000 2.42 352 17:53 14.12.2021
6486 Clear 14 1015 82 10000 0.45 345 16:43 14.12.2021
6487 Clear 14 1015 82 10000 0.45 345 16:43 14.12.2021
6488 Clear 14 1015 81 10000 0.45 2 16:18 14.12.2021
6489 Clear 16 1015 74 10000 0.89 29 13:58 14.12.2021
6490 Clouds 15 1015 76 10000 0.89 13 12:48 14.12.2021
6491 Clouds 15 1016 78 10000 1.34 12 11:25 14.12.2021
6492 Clouds 15 1017 79 10000 0.45 7 10:45 14.12.2021
6493 Clouds 14 1017 83 10000 0.89 349 09:54 14.12.2021
6494 Clouds 13 1020 85 10000 0.89 0 08:49 14.12.2021
6495 Clouds 12 1020 86 10000 1.34 315 08:21 14.12.2021
6496 Clouds 12 1017 82 10000 3.38 322 07:23 14.12.2021
6497 Clouds 12 1020 77 10000 4.02 315 23:51 13.12.2021
6498 Clear 12 1020 76 10000 1.34 0 22:24 13.12.2021
6499 Clear 12 1020 76 10000 2.68 292 21:39 13.12.2021
6500 Clear 11 1021 73 10000 2.68 315 20:51 13.12.2021
6501 Clear 11 1021 73 10000 2.68 315 20:51 13.12.2021
6502 Clear 11 1021 71 10000 2.24 315 20:21 13.12.2021
6503 Clear 11 1021 69 10000 3.58 292 19:49 13.12.2021
6504 Clear 12 1018 71 10000 3.56 316 17:27 13.12.2021
6505 Clear 12 1018 70 10000 3.56 316 16:32 13.12.2021
6506 Clear 13 1017 65 10000 0.45 329 15:43 13.12.2021
6507 Clear 14 1023 63 10000 3.86 315 14:42 13.12.2021
6508 Clear 14 1017 65 10000 0.89 8 13:37 13.12.2021
6509 Clear 14 1018 63 10000 2.87 343 12:39 13.12.2021
6510 Clear 13 1021 66 10000 2.68 0 11:52 13.12.2021
6511 Clear 13 1018 66 10000 3.48 5 11:29 13.12.2021
6512 Clear 13 1019 67 10000 3.48 5 10:36 13.12.2021
6513 Clouds 10 1021 80 10000 0.89 248 08:43 13.12.2021
6514 Clouds 10 1021 81 10000 0.89 248 08:43 13.12.2021
6515 Clouds 10 1017 85 10000 2.91 28 06:55 13.12.2021
6516 Clouds 10 1017 90 10000 3.29 41 05:19 13.12.2021
6517 Clouds 11 1016 83 10000 3.08 18 23:55 12.12.2021
6518 Clouds 11 1015 81 10000 3.59 21 21:58 12.12.2021
6519 Clouds 11 1015 82 10000 0.45 266 21:24 12.12.2021
6520 Clouds 10 1017 81 10000 1.79 315 19:35 12.12.2021
6521 Clouds 10 1016 82 10000 1.34 315 18:22 12.12.2021
6522 Clouds 12 1012 75 10000 3.64 7 16:32 12.12.2021
6523 Clouds 12 1012 74 10000 2.72 5 15:55 12.12.2021
6524 Clouds 13 1011 73 10000 2.34 12 15:28 12.12.2021
6525 Clouds 13 1011 74 10000 2.34 12 14:51 12.12.2021
6526 Clouds 12 1011 72 10000 2.65 341 14:18 12.12.2021
6527 Clouds 13 1011 66 10000 0.45 45 12:48 12.12.2021
6528 Clouds 13 1011 68 10000 1.34 340 11:59 12.12.2021
6529 Clouds 13 1011 68 10000 3.57 318 11:32 12.12.2021
6530 Clouds 13 1010 68 10000 0.45 10 10:44 12.12.2021
6531 Clouds 13 1010 67 10000 4.03 313 10:20 12.12.2021
6532 Clouds 11 1011 73 10000 0.45 345 08:46 12.12.2021
6533 Clouds 11 1010 78 10000 0.89 292 07:28 12.12.2021
6534 Clouds 10 1009 80 10000 3.13 315 05:29 12.12.2021
6535 Clouds 10 1008 82 10000 0.45 38 04:51 12.12.2021
6536 Clouds 10 1004 83 10000 0.45 33 00:57 12.12.2021
6537 Clouds 10 1005 78 10000 1.34 267 23:26 11.12.2021
6538 Clouds 10 1005 75 10000 1.34 316 22:21 11.12.2021
6539 Clouds 10 1004 79 10000 1.34 354 21:35 11.12.2021
6540 Clouds 10 1003 82 10000 6.71 315 20:19 11.12.2021
6541 Clouds 11 1002 76 10000 1.34 338 19:21 11.12.2021
6542 Clouds 10 1002 78 10000 1.34 276 18:48 11.12.2021
6543 Clouds 10 1001 85 10000 0.45 303 17:54 11.12.2021
6544 Clouds 10 1000 81 10000 2.24 23 16:39 11.12.2021
6545 Clouds 11 997 80 10000 3.13 215 15:46 11.12.2021
6546 Clouds 11 998 75 10000 2.24 54 14:46 11.12.2021
6547 Rain 9 996 87 2716 0.45 326 12:41 11.12.2021
6548 Clouds 10 996 68 10000 3.13 336 10:58 11.12.2021
6549 Clouds 8 996 75 10000 1.34 266 09:44 11.12.2021
6550 Clouds 12 993 69 10000 1.79 19 05:36 11.12.2021
6551 Clouds 11 995 70 10000 2.68 196 00:50 11.12.2021
6552 Clouds 11 997 79 10000 0.45 202 23:44 10.12.2021
6553 Clouds 10 998 89 10000 1.34 28 22:50 10.12.2021
6554 Clouds 11 998 92 10000 3.6 276 21:51 10.12.2021
6555 Clouds 12 998 92 8650 5.65 283 20:35 10.12.2021
6556 Rain 13 1002 81 10000 8.82 264 19:19 10.12.2021
6557 Clouds 13 996 90 2351 0.89 290 17:54 10.12.2021
6558 Clouds 13 997 84 4221 0.89 258 16:55 10.12.2021
6559 Clouds 13 998 80 2244 8.39 225 15:47 10.12.2021
6560 Clouds 13 998 81 2794 6.75 208 15:29 10.12.2021
6561 Clouds 12 999 84 2797 1.34 222 14:57 10.12.2021
6562 Clouds 12 1000 80 4823 0.89 214 13:50 10.12.2021
6563 Clouds 13 1001 76 10000 0.45 205 13:20 10.12.2021
6564 Clouds 13 1010 73 10000 5.82 192 12:23 10.12.2021
6565 Clouds 13 1004 69 10000 0.45 290 11:27 10.12.2021
6566 Clouds 12 1008 64 10000 3.13 315 09:54 10.12.2021
6567 Clouds 12 1005 63 10000 5.93 221 09:54 10.12.2021
6568 Clouds 10 1008 67 10000 3.58 270 08:23 10.12.2021
6569 Clouds 10 1007 69 10000 0.45 340 05:46 10.12.2021
6570 Clouds 10 1006 68 10000 2.24 317 02:47 10.12.2021
6571 Clouds 8 1006 81 10000 0.89 19 23:44 09.12.2021
6572 Clouds 9 1004 83 10000 0.45 266 22:59 09.12.2021
6573 Clouds 9 1003 81 9784 1.34 327 22:24 09.12.2021
6574 Clouds 8 1004 84 9783 10.5 277 21:48 09.12.2021
6575 Clouds 9 1011 74 10000 10.93 275 20:41 09.12.2021
6576 Clouds 9 1010 74 10000 9.64 268 20:20 09.12.2021
6577 Clouds 9 1010 73 10000 8.52 266 19:21 09.12.2021
6578 Clouds 9 1003 78 10000 8.36 269 18:35 09.12.2021
6579 Clouds 10 1002 71 10000 0.89 300 17:51 09.12.2021
6580 Clouds 10 1002 68 10000 1.79 8 17:25 09.12.2021
6581 Clouds 10 1002 68 10000 1.79 8 17:25 09.12.2021
6582 Rain 11 1002 66 10000 0.89 264 16:53 09.12.2021
6583 Clouds 12 1001 63 10000 1.34 65 15:31 09.12.2021
6584 Clouds 12 1001 66 10000 1.34 319 14:44 09.12.2021
6585 Clouds 12 1000 63 10000 0.89 28 13:19 09.12.2021
6586 Clouds 13 1001 61 10000 2.24 13 12:35 09.12.2021
6587 Clouds 12 1002 64 10000 1.34 359 10:58 09.12.2021
6588 Clouds 10 1001 75 10000 5.75 237 08:49 09.12.2021
6589 Clouds 9 1003 88 6369 0.45 321 06:21 09.12.2021
6590 Clouds 12 1002 82 6527 0.89 326 02:58 09.12.2021
6591 Clear 14 1004 68 10000 0.45 325 23:43 08.12.2021
6592 Clear 14 1004 68 10000 5.81 180 23:21 08.12.2021
6593 Clear 14 1005 68 10000 0.45 4 22:46 08.12.2021
6594 Clear 14 1005 65 10000 4.02 180 21:40 08.12.2021
6595 Clear 14 1006 63 10000 2.68 315 20:59 08.12.2021
6596 Clear 15 1006 63 10000 3.13 225 19:58 08.12.2021
6597 Clear 15 1006 63 10000 3.13 225 19:58 08.12.2021
6598 Clouds 15 1006 63 10000 1.34 225 19:33 08.12.2021
6599 Clouds 15 1007 60 10000 4.47 270 18:40 08.12.2021
6600 Clouds 17 1003 56 10000 0.45 271 17:34 08.12.2021
6601 Clouds 18 1006 50 10000 1.34 203 15:49 08.12.2021
6602 Clouds 18 1006 48 10000 1.34 210 15:26 08.12.2021
6603 Clouds 18 1012 50 10000 6.71 248 14:30 08.12.2021
6604 Clouds 16 1009 66 10000 0.45 265 10:55 08.12.2021
6605 Clouds 16 1006 75 10000 4.47 196 10:31 08.12.2021
6606 Clouds 15 1009 70 10000 0.45 350 10:31 08.12.2021
6607 Clouds 12 1010 83 10000 6.71 248 08:55 08.12.2021
6608 Clear 11 1010 83 10000 3.13 248 07:25 08.12.2021
6609 Clear 10 1008 86 10000 2.21 216 02:30 08.12.2021
6610 Clouds 11 1011 81 10000 1.34 315 23:33 07.12.2021
6611 Clouds 13 1009 77 10000 2.97 315 21:43 07.12.2021
6612 Clouds 13 1009 78 10000 3.9 324 21:23 07.12.2021
6613 Clear 13 1009 79 10000 0.45 329 20:20 07.12.2021
6614 Clouds 13 1008 81 10000 6.03 324 18:43 07.12.2021
6615 Clouds 13 1008 89 10000 8.56 315 17:52 07.12.2021
6616 Clouds 13 1008 89 10000 9.16 304 17:19 07.12.2021
6617 Clouds 12 1010 93 10000 4.92 315 16:31 07.12.2021
6618 Clouds 12 1007 92 10000 9.06 301 15:33 07.12.2021
6619 Clouds 12 1008 85 10000 0.45 336 14:18 07.12.2021
6620 Clouds 12 1006 73 10000 0.89 314 12:49 07.12.2021
6621 Clouds 13 1007 57 10000 8.69 300 11:29 07.12.2021
6622 Clouds 13 1007 53 10000 2.24 296 10:33 07.12.2021
6623 Clear 12 1009 63 10000 5.36 292 08:26 07.12.2021
6624 Clouds 11 1008 64 10000 1.34 227 06:20 07.12.2021
6625 Clouds 11 1007 63 10000 0.89 307 05:37 07.12.2021
6626 Clouds 10 1002 90 10000 0.89 2 23:47 06.12.2021
6627 Rain 9 1002 90 7304 0.89 356 22:57 06.12.2021
6628 Clouds 10 1001 90 7304 3.58 315 22:35 06.12.2021
6629 Clouds 9 1000 93 10000 1.34 341 21:51 06.12.2021
6630 Clouds 9 999 91 10000 0.45 346 20:34 06.12.2021
6631 Clouds 9 999 90 4983 0.45 29 19:56 06.12.2021
6632 Clouds 9 997 86 6256 0.45 349 19:21 06.12.2021
6633 Clouds 9 996 84 9315 5.51 262 18:28 06.12.2021
6634 Clouds 9 996 86 9315 5.51 262 17:40 06.12.2021
6635 Clouds 8 998 83 10000 4.47 315 16:48 06.12.2021
6636 Clouds 10 998 71 10000 5.36 315 15:39 06.12.2021
6637 Clouds 11 995 70 10000 1.34 68 13:46 06.12.2021
6638 Clouds 12 995 71 10000 7.8 271 12:39 06.12.2021